<?xml version="1.0" encoding="utf-8"?>
<gpx xmlns:xsi="http://www.w3.org/2001/XMLSchema-instance" xmlns:xsd="http://www.w3.org/2001/XMLSchema" version="1.1" creator="Shapelink.com" xmlns="http://www.topografix.com/GPX/1/1" xmlns:gpxtpx="http://www.garmin.com/xmlschemas/TrackPointExtension/v1">
  <metadata>
    <name>Sykling 20.14 km, 2013-05-11</name>
    <desc></desc>
    <author><name>Mikael Blom</name></author> 
    <time>2013-05-11T15:43:51Z</time>
  </metadata>
  <trk>
    <name>Sykling 20.14 km, 2013-05-11</name>
    <trkseg>
      <trkpt lat="59.8468894" lon="17.6375553">
        <ele>21.767</ele>
        <time>2013-05-11T15:43:51Z</time>
      </trkpt>
      <trkpt lat="59.8468654" lon="17.6375632">
        <ele>22.2476</ele>
        <time>2013-05-11T15:43:52Z</time>
      </trkpt>
      <trkpt lat="59.8468385" lon="17.6375752">
        <ele>22.7283</ele>
        <time>2013-05-11T15:43:53Z</time>
      </trkpt>
      <trkpt lat="59.8468088" lon="17.6375841">
        <ele>22.7283</ele>
        <time>2013-05-11T15:43:54Z</time>
      </trkpt>
      <trkpt lat="59.8467806" lon="17.6375892">
        <ele>21.767</ele>
        <time>2013-05-11T15:43:55Z</time>
      </trkpt>
      <trkpt lat="59.8467532" lon="17.6375952">
        <ele>21.2864</ele>
        <time>2013-05-11T15:43:56Z</time>
      </trkpt>
      <trkpt lat="59.8467266" lon="17.6375996">
        <ele>21.767</ele>
        <time>2013-05-11T15:43:57Z</time>
      </trkpt>
      <trkpt lat="59.8466973" lon="17.637604">
        <ele>21.2864</ele>
        <time>2013-05-11T15:43:58Z</time>
      </trkpt>
      <trkpt lat="59.8466672" lon="17.6376146">
        <ele>21.2864</ele>
        <time>2013-05-11T15:43:59Z</time>
      </trkpt>
      <trkpt lat="59.8466332" lon="17.6376289">
        <ele>20.8057</ele>
        <time>2013-05-11T15:44:00Z</time>
      </trkpt>
      <trkpt lat="59.8465944" lon="17.6376456">
        <ele>20.8057</ele>
        <time>2013-05-11T15:44:01Z</time>
      </trkpt>
      <trkpt lat="59.8465565" lon="17.6376603">
        <ele>21.2864</ele>
        <time>2013-05-11T15:44:02Z</time>
      </trkpt>
      <trkpt lat="59.8465176" lon="17.6376802">
        <ele>21.2864</ele>
        <time>2013-05-11T15:44:03Z</time>
      </trkpt>
      <trkpt lat="59.8464815" lon="17.637714">
        <ele>21.767</ele>
        <time>2013-05-11T15:44:04Z</time>
      </trkpt>
      <trkpt lat="59.8464524" lon="17.6377638">
        <ele>22.7283</ele>
        <time>2013-05-11T15:44:05Z</time>
      </trkpt>
      <trkpt lat="59.8464312" lon="17.6378195">
        <ele>22.7283</ele>
        <time>2013-05-11T15:44:06Z</time>
      </trkpt>
      <trkpt lat="59.8464131" lon="17.6378799">
        <ele>23.209</ele>
        <time>2013-05-11T15:44:07Z</time>
      </trkpt>
      <trkpt lat="59.8464001" lon="17.6379428">
        <ele>23.209</ele>
        <time>2013-05-11T15:44:08Z</time>
      </trkpt>
      <trkpt lat="59.8463939" lon="17.6380113">
        <ele>23.209</ele>
        <time>2013-05-11T15:44:09Z</time>
      </trkpt>
      <trkpt lat="59.8463949" lon="17.6380834">
        <ele>23.209</ele>
        <time>2013-05-11T15:44:10Z</time>
      </trkpt>
      <trkpt lat="59.8463997" lon="17.6381554">
        <ele>23.209</ele>
        <time>2013-05-11T15:44:11Z</time>
      </trkpt>
      <trkpt lat="59.8464023" lon="17.638222">
        <ele>22.7283</ele>
        <time>2013-05-11T15:44:12Z</time>
      </trkpt>
      <trkpt lat="59.8464051" lon="17.6382862">
        <ele>22.7283</ele>
        <time>2013-05-11T15:44:13Z</time>
      </trkpt>
      <trkpt lat="59.8464078" lon="17.638349">
        <ele>22.7283</ele>
        <time>2013-05-11T15:44:14Z</time>
      </trkpt>
      <trkpt lat="59.8464105" lon="17.6384082">
        <ele>22.7283</ele>
        <time>2013-05-11T15:44:15Z</time>
      </trkpt>
      <trkpt lat="59.8464119" lon="17.6384615">
        <ele>22.7283</ele>
        <time>2013-05-11T15:44:16Z</time>
      </trkpt>
      <trkpt lat="59.8464145" lon="17.6385043">
        <ele>22.7283</ele>
        <time>2013-05-11T15:44:17Z</time>
      </trkpt>
      <trkpt lat="59.8464166" lon="17.6385383">
        <ele>22.7283</ele>
        <time>2013-05-11T15:44:18Z</time>
      </trkpt>
      <trkpt lat="59.8464217" lon="17.6385698">
        <ele>23.6896</ele>
        <time>2013-05-11T15:44:19Z</time>
      </trkpt>
      <trkpt lat="59.846424" lon="17.6386041">
        <ele>24.651</ele>
        <time>2013-05-11T15:44:20Z</time>
      </trkpt>
      <trkpt lat="59.8464251" lon="17.6386361">
        <ele>24.651</ele>
        <time>2013-05-11T15:44:21Z</time>
      </trkpt>
      <trkpt lat="59.8464256" lon="17.638666">
        <ele>23.6896</ele>
        <time>2013-05-11T15:44:22Z</time>
      </trkpt>
      <trkpt lat="59.8464261" lon="17.6386932">
        <ele>23.209</ele>
        <time>2013-05-11T15:44:23Z</time>
      </trkpt>
      <trkpt lat="59.8464255" lon="17.6387179">
        <ele>23.209</ele>
        <time>2013-05-11T15:44:24Z</time>
      </trkpt>
      <trkpt lat="59.8464296" lon="17.638752">
        <ele>23.209</ele>
        <time>2013-05-11T15:44:25Z</time>
      </trkpt>
      <trkpt lat="59.8464338" lon="17.6387925">
        <ele>22.7283</ele>
        <time>2013-05-11T15:44:26Z</time>
      </trkpt>
      <trkpt lat="59.8464396" lon="17.6388429">
        <ele>22.7283</ele>
        <time>2013-05-11T15:44:27Z</time>
      </trkpt>
      <trkpt lat="59.8464472" lon="17.6389027">
        <ele>22.2476</ele>
        <time>2013-05-11T15:44:28Z</time>
      </trkpt>
      <trkpt lat="59.8464538" lon="17.6389655">
        <ele>21.2864</ele>
        <time>2013-05-11T15:44:29Z</time>
      </trkpt>
      <trkpt lat="59.8464593" lon="17.6390318">
        <ele>21.2864</ele>
        <time>2013-05-11T15:44:30Z</time>
      </trkpt>
      <trkpt lat="59.8464618" lon="17.6391042">
        <ele>20.8057</ele>
        <time>2013-05-11T15:44:31Z</time>
      </trkpt>
      <trkpt lat="59.8464629" lon="17.6391738">
        <ele>20.8057</ele>
        <time>2013-05-11T15:44:32Z</time>
      </trkpt>
      <trkpt lat="59.8464629" lon="17.6392442">
        <ele>20.8057</ele>
        <time>2013-05-11T15:44:33Z</time>
      </trkpt>
      <trkpt lat="59.8464597" lon="17.6393209">
        <ele>20.325</ele>
        <time>2013-05-11T15:44:34Z</time>
      </trkpt>
      <trkpt lat="59.8464627" lon="17.6393939">
        <ele>21.767</ele>
        <time>2013-05-11T15:44:35Z</time>
      </trkpt>
      <trkpt lat="59.8464623" lon="17.6394686">
        <ele>22.7283</ele>
        <time>2013-05-11T15:44:36Z</time>
      </trkpt>
      <trkpt lat="59.8464592" lon="17.6395426">
        <ele>23.209</ele>
        <time>2013-05-11T15:44:37Z</time>
      </trkpt>
      <trkpt lat="59.8464409" lon="17.6396181">
        <ele>22.7283</ele>
        <time>2013-05-11T15:44:38Z</time>
      </trkpt>
      <trkpt lat="59.8464177" lon="17.6396856">
        <ele>21.2864</ele>
        <time>2013-05-11T15:44:39Z</time>
      </trkpt>
      <trkpt lat="59.8464018" lon="17.6397508">
        <ele>21.2864</ele>
        <time>2013-05-11T15:44:40Z</time>
      </trkpt>
      <trkpt lat="59.8463891" lon="17.6398291">
        <ele>21.2864</ele>
        <time>2013-05-11T15:44:41Z</time>
      </trkpt>
      <trkpt lat="59.846389" lon="17.639918">
        <ele>21.2864</ele>
        <time>2013-05-11T15:44:42Z</time>
      </trkpt>
      <trkpt lat="59.8463981" lon="17.6400096">
        <ele>20.8057</ele>
        <time>2013-05-11T15:44:43Z</time>
      </trkpt>
      <trkpt lat="59.8464172" lon="17.6400985">
        <ele>19.8444</ele>
        <time>2013-05-11T15:44:44Z</time>
      </trkpt>
      <trkpt lat="59.8464356" lon="17.6401891">
        <ele>19.3638</ele>
        <time>2013-05-11T15:44:45Z</time>
      </trkpt>
      <trkpt lat="59.8464504" lon="17.6402848">
        <ele>19.3638</ele>
        <time>2013-05-11T15:44:46Z</time>
      </trkpt>
      <trkpt lat="59.8464652" lon="17.6403852">
        <ele>18.8831</ele>
        <time>2013-05-11T15:44:47Z</time>
      </trkpt>
      <trkpt lat="59.8464778" lon="17.6404836">
        <ele>18.4023</ele>
        <time>2013-05-11T15:44:48Z</time>
      </trkpt>
      <trkpt lat="59.8464919" lon="17.6405857">
        <ele>17.9218</ele>
        <time>2013-05-11T15:44:49Z</time>
      </trkpt>
      <trkpt lat="59.8465056" lon="17.640692">
        <ele>17.9218</ele>
        <time>2013-05-11T15:44:50Z</time>
      </trkpt>
      <trkpt lat="59.8465247" lon="17.6408024">
        <ele>17.4412</ele>
        <time>2013-05-11T15:44:51Z</time>
      </trkpt>
      <trkpt lat="59.8465426" lon="17.6409179">
        <ele>16.4797</ele>
        <time>2013-05-11T15:44:52Z</time>
      </trkpt>
      <trkpt lat="59.8465631" lon="17.6410354">
        <ele>16.9604</ele>
        <time>2013-05-11T15:44:53Z</time>
      </trkpt>
      <trkpt lat="59.8465882" lon="17.6411541">
        <ele>16.4797</ele>
        <time>2013-05-11T15:44:54Z</time>
      </trkpt>
      <trkpt lat="59.846612" lon="17.6412788">
        <ele>15.999</ele>
        <time>2013-05-11T15:44:55Z</time>
      </trkpt>
      <trkpt lat="59.8466404" lon="17.6414029">
        <ele>15.999</ele>
        <time>2013-05-11T15:44:56Z</time>
      </trkpt>
      <trkpt lat="59.8466774" lon="17.6415336">
        <ele>15.5184</ele>
        <time>2013-05-11T15:44:57Z</time>
      </trkpt>
      <trkpt lat="59.8467207" lon="17.6416627">
        <ele>15.999</ele>
        <time>2013-05-11T15:44:58Z</time>
      </trkpt>
      <trkpt lat="59.8467631" lon="17.64179">
        <ele>15.5184</ele>
        <time>2013-05-11T15:44:59Z</time>
      </trkpt>
      <trkpt lat="59.846813" lon="17.641914">
        <ele>15.999</ele>
        <time>2013-05-11T15:45:00Z</time>
      </trkpt>
      <trkpt lat="59.8468622" lon="17.6420356">
        <ele>15.0377</ele>
        <time>2013-05-11T15:45:01Z</time>
      </trkpt>
      <trkpt lat="59.846914" lon="17.6421535">
        <ele>14.0764</ele>
        <time>2013-05-11T15:45:02Z</time>
      </trkpt>
      <trkpt lat="59.8469679" lon="17.6422668">
        <ele>14.0764</ele>
        <time>2013-05-11T15:45:03Z</time>
      </trkpt>
      <trkpt lat="59.8470259" lon="17.6423683">
        <ele>15.5184</ele>
        <time>2013-05-11T15:45:04Z</time>
      </trkpt>
      <trkpt lat="59.8470906" lon="17.6424652">
        <ele>16.4797</ele>
        <time>2013-05-11T15:45:05Z</time>
      </trkpt>
      <trkpt lat="59.8471606" lon="17.6425553">
        <ele>17.4412</ele>
        <time>2013-05-11T15:45:06Z</time>
      </trkpt>
      <trkpt lat="59.8472352" lon="17.6426372">
        <ele>18.8831</ele>
        <time>2013-05-11T15:45:07Z</time>
      </trkpt>
      <trkpt lat="59.8473112" lon="17.6427202">
        <ele>19.8444</ele>
        <time>2013-05-11T15:45:08Z</time>
      </trkpt>
      <trkpt lat="59.847388" lon="17.6428015">
        <ele>19.8444</ele>
        <time>2013-05-11T15:45:09Z</time>
      </trkpt>
      <trkpt lat="59.8474665" lon="17.6428832">
        <ele>19.3638</ele>
        <time>2013-05-11T15:45:10Z</time>
      </trkpt>
      <trkpt lat="59.847545" lon="17.6429666">
        <ele>17.4412</ele>
        <time>2013-05-11T15:45:11Z</time>
      </trkpt>
      <trkpt lat="59.8476236" lon="17.6430568">
        <ele>17.4412</ele>
        <time>2013-05-11T15:45:12Z</time>
      </trkpt>
      <trkpt lat="59.8477039" lon="17.6431454">
        <ele>17.4412</ele>
        <time>2013-05-11T15:45:13Z</time>
      </trkpt>
      <trkpt lat="59.8477848" lon="17.6432317">
        <ele>17.4412</ele>
        <time>2013-05-11T15:45:14Z</time>
      </trkpt>
      <trkpt lat="59.847863" lon="17.6433273">
        <ele>17.4412</ele>
        <time>2013-05-11T15:45:15Z</time>
      </trkpt>
      <trkpt lat="59.8479412" lon="17.6434231">
        <ele>17.9218</ele>
        <time>2013-05-11T15:45:16Z</time>
      </trkpt>
      <trkpt lat="59.8480318" lon="17.6434871">
        <ele>18.4023</ele>
        <time>2013-05-11T15:45:17Z</time>
      </trkpt>
      <trkpt lat="59.8481204" lon="17.6435632">
        <ele>18.8831</ele>
        <time>2013-05-11T15:45:18Z</time>
      </trkpt>
      <trkpt lat="59.8482049" lon="17.6436437">
        <ele>18.4023</ele>
        <time>2013-05-11T15:45:19Z</time>
      </trkpt>
      <trkpt lat="59.8482891" lon="17.6437235">
        <ele>18.8831</ele>
        <time>2013-05-11T15:45:20Z</time>
      </trkpt>
      <trkpt lat="59.8483715" lon="17.643794">
        <ele>18.4023</ele>
        <time>2013-05-11T15:45:21Z</time>
      </trkpt>
      <trkpt lat="59.8484525" lon="17.6438631">
        <ele>18.4023</ele>
        <time>2013-05-11T15:45:22Z</time>
      </trkpt>
      <trkpt lat="59.8485329" lon="17.6439213">
        <ele>17.4412</ele>
        <time>2013-05-11T15:45:23Z</time>
      </trkpt>
      <trkpt lat="59.8486128" lon="17.6439756">
        <ele>16.4797</ele>
        <time>2013-05-11T15:45:24Z</time>
      </trkpt>
      <trkpt lat="59.8486942" lon="17.6440199">
        <ele>15.5184</ele>
        <time>2013-05-11T15:45:25Z</time>
      </trkpt>
      <trkpt lat="59.8487766" lon="17.6440482">
        <ele>15.0377</ele>
        <time>2013-05-11T15:45:26Z</time>
      </trkpt>
      <trkpt lat="59.8488661" lon="17.6440627">
        <ele>14.557</ele>
        <time>2013-05-11T15:45:27Z</time>
      </trkpt>
      <trkpt lat="59.8489447" lon="17.6440602">
        <ele>13.5958</ele>
        <time>2013-05-11T15:45:28Z</time>
      </trkpt>
      <trkpt lat="59.8490104" lon="17.6441031">
        <ele>13.1151</ele>
        <time>2013-05-11T15:45:29Z</time>
      </trkpt>
      <trkpt lat="59.8490912" lon="17.6440855">
        <ele>12.6344</ele>
        <time>2013-05-11T15:45:30Z</time>
      </trkpt>
      <trkpt lat="59.8491761" lon="17.6440566">
        <ele>12.6344</ele>
        <time>2013-05-11T15:45:31Z</time>
      </trkpt>
      <trkpt lat="59.8492593" lon="17.6440291">
        <ele>12.6344</ele>
        <time>2013-05-11T15:45:32Z</time>
      </trkpt>
      <trkpt lat="59.8493372" lon="17.6440056">
        <ele>12.6344</ele>
        <time>2013-05-11T15:45:33Z</time>
      </trkpt>
      <trkpt lat="59.8494116" lon="17.6439649">
        <ele>12.6344</ele>
        <time>2013-05-11T15:45:34Z</time>
      </trkpt>
      <trkpt lat="59.84948" lon="17.6439185">
        <ele>13.1151</ele>
        <time>2013-05-11T15:45:35Z</time>
      </trkpt>
      <trkpt lat="59.8495442" lon="17.6438684">
        <ele>12.6344</ele>
        <time>2013-05-11T15:45:36Z</time>
      </trkpt>
      <trkpt lat="59.8495967" lon="17.6438281">
        <ele>11.1925</ele>
        <time>2013-05-11T15:45:37Z</time>
      </trkpt>
      <trkpt lat="59.849651" lon="17.6437944">
        <ele>9.2699</ele>
        <time>2013-05-11T15:45:38Z</time>
      </trkpt>
      <trkpt lat="59.8497054" lon="17.6437695">
        <ele>8.30859</ele>
        <time>2013-05-11T15:45:39Z</time>
      </trkpt>
      <trkpt lat="59.8497589" lon="17.6437386">
        <ele>6.86646</ele>
        <time>2013-05-11T15:45:40Z</time>
      </trkpt>
      <trkpt lat="59.8498094" lon="17.6437017">
        <ele>5.90527</ele>
        <time>2013-05-11T15:45:41Z</time>
      </trkpt>
      <trkpt lat="59.8498608" lon="17.6436534">
        <ele>5.42456</ele>
        <time>2013-05-11T15:45:42Z</time>
      </trkpt>
      <trkpt lat="59.8499111" lon="17.6436031">
        <ele>4.46326</ele>
        <time>2013-05-11T15:45:43Z</time>
      </trkpt>
      <trkpt lat="59.8499662" lon="17.6435453">
        <ele>3.50195</ele>
        <time>2013-05-11T15:45:44Z</time>
      </trkpt>
      <trkpt lat="59.8500137" lon="17.6434888">
        <ele>2.54065</ele>
        <time>2013-05-11T15:45:45Z</time>
      </trkpt>
      <trkpt lat="59.8500657" lon="17.6434265">
        <ele>3.02124</ele>
        <time>2013-05-11T15:45:46Z</time>
      </trkpt>
      <trkpt lat="59.8501173" lon="17.6433582">
        <ele>2.54065</ele>
        <time>2013-05-11T15:45:47Z</time>
      </trkpt>
      <trkpt lat="59.8501729" lon="17.6432951">
        <ele>2.06006</ele>
        <time>2013-05-11T15:45:48Z</time>
      </trkpt>
      <trkpt lat="59.8502236" lon="17.6432283">
        <ele>0.618042</ele>
        <time>2013-05-11T15:45:49Z</time>
      </trkpt>
      <trkpt lat="59.8502744" lon="17.643161">
        <ele>0.137451</ele>
        <time>2013-05-11T15:45:50Z</time>
      </trkpt>
      <trkpt lat="59.850324" lon="17.6430985">
        <ele>0</ele>
        <time>2013-05-11T15:45:51Z</time>
      </trkpt>
      <trkpt lat="59.8503813" lon="17.6430354">
        <ele>0.618042</ele>
        <time>2013-05-11T15:45:52Z</time>
      </trkpt>
      <trkpt lat="59.8504388" lon="17.6429666">
        <ele>0.618042</ele>
        <time>2013-05-11T15:45:53Z</time>
      </trkpt>
      <trkpt lat="59.8504951" lon="17.6428981">
        <ele>0</ele>
        <time>2013-05-11T15:45:54Z</time>
      </trkpt>
      <trkpt lat="59.850553" lon="17.6428338">
        <ele>0</ele>
        <time>2013-05-11T15:45:55Z</time>
      </trkpt>
      <trkpt lat="59.8506131" lon="17.6427748">
        <ele>0.137451</ele>
        <time>2013-05-11T15:45:56Z</time>
      </trkpt>
      <trkpt lat="59.8506738" lon="17.6427164">
        <ele>0.618042</ele>
        <time>2013-05-11T15:45:57Z</time>
      </trkpt>
      <trkpt lat="59.85074" lon="17.6426534">
        <ele>1.57935</ele>
        <time>2013-05-11T15:45:58Z</time>
      </trkpt>
      <trkpt lat="59.8508058" lon="17.6425803">
        <ele>2.54065</ele>
        <time>2013-05-11T15:45:59Z</time>
      </trkpt>
      <trkpt lat="59.8508747" lon="17.6425035">
        <ele>3.98267</ele>
        <time>2013-05-11T15:46:00Z</time>
      </trkpt>
      <trkpt lat="59.8509393" lon="17.6424283">
        <ele>4.46326</ele>
        <time>2013-05-11T15:46:01Z</time>
      </trkpt>
      <trkpt lat="59.8510015" lon="17.6423558">
        <ele>4.94385</ele>
        <time>2013-05-11T15:46:02Z</time>
      </trkpt>
      <trkpt lat="59.8510591" lon="17.6422797">
        <ele>4.46326</ele>
        <time>2013-05-11T15:46:03Z</time>
      </trkpt>
      <trkpt lat="59.8511151" lon="17.6422061">
        <ele>4.46326</ele>
        <time>2013-05-11T15:46:04Z</time>
      </trkpt>
      <trkpt lat="59.8511705" lon="17.6421421">
        <ele>3.98267</ele>
        <time>2013-05-11T15:46:05Z</time>
      </trkpt>
      <trkpt lat="59.851225" lon="17.6420715">
        <ele>3.50195</ele>
        <time>2013-05-11T15:46:06Z</time>
      </trkpt>
      <trkpt lat="59.8512808" lon="17.6420166">
        <ele>4.46326</ele>
        <time>2013-05-11T15:46:07Z</time>
      </trkpt>
      <trkpt lat="59.8513321" lon="17.6419555">
        <ele>3.50195</ele>
        <time>2013-05-11T15:46:08Z</time>
      </trkpt>
      <trkpt lat="59.8513827" lon="17.6418888">
        <ele>3.50195</ele>
        <time>2013-05-11T15:46:09Z</time>
      </trkpt>
      <trkpt lat="59.8514334" lon="17.6418219">
        <ele>3.02124</ele>
        <time>2013-05-11T15:46:10Z</time>
      </trkpt>
      <trkpt lat="59.8514852" lon="17.6417545">
        <ele>2.06006</ele>
        <time>2013-05-11T15:46:11Z</time>
      </trkpt>
      <trkpt lat="59.8515378" lon="17.6416799">
        <ele>1.57935</ele>
        <time>2013-05-11T15:46:12Z</time>
      </trkpt>
      <trkpt lat="59.8515921" lon="17.6416023">
        <ele>1.09863</ele>
        <time>2013-05-11T15:46:13Z</time>
      </trkpt>
      <trkpt lat="59.8516503" lon="17.6415291">
        <ele>0.618042</ele>
        <time>2013-05-11T15:46:14Z</time>
      </trkpt>
      <trkpt lat="59.851714" lon="17.6414632">
        <ele>0.137451</ele>
        <time>2013-05-11T15:46:15Z</time>
      </trkpt>
      <trkpt lat="59.8517786" lon="17.6413981">
        <ele>0</ele>
        <time>2013-05-11T15:46:16Z</time>
      </trkpt>
      <trkpt lat="59.8518423" lon="17.6413316">
        <ele>0</ele>
        <time>2013-05-11T15:46:17Z</time>
      </trkpt>
      <trkpt lat="59.8519061" lon="17.6412686">
        <ele>0.618042</ele>
        <time>2013-05-11T15:46:18Z</time>
      </trkpt>
      <trkpt lat="59.8519657" lon="17.6412109">
        <ele>1.09863</ele>
        <time>2013-05-11T15:46:19Z</time>
      </trkpt>
      <trkpt lat="59.8520261" lon="17.6411546">
        <ele>1.57935</ele>
        <time>2013-05-11T15:46:20Z</time>
      </trkpt>
      <trkpt lat="59.8520846" lon="17.6410936">
        <ele>1.57935</ele>
        <time>2013-05-11T15:46:21Z</time>
      </trkpt>
      <trkpt lat="59.8521397" lon="17.6410319">
        <ele>1.57935</ele>
        <time>2013-05-11T15:46:22Z</time>
      </trkpt>
      <trkpt lat="59.8521945" lon="17.6409639">
        <ele>1.57935</ele>
        <time>2013-05-11T15:46:23Z</time>
      </trkpt>
      <trkpt lat="59.85225" lon="17.6409007">
        <ele>1.09863</ele>
        <time>2013-05-11T15:46:24Z</time>
      </trkpt>
      <trkpt lat="59.8523035" lon="17.6408307">
        <ele>1.57935</ele>
        <time>2013-05-11T15:46:25Z</time>
      </trkpt>
      <trkpt lat="59.8523608" lon="17.6407599">
        <ele>2.06006</ele>
        <time>2013-05-11T15:46:26Z</time>
      </trkpt>
      <trkpt lat="59.8524152" lon="17.640683">
        <ele>2.06006</ele>
        <time>2013-05-11T15:46:27Z</time>
      </trkpt>
      <trkpt lat="59.852467" lon="17.6406066">
        <ele>2.06006</ele>
        <time>2013-05-11T15:46:28Z</time>
      </trkpt>
      <trkpt lat="59.8525213" lon="17.6405394">
        <ele>2.06006</ele>
        <time>2013-05-11T15:46:29Z</time>
      </trkpt>
      <trkpt lat="59.852573" lon="17.640479">
        <ele>2.54065</ele>
        <time>2013-05-11T15:46:30Z</time>
      </trkpt>
      <trkpt lat="59.8526251" lon="17.6404247">
        <ele>2.54065</ele>
        <time>2013-05-11T15:46:31Z</time>
      </trkpt>
      <trkpt lat="59.8526794" lon="17.6403717">
        <ele>2.54065</ele>
        <time>2013-05-11T15:46:32Z</time>
      </trkpt>
      <trkpt lat="59.8527341" lon="17.6403212">
        <ele>2.54065</ele>
        <time>2013-05-11T15:46:33Z</time>
      </trkpt>
      <trkpt lat="59.8527867" lon="17.6402826">
        <ele>3.50195</ele>
        <time>2013-05-11T15:46:34Z</time>
      </trkpt>
      <trkpt lat="59.852837" lon="17.6402342">
        <ele>3.50195</ele>
        <time>2013-05-11T15:46:35Z</time>
      </trkpt>
      <trkpt lat="59.8528845" lon="17.6401775">
        <ele>3.50195</ele>
        <time>2013-05-11T15:46:36Z</time>
      </trkpt>
      <trkpt lat="59.8529307" lon="17.640118">
        <ele>3.02124</ele>
        <time>2013-05-11T15:46:37Z</time>
      </trkpt>
      <trkpt lat="59.8529762" lon="17.6400642">
        <ele>3.02124</ele>
        <time>2013-05-11T15:46:38Z</time>
      </trkpt>
      <trkpt lat="59.8530198" lon="17.6400118">
        <ele>1.57935</ele>
        <time>2013-05-11T15:46:39Z</time>
      </trkpt>
      <trkpt lat="59.8530641" lon="17.6399566">
        <ele>1.57935</ele>
        <time>2013-05-11T15:46:40Z</time>
      </trkpt>
      <trkpt lat="59.8531078" lon="17.6398917">
        <ele>1.57935</ele>
        <time>2013-05-11T15:46:41Z</time>
      </trkpt>
      <trkpt lat="59.8531518" lon="17.6398332">
        <ele>1.09863</ele>
        <time>2013-05-11T15:46:42Z</time>
      </trkpt>
      <trkpt lat="59.8531959" lon="17.63979">
        <ele>1.57935</ele>
        <time>2013-05-11T15:46:43Z</time>
      </trkpt>
      <trkpt lat="59.8532394" lon="17.6397467">
        <ele>2.06006</ele>
        <time>2013-05-11T15:46:44Z</time>
      </trkpt>
      <trkpt lat="59.8532802" lon="17.6397082">
        <ele>1.57935</ele>
        <time>2013-05-11T15:46:45Z</time>
      </trkpt>
      <trkpt lat="59.8533165" lon="17.6396716">
        <ele>1.09863</ele>
        <time>2013-05-11T15:46:46Z</time>
      </trkpt>
      <trkpt lat="59.8533543" lon="17.6396312">
        <ele>2.06006</ele>
        <time>2013-05-11T15:46:47Z</time>
      </trkpt>
      <trkpt lat="59.853385" lon="17.6395985">
        <ele>0.618042</ele>
        <time>2013-05-11T15:46:48Z</time>
      </trkpt>
      <trkpt lat="59.8534217" lon="17.639554">
        <ele>1.57935</ele>
        <time>2013-05-11T15:46:49Z</time>
      </trkpt>
      <trkpt lat="59.853459" lon="17.6395012">
        <ele>1.09863</ele>
        <time>2013-05-11T15:46:50Z</time>
      </trkpt>
      <trkpt lat="59.8534973" lon="17.6394564">
        <ele>1.09863</ele>
        <time>2013-05-11T15:46:51Z</time>
      </trkpt>
      <trkpt lat="59.8535348" lon="17.6393996">
        <ele>1.09863</ele>
        <time>2013-05-11T15:46:52Z</time>
      </trkpt>
      <trkpt lat="59.8535771" lon="17.639343">
        <ele>2.06006</ele>
        <time>2013-05-11T15:46:53Z</time>
      </trkpt>
      <trkpt lat="59.853616" lon="17.639294">
        <ele>3.02124</ele>
        <time>2013-05-11T15:46:54Z</time>
      </trkpt>
      <trkpt lat="59.8536477" lon="17.6392394">
        <ele>3.50195</ele>
        <time>2013-05-11T15:46:55Z</time>
      </trkpt>
      <trkpt lat="59.8536795" lon="17.6392019">
        <ele>4.46326</ele>
        <time>2013-05-11T15:46:56Z</time>
      </trkpt>
      <trkpt lat="59.8537129" lon="17.6391702">
        <ele>4.46326</ele>
        <time>2013-05-11T15:46:57Z</time>
      </trkpt>
      <trkpt lat="59.8537494" lon="17.6391466">
        <ele>4.94385</ele>
        <time>2013-05-11T15:46:58Z</time>
      </trkpt>
      <trkpt lat="59.853779" lon="17.6391209">
        <ele>4.94385</ele>
        <time>2013-05-11T15:46:59Z</time>
      </trkpt>
      <trkpt lat="59.8538082" lon="17.6391234">
        <ele>4.94385</ele>
        <time>2013-05-11T15:47:00Z</time>
      </trkpt>
      <trkpt lat="59.8538387" lon="17.6391545">
        <ele>4.46326</ele>
        <time>2013-05-11T15:47:01Z</time>
      </trkpt>
      <trkpt lat="59.8538701" lon="17.6392039">
        <ele>5.42456</ele>
        <time>2013-05-11T15:47:02Z</time>
      </trkpt>
      <trkpt lat="59.8538962" lon="17.6392766">
        <ele>4.94385</ele>
        <time>2013-05-11T15:47:03Z</time>
      </trkpt>
      <trkpt lat="59.8539179" lon="17.639355">
        <ele>5.90527</ele>
        <time>2013-05-11T15:47:04Z</time>
      </trkpt>
      <trkpt lat="59.853933" lon="17.6394431">
        <ele>4.94385</ele>
        <time>2013-05-11T15:47:05Z</time>
      </trkpt>
      <trkpt lat="59.8539442" lon="17.639536">
        <ele>3.50195</ele>
        <time>2013-05-11T15:47:06Z</time>
      </trkpt>
      <trkpt lat="59.8539584" lon="17.6396222">
        <ele>2.54065</ele>
        <time>2013-05-11T15:47:07Z</time>
      </trkpt>
      <trkpt lat="59.853976" lon="17.6397002">
        <ele>3.50195</ele>
        <time>2013-05-11T15:47:08Z</time>
      </trkpt>
      <trkpt lat="59.8539979" lon="17.6397752">
        <ele>4.46326</ele>
        <time>2013-05-11T15:47:09Z</time>
      </trkpt>
      <trkpt lat="59.8540203" lon="17.6398556">
        <ele>4.94385</ele>
        <time>2013-05-11T15:47:10Z</time>
      </trkpt>
      <trkpt lat="59.8540418" lon="17.6399364">
        <ele>5.90527</ele>
        <time>2013-05-11T15:47:11Z</time>
      </trkpt>
      <trkpt lat="59.8540611" lon="17.6400136">
        <ele>6.38586</ele>
        <time>2013-05-11T15:47:12Z</time>
      </trkpt>
      <trkpt lat="59.8540787" lon="17.6400896">
        <ele>6.86646</ele>
        <time>2013-05-11T15:47:13Z</time>
      </trkpt>
      <trkpt lat="59.8540951" lon="17.6401596">
        <ele>6.86646</ele>
        <time>2013-05-11T15:47:14Z</time>
      </trkpt>
      <trkpt lat="59.8541103" lon="17.640229">
        <ele>7.34717</ele>
        <time>2013-05-11T15:47:15Z</time>
      </trkpt>
      <trkpt lat="59.8541324" lon="17.6402967">
        <ele>7.82788</ele>
        <time>2013-05-11T15:47:16Z</time>
      </trkpt>
      <trkpt lat="59.8541479" lon="17.6403617">
        <ele>7.34717</ele>
        <time>2013-05-11T15:47:17Z</time>
      </trkpt>
      <trkpt lat="59.8541635" lon="17.6404325">
        <ele>7.34717</ele>
        <time>2013-05-11T15:47:18Z</time>
      </trkpt>
      <trkpt lat="59.8541779" lon="17.6404953">
        <ele>7.82788</ele>
        <time>2013-05-11T15:47:19Z</time>
      </trkpt>
      <trkpt lat="59.8541899" lon="17.6405574">
        <ele>7.34717</ele>
        <time>2013-05-11T15:47:20Z</time>
      </trkpt>
      <trkpt lat="59.8542045" lon="17.6406211">
        <ele>6.38586</ele>
        <time>2013-05-11T15:47:21Z</time>
      </trkpt>
      <trkpt lat="59.8542198" lon="17.6406843">
        <ele>6.38586</ele>
        <time>2013-05-11T15:47:22Z</time>
      </trkpt>
      <trkpt lat="59.8542324" lon="17.6407523">
        <ele>5.42456</ele>
        <time>2013-05-11T15:47:23Z</time>
      </trkpt>
      <trkpt lat="59.8542474" lon="17.640821">
        <ele>4.46326</ele>
        <time>2013-05-11T15:47:24Z</time>
      </trkpt>
      <trkpt lat="59.8542639" lon="17.6408868">
        <ele>3.98267</ele>
        <time>2013-05-11T15:47:25Z</time>
      </trkpt>
      <trkpt lat="59.8542794" lon="17.6409511">
        <ele>3.50195</ele>
        <time>2013-05-11T15:47:26Z</time>
      </trkpt>
      <trkpt lat="59.8542923" lon="17.6410122">
        <ele>3.50195</ele>
        <time>2013-05-11T15:47:27Z</time>
      </trkpt>
      <trkpt lat="59.8543044" lon="17.6410736">
        <ele>3.50195</ele>
        <time>2013-05-11T15:47:28Z</time>
      </trkpt>
      <trkpt lat="59.8543298" lon="17.6411417">
        <ele>3.98267</ele>
        <time>2013-05-11T15:47:29Z</time>
      </trkpt>
      <trkpt lat="59.854346" lon="17.6411886">
        <ele>3.02124</ele>
        <time>2013-05-11T15:47:30Z</time>
      </trkpt>
      <trkpt lat="59.854368" lon="17.6412261">
        <ele>2.54065</ele>
        <time>2013-05-11T15:47:31Z</time>
      </trkpt>
      <trkpt lat="59.8544008" lon="17.6412534">
        <ele>2.06006</ele>
        <time>2013-05-11T15:47:32Z</time>
      </trkpt>
      <trkpt lat="59.8544364" lon="17.6412712">
        <ele>2.54065</ele>
        <time>2013-05-11T15:47:33Z</time>
      </trkpt>
      <trkpt lat="59.854469" lon="17.6412759">
        <ele>2.06006</ele>
        <time>2013-05-11T15:47:34Z</time>
      </trkpt>
      <trkpt lat="59.8545066" lon="17.6412624">
        <ele>1.57935</ele>
        <time>2013-05-11T15:47:35Z</time>
      </trkpt>
      <trkpt lat="59.8545443" lon="17.6412339">
        <ele>0.137451</ele>
        <time>2013-05-11T15:47:36Z</time>
      </trkpt>
      <trkpt lat="59.8545796" lon="17.6412045">
        <ele>0</ele>
        <time>2013-05-11T15:47:37Z</time>
      </trkpt>
      <trkpt lat="59.8546197" lon="17.6411805">
        <ele>0</ele>
        <time>2013-05-11T15:47:38Z</time>
      </trkpt>
      <trkpt lat="59.8546556" lon="17.6411697">
        <ele>0</ele>
        <time>2013-05-11T15:47:39Z</time>
      </trkpt>
      <trkpt lat="59.8546845" lon="17.6411695">
        <ele>0</ele>
        <time>2013-05-11T15:47:40Z</time>
      </trkpt>
      <trkpt lat="59.8547168" lon="17.6411826">
        <ele>0</ele>
        <time>2013-05-11T15:47:41Z</time>
      </trkpt>
      <trkpt lat="59.8547482" lon="17.6412071">
        <ele>0</ele>
        <time>2013-05-11T15:47:42Z</time>
      </trkpt>
      <trkpt lat="59.8547806" lon="17.6412416">
        <ele>0</ele>
        <time>2013-05-11T15:47:43Z</time>
      </trkpt>
      <trkpt lat="59.8548079" lon="17.6412814">
        <ele>0.137451</ele>
        <time>2013-05-11T15:47:44Z</time>
      </trkpt>
      <trkpt lat="59.8548326" lon="17.6413249">
        <ele>0.137451</ele>
        <time>2013-05-11T15:47:45Z</time>
      </trkpt>
      <trkpt lat="59.854853" lon="17.641378">
        <ele>0</ele>
        <time>2013-05-11T15:47:46Z</time>
      </trkpt>
      <trkpt lat="59.8548753" lon="17.6414348">
        <ele>0.618042</ele>
        <time>2013-05-11T15:47:47Z</time>
      </trkpt>
      <trkpt lat="59.8548992" lon="17.6414965">
        <ele>1.09863</ele>
        <time>2013-05-11T15:47:48Z</time>
      </trkpt>
      <trkpt lat="59.8549244" lon="17.6415616">
        <ele>1.57935</ele>
        <time>2013-05-11T15:47:49Z</time>
      </trkpt>
      <trkpt lat="59.8549483" lon="17.6416235">
        <ele>2.06006</ele>
        <time>2013-05-11T15:47:50Z</time>
      </trkpt>
      <trkpt lat="59.8549731" lon="17.6416712">
        <ele>2.06006</ele>
        <time>2013-05-11T15:47:51Z</time>
      </trkpt>
      <trkpt lat="59.8550022" lon="17.6416984">
        <ele>3.02124</ele>
        <time>2013-05-11T15:47:52Z</time>
      </trkpt>
      <trkpt lat="59.8550275" lon="17.6417258">
        <ele>3.02124</ele>
        <time>2013-05-11T15:47:53Z</time>
      </trkpt>
      <trkpt lat="59.8550478" lon="17.6417585">
        <ele>3.50195</ele>
        <time>2013-05-11T15:47:54Z</time>
      </trkpt>
      <trkpt lat="59.8550645" lon="17.6417952">
        <ele>3.50195</ele>
        <time>2013-05-11T15:47:55Z</time>
      </trkpt>
      <trkpt lat="59.8550825" lon="17.6418343">
        <ele>3.98267</ele>
        <time>2013-05-11T15:47:56Z</time>
      </trkpt>
      <trkpt lat="59.8551095" lon="17.6418638">
        <ele>3.98267</ele>
        <time>2013-05-11T15:47:57Z</time>
      </trkpt>
      <trkpt lat="59.8551392" lon="17.6418664">
        <ele>4.46326</ele>
        <time>2013-05-11T15:47:58Z</time>
      </trkpt>
      <trkpt lat="59.8551679" lon="17.6418436">
        <ele>4.94385</ele>
        <time>2013-05-11T15:47:59Z</time>
      </trkpt>
      <trkpt lat="59.8551938" lon="17.641816">
        <ele>4.94385</ele>
        <time>2013-05-11T15:48:00Z</time>
      </trkpt>
      <trkpt lat="59.8552197" lon="17.6417913">
        <ele>5.42456</ele>
        <time>2013-05-11T15:48:01Z</time>
      </trkpt>
      <trkpt lat="59.8552463" lon="17.6417647">
        <ele>4.46326</ele>
        <time>2013-05-11T15:48:02Z</time>
      </trkpt>
      <trkpt lat="59.8552701" lon="17.6417281">
        <ele>3.02124</ele>
        <time>2013-05-11T15:48:03Z</time>
      </trkpt>
      <trkpt lat="59.8552922" lon="17.6416851">
        <ele>2.54065</ele>
        <time>2013-05-11T15:48:04Z</time>
      </trkpt>
      <trkpt lat="59.8553176" lon="17.6416462">
        <ele>1.57935</ele>
        <time>2013-05-11T15:48:05Z</time>
      </trkpt>
      <trkpt lat="59.8553509" lon="17.6416082">
        <ele>1.57935</ele>
        <time>2013-05-11T15:48:06Z</time>
      </trkpt>
      <trkpt lat="59.8553876" lon="17.6415602">
        <ele>0.618042</ele>
        <time>2013-05-11T15:48:07Z</time>
      </trkpt>
      <trkpt lat="59.8554237" lon="17.6415069">
        <ele>0.137451</ele>
        <time>2013-05-11T15:48:08Z</time>
      </trkpt>
      <trkpt lat="59.8554654" lon="17.6414577">
        <ele>0</ele>
        <time>2013-05-11T15:48:09Z</time>
      </trkpt>
      <trkpt lat="59.8555076" lon="17.6414022">
        <ele>0</ele>
        <time>2013-05-11T15:48:10Z</time>
      </trkpt>
      <trkpt lat="59.8555555" lon="17.6413421">
        <ele>0</ele>
        <time>2013-05-11T15:48:11Z</time>
      </trkpt>
      <trkpt lat="59.855605" lon="17.6412764">
        <ele>0</ele>
        <time>2013-05-11T15:48:12Z</time>
      </trkpt>
      <trkpt lat="59.8556569" lon="17.6412159">
        <ele>0</ele>
        <time>2013-05-11T15:48:13Z</time>
      </trkpt>
      <trkpt lat="59.8557108" lon="17.6411575">
        <ele>0</ele>
        <time>2013-05-11T15:48:14Z</time>
      </trkpt>
      <trkpt lat="59.8557652" lon="17.6411007">
        <ele>0</ele>
        <time>2013-05-11T15:48:15Z</time>
      </trkpt>
      <trkpt lat="59.85582" lon="17.6410454">
        <ele>0</ele>
        <time>2013-05-11T15:48:16Z</time>
      </trkpt>
      <trkpt lat="59.8558689" lon="17.6409946">
        <ele>0</ele>
        <time>2013-05-11T15:48:17Z</time>
      </trkpt>
      <trkpt lat="59.8559194" lon="17.640934">
        <ele>0</ele>
        <time>2013-05-11T15:48:18Z</time>
      </trkpt>
      <trkpt lat="59.8559732" lon="17.6408661">
        <ele>0</ele>
        <time>2013-05-11T15:48:19Z</time>
      </trkpt>
      <trkpt lat="59.8560278" lon="17.6408032">
        <ele>0</ele>
        <time>2013-05-11T15:48:20Z</time>
      </trkpt>
      <trkpt lat="59.8560765" lon="17.6407408">
        <ele>0</ele>
        <time>2013-05-11T15:48:21Z</time>
      </trkpt>
      <trkpt lat="59.8561271" lon="17.640679">
        <ele>0</ele>
        <time>2013-05-11T15:48:22Z</time>
      </trkpt>
      <trkpt lat="59.8561768" lon="17.6406138">
        <ele>0</ele>
        <time>2013-05-11T15:48:23Z</time>
      </trkpt>
      <trkpt lat="59.8562221" lon="17.6405533">
        <ele>0</ele>
        <time>2013-05-11T15:48:24Z</time>
      </trkpt>
      <trkpt lat="59.8562624" lon="17.6405069">
        <ele>0</ele>
        <time>2013-05-11T15:48:25Z</time>
      </trkpt>
      <trkpt lat="59.8562921" lon="17.6404522">
        <ele>0</ele>
        <time>2013-05-11T15:48:26Z</time>
      </trkpt>
      <trkpt lat="59.8563334" lon="17.6404166">
        <ele>0</ele>
        <time>2013-05-11T15:48:27Z</time>
      </trkpt>
      <trkpt lat="59.8563768" lon="17.6403676">
        <ele>0</ele>
        <time>2013-05-11T15:48:28Z</time>
      </trkpt>
      <trkpt lat="59.8564191" lon="17.640315">
        <ele>0</ele>
        <time>2013-05-11T15:48:29Z</time>
      </trkpt>
      <trkpt lat="59.856466" lon="17.6402211">
        <ele>0</ele>
        <time>2013-05-11T15:48:30Z</time>
      </trkpt>
      <trkpt lat="59.8565084" lon="17.6401673">
        <ele>0</ele>
        <time>2013-05-11T15:48:31Z</time>
      </trkpt>
      <trkpt lat="59.8565483" lon="17.6400958">
        <ele>0</ele>
        <time>2013-05-11T15:48:32Z</time>
      </trkpt>
      <trkpt lat="59.8565905" lon="17.6400241">
        <ele>0</ele>
        <time>2013-05-11T15:48:33Z</time>
      </trkpt>
      <trkpt lat="59.8566381" lon="17.639967">
        <ele>0</ele>
        <time>2013-05-11T15:48:34Z</time>
      </trkpt>
      <trkpt lat="59.8566841" lon="17.6399213">
        <ele>0</ele>
        <time>2013-05-11T15:48:35Z</time>
      </trkpt>
      <trkpt lat="59.8567292" lon="17.6398787">
        <ele>0</ele>
        <time>2013-05-11T15:48:36Z</time>
      </trkpt>
      <trkpt lat="59.8567788" lon="17.6398392">
        <ele>0.137451</ele>
        <time>2013-05-11T15:48:37Z</time>
      </trkpt>
      <trkpt lat="59.8568245" lon="17.6397965">
        <ele>1.09863</ele>
        <time>2013-05-11T15:48:38Z</time>
      </trkpt>
      <trkpt lat="59.8568594" lon="17.6397347">
        <ele>3.02124</ele>
        <time>2013-05-11T15:48:39Z</time>
      </trkpt>
      <trkpt lat="59.8568934" lon="17.6396829">
        <ele>4.46326</ele>
        <time>2013-05-11T15:48:40Z</time>
      </trkpt>
      <trkpt lat="59.8569257" lon="17.6396115">
        <ele>4.46326</ele>
        <time>2013-05-11T15:48:41Z</time>
      </trkpt>
      <trkpt lat="59.8569619" lon="17.6395323">
        <ele>5.42456</ele>
        <time>2013-05-11T15:48:42Z</time>
      </trkpt>
      <trkpt lat="59.8569994" lon="17.639456">
        <ele>5.90527</ele>
        <time>2013-05-11T15:48:43Z</time>
      </trkpt>
      <trkpt lat="59.8570425" lon="17.6394148">
        <ele>5.42456</ele>
        <time>2013-05-11T15:48:44Z</time>
      </trkpt>
      <trkpt lat="59.8570866" lon="17.6393704">
        <ele>4.46326</ele>
        <time>2013-05-11T15:48:45Z</time>
      </trkpt>
      <trkpt lat="59.8571327" lon="17.6393272">
        <ele>3.50195</ele>
        <time>2013-05-11T15:48:46Z</time>
      </trkpt>
      <trkpt lat="59.8571842" lon="17.6392831">
        <ele>3.98267</ele>
        <time>2013-05-11T15:48:47Z</time>
      </trkpt>
      <trkpt lat="59.8572285" lon="17.6391991">
        <ele>4.94385</ele>
        <time>2013-05-11T15:48:48Z</time>
      </trkpt>
      <trkpt lat="59.8572735" lon="17.6391474">
        <ele>4.94385</ele>
        <time>2013-05-11T15:48:49Z</time>
      </trkpt>
      <trkpt lat="59.8573102" lon="17.6390545">
        <ele>5.42456</ele>
        <time>2013-05-11T15:48:50Z</time>
      </trkpt>
      <trkpt lat="59.8573488" lon="17.6389837">
        <ele>6.38586</ele>
        <time>2013-05-11T15:48:51Z</time>
      </trkpt>
      <trkpt lat="59.8573855" lon="17.6389173">
        <ele>6.86646</ele>
        <time>2013-05-11T15:48:52Z</time>
      </trkpt>
      <trkpt lat="59.8574197" lon="17.6388493">
        <ele>6.38586</ele>
        <time>2013-05-11T15:48:53Z</time>
      </trkpt>
      <trkpt lat="59.857459" lon="17.6387836">
        <ele>5.90527</ele>
        <time>2013-05-11T15:48:54Z</time>
      </trkpt>
      <trkpt lat="59.8574984" lon="17.6387204">
        <ele>6.38586</ele>
        <time>2013-05-11T15:48:55Z</time>
      </trkpt>
      <trkpt lat="59.8575348" lon="17.6386629">
        <ele>7.34717</ele>
        <time>2013-05-11T15:48:56Z</time>
      </trkpt>
      <trkpt lat="59.8575731" lon="17.6386029">
        <ele>8.30859</ele>
        <time>2013-05-11T15:48:57Z</time>
      </trkpt>
      <trkpt lat="59.8576036" lon="17.6385385">
        <ele>8.78918</ele>
        <time>2013-05-11T15:48:58Z</time>
      </trkpt>
      <trkpt lat="59.8576326" lon="17.6384791">
        <ele>9.2699</ele>
        <time>2013-05-11T15:48:59Z</time>
      </trkpt>
      <trkpt lat="59.8576661" lon="17.6384173">
        <ele>9.2699</ele>
        <time>2013-05-11T15:49:00Z</time>
      </trkpt>
      <trkpt lat="59.857703" lon="17.6383511">
        <ele>9.75061</ele>
        <time>2013-05-11T15:49:01Z</time>
      </trkpt>
      <trkpt lat="59.8577428" lon="17.6382878">
        <ele>10.2312</ele>
        <time>2013-05-11T15:49:02Z</time>
      </trkpt>
      <trkpt lat="59.8577746" lon="17.6382331">
        <ele>10.2312</ele>
        <time>2013-05-11T15:49:03Z</time>
      </trkpt>
      <trkpt lat="59.8578027" lon="17.6381907">
        <ele>9.75061</ele>
        <time>2013-05-11T15:49:04Z</time>
      </trkpt>
      <trkpt lat="59.8578314" lon="17.6381559">
        <ele>8.30859</ele>
        <time>2013-05-11T15:49:05Z</time>
      </trkpt>
      <trkpt lat="59.8578651" lon="17.6381068">
        <ele>8.78918</ele>
        <time>2013-05-11T15:49:06Z</time>
      </trkpt>
      <trkpt lat="59.8579054" lon="17.638058">
        <ele>9.2699</ele>
        <time>2013-05-11T15:49:07Z</time>
      </trkpt>
      <trkpt lat="59.857944" lon="17.6380128">
        <ele>9.75061</ele>
        <time>2013-05-11T15:49:08Z</time>
      </trkpt>
      <trkpt lat="59.8579756" lon="17.6379414">
        <ele>10.7118</ele>
        <time>2013-05-11T15:49:09Z</time>
      </trkpt>
      <trkpt lat="59.8580101" lon="17.6378865">
        <ele>9.75061</ele>
        <time>2013-05-11T15:49:10Z</time>
      </trkpt>
      <trkpt lat="59.8580413" lon="17.6378105">
        <ele>9.2699</ele>
        <time>2013-05-11T15:49:11Z</time>
      </trkpt>
      <trkpt lat="59.8580713" lon="17.6377271">
        <ele>8.30859</ele>
        <time>2013-05-11T15:49:12Z</time>
      </trkpt>
      <trkpt lat="59.8581015" lon="17.6376627">
        <ele>7.82788</ele>
        <time>2013-05-11T15:49:13Z</time>
      </trkpt>
      <trkpt lat="59.858133" lon="17.6376016">
        <ele>7.34717</ele>
        <time>2013-05-11T15:49:14Z</time>
      </trkpt>
      <trkpt lat="59.8581725" lon="17.6375501">
        <ele>6.86646</ele>
        <time>2013-05-11T15:49:15Z</time>
      </trkpt>
      <trkpt lat="59.8582154" lon="17.6374906">
        <ele>6.38586</ele>
        <time>2013-05-11T15:49:16Z</time>
      </trkpt>
      <trkpt lat="59.8582568" lon="17.6374276">
        <ele>6.38586</ele>
        <time>2013-05-11T15:49:17Z</time>
      </trkpt>
      <trkpt lat="59.8582966" lon="17.6373612">
        <ele>6.38586</ele>
        <time>2013-05-11T15:49:18Z</time>
      </trkpt>
      <trkpt lat="59.8583374" lon="17.6372982">
        <ele>6.38586</ele>
        <time>2013-05-11T15:49:19Z</time>
      </trkpt>
      <trkpt lat="59.8583764" lon="17.6372214">
        <ele>6.38586</ele>
        <time>2013-05-11T15:49:20Z</time>
      </trkpt>
      <trkpt lat="59.8584142" lon="17.637142">
        <ele>6.38586</ele>
        <time>2013-05-11T15:49:21Z</time>
      </trkpt>
      <trkpt lat="59.858451" lon="17.637071">
        <ele>6.38586</ele>
        <time>2013-05-11T15:49:22Z</time>
      </trkpt>
      <trkpt lat="59.8584925" lon="17.6370135">
        <ele>6.38586</ele>
        <time>2013-05-11T15:49:23Z</time>
      </trkpt>
      <trkpt lat="59.8585279" lon="17.63694">
        <ele>7.34717</ele>
        <time>2013-05-11T15:49:24Z</time>
      </trkpt>
      <trkpt lat="59.858562" lon="17.6368628">
        <ele>6.86646</ele>
        <time>2013-05-11T15:49:25Z</time>
      </trkpt>
      <trkpt lat="59.8586008" lon="17.6367868">
        <ele>6.86646</ele>
        <time>2013-05-11T15:49:26Z</time>
      </trkpt>
      <trkpt lat="59.8586385" lon="17.6367168">
        <ele>6.86646</ele>
        <time>2013-05-11T15:49:27Z</time>
      </trkpt>
      <trkpt lat="59.8586773" lon="17.6366511">
        <ele>7.34717</ele>
        <time>2013-05-11T15:49:28Z</time>
      </trkpt>
      <trkpt lat="59.8587091" lon="17.6365925">
        <ele>7.34717</ele>
        <time>2013-05-11T15:49:29Z</time>
      </trkpt>
      <trkpt lat="59.8587397" lon="17.6365247">
        <ele>7.82788</ele>
        <time>2013-05-11T15:49:30Z</time>
      </trkpt>
      <trkpt lat="59.8587749" lon="17.63645">
        <ele>8.30859</ele>
        <time>2013-05-11T15:49:31Z</time>
      </trkpt>
      <trkpt lat="59.8588117" lon="17.6363699">
        <ele>9.2699</ele>
        <time>2013-05-11T15:49:32Z</time>
      </trkpt>
      <trkpt lat="59.8588453" lon="17.6362872">
        <ele>9.2699</ele>
        <time>2013-05-11T15:49:33Z</time>
      </trkpt>
      <trkpt lat="59.8588783" lon="17.6362087">
        <ele>8.30859</ele>
        <time>2013-05-11T15:49:34Z</time>
      </trkpt>
      <trkpt lat="59.858913" lon="17.6361236">
        <ele>7.82788</ele>
        <time>2013-05-11T15:49:35Z</time>
      </trkpt>
      <trkpt lat="59.8589611" lon="17.635977">
        <ele>8.30859</ele>
        <time>2013-05-11T15:49:36Z</time>
      </trkpt>
      <trkpt lat="59.8589984" lon="17.6359055">
        <ele>8.30859</ele>
        <time>2013-05-11T15:49:37Z</time>
      </trkpt>
      <trkpt lat="59.8590286" lon="17.6357164">
        <ele>10.2312</ele>
        <time>2013-05-11T15:49:38Z</time>
      </trkpt>
      <trkpt lat="59.8590744" lon="17.6356278">
        <ele>10.2312</ele>
        <time>2013-05-11T15:49:39Z</time>
      </trkpt>
      <trkpt lat="59.8591202" lon="17.6355492">
        <ele>9.75061</ele>
        <time>2013-05-11T15:49:40Z</time>
      </trkpt>
      <trkpt lat="59.8591598" lon="17.6354568">
        <ele>8.30859</ele>
        <time>2013-05-11T15:49:41Z</time>
      </trkpt>
      <trkpt lat="59.859199" lon="17.6353675">
        <ele>7.82788</ele>
        <time>2013-05-11T15:49:42Z</time>
      </trkpt>
      <trkpt lat="59.8592316" lon="17.6352793">
        <ele>7.82788</ele>
        <time>2013-05-11T15:49:43Z</time>
      </trkpt>
      <trkpt lat="59.8592644" lon="17.6351831">
        <ele>7.34717</ele>
        <time>2013-05-11T15:49:44Z</time>
      </trkpt>
      <trkpt lat="59.8592911" lon="17.6351002">
        <ele>6.38586</ele>
        <time>2013-05-11T15:49:45Z</time>
      </trkpt>
      <trkpt lat="59.8593202" lon="17.6350388">
        <ele>5.90527</ele>
        <time>2013-05-11T15:49:46Z</time>
      </trkpt>
      <trkpt lat="59.8593545" lon="17.6349795">
        <ele>5.42456</ele>
        <time>2013-05-11T15:49:47Z</time>
      </trkpt>
      <trkpt lat="59.8593949" lon="17.6349142">
        <ele>5.42456</ele>
        <time>2013-05-11T15:49:48Z</time>
      </trkpt>
      <trkpt lat="59.85944" lon="17.6348503">
        <ele>5.42456</ele>
        <time>2013-05-11T15:49:49Z</time>
      </trkpt>
      <trkpt lat="59.8594839" lon="17.6347805">
        <ele>5.42456</ele>
        <time>2013-05-11T15:49:50Z</time>
      </trkpt>
      <trkpt lat="59.8595289" lon="17.6347199">
        <ele>5.90527</ele>
        <time>2013-05-11T15:49:51Z</time>
      </trkpt>
      <trkpt lat="59.8595539" lon="17.6345146">
        <ele>7.82788</ele>
        <time>2013-05-11T15:49:52Z</time>
      </trkpt>
      <trkpt lat="59.8595986" lon="17.6344682">
        <ele>7.34717</ele>
        <time>2013-05-11T15:49:53Z</time>
      </trkpt>
      <trkpt lat="59.8596373" lon="17.634421">
        <ele>7.34717</ele>
        <time>2013-05-11T15:49:54Z</time>
      </trkpt>
      <trkpt lat="59.859685" lon="17.6343806">
        <ele>8.30859</ele>
        <time>2013-05-11T15:49:55Z</time>
      </trkpt>
      <trkpt lat="59.8597198" lon="17.6343186">
        <ele>8.78918</ele>
        <time>2013-05-11T15:49:56Z</time>
      </trkpt>
      <trkpt lat="59.8597627" lon="17.6342584">
        <ele>9.2699</ele>
        <time>2013-05-11T15:49:57Z</time>
      </trkpt>
      <trkpt lat="59.8598009" lon="17.6341874">
        <ele>9.75061</ele>
        <time>2013-05-11T15:49:58Z</time>
      </trkpt>
      <trkpt lat="59.8598464" lon="17.6341278">
        <ele>10.2312</ele>
        <time>2013-05-11T15:49:59Z</time>
      </trkpt>
      <trkpt lat="59.8598829" lon="17.6340852">
        <ele>10.2312</ele>
        <time>2013-05-11T15:50:00Z</time>
      </trkpt>
      <trkpt lat="59.8599153" lon="17.6340335">
        <ele>10.2312</ele>
        <time>2013-05-11T15:50:01Z</time>
      </trkpt>
      <trkpt lat="59.8599488" lon="17.6340023">
        <ele>10.2312</ele>
        <time>2013-05-11T15:50:02Z</time>
      </trkpt>
      <trkpt lat="59.8599859" lon="17.6339718">
        <ele>10.2312</ele>
        <time>2013-05-11T15:50:03Z</time>
      </trkpt>
      <trkpt lat="59.8600164" lon="17.6339357">
        <ele>10.7118</ele>
        <time>2013-05-11T15:50:04Z</time>
      </trkpt>
      <trkpt lat="59.8600401" lon="17.6339106">
        <ele>11.1925</ele>
        <time>2013-05-11T15:50:05Z</time>
      </trkpt>
      <trkpt lat="59.8600612" lon="17.6338657">
        <ele>12.6344</ele>
        <time>2013-05-11T15:50:06Z</time>
      </trkpt>
      <trkpt lat="59.86009" lon="17.6338674">
        <ele>13.5958</ele>
        <time>2013-05-11T15:50:07Z</time>
      </trkpt>
      <trkpt lat="59.860116" lon="17.6338853">
        <ele>14.557</ele>
        <time>2013-05-11T15:50:08Z</time>
      </trkpt>
      <trkpt lat="59.8601449" lon="17.6339077">
        <ele>16.9604</ele>
        <time>2013-05-11T15:50:09Z</time>
      </trkpt>
      <trkpt lat="59.8601777" lon="17.6339274">
        <ele>18.4023</ele>
        <time>2013-05-11T15:50:10Z</time>
      </trkpt>
      <trkpt lat="59.8602121" lon="17.6339896">
        <ele>18.8831</ele>
        <time>2013-05-11T15:50:11Z</time>
      </trkpt>
      <trkpt lat="59.8602446" lon="17.6340388">
        <ele>18.4023</ele>
        <time>2013-05-11T15:50:12Z</time>
      </trkpt>
      <trkpt lat="59.86028" lon="17.6340993">
        <ele>17.4412</ele>
        <time>2013-05-11T15:50:13Z</time>
      </trkpt>
      <trkpt lat="59.8603044" lon="17.6341339">
        <ele>16.4797</ele>
        <time>2013-05-11T15:50:14Z</time>
      </trkpt>
      <trkpt lat="59.8603314" lon="17.6341906">
        <ele>15.5184</ele>
        <time>2013-05-11T15:50:15Z</time>
      </trkpt>
      <trkpt lat="59.8603647" lon="17.6342797">
        <ele>13.5958</ele>
        <time>2013-05-11T15:50:16Z</time>
      </trkpt>
      <trkpt lat="59.8604019" lon="17.6343588">
        <ele>12.1538</ele>
        <time>2013-05-11T15:50:17Z</time>
      </trkpt>
      <trkpt lat="59.8604308" lon="17.6344443">
        <ele>11.1925</ele>
        <time>2013-05-11T15:50:18Z</time>
      </trkpt>
      <trkpt lat="59.8604557" lon="17.634535">
        <ele>10.7118</ele>
        <time>2013-05-11T15:50:19Z</time>
      </trkpt>
      <trkpt lat="59.8604853" lon="17.6346376">
        <ele>9.75061</ele>
        <time>2013-05-11T15:50:20Z</time>
      </trkpt>
      <trkpt lat="59.8605203" lon="17.6347329">
        <ele>9.75061</ele>
        <time>2013-05-11T15:50:21Z</time>
      </trkpt>
      <trkpt lat="59.8605496" lon="17.634822">
        <ele>8.78918</ele>
        <time>2013-05-11T15:50:22Z</time>
      </trkpt>
      <trkpt lat="59.8605858" lon="17.6348867">
        <ele>9.2699</ele>
        <time>2013-05-11T15:50:23Z</time>
      </trkpt>
      <trkpt lat="59.8606214" lon="17.6349388">
        <ele>10.2312</ele>
        <time>2013-05-11T15:50:24Z</time>
      </trkpt>
      <trkpt lat="59.8606597" lon="17.6349839">
        <ele>10.7118</ele>
        <time>2013-05-11T15:50:25Z</time>
      </trkpt>
      <trkpt lat="59.860694" lon="17.6350334">
        <ele>10.2312</ele>
        <time>2013-05-11T15:50:26Z</time>
      </trkpt>
      <trkpt lat="59.8607263" lon="17.6350877">
        <ele>9.2699</ele>
        <time>2013-05-11T15:50:27Z</time>
      </trkpt>
      <trkpt lat="59.8607598" lon="17.6351494">
        <ele>9.75061</ele>
        <time>2013-05-11T15:50:28Z</time>
      </trkpt>
      <trkpt lat="59.8607986" lon="17.6352186">
        <ele>10.2312</ele>
        <time>2013-05-11T15:50:29Z</time>
      </trkpt>
      <trkpt lat="59.8608283" lon="17.6352912">
        <ele>10.2312</ele>
        <time>2013-05-11T15:50:30Z</time>
      </trkpt>
      <trkpt lat="59.8608733" lon="17.6354237">
        <ele>10.7118</ele>
        <time>2013-05-11T15:50:31Z</time>
      </trkpt>
      <trkpt lat="59.8609086" lon="17.6354973">
        <ele>10.7118</ele>
        <time>2013-05-11T15:50:32Z</time>
      </trkpt>
      <trkpt lat="59.8609552" lon="17.6355714">
        <ele>11.1925</ele>
        <time>2013-05-11T15:50:33Z</time>
      </trkpt>
      <trkpt lat="59.8610028" lon="17.6356504">
        <ele>11.1925</ele>
        <time>2013-05-11T15:50:34Z</time>
      </trkpt>
      <trkpt lat="59.8610365" lon="17.6357217">
        <ele>10.2312</ele>
        <time>2013-05-11T15:50:35Z</time>
      </trkpt>
      <trkpt lat="59.8610788" lon="17.6357974">
        <ele>10.7118</ele>
        <time>2013-05-11T15:50:36Z</time>
      </trkpt>
      <trkpt lat="59.8611229" lon="17.6358604">
        <ele>10.7118</ele>
        <time>2013-05-11T15:50:37Z</time>
      </trkpt>
      <trkpt lat="59.8611602" lon="17.6359382">
        <ele>10.7118</ele>
        <time>2013-05-11T15:50:38Z</time>
      </trkpt>
      <trkpt lat="59.8611964" lon="17.6360144">
        <ele>10.2312</ele>
        <time>2013-05-11T15:50:39Z</time>
      </trkpt>
      <trkpt lat="59.8612287" lon="17.636093">
        <ele>9.75061</ele>
        <time>2013-05-11T15:50:40Z</time>
      </trkpt>
      <trkpt lat="59.861287" lon="17.6362222">
        <ele>10.2312</ele>
        <time>2013-05-11T15:50:41Z</time>
      </trkpt>
      <trkpt lat="59.8613472" lon="17.6362744">
        <ele>11.6732</ele>
        <time>2013-05-11T15:50:42Z</time>
      </trkpt>
      <trkpt lat="59.861383" lon="17.6363419">
        <ele>12.1538</ele>
        <time>2013-05-11T15:50:43Z</time>
      </trkpt>
      <trkpt lat="59.861396" lon="17.6364512">
        <ele>13.5958</ele>
        <time>2013-05-11T15:50:44Z</time>
      </trkpt>
      <trkpt lat="59.8614281" lon="17.6365201">
        <ele>13.5958</ele>
        <time>2013-05-11T15:50:45Z</time>
      </trkpt>
      <trkpt lat="59.8614457" lon="17.6365874">
        <ele>12.6344</ele>
        <time>2013-05-11T15:50:46Z</time>
      </trkpt>
      <trkpt lat="59.861482" lon="17.6366484">
        <ele>14.0764</ele>
        <time>2013-05-11T15:50:47Z</time>
      </trkpt>
      <trkpt lat="59.8615152" lon="17.6367214">
        <ele>14.557</ele>
        <time>2013-05-11T15:50:48Z</time>
      </trkpt>
      <trkpt lat="59.8615524" lon="17.6367967">
        <ele>15.5184</ele>
        <time>2013-05-11T15:50:49Z</time>
      </trkpt>
      <trkpt lat="59.8615866" lon="17.6368814">
        <ele>16.4797</ele>
        <time>2013-05-11T15:50:50Z</time>
      </trkpt>
      <trkpt lat="59.8616273" lon="17.6369511">
        <ele>16.4797</ele>
        <time>2013-05-11T15:50:51Z</time>
      </trkpt>
      <trkpt lat="59.8616659" lon="17.6370212">
        <ele>16.9604</ele>
        <time>2013-05-11T15:50:52Z</time>
      </trkpt>
      <trkpt lat="59.8617037" lon="17.6370888">
        <ele>17.9218</ele>
        <time>2013-05-11T15:50:53Z</time>
      </trkpt>
      <trkpt lat="59.861734" lon="17.6371463">
        <ele>18.4023</ele>
        <time>2013-05-11T15:50:54Z</time>
      </trkpt>
      <trkpt lat="59.861762" lon="17.6371821">
        <ele>18.4023</ele>
        <time>2013-05-11T15:50:55Z</time>
      </trkpt>
      <trkpt lat="59.8617829" lon="17.6372181">
        <ele>18.8831</ele>
        <time>2013-05-11T15:50:56Z</time>
      </trkpt>
      <trkpt lat="59.861804" lon="17.6372457">
        <ele>19.8444</ele>
        <time>2013-05-11T15:50:57Z</time>
      </trkpt>
      <trkpt lat="59.8618124" lon="17.6372665">
        <ele>19.3638</ele>
        <time>2013-05-11T15:50:58Z</time>
      </trkpt>
      <trkpt lat="59.8618208" lon="17.6372906">
        <ele>18.8831</ele>
        <time>2013-05-11T15:50:59Z</time>
      </trkpt>
      <trkpt lat="59.861827" lon="17.6373199">
        <ele>19.3638</ele>
        <time>2013-05-11T15:51:00Z</time>
      </trkpt>
      <trkpt lat="59.8618374" lon="17.6373472">
        <ele>20.8057</ele>
        <time>2013-05-11T15:51:01Z</time>
      </trkpt>
      <trkpt lat="59.8618501" lon="17.6373505">
        <ele>19.8444</ele>
        <time>2013-05-11T15:51:02Z</time>
      </trkpt>
      <trkpt lat="59.861858" lon="17.6373618">
        <ele>19.8444</ele>
        <time>2013-05-11T15:51:03Z</time>
      </trkpt>
      <trkpt lat="59.8618575" lon="17.6373753">
        <ele>18.8831</ele>
        <time>2013-05-11T15:51:04Z</time>
      </trkpt>
      <trkpt lat="59.8618601" lon="17.6373865">
        <ele>17.9218</ele>
        <time>2013-05-11T15:51:05Z</time>
      </trkpt>
      <trkpt lat="59.8618799" lon="17.637404">
        <ele>18.8831</ele>
        <time>2013-05-11T15:51:06Z</time>
      </trkpt>
      <trkpt lat="59.8619017" lon="17.6374529">
        <ele>19.8444</ele>
        <time>2013-05-11T15:51:07Z</time>
      </trkpt>
      <trkpt lat="59.8619271" lon="17.6375084">
        <ele>19.8444</ele>
        <time>2013-05-11T15:51:08Z</time>
      </trkpt>
      <trkpt lat="59.8619539" lon="17.6375654">
        <ele>18.8831</ele>
        <time>2013-05-11T15:51:09Z</time>
      </trkpt>
      <trkpt lat="59.8619853" lon="17.6376199">
        <ele>18.4023</ele>
        <time>2013-05-11T15:51:10Z</time>
      </trkpt>
      <trkpt lat="59.8620202" lon="17.6376855">
        <ele>18.4023</ele>
        <time>2013-05-11T15:51:11Z</time>
      </trkpt>
      <trkpt lat="59.8620549" lon="17.6377413">
        <ele>16.9604</ele>
        <time>2013-05-11T15:51:12Z</time>
      </trkpt>
      <trkpt lat="59.8620922" lon="17.6378048">
        <ele>15.999</ele>
        <time>2013-05-11T15:51:13Z</time>
      </trkpt>
      <trkpt lat="59.8621294" lon="17.6378708">
        <ele>15.5184</ele>
        <time>2013-05-11T15:51:14Z</time>
      </trkpt>
      <trkpt lat="59.8621652" lon="17.6379322">
        <ele>14.557</ele>
        <time>2013-05-11T15:51:15Z</time>
      </trkpt>
      <trkpt lat="59.8622036" lon="17.6379979">
        <ele>13.5958</ele>
        <time>2013-05-11T15:51:16Z</time>
      </trkpt>
      <trkpt lat="59.8622439" lon="17.6380683">
        <ele>13.1151</ele>
        <time>2013-05-11T15:51:17Z</time>
      </trkpt>
      <trkpt lat="59.8622844" lon="17.6381413">
        <ele>12.6344</ele>
        <time>2013-05-11T15:51:18Z</time>
      </trkpt>
      <trkpt lat="59.8623327" lon="17.6382148">
        <ele>13.1151</ele>
        <time>2013-05-11T15:51:19Z</time>
      </trkpt>
      <trkpt lat="59.8623753" lon="17.6383204">
        <ele>13.1151</ele>
        <time>2013-05-11T15:51:20Z</time>
      </trkpt>
      <trkpt lat="59.862418" lon="17.6384399">
        <ele>12.1538</ele>
        <time>2013-05-11T15:51:21Z</time>
      </trkpt>
      <trkpt lat="59.8624646" lon="17.6385457">
        <ele>12.6344</ele>
        <time>2013-05-11T15:51:22Z</time>
      </trkpt>
      <trkpt lat="59.8625158" lon="17.6386551">
        <ele>12.6344</ele>
        <time>2013-05-11T15:51:23Z</time>
      </trkpt>
      <trkpt lat="59.8625606" lon="17.6387677">
        <ele>12.6344</ele>
        <time>2013-05-11T15:51:24Z</time>
      </trkpt>
      <trkpt lat="59.8626038" lon="17.6388797">
        <ele>12.6344</ele>
        <time>2013-05-11T15:51:25Z</time>
      </trkpt>
      <trkpt lat="59.8626396" lon="17.639014">
        <ele>12.6344</ele>
        <time>2013-05-11T15:51:26Z</time>
      </trkpt>
      <trkpt lat="59.8626733" lon="17.6391124">
        <ele>12.1538</ele>
        <time>2013-05-11T15:51:27Z</time>
      </trkpt>
      <trkpt lat="59.8627071" lon="17.6392462">
        <ele>12.1538</ele>
        <time>2013-05-11T15:51:28Z</time>
      </trkpt>
      <trkpt lat="59.8627558" lon="17.6393925">
        <ele>12.6344</ele>
        <time>2013-05-11T15:51:29Z</time>
      </trkpt>
      <trkpt lat="59.8627887" lon="17.6394714">
        <ele>12.1538</ele>
        <time>2013-05-11T15:51:30Z</time>
      </trkpt>
      <trkpt lat="59.8628213" lon="17.6395778">
        <ele>11.1925</ele>
        <time>2013-05-11T15:51:31Z</time>
      </trkpt>
      <trkpt lat="59.8628353" lon="17.6396819">
        <ele>10.7118</ele>
        <time>2013-05-11T15:51:32Z</time>
      </trkpt>
      <trkpt lat="59.8628547" lon="17.6397834">
        <ele>10.2312</ele>
        <time>2013-05-11T15:51:33Z</time>
      </trkpt>
      <trkpt lat="59.8628811" lon="17.639884">
        <ele>9.75061</ele>
        <time>2013-05-11T15:51:34Z</time>
      </trkpt>
      <trkpt lat="59.862913" lon="17.6399843">
        <ele>9.75061</ele>
        <time>2013-05-11T15:51:35Z</time>
      </trkpt>
      <trkpt lat="59.8629465" lon="17.6400751">
        <ele>9.75061</ele>
        <time>2013-05-11T15:51:36Z</time>
      </trkpt>
      <trkpt lat="59.8629971" lon="17.6401593">
        <ele>10.7118</ele>
        <time>2013-05-11T15:51:37Z</time>
      </trkpt>
      <trkpt lat="59.8630324" lon="17.6402357">
        <ele>11.6732</ele>
        <time>2013-05-11T15:51:38Z</time>
      </trkpt>
      <trkpt lat="59.8630712" lon="17.6403202">
        <ele>12.1538</ele>
        <time>2013-05-11T15:51:39Z</time>
      </trkpt>
      <trkpt lat="59.8631152" lon="17.6404082">
        <ele>12.1538</ele>
        <time>2013-05-11T15:51:40Z</time>
      </trkpt>
      <trkpt lat="59.8631737" lon="17.6404838">
        <ele>15.0377</ele>
        <time>2013-05-11T15:51:41Z</time>
      </trkpt>
      <trkpt lat="59.8632462" lon="17.6405781">
        <ele>15.999</ele>
        <time>2013-05-11T15:51:42Z</time>
      </trkpt>
      <trkpt lat="59.8633016" lon="17.6406979">
        <ele>16.9604</ele>
        <time>2013-05-11T15:51:43Z</time>
      </trkpt>
      <trkpt lat="59.8633665" lon="17.6407655">
        <ele>17.9218</ele>
        <time>2013-05-11T15:51:44Z</time>
      </trkpt>
      <trkpt lat="59.8634666" lon="17.6407983">
        <ele>18.8831</ele>
        <time>2013-05-11T15:51:45Z</time>
      </trkpt>
      <trkpt lat="59.8635172" lon="17.6409131">
        <ele>20.325</ele>
        <time>2013-05-11T15:51:46Z</time>
      </trkpt>
      <trkpt lat="59.8635591" lon="17.6410206">
        <ele>22.2476</ele>
        <time>2013-05-11T15:51:47Z</time>
      </trkpt>
      <trkpt lat="59.863558" lon="17.6411938">
        <ele>23.6896</ele>
        <time>2013-05-11T15:51:48Z</time>
      </trkpt>
      <trkpt lat="59.8635975" lon="17.6413022">
        <ele>25.1317</ele>
        <time>2013-05-11T15:51:49Z</time>
      </trkpt>
      <trkpt lat="59.8636307" lon="17.6414282">
        <ele>23.6896</ele>
        <time>2013-05-11T15:51:50Z</time>
      </trkpt>
      <trkpt lat="59.8636668" lon="17.6415026">
        <ele>22.7283</ele>
        <time>2013-05-11T15:51:51Z</time>
      </trkpt>
      <trkpt lat="59.863675" lon="17.6415679">
        <ele>22.2476</ele>
        <time>2013-05-11T15:51:52Z</time>
      </trkpt>
      <trkpt lat="59.8637265" lon="17.6416259">
        <ele>22.7283</ele>
        <time>2013-05-11T15:51:53Z</time>
      </trkpt>
      <trkpt lat="59.8638011" lon="17.6416803">
        <ele>23.6896</ele>
        <time>2013-05-11T15:51:54Z</time>
      </trkpt>
      <trkpt lat="59.8638675" lon="17.641729">
        <ele>25.1317</ele>
        <time>2013-05-11T15:51:55Z</time>
      </trkpt>
      <trkpt lat="59.8639244" lon="17.6418642">
        <ele>26.5736</ele>
        <time>2013-05-11T15:51:56Z</time>
      </trkpt>
      <trkpt lat="59.8639476" lon="17.6420099">
        <ele>27.0543</ele>
        <time>2013-05-11T15:51:57Z</time>
      </trkpt>
      <trkpt lat="59.8639705" lon="17.6421322">
        <ele>26.5736</ele>
        <time>2013-05-11T15:51:58Z</time>
      </trkpt>
      <trkpt lat="59.8639946" lon="17.6422338">
        <ele>25.1317</ele>
        <time>2013-05-11T15:51:59Z</time>
      </trkpt>
      <trkpt lat="59.8640274" lon="17.6423213">
        <ele>23.6896</ele>
        <time>2013-05-11T15:52:00Z</time>
      </trkpt>
      <trkpt lat="59.8640506" lon="17.6424046">
        <ele>23.209</ele>
        <time>2013-05-11T15:52:01Z</time>
      </trkpt>
      <trkpt lat="59.8640788" lon="17.6424907">
        <ele>23.209</ele>
        <time>2013-05-11T15:52:02Z</time>
      </trkpt>
      <trkpt lat="59.8641072" lon="17.64257">
        <ele>23.209</ele>
        <time>2013-05-11T15:52:03Z</time>
      </trkpt>
      <trkpt lat="59.8641331" lon="17.6426505">
        <ele>23.209</ele>
        <time>2013-05-11T15:52:04Z</time>
      </trkpt>
      <trkpt lat="59.8641548" lon="17.6427289">
        <ele>22.7283</ele>
        <time>2013-05-11T15:52:05Z</time>
      </trkpt>
      <trkpt lat="59.864189" lon="17.6428185">
        <ele>21.767</ele>
        <time>2013-05-11T15:52:06Z</time>
      </trkpt>
      <trkpt lat="59.8642202" lon="17.6428599">
        <ele>20.8057</ele>
        <time>2013-05-11T15:52:07Z</time>
      </trkpt>
      <trkpt lat="59.8642481" lon="17.642892">
        <ele>20.325</ele>
        <time>2013-05-11T15:52:08Z</time>
      </trkpt>
      <trkpt lat="59.8642807" lon="17.6429371">
        <ele>19.3638</ele>
        <time>2013-05-11T15:52:09Z</time>
      </trkpt>
      <trkpt lat="59.8642948" lon="17.6429773">
        <ele>17.9218</ele>
        <time>2013-05-11T15:52:10Z</time>
      </trkpt>
      <trkpt lat="59.8643077" lon="17.6430069">
        <ele>17.4412</ele>
        <time>2013-05-11T15:52:11Z</time>
      </trkpt>
      <trkpt lat="59.8643241" lon="17.643031">
        <ele>16.4797</ele>
        <time>2013-05-11T15:52:12Z</time>
      </trkpt>
      <trkpt lat="59.8643367" lon="17.6430692">
        <ele>16.4797</ele>
        <time>2013-05-11T15:52:13Z</time>
      </trkpt>
      <trkpt lat="59.8643476" lon="17.6431025">
        <ele>15.999</ele>
        <time>2013-05-11T15:52:14Z</time>
      </trkpt>
      <trkpt lat="59.8643598" lon="17.6431303">
        <ele>15.999</ele>
        <time>2013-05-11T15:52:15Z</time>
      </trkpt>
      <trkpt lat="59.8643689" lon="17.6431516">
        <ele>15.5184</ele>
        <time>2013-05-11T15:52:16Z</time>
      </trkpt>
      <trkpt lat="59.8643745" lon="17.6431692">
        <ele>15.5184</ele>
        <time>2013-05-11T15:52:17Z</time>
      </trkpt>
      <trkpt lat="59.8643776" lon="17.6431809">
        <ele>15.0377</ele>
        <time>2013-05-11T15:52:18Z</time>
      </trkpt>
      <trkpt lat="59.8643797" lon="17.6431878">
        <ele>15.0377</ele>
        <time>2013-05-11T15:52:19Z</time>
      </trkpt>
      <trkpt lat="59.8643821" lon="17.6431964">
        <ele>14.557</ele>
        <time>2013-05-11T15:52:20Z</time>
      </trkpt>
      <trkpt lat="59.8643905" lon="17.643214">
        <ele>14.557</ele>
        <time>2013-05-11T15:52:21Z</time>
      </trkpt>
      <trkpt lat="59.8643988" lon="17.6432334">
        <ele>14.557</ele>
        <time>2013-05-11T15:52:22Z</time>
      </trkpt>
      <trkpt lat="59.8644051" lon="17.6432503">
        <ele>14.557</ele>
        <time>2013-05-11T15:52:23Z</time>
      </trkpt>
      <trkpt lat="59.8644132" lon="17.6432689">
        <ele>14.557</ele>
        <time>2013-05-11T15:52:24Z</time>
      </trkpt>
      <trkpt lat="59.8644196" lon="17.6432868">
        <ele>14.557</ele>
        <time>2013-05-11T15:52:25Z</time>
      </trkpt>
      <trkpt lat="59.8644243" lon="17.6433017">
        <ele>14.557</ele>
        <time>2013-05-11T15:52:26Z</time>
      </trkpt>
      <trkpt lat="59.864428" lon="17.643321">
        <ele>14.557</ele>
        <time>2013-05-11T15:52:27Z</time>
      </trkpt>
      <trkpt lat="59.8644388" lon="17.6433575">
        <ele>15.0377</ele>
        <time>2013-05-11T15:52:28Z</time>
      </trkpt>
      <trkpt lat="59.8644567" lon="17.6434021">
        <ele>15.5184</ele>
        <time>2013-05-11T15:52:29Z</time>
      </trkpt>
      <trkpt lat="59.8644812" lon="17.6434525">
        <ele>15.5184</ele>
        <time>2013-05-11T15:52:30Z</time>
      </trkpt>
      <trkpt lat="59.8645104" lon="17.6435126">
        <ele>15.999</ele>
        <time>2013-05-11T15:52:31Z</time>
      </trkpt>
      <trkpt lat="59.8645424" lon="17.6435816">
        <ele>15.5184</ele>
        <time>2013-05-11T15:52:32Z</time>
      </trkpt>
      <trkpt lat="59.8645833" lon="17.64367">
        <ele>15.5184</ele>
        <time>2013-05-11T15:52:33Z</time>
      </trkpt>
      <trkpt lat="59.8646105" lon="17.6437719">
        <ele>15.0377</ele>
        <time>2013-05-11T15:52:34Z</time>
      </trkpt>
      <trkpt lat="59.8646335" lon="17.6439199">
        <ele>15.0377</ele>
        <time>2013-05-11T15:52:35Z</time>
      </trkpt>
      <trkpt lat="59.8647212" lon="17.643988">
        <ele>15.999</ele>
        <time>2013-05-11T15:52:36Z</time>
      </trkpt>
      <trkpt lat="59.8647614" lon="17.6440659">
        <ele>15.999</ele>
        <time>2013-05-11T15:52:37Z</time>
      </trkpt>
      <trkpt lat="59.8648406" lon="17.6441815">
        <ele>17.4412</ele>
        <time>2013-05-11T15:52:38Z</time>
      </trkpt>
      <trkpt lat="59.8649045" lon="17.644283">
        <ele>18.4023</ele>
        <time>2013-05-11T15:52:39Z</time>
      </trkpt>
      <trkpt lat="59.8649561" lon="17.6443984">
        <ele>18.4023</ele>
        <time>2013-05-11T15:52:40Z</time>
      </trkpt>
      <trkpt lat="59.8649873" lon="17.6444558">
        <ele>17.9218</ele>
        <time>2013-05-11T15:52:41Z</time>
      </trkpt>
      <trkpt lat="59.8650246" lon="17.6445507">
        <ele>17.4412</ele>
        <time>2013-05-11T15:52:42Z</time>
      </trkpt>
      <trkpt lat="59.8650641" lon="17.6446486">
        <ele>17.4412</ele>
        <time>2013-05-11T15:52:43Z</time>
      </trkpt>
      <trkpt lat="59.8650993" lon="17.6447456">
        <ele>17.4412</ele>
        <time>2013-05-11T15:52:44Z</time>
      </trkpt>
      <trkpt lat="59.865165" lon="17.6448588">
        <ele>17.9218</ele>
        <time>2013-05-11T15:52:45Z</time>
      </trkpt>
      <trkpt lat="59.8652028" lon="17.6449445">
        <ele>17.4412</ele>
        <time>2013-05-11T15:52:46Z</time>
      </trkpt>
      <trkpt lat="59.8652391" lon="17.6450237">
        <ele>16.9604</ele>
        <time>2013-05-11T15:52:47Z</time>
      </trkpt>
      <trkpt lat="59.8652759" lon="17.645093">
        <ele>16.4797</ele>
        <time>2013-05-11T15:52:48Z</time>
      </trkpt>
      <trkpt lat="59.8653242" lon="17.6451682">
        <ele>16.4797</ele>
        <time>2013-05-11T15:52:49Z</time>
      </trkpt>
      <trkpt lat="59.8653604" lon="17.6452775">
        <ele>16.4797</ele>
        <time>2013-05-11T15:52:50Z</time>
      </trkpt>
      <trkpt lat="59.865414" lon="17.6453433">
        <ele>16.4797</ele>
        <time>2013-05-11T15:52:51Z</time>
      </trkpt>
      <trkpt lat="59.8654519" lon="17.6454251">
        <ele>16.4797</ele>
        <time>2013-05-11T15:52:52Z</time>
      </trkpt>
      <trkpt lat="59.8654712" lon="17.6455437">
        <ele>16.9604</ele>
        <time>2013-05-11T15:52:53Z</time>
      </trkpt>
      <trkpt lat="59.8655026" lon="17.6456235">
        <ele>16.9604</ele>
        <time>2013-05-11T15:52:54Z</time>
      </trkpt>
      <trkpt lat="59.865534" lon="17.6456901">
        <ele>16.4797</ele>
        <time>2013-05-11T15:52:55Z</time>
      </trkpt>
      <trkpt lat="59.8655728" lon="17.6457568">
        <ele>16.4797</ele>
        <time>2013-05-11T15:52:56Z</time>
      </trkpt>
      <trkpt lat="59.8656362" lon="17.6458151">
        <ele>17.9218</ele>
        <time>2013-05-11T15:52:57Z</time>
      </trkpt>
      <trkpt lat="59.8656804" lon="17.6458872">
        <ele>18.4023</ele>
        <time>2013-05-11T15:52:58Z</time>
      </trkpt>
      <trkpt lat="59.8657279" lon="17.6459773">
        <ele>18.8831</ele>
        <time>2013-05-11T15:52:59Z</time>
      </trkpt>
      <trkpt lat="59.8657676" lon="17.6460675">
        <ele>18.4023</ele>
        <time>2013-05-11T15:53:00Z</time>
      </trkpt>
      <trkpt lat="59.8658131" lon="17.6461524">
        <ele>19.3638</ele>
        <time>2013-05-11T15:53:01Z</time>
      </trkpt>
      <trkpt lat="59.8658501" lon="17.646228">
        <ele>18.8831</ele>
        <time>2013-05-11T15:53:02Z</time>
      </trkpt>
      <trkpt lat="59.8658768" lon="17.6463483">
        <ele>18.8831</ele>
        <time>2013-05-11T15:53:03Z</time>
      </trkpt>
      <trkpt lat="59.8659394" lon="17.64645">
        <ele>19.3638</ele>
        <time>2013-05-11T15:53:04Z</time>
      </trkpt>
      <trkpt lat="59.8659682" lon="17.6465291">
        <ele>19.8444</ele>
        <time>2013-05-11T15:53:05Z</time>
      </trkpt>
      <trkpt lat="59.8659978" lon="17.6466112">
        <ele>19.8444</ele>
        <time>2013-05-11T15:53:06Z</time>
      </trkpt>
      <trkpt lat="59.866024" lon="17.6467155">
        <ele>21.2864</ele>
        <time>2013-05-11T15:53:07Z</time>
      </trkpt>
      <trkpt lat="59.8660511" lon="17.6467978">
        <ele>20.8057</ele>
        <time>2013-05-11T15:53:08Z</time>
      </trkpt>
      <trkpt lat="59.8660858" lon="17.6468349">
        <ele>20.325</ele>
        <time>2013-05-11T15:53:09Z</time>
      </trkpt>
      <trkpt lat="59.8661095" lon="17.6469176">
        <ele>20.325</ele>
        <time>2013-05-11T15:53:10Z</time>
      </trkpt>
      <trkpt lat="59.8661447" lon="17.6469786">
        <ele>19.8444</ele>
        <time>2013-05-11T15:53:11Z</time>
      </trkpt>
      <trkpt lat="59.8661758" lon="17.6470429">
        <ele>18.8831</ele>
        <time>2013-05-11T15:53:12Z</time>
      </trkpt>
      <trkpt lat="59.8662083" lon="17.6471195">
        <ele>18.4023</ele>
        <time>2013-05-11T15:53:13Z</time>
      </trkpt>
      <trkpt lat="59.8662414" lon="17.6471865">
        <ele>16.4797</ele>
        <time>2013-05-11T15:53:14Z</time>
      </trkpt>
      <trkpt lat="59.8662739" lon="17.6472594">
        <ele>15.5184</ele>
        <time>2013-05-11T15:53:15Z</time>
      </trkpt>
      <trkpt lat="59.8663006" lon="17.6473284">
        <ele>13.5958</ele>
        <time>2013-05-11T15:53:16Z</time>
      </trkpt>
      <trkpt lat="59.8663395" lon="17.6473971">
        <ele>14.0764</ele>
        <time>2013-05-11T15:53:17Z</time>
      </trkpt>
      <trkpt lat="59.8663638" lon="17.6474712">
        <ele>13.1151</ele>
        <time>2013-05-11T15:53:18Z</time>
      </trkpt>
      <trkpt lat="59.8663865" lon="17.6475314">
        <ele>11.1925</ele>
        <time>2013-05-11T15:53:19Z</time>
      </trkpt>
      <trkpt lat="59.8664222" lon="17.6475648">
        <ele>11.1925</ele>
        <time>2013-05-11T15:53:20Z</time>
      </trkpt>
      <trkpt lat="59.8664594" lon="17.6475692">
        <ele>10.2312</ele>
        <time>2013-05-11T15:53:21Z</time>
      </trkpt>
      <trkpt lat="59.86649" lon="17.6475433">
        <ele>8.30859</ele>
        <time>2013-05-11T15:53:22Z</time>
      </trkpt>
      <trkpt lat="59.8665263" lon="17.6475026">
        <ele>7.82788</ele>
        <time>2013-05-11T15:53:23Z</time>
      </trkpt>
      <trkpt lat="59.8665625" lon="17.647455">
        <ele>7.34717</ele>
        <time>2013-05-11T15:53:24Z</time>
      </trkpt>
      <trkpt lat="59.8665994" lon="17.6474187">
        <ele>7.34717</ele>
        <time>2013-05-11T15:53:25Z</time>
      </trkpt>
      <trkpt lat="59.8666344" lon="17.64738">
        <ele>6.86646</ele>
        <time>2013-05-11T15:53:26Z</time>
      </trkpt>
      <trkpt lat="59.8666663" lon="17.6473242">
        <ele>7.82788</ele>
        <time>2013-05-11T15:53:27Z</time>
      </trkpt>
      <trkpt lat="59.8666948" lon="17.6472552">
        <ele>7.82788</ele>
        <time>2013-05-11T15:53:28Z</time>
      </trkpt>
      <trkpt lat="59.8667337" lon="17.6471806">
        <ele>8.78918</ele>
        <time>2013-05-11T15:53:29Z</time>
      </trkpt>
      <trkpt lat="59.8667727" lon="17.6471048">
        <ele>8.78918</ele>
        <time>2013-05-11T15:53:30Z</time>
      </trkpt>
      <trkpt lat="59.8668163" lon="17.6470362">
        <ele>8.78918</ele>
        <time>2013-05-11T15:53:31Z</time>
      </trkpt>
      <trkpt lat="59.8668615" lon="17.6469748">
        <ele>8.30859</ele>
        <time>2013-05-11T15:53:32Z</time>
      </trkpt>
      <trkpt lat="59.8669045" lon="17.6469061">
        <ele>7.82788</ele>
        <time>2013-05-11T15:53:33Z</time>
      </trkpt>
      <trkpt lat="59.8669512" lon="17.6468249">
        <ele>6.86646</ele>
        <time>2013-05-11T15:53:34Z</time>
      </trkpt>
      <trkpt lat="59.8670008" lon="17.6467492">
        <ele>6.38586</ele>
        <time>2013-05-11T15:53:35Z</time>
      </trkpt>
      <trkpt lat="59.8670468" lon="17.6466715">
        <ele>6.86646</ele>
        <time>2013-05-11T15:53:36Z</time>
      </trkpt>
      <trkpt lat="59.8670954" lon="17.6465848">
        <ele>6.38586</ele>
        <time>2013-05-11T15:53:37Z</time>
      </trkpt>
      <trkpt lat="59.8671485" lon="17.6464949">
        <ele>5.90527</ele>
        <time>2013-05-11T15:53:38Z</time>
      </trkpt>
      <trkpt lat="59.867199" lon="17.6464088">
        <ele>6.38586</ele>
        <time>2013-05-11T15:53:39Z</time>
      </trkpt>
      <trkpt lat="59.8672473" lon="17.6463238">
        <ele>5.90527</ele>
        <time>2013-05-11T15:53:40Z</time>
      </trkpt>
      <trkpt lat="59.8672934" lon="17.6462426">
        <ele>5.42456</ele>
        <time>2013-05-11T15:53:41Z</time>
      </trkpt>
      <trkpt lat="59.8673389" lon="17.6461628">
        <ele>4.94385</ele>
        <time>2013-05-11T15:53:42Z</time>
      </trkpt>
      <trkpt lat="59.8673836" lon="17.6460933">
        <ele>4.94385</ele>
        <time>2013-05-11T15:53:43Z</time>
      </trkpt>
      <trkpt lat="59.8674308" lon="17.6460214">
        <ele>5.42456</ele>
        <time>2013-05-11T15:53:44Z</time>
      </trkpt>
      <trkpt lat="59.867479" lon="17.6459282">
        <ele>6.38586</ele>
        <time>2013-05-11T15:53:45Z</time>
      </trkpt>
      <trkpt lat="59.8675271" lon="17.6458307">
        <ele>7.34717</ele>
        <time>2013-05-11T15:53:46Z</time>
      </trkpt>
      <trkpt lat="59.8675748" lon="17.6457463">
        <ele>7.34717</ele>
        <time>2013-05-11T15:53:47Z</time>
      </trkpt>
      <trkpt lat="59.8676219" lon="17.6456684">
        <ele>6.86646</ele>
        <time>2013-05-11T15:53:48Z</time>
      </trkpt>
      <trkpt lat="59.8676691" lon="17.645593">
        <ele>6.38586</ele>
        <time>2013-05-11T15:53:49Z</time>
      </trkpt>
      <trkpt lat="59.8677152" lon="17.6455132">
        <ele>6.38586</ele>
        <time>2013-05-11T15:53:50Z</time>
      </trkpt>
      <trkpt lat="59.8677585" lon="17.6454313">
        <ele>6.38586</ele>
        <time>2013-05-11T15:53:51Z</time>
      </trkpt>
      <trkpt lat="59.8678007" lon="17.6453556">
        <ele>5.90527</ele>
        <time>2013-05-11T15:53:52Z</time>
      </trkpt>
      <trkpt lat="59.8678445" lon="17.6452789">
        <ele>6.38586</ele>
        <time>2013-05-11T15:53:53Z</time>
      </trkpt>
      <trkpt lat="59.8678851" lon="17.6452061">
        <ele>6.86646</ele>
        <time>2013-05-11T15:53:54Z</time>
      </trkpt>
      <trkpt lat="59.867923" lon="17.6451423">
        <ele>6.86646</ele>
        <time>2013-05-11T15:53:55Z</time>
      </trkpt>
      <trkpt lat="59.8679584" lon="17.6450764">
        <ele>7.34717</ele>
        <time>2013-05-11T15:53:56Z</time>
      </trkpt>
      <trkpt lat="59.8679923" lon="17.6450152">
        <ele>7.34717</ele>
        <time>2013-05-11T15:53:57Z</time>
      </trkpt>
      <trkpt lat="59.868027" lon="17.6449641">
        <ele>7.34717</ele>
        <time>2013-05-11T15:53:58Z</time>
      </trkpt>
      <trkpt lat="59.8680602" lon="17.6449154">
        <ele>7.82788</ele>
        <time>2013-05-11T15:53:59Z</time>
      </trkpt>
      <trkpt lat="59.8680921" lon="17.6448662">
        <ele>7.82788</ele>
        <time>2013-05-11T15:54:00Z</time>
      </trkpt>
      <trkpt lat="59.8681223" lon="17.6448183">
        <ele>8.30859</ele>
        <time>2013-05-11T15:54:01Z</time>
      </trkpt>
      <trkpt lat="59.8681462" lon="17.6447679">
        <ele>8.30859</ele>
        <time>2013-05-11T15:54:02Z</time>
      </trkpt>
      <trkpt lat="59.8681674" lon="17.6447139">
        <ele>8.30859</ele>
        <time>2013-05-11T15:54:03Z</time>
      </trkpt>
      <trkpt lat="59.8681937" lon="17.6446673">
        <ele>8.30859</ele>
        <time>2013-05-11T15:54:04Z</time>
      </trkpt>
      <trkpt lat="59.8682249" lon="17.6446347">
        <ele>8.30859</ele>
        <time>2013-05-11T15:54:05Z</time>
      </trkpt>
      <trkpt lat="59.8682586" lon="17.6446106">
        <ele>8.30859</ele>
        <time>2013-05-11T15:54:06Z</time>
      </trkpt>
      <trkpt lat="59.868298" lon="17.6446009">
        <ele>7.82788</ele>
        <time>2013-05-11T15:54:07Z</time>
      </trkpt>
      <trkpt lat="59.8683424" lon="17.6446118">
        <ele>7.82788</ele>
        <time>2013-05-11T15:54:08Z</time>
      </trkpt>
      <trkpt lat="59.8683882" lon="17.6446489">
        <ele>7.82788</ele>
        <time>2013-05-11T15:54:09Z</time>
      </trkpt>
      <trkpt lat="59.8684332" lon="17.6447072">
        <ele>8.30859</ele>
        <time>2013-05-11T15:54:10Z</time>
      </trkpt>
      <trkpt lat="59.868477" lon="17.6447774">
        <ele>9.2699</ele>
        <time>2013-05-11T15:54:11Z</time>
      </trkpt>
      <trkpt lat="59.8685174" lon="17.6448501">
        <ele>9.2699</ele>
        <time>2013-05-11T15:54:12Z</time>
      </trkpt>
      <trkpt lat="59.868559" lon="17.644919">
        <ele>9.75061</ele>
        <time>2013-05-11T15:54:13Z</time>
      </trkpt>
      <trkpt lat="59.8686005" lon="17.6449884">
        <ele>9.75061</ele>
        <time>2013-05-11T15:54:14Z</time>
      </trkpt>
      <trkpt lat="59.8686438" lon="17.6450553">
        <ele>10.2312</ele>
        <time>2013-05-11T15:54:15Z</time>
      </trkpt>
      <trkpt lat="59.8686883" lon="17.6451242">
        <ele>11.1925</ele>
        <time>2013-05-11T15:54:16Z</time>
      </trkpt>
      <trkpt lat="59.8687349" lon="17.6451956">
        <ele>12.6344</ele>
        <time>2013-05-11T15:54:17Z</time>
      </trkpt>
      <trkpt lat="59.8687797" lon="17.6452693">
        <ele>13.1151</ele>
        <time>2013-05-11T15:54:18Z</time>
      </trkpt>
      <trkpt lat="59.8688315" lon="17.6453453">
        <ele>14.557</ele>
        <time>2013-05-11T15:54:19Z</time>
      </trkpt>
      <trkpt lat="59.8688792" lon="17.6454231">
        <ele>15.0377</ele>
        <time>2013-05-11T15:54:20Z</time>
      </trkpt>
      <trkpt lat="59.8689324" lon="17.6454931">
        <ele>16.9604</ele>
        <time>2013-05-11T15:54:21Z</time>
      </trkpt>
      <trkpt lat="59.8689882" lon="17.6455691">
        <ele>19.8444</ele>
        <time>2013-05-11T15:54:22Z</time>
      </trkpt>
      <trkpt lat="59.8690416" lon="17.6456428">
        <ele>21.767</ele>
        <time>2013-05-11T15:54:23Z</time>
      </trkpt>
      <trkpt lat="59.8690888" lon="17.6457181">
        <ele>22.2476</ele>
        <time>2013-05-11T15:54:24Z</time>
      </trkpt>
      <trkpt lat="59.8691366" lon="17.6457934">
        <ele>23.209</ele>
        <time>2013-05-11T15:54:25Z</time>
      </trkpt>
      <trkpt lat="59.8691802" lon="17.645867">
        <ele>23.209</ele>
        <time>2013-05-11T15:54:26Z</time>
      </trkpt>
      <trkpt lat="59.8692224" lon="17.6459398">
        <ele>23.209</ele>
        <time>2013-05-11T15:54:27Z</time>
      </trkpt>
      <trkpt lat="59.8692618" lon="17.6460125">
        <ele>22.7283</ele>
        <time>2013-05-11T15:54:28Z</time>
      </trkpt>
      <trkpt lat="59.8693016" lon="17.6460851">
        <ele>22.2476</ele>
        <time>2013-05-11T15:54:29Z</time>
      </trkpt>
      <trkpt lat="59.8693415" lon="17.6461574">
        <ele>21.767</ele>
        <time>2013-05-11T15:54:30Z</time>
      </trkpt>
      <trkpt lat="59.8693836" lon="17.6462287">
        <ele>21.767</ele>
        <time>2013-05-11T15:54:31Z</time>
      </trkpt>
      <trkpt lat="59.8694249" lon="17.6463006">
        <ele>21.2864</ele>
        <time>2013-05-11T15:54:32Z</time>
      </trkpt>
      <trkpt lat="59.8694641" lon="17.6463721">
        <ele>20.8057</ele>
        <time>2013-05-11T15:54:33Z</time>
      </trkpt>
      <trkpt lat="59.8695023" lon="17.6464426">
        <ele>21.2864</ele>
        <time>2013-05-11T15:54:34Z</time>
      </trkpt>
      <trkpt lat="59.8695412" lon="17.6465129">
        <ele>21.2864</ele>
        <time>2013-05-11T15:54:35Z</time>
      </trkpt>
      <trkpt lat="59.8695819" lon="17.6465816">
        <ele>21.2864</ele>
        <time>2013-05-11T15:54:36Z</time>
      </trkpt>
      <trkpt lat="59.8696246" lon="17.6466507">
        <ele>20.8057</ele>
        <time>2013-05-11T15:54:37Z</time>
      </trkpt>
      <trkpt lat="59.8696702" lon="17.6467239">
        <ele>20.8057</ele>
        <time>2013-05-11T15:54:38Z</time>
      </trkpt>
      <trkpt lat="59.8697166" lon="17.6468024">
        <ele>20.325</ele>
        <time>2013-05-11T15:54:39Z</time>
      </trkpt>
      <trkpt lat="59.8697665" lon="17.6468863">
        <ele>20.325</ele>
        <time>2013-05-11T15:54:40Z</time>
      </trkpt>
      <trkpt lat="59.8698173" lon="17.6469709">
        <ele>20.325</ele>
        <time>2013-05-11T15:54:41Z</time>
      </trkpt>
      <trkpt lat="59.869866" lon="17.6470567">
        <ele>19.8444</ele>
        <time>2013-05-11T15:54:42Z</time>
      </trkpt>
      <trkpt lat="59.8699139" lon="17.6471423">
        <ele>18.8831</ele>
        <time>2013-05-11T15:54:43Z</time>
      </trkpt>
      <trkpt lat="59.8699614" lon="17.6472253">
        <ele>18.8831</ele>
        <time>2013-05-11T15:54:44Z</time>
      </trkpt>
      <trkpt lat="59.8700079" lon="17.6473091">
        <ele>18.4023</ele>
        <time>2013-05-11T15:54:45Z</time>
      </trkpt>
      <trkpt lat="59.8700544" lon="17.6473915">
        <ele>18.4023</ele>
        <time>2013-05-11T15:54:46Z</time>
      </trkpt>
      <trkpt lat="59.8701001" lon="17.6474722">
        <ele>17.9218</ele>
        <time>2013-05-11T15:54:47Z</time>
      </trkpt>
      <trkpt lat="59.8701444" lon="17.64755">
        <ele>17.4412</ele>
        <time>2013-05-11T15:54:48Z</time>
      </trkpt>
      <trkpt lat="59.8701882" lon="17.6476237">
        <ele>16.9604</ele>
        <time>2013-05-11T15:54:49Z</time>
      </trkpt>
      <trkpt lat="59.8702302" lon="17.6476965">
        <ele>16.9604</ele>
        <time>2013-05-11T15:54:50Z</time>
      </trkpt>
      <trkpt lat="59.870273" lon="17.6477713">
        <ele>16.4797</ele>
        <time>2013-05-11T15:54:51Z</time>
      </trkpt>
      <trkpt lat="59.8703192" lon="17.6478485">
        <ele>15.999</ele>
        <time>2013-05-11T15:54:52Z</time>
      </trkpt>
      <trkpt lat="59.8703667" lon="17.6479301">
        <ele>15.999</ele>
        <time>2013-05-11T15:54:53Z</time>
      </trkpt>
      <trkpt lat="59.8704152" lon="17.648017">
        <ele>15.5184</ele>
        <time>2013-05-11T15:54:54Z</time>
      </trkpt>
      <trkpt lat="59.8704653" lon="17.648108">
        <ele>15.0377</ele>
        <time>2013-05-11T15:54:55Z</time>
      </trkpt>
      <trkpt lat="59.87052" lon="17.648196">
        <ele>15.0377</ele>
        <time>2013-05-11T15:54:56Z</time>
      </trkpt>
      <trkpt lat="59.8705713" lon="17.6482845">
        <ele>15.0377</ele>
        <time>2013-05-11T15:54:57Z</time>
      </trkpt>
      <trkpt lat="59.8706244" lon="17.6483667">
        <ele>14.557</ele>
        <time>2013-05-11T15:54:58Z</time>
      </trkpt>
      <trkpt lat="59.8706742" lon="17.6484477">
        <ele>14.0764</ele>
        <time>2013-05-11T15:54:59Z</time>
      </trkpt>
      <trkpt lat="59.8707223" lon="17.6485325">
        <ele>14.0764</ele>
        <time>2013-05-11T15:55:00Z</time>
      </trkpt>
      <trkpt lat="59.8707687" lon="17.6486123">
        <ele>13.5958</ele>
        <time>2013-05-11T15:55:01Z</time>
      </trkpt>
      <trkpt lat="59.8708163" lon="17.6486933">
        <ele>13.5958</ele>
        <time>2013-05-11T15:55:02Z</time>
      </trkpt>
      <trkpt lat="59.8708631" lon="17.6487772">
        <ele>13.5958</ele>
        <time>2013-05-11T15:55:03Z</time>
      </trkpt>
      <trkpt lat="59.8709046" lon="17.6488653">
        <ele>12.6344</ele>
        <time>2013-05-11T15:55:04Z</time>
      </trkpt>
      <trkpt lat="59.8709476" lon="17.6489463">
        <ele>12.6344</ele>
        <time>2013-05-11T15:55:05Z</time>
      </trkpt>
      <trkpt lat="59.8709926" lon="17.6490222">
        <ele>12.1538</ele>
        <time>2013-05-11T15:55:06Z</time>
      </trkpt>
      <trkpt lat="59.8710372" lon="17.6490978">
        <ele>12.1538</ele>
        <time>2013-05-11T15:55:07Z</time>
      </trkpt>
      <trkpt lat="59.8710812" lon="17.6491745">
        <ele>11.6732</ele>
        <time>2013-05-11T15:55:08Z</time>
      </trkpt>
      <trkpt lat="59.8711243" lon="17.6492485">
        <ele>11.6732</ele>
        <time>2013-05-11T15:55:09Z</time>
      </trkpt>
      <trkpt lat="59.8711687" lon="17.649322">
        <ele>11.1925</ele>
        <time>2013-05-11T15:55:10Z</time>
      </trkpt>
      <trkpt lat="59.8712138" lon="17.6493952">
        <ele>11.1925</ele>
        <time>2013-05-11T15:55:11Z</time>
      </trkpt>
      <trkpt lat="59.8712703" lon="17.649464">
        <ele>11.1925</ele>
        <time>2013-05-11T15:55:12Z</time>
      </trkpt>
      <trkpt lat="59.8713196" lon="17.6495418">
        <ele>11.1925</ele>
        <time>2013-05-11T15:55:13Z</time>
      </trkpt>
      <trkpt lat="59.8713665" lon="17.6496201">
        <ele>11.1925</ele>
        <time>2013-05-11T15:55:14Z</time>
      </trkpt>
      <trkpt lat="59.8714115" lon="17.6496992">
        <ele>10.7118</ele>
        <time>2013-05-11T15:55:15Z</time>
      </trkpt>
      <trkpt lat="59.8714553" lon="17.6497754">
        <ele>10.2312</ele>
        <time>2013-05-11T15:55:16Z</time>
      </trkpt>
      <trkpt lat="59.871499" lon="17.6498521">
        <ele>10.2312</ele>
        <time>2013-05-11T15:55:17Z</time>
      </trkpt>
      <trkpt lat="59.8715406" lon="17.6499293">
        <ele>10.2312</ele>
        <time>2013-05-11T15:55:18Z</time>
      </trkpt>
      <trkpt lat="59.8715817" lon="17.6500057">
        <ele>10.2312</ele>
        <time>2013-05-11T15:55:19Z</time>
      </trkpt>
      <trkpt lat="59.871622" lon="17.6500815">
        <ele>9.75061</ele>
        <time>2013-05-11T15:55:20Z</time>
      </trkpt>
      <trkpt lat="59.8716567" lon="17.6501648">
        <ele>9.75061</ele>
        <time>2013-05-11T15:55:21Z</time>
      </trkpt>
      <trkpt lat="59.8716952" lon="17.6502414">
        <ele>9.75061</ele>
        <time>2013-05-11T15:55:22Z</time>
      </trkpt>
      <trkpt lat="59.8717329" lon="17.6503156">
        <ele>9.75061</ele>
        <time>2013-05-11T15:55:23Z</time>
      </trkpt>
      <trkpt lat="59.8717701" lon="17.6503861">
        <ele>9.75061</ele>
        <time>2013-05-11T15:55:24Z</time>
      </trkpt>
      <trkpt lat="59.8718147" lon="17.6504514">
        <ele>10.2312</ele>
        <time>2013-05-11T15:55:25Z</time>
      </trkpt>
      <trkpt lat="59.8718556" lon="17.6505182">
        <ele>10.7118</ele>
        <time>2013-05-11T15:55:26Z</time>
      </trkpt>
      <trkpt lat="59.8718953" lon="17.6505809">
        <ele>10.7118</ele>
        <time>2013-05-11T15:55:27Z</time>
      </trkpt>
      <trkpt lat="59.8719348" lon="17.6506497">
        <ele>11.1925</ele>
        <time>2013-05-11T15:55:28Z</time>
      </trkpt>
      <trkpt lat="59.8719712" lon="17.650714">
        <ele>11.1925</ele>
        <time>2013-05-11T15:55:29Z</time>
      </trkpt>
      <trkpt lat="59.8720028" lon="17.6507679">
        <ele>11.1925</ele>
        <time>2013-05-11T15:55:30Z</time>
      </trkpt>
      <trkpt lat="59.8720302" lon="17.6508176">
        <ele>11.1925</ele>
        <time>2013-05-11T15:55:31Z</time>
      </trkpt>
      <trkpt lat="59.8720486" lon="17.650875">
        <ele>11.1925</ele>
        <time>2013-05-11T15:55:32Z</time>
      </trkpt>
      <trkpt lat="59.8720529" lon="17.6509346">
        <ele>11.1925</ele>
        <time>2013-05-11T15:55:33Z</time>
      </trkpt>
      <trkpt lat="59.8720578" lon="17.6509821">
        <ele>11.1925</ele>
        <time>2013-05-11T15:55:34Z</time>
      </trkpt>
      <trkpt lat="59.8720686" lon="17.6510103">
        <ele>11.1925</ele>
        <time>2013-05-11T15:55:35Z</time>
      </trkpt>
      <trkpt lat="59.8720785" lon="17.6510233">
        <ele>10.7118</ele>
        <time>2013-05-11T15:55:36Z</time>
      </trkpt>
      <trkpt lat="59.8720825" lon="17.6510264">
        <ele>10.7118</ele>
        <time>2013-05-11T15:55:37Z</time>
      </trkpt>
      <trkpt lat="59.872083" lon="17.6510254">
        <ele>10.7118</ele>
        <time>2013-05-11T15:55:38Z</time>
      </trkpt>
      <trkpt lat="59.8720828" lon="17.6510233">
        <ele>10.7118</ele>
        <time>2013-05-11T15:55:39Z</time>
      </trkpt>
      <trkpt lat="59.8720831" lon="17.651021">
        <ele>10.7118</ele>
        <time>2013-05-11T15:55:40Z</time>
      </trkpt>
      <trkpt lat="59.8720836" lon="17.6510195">
        <ele>10.7118</ele>
        <time>2013-05-11T15:55:41Z</time>
      </trkpt>
      <trkpt lat="59.8720834" lon="17.651018">
        <ele>10.7118</ele>
        <time>2013-05-11T15:55:42Z</time>
      </trkpt>
      <trkpt lat="59.872083" lon="17.6510171">
        <ele>10.7118</ele>
        <time>2013-05-11T15:55:43Z</time>
      </trkpt>
      <trkpt lat="59.8720839" lon="17.6510179">
        <ele>10.7118</ele>
        <time>2013-05-11T15:55:44Z</time>
      </trkpt>
      <trkpt lat="59.8720836" lon="17.6510186">
        <ele>10.7118</ele>
        <time>2013-05-11T15:55:45Z</time>
      </trkpt>
      <trkpt lat="59.8720832" lon="17.6510185">
        <ele>10.7118</ele>
        <time>2013-05-11T15:55:46Z</time>
      </trkpt>
      <trkpt lat="59.8720826" lon="17.651019">
        <ele>10.7118</ele>
        <time>2013-05-11T15:55:47Z</time>
      </trkpt>
      <trkpt lat="59.8720806" lon="17.6510192">
        <ele>10.7118</ele>
        <time>2013-05-11T15:55:48Z</time>
      </trkpt>
      <trkpt lat="59.8720788" lon="17.6510192">
        <ele>10.2312</ele>
        <time>2013-05-11T15:55:49Z</time>
      </trkpt>
      <trkpt lat="59.8720771" lon="17.6510192">
        <ele>10.2312</ele>
        <time>2013-05-11T15:55:50Z</time>
      </trkpt>
      <trkpt lat="59.8720763" lon="17.6510196">
        <ele>10.2312</ele>
        <time>2013-05-11T15:55:51Z</time>
      </trkpt>
      <trkpt lat="59.8720742" lon="17.651017">
        <ele>9.75061</ele>
        <time>2013-05-11T15:55:52Z</time>
      </trkpt>
      <trkpt lat="59.8720732" lon="17.6510155">
        <ele>9.2699</ele>
        <time>2013-05-11T15:55:53Z</time>
      </trkpt>
      <trkpt lat="59.8720726" lon="17.6510144">
        <ele>9.2699</ele>
        <time>2013-05-11T15:55:54Z</time>
      </trkpt>
      <trkpt lat="59.8720722" lon="17.6510142">
        <ele>9.2699</ele>
        <time>2013-05-11T15:55:55Z</time>
      </trkpt>
      <trkpt lat="59.8720692" lon="17.6510161">
        <ele>9.2699</ele>
        <time>2013-05-11T15:55:56Z</time>
      </trkpt>
      <trkpt lat="59.8720669" lon="17.6510171">
        <ele>8.78918</ele>
        <time>2013-05-11T15:55:57Z</time>
      </trkpt>
      <trkpt lat="59.8720665" lon="17.651018">
        <ele>8.78918</ele>
        <time>2013-05-11T15:55:58Z</time>
      </trkpt>
      <trkpt lat="59.8720648" lon="17.6510192">
        <ele>8.30859</ele>
        <time>2013-05-11T15:55:59Z</time>
      </trkpt>
      <trkpt lat="59.8720639" lon="17.651019">
        <ele>8.30859</ele>
        <time>2013-05-11T15:56:00Z</time>
      </trkpt>
      <trkpt lat="59.8720647" lon="17.651019">
        <ele>8.30859</ele>
        <time>2013-05-11T15:56:01Z</time>
      </trkpt>
      <trkpt lat="59.8720653" lon="17.651019">
        <ele>8.30859</ele>
        <time>2013-05-11T15:56:02Z</time>
      </trkpt>
      <trkpt lat="59.872066" lon="17.6510191">
        <ele>8.30859</ele>
        <time>2013-05-11T15:56:03Z</time>
      </trkpt>
      <trkpt lat="59.8720666" lon="17.6510192">
        <ele>7.82788</ele>
        <time>2013-05-11T15:56:04Z</time>
      </trkpt>
      <trkpt lat="59.872068" lon="17.6510191">
        <ele>7.82788</ele>
        <time>2013-05-11T15:56:05Z</time>
      </trkpt>
      <trkpt lat="59.8720694" lon="17.6510191">
        <ele>7.82788</ele>
        <time>2013-05-11T15:56:06Z</time>
      </trkpt>
      <trkpt lat="59.8720709" lon="17.6510191">
        <ele>7.82788</ele>
        <time>2013-05-11T15:56:07Z</time>
      </trkpt>
      <trkpt lat="59.8720716" lon="17.6510189">
        <ele>7.82788</ele>
        <time>2013-05-11T15:56:08Z</time>
      </trkpt>
      <trkpt lat="59.8720722" lon="17.6510186">
        <ele>7.82788</ele>
        <time>2013-05-11T15:56:09Z</time>
      </trkpt>
      <trkpt lat="59.8720732" lon="17.6510186">
        <ele>7.34717</ele>
        <time>2013-05-11T15:56:10Z</time>
      </trkpt>
      <trkpt lat="59.8720742" lon="17.6510184">
        <ele>7.34717</ele>
        <time>2013-05-11T15:56:11Z</time>
      </trkpt>
      <trkpt lat="59.8720754" lon="17.6510181">
        <ele>7.34717</ele>
        <time>2013-05-11T15:56:12Z</time>
      </trkpt>
      <trkpt lat="59.8720767" lon="17.6510177">
        <ele>7.34717</ele>
        <time>2013-05-11T15:56:13Z</time>
      </trkpt>
      <trkpt lat="59.8720774" lon="17.6510173">
        <ele>7.34717</ele>
        <time>2013-05-11T15:56:14Z</time>
      </trkpt>
      <trkpt lat="59.8720783" lon="17.6510168">
        <ele>6.86646</ele>
        <time>2013-05-11T15:56:15Z</time>
      </trkpt>
      <trkpt lat="59.8720789" lon="17.6510165">
        <ele>6.86646</ele>
        <time>2013-05-11T15:56:16Z</time>
      </trkpt>
      <trkpt lat="59.872079" lon="17.651016">
        <ele>6.86646</ele>
        <time>2013-05-11T15:56:17Z</time>
      </trkpt>
      <trkpt lat="59.8720794" lon="17.651015">
        <ele>6.86646</ele>
        <time>2013-05-11T15:56:18Z</time>
      </trkpt>
      <trkpt lat="59.87208" lon="17.6510145">
        <ele>6.86646</ele>
        <time>2013-05-11T15:56:19Z</time>
      </trkpt>
      <trkpt lat="59.8720799" lon="17.6510139">
        <ele>6.38586</ele>
        <time>2013-05-11T15:56:20Z</time>
      </trkpt>
      <trkpt lat="59.8720799" lon="17.651013">
        <ele>6.38586</ele>
        <time>2013-05-11T15:56:21Z</time>
      </trkpt>
      <trkpt lat="59.8720799" lon="17.6510122">
        <ele>6.38586</ele>
        <time>2013-05-11T15:56:22Z</time>
      </trkpt>
      <trkpt lat="59.8720797" lon="17.6510114">
        <ele>6.38586</ele>
        <time>2013-05-11T15:56:23Z</time>
      </trkpt>
      <trkpt lat="59.8720797" lon="17.6510108">
        <ele>6.38586</ele>
        <time>2013-05-11T15:56:24Z</time>
      </trkpt>
      <trkpt lat="59.8720798" lon="17.6510101">
        <ele>6.38586</ele>
        <time>2013-05-11T15:56:25Z</time>
      </trkpt>
      <trkpt lat="59.8720799" lon="17.6510092">
        <ele>6.38586</ele>
        <time>2013-05-11T15:56:26Z</time>
      </trkpt>
      <trkpt lat="59.8720799" lon="17.6510085">
        <ele>6.38586</ele>
        <time>2013-05-11T15:56:27Z</time>
      </trkpt>
      <trkpt lat="59.8720798" lon="17.651008">
        <ele>5.90527</ele>
        <time>2013-05-11T15:56:28Z</time>
      </trkpt>
      <trkpt lat="59.8720797" lon="17.6510075">
        <ele>5.90527</ele>
        <time>2013-05-11T15:56:29Z</time>
      </trkpt>
      <trkpt lat="59.8720794" lon="17.6510071">
        <ele>5.90527</ele>
        <time>2013-05-11T15:56:30Z</time>
      </trkpt>
      <trkpt lat="59.8720795" lon="17.6510066">
        <ele>5.90527</ele>
        <time>2013-05-11T15:56:31Z</time>
      </trkpt>
      <trkpt lat="59.8720797" lon="17.6510057">
        <ele>5.90527</ele>
        <time>2013-05-11T15:56:32Z</time>
      </trkpt>
      <trkpt lat="59.8720797" lon="17.651005">
        <ele>5.90527</ele>
        <time>2013-05-11T15:56:33Z</time>
      </trkpt>
      <trkpt lat="59.8720794" lon="17.6510046">
        <ele>5.90527</ele>
        <time>2013-05-11T15:56:34Z</time>
      </trkpt>
      <trkpt lat="59.8720824" lon="17.6510113">
        <ele>5.90527</ele>
        <time>2013-05-11T15:56:35Z</time>
      </trkpt>
      <trkpt lat="59.8720934" lon="17.651031">
        <ele>5.90527</ele>
        <time>2013-05-11T15:56:36Z</time>
      </trkpt>
      <trkpt lat="59.8721075" lon="17.6510564">
        <ele>6.38586</ele>
        <time>2013-05-11T15:56:37Z</time>
      </trkpt>
      <trkpt lat="59.8721222" lon="17.6510844">
        <ele>6.38586</ele>
        <time>2013-05-11T15:56:38Z</time>
      </trkpt>
      <trkpt lat="59.8721385" lon="17.651116">
        <ele>6.86646</ele>
        <time>2013-05-11T15:56:39Z</time>
      </trkpt>
      <trkpt lat="59.8721544" lon="17.651149">
        <ele>6.86646</ele>
        <time>2013-05-11T15:56:40Z</time>
      </trkpt>
      <trkpt lat="59.8721725" lon="17.6511844">
        <ele>6.86646</ele>
        <time>2013-05-11T15:56:41Z</time>
      </trkpt>
      <trkpt lat="59.8721954" lon="17.6512251">
        <ele>6.86646</ele>
        <time>2013-05-11T15:56:42Z</time>
      </trkpt>
      <trkpt lat="59.8722246" lon="17.6512714">
        <ele>6.86646</ele>
        <time>2013-05-11T15:56:43Z</time>
      </trkpt>
      <trkpt lat="59.8722612" lon="17.6513188">
        <ele>6.38586</ele>
        <time>2013-05-11T15:56:44Z</time>
      </trkpt>
      <trkpt lat="59.8723047" lon="17.6513614">
        <ele>6.38586</ele>
        <time>2013-05-11T15:56:45Z</time>
      </trkpt>
      <trkpt lat="59.8723477" lon="17.6514035">
        <ele>6.86646</ele>
        <time>2013-05-11T15:56:46Z</time>
      </trkpt>
      <trkpt lat="59.872395" lon="17.6514587">
        <ele>6.86646</ele>
        <time>2013-05-11T15:56:47Z</time>
      </trkpt>
      <trkpt lat="59.8724468" lon="17.6515302">
        <ele>6.86646</ele>
        <time>2013-05-11T15:56:48Z</time>
      </trkpt>
      <trkpt lat="59.872499" lon="17.6516122">
        <ele>6.86646</ele>
        <time>2013-05-11T15:56:49Z</time>
      </trkpt>
      <trkpt lat="59.8725522" lon="17.6517029">
        <ele>6.86646</ele>
        <time>2013-05-11T15:56:50Z</time>
      </trkpt>
      <trkpt lat="59.8726063" lon="17.6517961">
        <ele>6.86646</ele>
        <time>2013-05-11T15:56:51Z</time>
      </trkpt>
      <trkpt lat="59.8726601" lon="17.6518852">
        <ele>7.34717</ele>
        <time>2013-05-11T15:56:52Z</time>
      </trkpt>
      <trkpt lat="59.8727138" lon="17.6519707">
        <ele>7.34717</ele>
        <time>2013-05-11T15:56:53Z</time>
      </trkpt>
      <trkpt lat="59.8727672" lon="17.6520603">
        <ele>7.82788</ele>
        <time>2013-05-11T15:56:54Z</time>
      </trkpt>
      <trkpt lat="59.8728217" lon="17.6521251">
        <ele>7.82788</ele>
        <time>2013-05-11T15:56:55Z</time>
      </trkpt>
      <trkpt lat="59.8728704" lon="17.652195">
        <ele>8.30859</ele>
        <time>2013-05-11T15:56:56Z</time>
      </trkpt>
      <trkpt lat="59.8729122" lon="17.6522718">
        <ele>8.78918</ele>
        <time>2013-05-11T15:56:57Z</time>
      </trkpt>
      <trkpt lat="59.8729492" lon="17.6523575">
        <ele>8.78918</ele>
        <time>2013-05-11T15:56:58Z</time>
      </trkpt>
      <trkpt lat="59.8729833" lon="17.6524557">
        <ele>8.78918</ele>
        <time>2013-05-11T15:56:59Z</time>
      </trkpt>
      <trkpt lat="59.8730187" lon="17.6525545">
        <ele>8.78918</ele>
        <time>2013-05-11T15:57:00Z</time>
      </trkpt>
      <trkpt lat="59.8730568" lon="17.6526427">
        <ele>8.30859</ele>
        <time>2013-05-11T15:57:01Z</time>
      </trkpt>
      <trkpt lat="59.8731026" lon="17.6527234">
        <ele>8.30859</ele>
        <time>2013-05-11T15:57:02Z</time>
      </trkpt>
      <trkpt lat="59.8731542" lon="17.652798">
        <ele>7.82788</ele>
        <time>2013-05-11T15:57:03Z</time>
      </trkpt>
      <trkpt lat="59.8732102" lon="17.6528689">
        <ele>7.82788</ele>
        <time>2013-05-11T15:57:04Z</time>
      </trkpt>
      <trkpt lat="59.8732658" lon="17.6529377">
        <ele>7.82788</ele>
        <time>2013-05-11T15:57:05Z</time>
      </trkpt>
      <trkpt lat="59.8733186" lon="17.6530062">
        <ele>8.30859</ele>
        <time>2013-05-11T15:57:06Z</time>
      </trkpt>
      <trkpt lat="59.8733708" lon="17.6530703">
        <ele>8.78918</ele>
        <time>2013-05-11T15:57:07Z</time>
      </trkpt>
      <trkpt lat="59.8734212" lon="17.6531326">
        <ele>8.78918</ele>
        <time>2013-05-11T15:57:08Z</time>
      </trkpt>
      <trkpt lat="59.8734713" lon="17.6531938">
        <ele>8.78918</ele>
        <time>2013-05-11T15:57:09Z</time>
      </trkpt>
      <trkpt lat="59.8735204" lon="17.6532539">
        <ele>9.2699</ele>
        <time>2013-05-11T15:57:10Z</time>
      </trkpt>
      <trkpt lat="59.8735671" lon="17.6533129">
        <ele>9.2699</ele>
        <time>2013-05-11T15:57:11Z</time>
      </trkpt>
      <trkpt lat="59.873613" lon="17.6533724">
        <ele>8.78918</ele>
        <time>2013-05-11T15:57:12Z</time>
      </trkpt>
      <trkpt lat="59.8736645" lon="17.6534333">
        <ele>9.2699</ele>
        <time>2013-05-11T15:57:13Z</time>
      </trkpt>
      <trkpt lat="59.8737188" lon="17.6534942">
        <ele>9.2699</ele>
        <time>2013-05-11T15:57:14Z</time>
      </trkpt>
      <trkpt lat="59.8737738" lon="17.6535553">
        <ele>9.2699</ele>
        <time>2013-05-11T15:57:15Z</time>
      </trkpt>
      <trkpt lat="59.8738313" lon="17.6536154">
        <ele>9.2699</ele>
        <time>2013-05-11T15:57:16Z</time>
      </trkpt>
      <trkpt lat="59.8738912" lon="17.6536792">
        <ele>9.75061</ele>
        <time>2013-05-11T15:57:17Z</time>
      </trkpt>
      <trkpt lat="59.8739511" lon="17.6537504">
        <ele>9.75061</ele>
        <time>2013-05-11T15:57:18Z</time>
      </trkpt>
      <trkpt lat="59.874008" lon="17.6538096">
        <ele>9.75061</ele>
        <time>2013-05-11T15:57:19Z</time>
      </trkpt>
      <trkpt lat="59.8740598" lon="17.6538656">
        <ele>9.75061</ele>
        <time>2013-05-11T15:57:20Z</time>
      </trkpt>
      <trkpt lat="59.8741111" lon="17.6539192">
        <ele>9.2699</ele>
        <time>2013-05-11T15:57:21Z</time>
      </trkpt>
      <trkpt lat="59.8741612" lon="17.6539758">
        <ele>9.75061</ele>
        <time>2013-05-11T15:57:22Z</time>
      </trkpt>
      <trkpt lat="59.8742109" lon="17.6540319">
        <ele>9.75061</ele>
        <time>2013-05-11T15:57:23Z</time>
      </trkpt>
      <trkpt lat="59.8742692" lon="17.6540951">
        <ele>9.75061</ele>
        <time>2013-05-11T15:57:24Z</time>
      </trkpt>
      <trkpt lat="59.8743183" lon="17.6541497">
        <ele>9.75061</ele>
        <time>2013-05-11T15:57:25Z</time>
      </trkpt>
      <trkpt lat="59.8743642" lon="17.6541988">
        <ele>9.75061</ele>
        <time>2013-05-11T15:57:26Z</time>
      </trkpt>
      <trkpt lat="59.8744088" lon="17.6542379">
        <ele>9.75061</ele>
        <time>2013-05-11T15:57:27Z</time>
      </trkpt>
      <trkpt lat="59.8744566" lon="17.6542795">
        <ele>9.75061</ele>
        <time>2013-05-11T15:57:28Z</time>
      </trkpt>
      <trkpt lat="59.8745077" lon="17.6543296">
        <ele>10.2312</ele>
        <time>2013-05-11T15:57:29Z</time>
      </trkpt>
      <trkpt lat="59.8745602" lon="17.6543794">
        <ele>10.2312</ele>
        <time>2013-05-11T15:57:30Z</time>
      </trkpt>
      <trkpt lat="59.8746139" lon="17.6544281">
        <ele>10.2312</ele>
        <time>2013-05-11T15:57:31Z</time>
      </trkpt>
      <trkpt lat="59.87467" lon="17.6544784">
        <ele>10.2312</ele>
        <time>2013-05-11T15:57:32Z</time>
      </trkpt>
      <trkpt lat="59.8747337" lon="17.654524">
        <ele>11.1925</ele>
        <time>2013-05-11T15:57:33Z</time>
      </trkpt>
      <trkpt lat="59.8747949" lon="17.6545669">
        <ele>11.6732</ele>
        <time>2013-05-11T15:57:34Z</time>
      </trkpt>
      <trkpt lat="59.8748483" lon="17.6546126">
        <ele>11.6732</ele>
        <time>2013-05-11T15:57:35Z</time>
      </trkpt>
      <trkpt lat="59.8748993" lon="17.6546564">
        <ele>11.6732</ele>
        <time>2013-05-11T15:57:36Z</time>
      </trkpt>
      <trkpt lat="59.8749497" lon="17.6546968">
        <ele>11.6732</ele>
        <time>2013-05-11T15:57:37Z</time>
      </trkpt>
      <trkpt lat="59.8749994" lon="17.6547344">
        <ele>11.6732</ele>
        <time>2013-05-11T15:57:38Z</time>
      </trkpt>
      <trkpt lat="59.8750497" lon="17.6547717">
        <ele>11.6732</ele>
        <time>2013-05-11T15:57:39Z</time>
      </trkpt>
      <trkpt lat="59.8751024" lon="17.6548097">
        <ele>11.1925</ele>
        <time>2013-05-11T15:57:40Z</time>
      </trkpt>
      <trkpt lat="59.8751593" lon="17.6548494">
        <ele>11.6732</ele>
        <time>2013-05-11T15:57:41Z</time>
      </trkpt>
      <trkpt lat="59.875218" lon="17.6548901">
        <ele>11.6732</ele>
        <time>2013-05-11T15:57:42Z</time>
      </trkpt>
      <trkpt lat="59.8752956" lon="17.6549496">
        <ele>11.6732</ele>
        <time>2013-05-11T15:57:43Z</time>
      </trkpt>
      <trkpt lat="59.8753485" lon="17.6550011">
        <ele>11.1925</ele>
        <time>2013-05-11T15:57:44Z</time>
      </trkpt>
      <trkpt lat="59.8753971" lon="17.655048">
        <ele>10.7118</ele>
        <time>2013-05-11T15:57:45Z</time>
      </trkpt>
      <trkpt lat="59.8754434" lon="17.6550791">
        <ele>10.7118</ele>
        <time>2013-05-11T15:57:46Z</time>
      </trkpt>
      <trkpt lat="59.87549" lon="17.6551057">
        <ele>10.2312</ele>
        <time>2013-05-11T15:57:47Z</time>
      </trkpt>
      <trkpt lat="59.8755345" lon="17.6551327">
        <ele>9.75061</ele>
        <time>2013-05-11T15:57:48Z</time>
      </trkpt>
      <trkpt lat="59.8755852" lon="17.655155">
        <ele>9.75061</ele>
        <time>2013-05-11T15:57:49Z</time>
      </trkpt>
      <trkpt lat="59.8756387" lon="17.6551776">
        <ele>9.75061</ele>
        <time>2013-05-11T15:57:50Z</time>
      </trkpt>
      <trkpt lat="59.8756879" lon="17.6552134">
        <ele>9.2699</ele>
        <time>2013-05-11T15:57:51Z</time>
      </trkpt>
      <trkpt lat="59.8757334" lon="17.6552497">
        <ele>9.2699</ele>
        <time>2013-05-11T15:57:52Z</time>
      </trkpt>
      <trkpt lat="59.8757962" lon="17.6552834">
        <ele>9.2699</ele>
        <time>2013-05-11T15:57:53Z</time>
      </trkpt>
      <trkpt lat="59.8758573" lon="17.6553181">
        <ele>9.2699</ele>
        <time>2013-05-11T15:57:54Z</time>
      </trkpt>
      <trkpt lat="59.8759122" lon="17.6553503">
        <ele>9.2699</ele>
        <time>2013-05-11T15:57:55Z</time>
      </trkpt>
      <trkpt lat="59.8759691" lon="17.6553795">
        <ele>8.78918</ele>
        <time>2013-05-11T15:57:56Z</time>
      </trkpt>
      <trkpt lat="59.876021" lon="17.6554061">
        <ele>8.78918</ele>
        <time>2013-05-11T15:57:57Z</time>
      </trkpt>
      <trkpt lat="59.8760681" lon="17.6554327">
        <ele>8.30859</ele>
        <time>2013-05-11T15:57:58Z</time>
      </trkpt>
      <trkpt lat="59.8761183" lon="17.6554585">
        <ele>7.82788</ele>
        <time>2013-05-11T15:57:59Z</time>
      </trkpt>
      <trkpt lat="59.8761718" lon="17.6554868">
        <ele>7.34717</ele>
        <time>2013-05-11T15:58:00Z</time>
      </trkpt>
      <trkpt lat="59.8762224" lon="17.6555106">
        <ele>6.86646</ele>
        <time>2013-05-11T15:58:01Z</time>
      </trkpt>
      <trkpt lat="59.876277" lon="17.6555324">
        <ele>6.86646</ele>
        <time>2013-05-11T15:58:02Z</time>
      </trkpt>
      <trkpt lat="59.8763333" lon="17.6555486">
        <ele>5.90527</ele>
        <time>2013-05-11T15:58:03Z</time>
      </trkpt>
      <trkpt lat="59.876395" lon="17.6555657">
        <ele>5.42456</ele>
        <time>2013-05-11T15:58:04Z</time>
      </trkpt>
      <trkpt lat="59.8764592" lon="17.6555813">
        <ele>5.90527</ele>
        <time>2013-05-11T15:58:05Z</time>
      </trkpt>
      <trkpt lat="59.8765219" lon="17.6556">
        <ele>6.38586</ele>
        <time>2013-05-11T15:58:06Z</time>
      </trkpt>
      <trkpt lat="59.8765846" lon="17.655619">
        <ele>5.90527</ele>
        <time>2013-05-11T15:58:07Z</time>
      </trkpt>
      <trkpt lat="59.876646" lon="17.6556449">
        <ele>6.86646</ele>
        <time>2013-05-11T15:58:08Z</time>
      </trkpt>
      <trkpt lat="59.8767052" lon="17.6556759">
        <ele>6.86646</ele>
        <time>2013-05-11T15:58:09Z</time>
      </trkpt>
      <trkpt lat="59.8767665" lon="17.655702">
        <ele>6.86646</ele>
        <time>2013-05-11T15:58:10Z</time>
      </trkpt>
      <trkpt lat="59.8768289" lon="17.6557309">
        <ele>6.86646</ele>
        <time>2013-05-11T15:58:11Z</time>
      </trkpt>
      <trkpt lat="59.8768921" lon="17.6557577">
        <ele>7.82788</ele>
        <time>2013-05-11T15:58:12Z</time>
      </trkpt>
      <trkpt lat="59.8769507" lon="17.6557804">
        <ele>7.34717</ele>
        <time>2013-05-11T15:58:13Z</time>
      </trkpt>
      <trkpt lat="59.8770093" lon="17.655803">
        <ele>8.30859</ele>
        <time>2013-05-11T15:58:14Z</time>
      </trkpt>
      <trkpt lat="59.8770658" lon="17.6558212">
        <ele>8.30859</ele>
        <time>2013-05-11T15:58:15Z</time>
      </trkpt>
      <trkpt lat="59.8771205" lon="17.6558345">
        <ele>8.30859</ele>
        <time>2013-05-11T15:58:16Z</time>
      </trkpt>
      <trkpt lat="59.8771792" lon="17.655838">
        <ele>7.82788</ele>
        <time>2013-05-11T15:58:17Z</time>
      </trkpt>
      <trkpt lat="59.8772439" lon="17.6558356">
        <ele>9.2699</ele>
        <time>2013-05-11T15:58:18Z</time>
      </trkpt>
      <trkpt lat="59.8773042" lon="17.6558357">
        <ele>10.7118</ele>
        <time>2013-05-11T15:58:19Z</time>
      </trkpt>
      <trkpt lat="59.8773563" lon="17.6558374">
        <ele>11.1925</ele>
        <time>2013-05-11T15:58:20Z</time>
      </trkpt>
      <trkpt lat="59.8774077" lon="17.6558357">
        <ele>12.1538</ele>
        <time>2013-05-11T15:58:21Z</time>
      </trkpt>
      <trkpt lat="59.8774564" lon="17.655834">
        <ele>12.1538</ele>
        <time>2013-05-11T15:58:22Z</time>
      </trkpt>
      <trkpt lat="59.8775012" lon="17.6558393">
        <ele>12.6344</ele>
        <time>2013-05-11T15:58:23Z</time>
      </trkpt>
      <trkpt lat="59.8775451" lon="17.6558454">
        <ele>12.6344</ele>
        <time>2013-05-11T15:58:24Z</time>
      </trkpt>
      <trkpt lat="59.8775896" lon="17.655853">
        <ele>13.1151</ele>
        <time>2013-05-11T15:58:25Z</time>
      </trkpt>
      <trkpt lat="59.8776357" lon="17.6558621">
        <ele>13.1151</ele>
        <time>2013-05-11T15:58:26Z</time>
      </trkpt>
      <trkpt lat="59.877683" lon="17.6558712">
        <ele>13.5958</ele>
        <time>2013-05-11T15:58:27Z</time>
      </trkpt>
      <trkpt lat="59.8777333" lon="17.6558745">
        <ele>14.0764</ele>
        <time>2013-05-11T15:58:28Z</time>
      </trkpt>
      <trkpt lat="59.8777817" lon="17.6558766">
        <ele>14.0764</ele>
        <time>2013-05-11T15:58:29Z</time>
      </trkpt>
      <trkpt lat="59.8778305" lon="17.6558781">
        <ele>14.557</ele>
        <time>2013-05-11T15:58:30Z</time>
      </trkpt>
      <trkpt lat="59.8778784" lon="17.6558838">
        <ele>14.557</ele>
        <time>2013-05-11T15:58:31Z</time>
      </trkpt>
      <trkpt lat="59.8779283" lon="17.6558893">
        <ele>14.557</ele>
        <time>2013-05-11T15:58:32Z</time>
      </trkpt>
      <trkpt lat="59.8779791" lon="17.655891">
        <ele>14.0764</ele>
        <time>2013-05-11T15:58:33Z</time>
      </trkpt>
      <trkpt lat="59.8780282" lon="17.6558916">
        <ele>14.0764</ele>
        <time>2013-05-11T15:58:34Z</time>
      </trkpt>
      <trkpt lat="59.8780764" lon="17.6558889">
        <ele>14.0764</ele>
        <time>2013-05-11T15:58:35Z</time>
      </trkpt>
      <trkpt lat="59.8781225" lon="17.6558857">
        <ele>14.557</ele>
        <time>2013-05-11T15:58:36Z</time>
      </trkpt>
      <trkpt lat="59.8781667" lon="17.6558817">
        <ele>15.0377</ele>
        <time>2013-05-11T15:58:37Z</time>
      </trkpt>
      <trkpt lat="59.8782064" lon="17.6558796">
        <ele>14.557</ele>
        <time>2013-05-11T15:58:38Z</time>
      </trkpt>
      <trkpt lat="59.8782428" lon="17.6558836">
        <ele>13.5958</ele>
        <time>2013-05-11T15:58:39Z</time>
      </trkpt>
      <trkpt lat="59.8782843" lon="17.6558851">
        <ele>13.1151</ele>
        <time>2013-05-11T15:58:40Z</time>
      </trkpt>
      <trkpt lat="59.878328" lon="17.6558842">
        <ele>13.1151</ele>
        <time>2013-05-11T15:58:41Z</time>
      </trkpt>
      <trkpt lat="59.8783731" lon="17.6558835">
        <ele>13.1151</ele>
        <time>2013-05-11T15:58:42Z</time>
      </trkpt>
      <trkpt lat="59.8784204" lon="17.6558847">
        <ele>13.5958</ele>
        <time>2013-05-11T15:58:43Z</time>
      </trkpt>
      <trkpt lat="59.8784685" lon="17.6558863">
        <ele>12.6344</ele>
        <time>2013-05-11T15:58:44Z</time>
      </trkpt>
      <trkpt lat="59.8785212" lon="17.6558856">
        <ele>12.6344</ele>
        <time>2013-05-11T15:58:45Z</time>
      </trkpt>
      <trkpt lat="59.8785738" lon="17.6558826">
        <ele>12.6344</ele>
        <time>2013-05-11T15:58:46Z</time>
      </trkpt>
      <trkpt lat="59.8786253" lon="17.655878">
        <ele>12.6344</ele>
        <time>2013-05-11T15:58:47Z</time>
      </trkpt>
      <trkpt lat="59.8786742" lon="17.6558703">
        <ele>12.1538</ele>
        <time>2013-05-11T15:58:48Z</time>
      </trkpt>
      <trkpt lat="59.8787209" lon="17.655863">
        <ele>10.7118</ele>
        <time>2013-05-11T15:58:49Z</time>
      </trkpt>
      <trkpt lat="59.8787701" lon="17.6558521">
        <ele>10.2312</ele>
        <time>2013-05-11T15:58:50Z</time>
      </trkpt>
      <trkpt lat="59.8788229" lon="17.6558324">
        <ele>11.1925</ele>
        <time>2013-05-11T15:58:51Z</time>
      </trkpt>
      <trkpt lat="59.8788705" lon="17.6558146">
        <ele>11.6732</ele>
        <time>2013-05-11T15:58:52Z</time>
      </trkpt>
      <trkpt lat="59.8789108" lon="17.6558012">
        <ele>11.6732</ele>
        <time>2013-05-11T15:58:53Z</time>
      </trkpt>
      <trkpt lat="59.8789549" lon="17.6557931">
        <ele>12.1538</ele>
        <time>2013-05-11T15:58:54Z</time>
      </trkpt>
      <trkpt lat="59.8790019" lon="17.6557852">
        <ele>13.1151</ele>
        <time>2013-05-11T15:58:55Z</time>
      </trkpt>
      <trkpt lat="59.8790517" lon="17.6557725">
        <ele>13.1151</ele>
        <time>2013-05-11T15:58:56Z</time>
      </trkpt>
      <trkpt lat="59.8791016" lon="17.6557635">
        <ele>13.1151</ele>
        <time>2013-05-11T15:58:57Z</time>
      </trkpt>
      <trkpt lat="59.8791507" lon="17.6557546">
        <ele>13.1151</ele>
        <time>2013-05-11T15:58:58Z</time>
      </trkpt>
      <trkpt lat="59.8792035" lon="17.6557579">
        <ele>13.1151</ele>
        <time>2013-05-11T15:58:59Z</time>
      </trkpt>
      <trkpt lat="59.879258" lon="17.6557668">
        <ele>13.1151</ele>
        <time>2013-05-11T15:59:00Z</time>
      </trkpt>
      <trkpt lat="59.8793145" lon="17.6557763">
        <ele>13.1151</ele>
        <time>2013-05-11T15:59:01Z</time>
      </trkpt>
      <trkpt lat="59.8793712" lon="17.6557796">
        <ele>13.1151</ele>
        <time>2013-05-11T15:59:02Z</time>
      </trkpt>
      <trkpt lat="59.8794241" lon="17.6557759">
        <ele>13.5958</ele>
        <time>2013-05-11T15:59:03Z</time>
      </trkpt>
      <trkpt lat="59.8794714" lon="17.6557693">
        <ele>13.5958</ele>
        <time>2013-05-11T15:59:04Z</time>
      </trkpt>
      <trkpt lat="59.8795217" lon="17.655761">
        <ele>13.1151</ele>
        <time>2013-05-11T15:59:05Z</time>
      </trkpt>
      <trkpt lat="59.8795739" lon="17.6557548">
        <ele>13.1151</ele>
        <time>2013-05-11T15:59:06Z</time>
      </trkpt>
      <trkpt lat="59.8796272" lon="17.6557494">
        <ele>12.6344</ele>
        <time>2013-05-11T15:59:07Z</time>
      </trkpt>
      <trkpt lat="59.8796827" lon="17.655737">
        <ele>12.6344</ele>
        <time>2013-05-11T15:59:08Z</time>
      </trkpt>
      <trkpt lat="59.879736" lon="17.6557206">
        <ele>12.6344</ele>
        <time>2013-05-11T15:59:09Z</time>
      </trkpt>
      <trkpt lat="59.8797844" lon="17.6557086">
        <ele>13.1151</ele>
        <time>2013-05-11T15:59:10Z</time>
      </trkpt>
      <trkpt lat="59.8798336" lon="17.6556993">
        <ele>14.0764</ele>
        <time>2013-05-11T15:59:11Z</time>
      </trkpt>
      <trkpt lat="59.8798836" lon="17.6556962">
        <ele>14.557</ele>
        <time>2013-05-11T15:59:12Z</time>
      </trkpt>
      <trkpt lat="59.8799348" lon="17.6556965">
        <ele>14.557</ele>
        <time>2013-05-11T15:59:13Z</time>
      </trkpt>
      <trkpt lat="59.8799905" lon="17.6556908">
        <ele>14.557</ele>
        <time>2013-05-11T15:59:14Z</time>
      </trkpt>
      <trkpt lat="59.88005" lon="17.6556789">
        <ele>15.0377</ele>
        <time>2013-05-11T15:59:15Z</time>
      </trkpt>
      <trkpt lat="59.8801135" lon="17.6556619">
        <ele>15.5184</ele>
        <time>2013-05-11T15:59:16Z</time>
      </trkpt>
      <trkpt lat="59.8801759" lon="17.6556464">
        <ele>15.999</ele>
        <time>2013-05-11T15:59:17Z</time>
      </trkpt>
      <trkpt lat="59.8802351" lon="17.6556328">
        <ele>15.999</ele>
        <time>2013-05-11T15:59:18Z</time>
      </trkpt>
      <trkpt lat="59.880291" lon="17.6556193">
        <ele>15.999</ele>
        <time>2013-05-11T15:59:19Z</time>
      </trkpt>
      <trkpt lat="59.8803446" lon="17.6556112">
        <ele>15.5184</ele>
        <time>2013-05-11T15:59:20Z</time>
      </trkpt>
      <trkpt lat="59.880396" lon="17.6556052">
        <ele>15.5184</ele>
        <time>2013-05-11T15:59:21Z</time>
      </trkpt>
      <trkpt lat="59.8804464" lon="17.6555924">
        <ele>14.557</ele>
        <time>2013-05-11T15:59:22Z</time>
      </trkpt>
      <trkpt lat="59.8804972" lon="17.655577">
        <ele>15.0377</ele>
        <time>2013-05-11T15:59:23Z</time>
      </trkpt>
      <trkpt lat="59.8805459" lon="17.6555657">
        <ele>15.0377</ele>
        <time>2013-05-11T15:59:24Z</time>
      </trkpt>
      <trkpt lat="59.8805975" lon="17.6555541">
        <ele>15.0377</ele>
        <time>2013-05-11T15:59:25Z</time>
      </trkpt>
      <trkpt lat="59.8806516" lon="17.6555459">
        <ele>14.557</ele>
        <time>2013-05-11T15:59:26Z</time>
      </trkpt>
      <trkpt lat="59.8807056" lon="17.6555388">
        <ele>14.557</ele>
        <time>2013-05-11T15:59:27Z</time>
      </trkpt>
      <trkpt lat="59.8807566" lon="17.6555362">
        <ele>14.0764</ele>
        <time>2013-05-11T15:59:28Z</time>
      </trkpt>
      <trkpt lat="59.8808074" lon="17.6555326">
        <ele>14.0764</ele>
        <time>2013-05-11T15:59:29Z</time>
      </trkpt>
      <trkpt lat="59.8808569" lon="17.6555295">
        <ele>14.0764</ele>
        <time>2013-05-11T15:59:30Z</time>
      </trkpt>
      <trkpt lat="59.8809075" lon="17.6555268">
        <ele>14.0764</ele>
        <time>2013-05-11T15:59:31Z</time>
      </trkpt>
      <trkpt lat="59.8809591" lon="17.6555293">
        <ele>14.0764</ele>
        <time>2013-05-11T15:59:32Z</time>
      </trkpt>
      <trkpt lat="59.8810084" lon="17.6555416">
        <ele>14.0764</ele>
        <time>2013-05-11T15:59:33Z</time>
      </trkpt>
      <trkpt lat="59.8810563" lon="17.655559">
        <ele>14.557</ele>
        <time>2013-05-11T15:59:34Z</time>
      </trkpt>
      <trkpt lat="59.8811032" lon="17.6555686">
        <ele>14.0764</ele>
        <time>2013-05-11T15:59:35Z</time>
      </trkpt>
      <trkpt lat="59.8811503" lon="17.655562">
        <ele>14.557</ele>
        <time>2013-05-11T15:59:36Z</time>
      </trkpt>
      <trkpt lat="59.8811968" lon="17.6555517">
        <ele>14.0764</ele>
        <time>2013-05-11T15:59:37Z</time>
      </trkpt>
      <trkpt lat="59.8812419" lon="17.6555455">
        <ele>14.0764</ele>
        <time>2013-05-11T15:59:38Z</time>
      </trkpt>
      <trkpt lat="59.8812868" lon="17.6555418">
        <ele>14.0764</ele>
        <time>2013-05-11T15:59:39Z</time>
      </trkpt>
      <trkpt lat="59.8813322" lon="17.6555413">
        <ele>13.5958</ele>
        <time>2013-05-11T15:59:40Z</time>
      </trkpt>
      <trkpt lat="59.8813782" lon="17.6555433">
        <ele>13.1151</ele>
        <time>2013-05-11T15:59:41Z</time>
      </trkpt>
      <trkpt lat="59.8814264" lon="17.6555453">
        <ele>12.6344</ele>
        <time>2013-05-11T15:59:42Z</time>
      </trkpt>
      <trkpt lat="59.8814766" lon="17.655547">
        <ele>11.6732</ele>
        <time>2013-05-11T15:59:43Z</time>
      </trkpt>
      <trkpt lat="59.8815303" lon="17.6555511">
        <ele>11.6732</ele>
        <time>2013-05-11T15:59:44Z</time>
      </trkpt>
      <trkpt lat="59.8815871" lon="17.6555568">
        <ele>11.6732</ele>
        <time>2013-05-11T15:59:45Z</time>
      </trkpt>
      <trkpt lat="59.8816466" lon="17.6555584">
        <ele>11.6732</ele>
        <time>2013-05-11T15:59:46Z</time>
      </trkpt>
      <trkpt lat="59.8817097" lon="17.6555635">
        <ele>12.1538</ele>
        <time>2013-05-11T15:59:47Z</time>
      </trkpt>
      <trkpt lat="59.881774" lon="17.6555749">
        <ele>12.1538</ele>
        <time>2013-05-11T15:59:48Z</time>
      </trkpt>
      <trkpt lat="59.8818357" lon="17.6555823">
        <ele>11.6732</ele>
        <time>2013-05-11T15:59:49Z</time>
      </trkpt>
      <trkpt lat="59.8818965" lon="17.6555864">
        <ele>11.6732</ele>
        <time>2013-05-11T15:59:50Z</time>
      </trkpt>
      <trkpt lat="59.8819561" lon="17.6555941">
        <ele>12.1538</ele>
        <time>2013-05-11T15:59:51Z</time>
      </trkpt>
      <trkpt lat="59.8820129" lon="17.6556046">
        <ele>12.1538</ele>
        <time>2013-05-11T15:59:52Z</time>
      </trkpt>
      <trkpt lat="59.8820697" lon="17.6556133">
        <ele>12.1538</ele>
        <time>2013-05-11T15:59:53Z</time>
      </trkpt>
      <trkpt lat="59.8821278" lon="17.6556214">
        <ele>13.1151</ele>
        <time>2013-05-11T15:59:54Z</time>
      </trkpt>
      <trkpt lat="59.8821838" lon="17.6556276">
        <ele>13.5958</ele>
        <time>2013-05-11T15:59:55Z</time>
      </trkpt>
      <trkpt lat="59.8822401" lon="17.6556334">
        <ele>14.0764</ele>
        <time>2013-05-11T15:59:56Z</time>
      </trkpt>
      <trkpt lat="59.8822961" lon="17.6556406">
        <ele>14.0764</ele>
        <time>2013-05-11T15:59:57Z</time>
      </trkpt>
      <trkpt lat="59.8823527" lon="17.6556506">
        <ele>13.5958</ele>
        <time>2013-05-11T15:59:58Z</time>
      </trkpt>
      <trkpt lat="59.8824151" lon="17.6556575">
        <ele>13.5958</ele>
        <time>2013-05-11T15:59:59Z</time>
      </trkpt>
      <trkpt lat="59.8824777" lon="17.6556601">
        <ele>13.5958</ele>
        <time>2013-05-11T16:00:00Z</time>
      </trkpt>
      <trkpt lat="59.8825381" lon="17.6556593">
        <ele>13.5958</ele>
        <time>2013-05-11T16:00:01Z</time>
      </trkpt>
      <trkpt lat="59.882597" lon="17.6556599">
        <ele>13.5958</ele>
        <time>2013-05-11T16:00:02Z</time>
      </trkpt>
      <trkpt lat="59.8826544" lon="17.6556627">
        <ele>13.5958</ele>
        <time>2013-05-11T16:00:03Z</time>
      </trkpt>
      <trkpt lat="59.8827098" lon="17.6556668">
        <ele>13.5958</ele>
        <time>2013-05-11T16:00:04Z</time>
      </trkpt>
      <trkpt lat="59.8827632" lon="17.6556704">
        <ele>13.5958</ele>
        <time>2013-05-11T16:00:05Z</time>
      </trkpt>
      <trkpt lat="59.8828179" lon="17.6556691">
        <ele>13.5958</ele>
        <time>2013-05-11T16:00:06Z</time>
      </trkpt>
      <trkpt lat="59.8828726" lon="17.6556687">
        <ele>13.5958</ele>
        <time>2013-05-11T16:00:07Z</time>
      </trkpt>
      <trkpt lat="59.8829284" lon="17.6556714">
        <ele>13.5958</ele>
        <time>2013-05-11T16:00:08Z</time>
      </trkpt>
      <trkpt lat="59.8829852" lon="17.6556776">
        <ele>13.5958</ele>
        <time>2013-05-11T16:00:09Z</time>
      </trkpt>
      <trkpt lat="59.8830411" lon="17.6556863">
        <ele>13.1151</ele>
        <time>2013-05-11T16:00:10Z</time>
      </trkpt>
      <trkpt lat="59.8830986" lon="17.6556934">
        <ele>13.1151</ele>
        <time>2013-05-11T16:00:11Z</time>
      </trkpt>
      <trkpt lat="59.8831577" lon="17.6556926">
        <ele>12.6344</ele>
        <time>2013-05-11T16:00:12Z</time>
      </trkpt>
      <trkpt lat="59.883217" lon="17.6556867">
        <ele>12.6344</ele>
        <time>2013-05-11T16:00:13Z</time>
      </trkpt>
      <trkpt lat="59.8832755" lon="17.6556735">
        <ele>13.1151</ele>
        <time>2013-05-11T16:00:14Z</time>
      </trkpt>
      <trkpt lat="59.8833327" lon="17.6556558">
        <ele>13.1151</ele>
        <time>2013-05-11T16:00:15Z</time>
      </trkpt>
      <trkpt lat="59.8833905" lon="17.6556368">
        <ele>13.5958</ele>
        <time>2013-05-11T16:00:16Z</time>
      </trkpt>
      <trkpt lat="59.8834481" lon="17.6556235">
        <ele>14.0764</ele>
        <time>2013-05-11T16:00:17Z</time>
      </trkpt>
      <trkpt lat="59.8835045" lon="17.65562">
        <ele>14.557</ele>
        <time>2013-05-11T16:00:18Z</time>
      </trkpt>
      <trkpt lat="59.883559" lon="17.6556222">
        <ele>15.0377</ele>
        <time>2013-05-11T16:00:19Z</time>
      </trkpt>
      <trkpt lat="59.8836104" lon="17.6556263">
        <ele>15.0377</ele>
        <time>2013-05-11T16:00:20Z</time>
      </trkpt>
      <trkpt lat="59.8836638" lon="17.6556313">
        <ele>15.0377</ele>
        <time>2013-05-11T16:00:21Z</time>
      </trkpt>
      <trkpt lat="59.8837164" lon="17.6556395">
        <ele>15.5184</ele>
        <time>2013-05-11T16:00:22Z</time>
      </trkpt>
      <trkpt lat="59.8837686" lon="17.6556478">
        <ele>15.5184</ele>
        <time>2013-05-11T16:00:23Z</time>
      </trkpt>
      <trkpt lat="59.8838211" lon="17.6556543">
        <ele>15.999</ele>
        <time>2013-05-11T16:00:24Z</time>
      </trkpt>
      <trkpt lat="59.8838734" lon="17.6556585">
        <ele>16.4797</ele>
        <time>2013-05-11T16:00:25Z</time>
      </trkpt>
      <trkpt lat="59.8839245" lon="17.6556646">
        <ele>15.999</ele>
        <time>2013-05-11T16:00:26Z</time>
      </trkpt>
      <trkpt lat="59.8839741" lon="17.6556719">
        <ele>16.4797</ele>
        <time>2013-05-11T16:00:27Z</time>
      </trkpt>
      <trkpt lat="59.8840202" lon="17.6556761">
        <ele>16.4797</ele>
        <time>2013-05-11T16:00:28Z</time>
      </trkpt>
      <trkpt lat="59.8840646" lon="17.655682">
        <ele>16.4797</ele>
        <time>2013-05-11T16:00:29Z</time>
      </trkpt>
      <trkpt lat="59.8841072" lon="17.6556873">
        <ele>16.9604</ele>
        <time>2013-05-11T16:00:30Z</time>
      </trkpt>
      <trkpt lat="59.8841484" lon="17.6556911">
        <ele>16.9604</ele>
        <time>2013-05-11T16:00:31Z</time>
      </trkpt>
      <trkpt lat="59.8841895" lon="17.6556946">
        <ele>17.4412</ele>
        <time>2013-05-11T16:00:32Z</time>
      </trkpt>
      <trkpt lat="59.8842338" lon="17.6556974">
        <ele>17.4412</ele>
        <time>2013-05-11T16:00:33Z</time>
      </trkpt>
      <trkpt lat="59.8842791" lon="17.6557019">
        <ele>16.9604</ele>
        <time>2013-05-11T16:00:34Z</time>
      </trkpt>
      <trkpt lat="59.8843239" lon="17.655705">
        <ele>16.9604</ele>
        <time>2013-05-11T16:00:35Z</time>
      </trkpt>
      <trkpt lat="59.8843688" lon="17.6557081">
        <ele>16.9604</ele>
        <time>2013-05-11T16:00:36Z</time>
      </trkpt>
      <trkpt lat="59.8844144" lon="17.655715">
        <ele>16.9604</ele>
        <time>2013-05-11T16:00:37Z</time>
      </trkpt>
      <trkpt lat="59.8844612" lon="17.6557271">
        <ele>16.9604</ele>
        <time>2013-05-11T16:00:38Z</time>
      </trkpt>
      <trkpt lat="59.8845091" lon="17.6557437">
        <ele>16.4797</ele>
        <time>2013-05-11T16:00:39Z</time>
      </trkpt>
      <trkpt lat="59.8845587" lon="17.6557631">
        <ele>16.4797</ele>
        <time>2013-05-11T16:00:40Z</time>
      </trkpt>
      <trkpt lat="59.8846094" lon="17.6557847">
        <ele>16.4797</ele>
        <time>2013-05-11T16:00:41Z</time>
      </trkpt>
      <trkpt lat="59.884661" lon="17.6558077">
        <ele>15.999</ele>
        <time>2013-05-11T16:00:42Z</time>
      </trkpt>
      <trkpt lat="59.8847146" lon="17.6558361">
        <ele>15.999</ele>
        <time>2013-05-11T16:00:43Z</time>
      </trkpt>
      <trkpt lat="59.884768" lon="17.6558749">
        <ele>15.999</ele>
        <time>2013-05-11T16:00:44Z</time>
      </trkpt>
      <trkpt lat="59.8848203" lon="17.6559241">
        <ele>15.999</ele>
        <time>2013-05-11T16:00:45Z</time>
      </trkpt>
      <trkpt lat="59.884872" lon="17.6559792">
        <ele>15.999</ele>
        <time>2013-05-11T16:00:46Z</time>
      </trkpt>
      <trkpt lat="59.884923" lon="17.656038">
        <ele>15.999</ele>
        <time>2013-05-11T16:00:47Z</time>
      </trkpt>
      <trkpt lat="59.8849726" lon="17.656104">
        <ele>15.999</ele>
        <time>2013-05-11T16:00:48Z</time>
      </trkpt>
      <trkpt lat="59.8850198" lon="17.6561759">
        <ele>15.999</ele>
        <time>2013-05-11T16:00:49Z</time>
      </trkpt>
      <trkpt lat="59.8850647" lon="17.6562511">
        <ele>15.999</ele>
        <time>2013-05-11T16:00:50Z</time>
      </trkpt>
      <trkpt lat="59.8851079" lon="17.656328">
        <ele>16.4797</ele>
        <time>2013-05-11T16:00:51Z</time>
      </trkpt>
      <trkpt lat="59.8851479" lon="17.6564053">
        <ele>16.9604</ele>
        <time>2013-05-11T16:00:52Z</time>
      </trkpt>
      <trkpt lat="59.8851849" lon="17.6564824">
        <ele>16.9604</ele>
        <time>2013-05-11T16:00:53Z</time>
      </trkpt>
      <trkpt lat="59.8852201" lon="17.6565573">
        <ele>16.9604</ele>
        <time>2013-05-11T16:00:54Z</time>
      </trkpt>
      <trkpt lat="59.8852546" lon="17.6566297">
        <ele>16.9604</ele>
        <time>2013-05-11T16:00:55Z</time>
      </trkpt>
      <trkpt lat="59.8852917" lon="17.6567011">
        <ele>16.9604</ele>
        <time>2013-05-11T16:00:56Z</time>
      </trkpt>
      <trkpt lat="59.88533" lon="17.6567762">
        <ele>17.4412</ele>
        <time>2013-05-11T16:00:57Z</time>
      </trkpt>
      <trkpt lat="59.885371" lon="17.6568533">
        <ele>17.4412</ele>
        <time>2013-05-11T16:00:58Z</time>
      </trkpt>
      <trkpt lat="59.8854146" lon="17.6569274">
        <ele>17.4412</ele>
        <time>2013-05-11T16:00:59Z</time>
      </trkpt>
      <trkpt lat="59.8854594" lon="17.6569958">
        <ele>17.9218</ele>
        <time>2013-05-11T16:01:00Z</time>
      </trkpt>
      <trkpt lat="59.8855065" lon="17.6570554">
        <ele>17.9218</ele>
        <time>2013-05-11T16:01:01Z</time>
      </trkpt>
      <trkpt lat="59.885558" lon="17.6570923">
        <ele>17.4412</ele>
        <time>2013-05-11T16:01:02Z</time>
      </trkpt>
      <trkpt lat="59.885613" lon="17.6571">
        <ele>17.4412</ele>
        <time>2013-05-11T16:01:03Z</time>
      </trkpt>
      <trkpt lat="59.8856664" lon="17.6570841">
        <ele>17.4412</ele>
        <time>2013-05-11T16:01:04Z</time>
      </trkpt>
      <trkpt lat="59.8857155" lon="17.6570393">
        <ele>17.4412</ele>
        <time>2013-05-11T16:01:05Z</time>
      </trkpt>
      <trkpt lat="59.8857481" lon="17.6569658">
        <ele>17.4412</ele>
        <time>2013-05-11T16:01:06Z</time>
      </trkpt>
      <trkpt lat="59.8857856" lon="17.6568913">
        <ele>17.4412</ele>
        <time>2013-05-11T16:01:07Z</time>
      </trkpt>
      <trkpt lat="59.8858187" lon="17.6568017">
        <ele>17.4412</ele>
        <time>2013-05-11T16:01:08Z</time>
      </trkpt>
      <trkpt lat="59.8858512" lon="17.6567043">
        <ele>16.9604</ele>
        <time>2013-05-11T16:01:09Z</time>
      </trkpt>
      <trkpt lat="59.8858843" lon="17.6566136">
        <ele>16.9604</ele>
        <time>2013-05-11T16:01:10Z</time>
      </trkpt>
      <trkpt lat="59.8859186" lon="17.6565341">
        <ele>16.4797</ele>
        <time>2013-05-11T16:01:11Z</time>
      </trkpt>
      <trkpt lat="59.8859466" lon="17.6564539">
        <ele>16.9604</ele>
        <time>2013-05-11T16:01:12Z</time>
      </trkpt>
      <trkpt lat="59.8859798" lon="17.6563815">
        <ele>16.9604</ele>
        <time>2013-05-11T16:01:13Z</time>
      </trkpt>
      <trkpt lat="59.8860156" lon="17.6563168">
        <ele>17.4412</ele>
        <time>2013-05-11T16:01:14Z</time>
      </trkpt>
      <trkpt lat="59.8860527" lon="17.6562521">
        <ele>17.9218</ele>
        <time>2013-05-11T16:01:15Z</time>
      </trkpt>
      <trkpt lat="59.8860895" lon="17.6561727">
        <ele>17.9218</ele>
        <time>2013-05-11T16:01:16Z</time>
      </trkpt>
      <trkpt lat="59.8861253" lon="17.6560915">
        <ele>17.9218</ele>
        <time>2013-05-11T16:01:17Z</time>
      </trkpt>
      <trkpt lat="59.8861613" lon="17.6560096">
        <ele>18.4023</ele>
        <time>2013-05-11T16:01:18Z</time>
      </trkpt>
      <trkpt lat="59.8861962" lon="17.6559193">
        <ele>18.4023</ele>
        <time>2013-05-11T16:01:19Z</time>
      </trkpt>
      <trkpt lat="59.8862318" lon="17.6558267">
        <ele>18.4023</ele>
        <time>2013-05-11T16:01:20Z</time>
      </trkpt>
      <trkpt lat="59.8862689" lon="17.6557434">
        <ele>18.8831</ele>
        <time>2013-05-11T16:01:21Z</time>
      </trkpt>
      <trkpt lat="59.8863061" lon="17.6556631">
        <ele>18.8831</ele>
        <time>2013-05-11T16:01:22Z</time>
      </trkpt>
      <trkpt lat="59.8863459" lon="17.6555983">
        <ele>18.8831</ele>
        <time>2013-05-11T16:01:23Z</time>
      </trkpt>
      <trkpt lat="59.8863878" lon="17.6555491">
        <ele>18.8831</ele>
        <time>2013-05-11T16:01:24Z</time>
      </trkpt>
      <trkpt lat="59.8864266" lon="17.6555134">
        <ele>18.8831</ele>
        <time>2013-05-11T16:01:25Z</time>
      </trkpt>
      <trkpt lat="59.8864661" lon="17.6554795">
        <ele>18.4023</ele>
        <time>2013-05-11T16:01:26Z</time>
      </trkpt>
      <trkpt lat="59.8865076" lon="17.655444">
        <ele>18.4023</ele>
        <time>2013-05-11T16:01:27Z</time>
      </trkpt>
      <trkpt lat="59.8865483" lon="17.6553983">
        <ele>18.4023</ele>
        <time>2013-05-11T16:01:28Z</time>
      </trkpt>
      <trkpt lat="59.8865909" lon="17.6553512">
        <ele>18.4023</ele>
        <time>2013-05-11T16:01:29Z</time>
      </trkpt>
      <trkpt lat="59.8866385" lon="17.6553181">
        <ele>18.8831</ele>
        <time>2013-05-11T16:01:30Z</time>
      </trkpt>
      <trkpt lat="59.8866732" lon="17.655245">
        <ele>19.8444</ele>
        <time>2013-05-11T16:01:31Z</time>
      </trkpt>
      <trkpt lat="59.886708" lon="17.655192">
        <ele>20.325</ele>
        <time>2013-05-11T16:01:32Z</time>
      </trkpt>
      <trkpt lat="59.8867397" lon="17.655136">
        <ele>20.325</ele>
        <time>2013-05-11T16:01:33Z</time>
      </trkpt>
      <trkpt lat="59.8867665" lon="17.655075">
        <ele>21.2864</ele>
        <time>2013-05-11T16:01:34Z</time>
      </trkpt>
      <trkpt lat="59.8867935" lon="17.6550162">
        <ele>21.767</ele>
        <time>2013-05-11T16:01:35Z</time>
      </trkpt>
      <trkpt lat="59.8868266" lon="17.6549639">
        <ele>22.7283</ele>
        <time>2013-05-11T16:01:36Z</time>
      </trkpt>
      <trkpt lat="59.8868525" lon="17.6549057">
        <ele>23.209</ele>
        <time>2013-05-11T16:01:37Z</time>
      </trkpt>
      <trkpt lat="59.8868774" lon="17.654824">
        <ele>23.6896</ele>
        <time>2013-05-11T16:01:38Z</time>
      </trkpt>
      <trkpt lat="59.8869122" lon="17.654758">
        <ele>23.6896</ele>
        <time>2013-05-11T16:01:39Z</time>
      </trkpt>
      <trkpt lat="59.8869479" lon="17.654676">
        <ele>23.209</ele>
        <time>2013-05-11T16:01:40Z</time>
      </trkpt>
      <trkpt lat="59.8869825" lon="17.6546689">
        <ele>23.209</ele>
        <time>2013-05-11T16:01:41Z</time>
      </trkpt>
      <trkpt lat="59.8870225" lon="17.6546546">
        <ele>22.7283</ele>
        <time>2013-05-11T16:01:42Z</time>
      </trkpt>
      <trkpt lat="59.8870619" lon="17.6546223">
        <ele>22.7283</ele>
        <time>2013-05-11T16:01:43Z</time>
      </trkpt>
      <trkpt lat="59.887095" lon="17.6545711">
        <ele>21.767</ele>
        <time>2013-05-11T16:01:44Z</time>
      </trkpt>
      <trkpt lat="59.8871266" lon="17.654495">
        <ele>21.767</ele>
        <time>2013-05-11T16:01:45Z</time>
      </trkpt>
      <trkpt lat="59.8871606" lon="17.6544038">
        <ele>21.767</ele>
        <time>2013-05-11T16:01:46Z</time>
      </trkpt>
      <trkpt lat="59.8871953" lon="17.6543073">
        <ele>21.767</ele>
        <time>2013-05-11T16:01:47Z</time>
      </trkpt>
      <trkpt lat="59.8872305" lon="17.6541765">
        <ele>21.2864</ele>
        <time>2013-05-11T16:01:48Z</time>
      </trkpt>
      <trkpt lat="59.887259" lon="17.6540167">
        <ele>21.767</ele>
        <time>2013-05-11T16:01:49Z</time>
      </trkpt>
      <trkpt lat="59.887301" lon="17.6538299">
        <ele>23.6896</ele>
        <time>2013-05-11T16:01:50Z</time>
      </trkpt>
      <trkpt lat="59.8873445" lon="17.6537467">
        <ele>23.209</ele>
        <time>2013-05-11T16:01:51Z</time>
      </trkpt>
      <trkpt lat="59.8873861" lon="17.6536807">
        <ele>23.209</ele>
        <time>2013-05-11T16:01:52Z</time>
      </trkpt>
      <trkpt lat="59.8874206" lon="17.6535976">
        <ele>22.7283</ele>
        <time>2013-05-11T16:01:53Z</time>
      </trkpt>
      <trkpt lat="59.8874586" lon="17.6535438">
        <ele>22.2476</ele>
        <time>2013-05-11T16:01:54Z</time>
      </trkpt>
      <trkpt lat="59.8874849" lon="17.6534144">
        <ele>22.2476</ele>
        <time>2013-05-11T16:01:55Z</time>
      </trkpt>
      <trkpt lat="59.8875164" lon="17.653342">
        <ele>21.767</ele>
        <time>2013-05-11T16:01:56Z</time>
      </trkpt>
      <trkpt lat="59.8875467" lon="17.6532641">
        <ele>21.767</ele>
        <time>2013-05-11T16:01:57Z</time>
      </trkpt>
      <trkpt lat="59.8875796" lon="17.6531793">
        <ele>21.767</ele>
        <time>2013-05-11T16:01:58Z</time>
      </trkpt>
      <trkpt lat="59.887614" lon="17.6531065">
        <ele>21.2864</ele>
        <time>2013-05-11T16:01:59Z</time>
      </trkpt>
      <trkpt lat="59.8876477" lon="17.6530326">
        <ele>21.2864</ele>
        <time>2013-05-11T16:02:00Z</time>
      </trkpt>
      <trkpt lat="59.8876761" lon="17.6529397">
        <ele>21.2864</ele>
        <time>2013-05-11T16:02:01Z</time>
      </trkpt>
      <trkpt lat="59.887706" lon="17.6528656">
        <ele>21.2864</ele>
        <time>2013-05-11T16:02:02Z</time>
      </trkpt>
      <trkpt lat="59.8877335" lon="17.652792">
        <ele>21.2864</ele>
        <time>2013-05-11T16:02:03Z</time>
      </trkpt>
      <trkpt lat="59.8877622" lon="17.6527136">
        <ele>21.2864</ele>
        <time>2013-05-11T16:02:04Z</time>
      </trkpt>
      <trkpt lat="59.8877922" lon="17.6526389">
        <ele>21.2864</ele>
        <time>2013-05-11T16:02:05Z</time>
      </trkpt>
      <trkpt lat="59.88782" lon="17.6525679">
        <ele>21.2864</ele>
        <time>2013-05-11T16:02:06Z</time>
      </trkpt>
      <trkpt lat="59.8878445" lon="17.6524843">
        <ele>21.767</ele>
        <time>2013-05-11T16:02:07Z</time>
      </trkpt>
      <trkpt lat="59.8878796" lon="17.6523968">
        <ele>21.2864</ele>
        <time>2013-05-11T16:02:08Z</time>
      </trkpt>
      <trkpt lat="59.8879163" lon="17.6523224">
        <ele>21.2864</ele>
        <time>2013-05-11T16:02:09Z</time>
      </trkpt>
      <trkpt lat="59.8879514" lon="17.6522492">
        <ele>20.8057</ele>
        <time>2013-05-11T16:02:10Z</time>
      </trkpt>
      <trkpt lat="59.8879905" lon="17.6521847">
        <ele>20.8057</ele>
        <time>2013-05-11T16:02:11Z</time>
      </trkpt>
      <trkpt lat="59.8880243" lon="17.652085">
        <ele>20.325</ele>
        <time>2013-05-11T16:02:12Z</time>
      </trkpt>
      <trkpt lat="59.8880629" lon="17.6520075">
        <ele>20.8057</ele>
        <time>2013-05-11T16:02:13Z</time>
      </trkpt>
      <trkpt lat="59.8880916" lon="17.6519172">
        <ele>21.2864</ele>
        <time>2013-05-11T16:02:14Z</time>
      </trkpt>
      <trkpt lat="59.8880968" lon="17.6517713">
        <ele>21.767</ele>
        <time>2013-05-11T16:02:15Z</time>
      </trkpt>
      <trkpt lat="59.8881209" lon="17.6516388">
        <ele>21.767</ele>
        <time>2013-05-11T16:02:16Z</time>
      </trkpt>
      <trkpt lat="59.8881476" lon="17.6514455">
        <ele>23.209</ele>
        <time>2013-05-11T16:02:17Z</time>
      </trkpt>
      <trkpt lat="59.888161" lon="17.6513393">
        <ele>24.1703</ele>
        <time>2013-05-11T16:02:18Z</time>
      </trkpt>
      <trkpt lat="59.8882051" lon="17.6512145">
        <ele>25.1317</ele>
        <time>2013-05-11T16:02:19Z</time>
      </trkpt>
      <trkpt lat="59.8882397" lon="17.6511551">
        <ele>25.6123</ele>
        <time>2013-05-11T16:02:20Z</time>
      </trkpt>
      <trkpt lat="59.8882735" lon="17.6510766">
        <ele>25.1317</ele>
        <time>2013-05-11T16:02:21Z</time>
      </trkpt>
      <trkpt lat="59.8883022" lon="17.651002">
        <ele>24.651</ele>
        <time>2013-05-11T16:02:22Z</time>
      </trkpt>
      <trkpt lat="59.8883665" lon="17.6509549">
        <ele>26.0929</ele>
        <time>2013-05-11T16:02:23Z</time>
      </trkpt>
      <trkpt lat="59.888453" lon="17.6508802">
        <ele>28.0155</ele>
        <time>2013-05-11T16:02:24Z</time>
      </trkpt>
      <trkpt lat="59.8884961" lon="17.6508088">
        <ele>28.0155</ele>
        <time>2013-05-11T16:02:25Z</time>
      </trkpt>
      <trkpt lat="59.8885179" lon="17.6507511">
        <ele>27.0543</ele>
        <time>2013-05-11T16:02:26Z</time>
      </trkpt>
      <trkpt lat="59.8885464" lon="17.6506977">
        <ele>26.5736</ele>
        <time>2013-05-11T16:02:27Z</time>
      </trkpt>
      <trkpt lat="59.8885765" lon="17.6506223">
        <ele>26.0929</ele>
        <time>2013-05-11T16:02:28Z</time>
      </trkpt>
      <trkpt lat="59.8886043" lon="17.6505271">
        <ele>27.0543</ele>
        <time>2013-05-11T16:02:29Z</time>
      </trkpt>
      <trkpt lat="59.8886345" lon="17.6504592">
        <ele>27.0543</ele>
        <time>2013-05-11T16:02:30Z</time>
      </trkpt>
      <trkpt lat="59.8886657" lon="17.6504151">
        <ele>25.6123</ele>
        <time>2013-05-11T16:02:31Z</time>
      </trkpt>
      <trkpt lat="59.8886884" lon="17.6503356">
        <ele>25.6123</ele>
        <time>2013-05-11T16:02:32Z</time>
      </trkpt>
      <trkpt lat="59.8887291" lon="17.6502115">
        <ele>27.0543</ele>
        <time>2013-05-11T16:02:33Z</time>
      </trkpt>
      <trkpt lat="59.888756" lon="17.6501348">
        <ele>26.5736</ele>
        <time>2013-05-11T16:02:34Z</time>
      </trkpt>
      <trkpt lat="59.888771" lon="17.6500337">
        <ele>24.651</ele>
        <time>2013-05-11T16:02:35Z</time>
      </trkpt>
      <trkpt lat="59.8888066" lon="17.649937">
        <ele>23.6896</ele>
        <time>2013-05-11T16:02:36Z</time>
      </trkpt>
      <trkpt lat="59.8888484" lon="17.6498472">
        <ele>23.209</ele>
        <time>2013-05-11T16:02:37Z</time>
      </trkpt>
      <trkpt lat="59.8888889" lon="17.6497458">
        <ele>22.2476</ele>
        <time>2013-05-11T16:02:38Z</time>
      </trkpt>
      <trkpt lat="59.8889242" lon="17.64965">
        <ele>21.2864</ele>
        <time>2013-05-11T16:02:39Z</time>
      </trkpt>
      <trkpt lat="59.8889675" lon="17.6495736">
        <ele>21.767</ele>
        <time>2013-05-11T16:02:40Z</time>
      </trkpt>
      <trkpt lat="59.8890142" lon="17.6494972">
        <ele>23.209</ele>
        <time>2013-05-11T16:02:41Z</time>
      </trkpt>
      <trkpt lat="59.8890556" lon="17.6494041">
        <ele>25.1317</ele>
        <time>2013-05-11T16:02:42Z</time>
      </trkpt>
      <trkpt lat="59.8890962" lon="17.649322">
        <ele>25.6123</ele>
        <time>2013-05-11T16:02:43Z</time>
      </trkpt>
      <trkpt lat="59.8891313" lon="17.6492352">
        <ele>25.6123</ele>
        <time>2013-05-11T16:02:44Z</time>
      </trkpt>
      <trkpt lat="59.8891671" lon="17.6491604">
        <ele>25.6123</ele>
        <time>2013-05-11T16:02:45Z</time>
      </trkpt>
      <trkpt lat="59.8892036" lon="17.6490978">
        <ele>25.6123</ele>
        <time>2013-05-11T16:02:46Z</time>
      </trkpt>
      <trkpt lat="59.8892362" lon="17.6490388">
        <ele>24.651</ele>
        <time>2013-05-11T16:02:47Z</time>
      </trkpt>
      <trkpt lat="59.8892716" lon="17.6489818">
        <ele>23.6896</ele>
        <time>2013-05-11T16:02:48Z</time>
      </trkpt>
      <trkpt lat="59.8893069" lon="17.6489262">
        <ele>23.6896</ele>
        <time>2013-05-11T16:02:49Z</time>
      </trkpt>
      <trkpt lat="59.8893403" lon="17.648857">
        <ele>23.6896</ele>
        <time>2013-05-11T16:02:50Z</time>
      </trkpt>
      <trkpt lat="59.8893685" lon="17.6487808">
        <ele>22.2476</ele>
        <time>2013-05-11T16:02:51Z</time>
      </trkpt>
      <trkpt lat="59.8894002" lon="17.6486979">
        <ele>22.2476</ele>
        <time>2013-05-11T16:02:52Z</time>
      </trkpt>
      <trkpt lat="59.8894272" lon="17.6486188">
        <ele>22.2476</ele>
        <time>2013-05-11T16:02:53Z</time>
      </trkpt>
      <trkpt lat="59.88946" lon="17.6485301">
        <ele>23.6896</ele>
        <time>2013-05-11T16:02:54Z</time>
      </trkpt>
      <trkpt lat="59.8894929" lon="17.6484507">
        <ele>24.651</ele>
        <time>2013-05-11T16:02:55Z</time>
      </trkpt>
      <trkpt lat="59.8895197" lon="17.6483771">
        <ele>23.6896</ele>
        <time>2013-05-11T16:02:56Z</time>
      </trkpt>
      <trkpt lat="59.8895348" lon="17.6483057">
        <ele>23.6896</ele>
        <time>2013-05-11T16:02:57Z</time>
      </trkpt>
      <trkpt lat="59.8895455" lon="17.6482214">
        <ele>23.6896</ele>
        <time>2013-05-11T16:02:58Z</time>
      </trkpt>
      <trkpt lat="59.8895633" lon="17.6481465">
        <ele>23.6896</ele>
        <time>2013-05-11T16:02:59Z</time>
      </trkpt>
      <trkpt lat="59.8895833" lon="17.6480699">
        <ele>22.7283</ele>
        <time>2013-05-11T16:03:00Z</time>
      </trkpt>
      <trkpt lat="59.8896006" lon="17.6479804">
        <ele>21.767</ele>
        <time>2013-05-11T16:03:01Z</time>
      </trkpt>
      <trkpt lat="59.8896182" lon="17.6478824">
        <ele>22.2476</ele>
        <time>2013-05-11T16:03:02Z</time>
      </trkpt>
      <trkpt lat="59.8896328" lon="17.6477834">
        <ele>21.2864</ele>
        <time>2013-05-11T16:03:03Z</time>
      </trkpt>
      <trkpt lat="59.8896482" lon="17.6476752">
        <ele>20.325</ele>
        <time>2013-05-11T16:03:04Z</time>
      </trkpt>
      <trkpt lat="59.8896743" lon="17.6475857">
        <ele>19.8444</ele>
        <time>2013-05-11T16:03:05Z</time>
      </trkpt>
      <trkpt lat="59.8897037" lon="17.6475168">
        <ele>19.3638</ele>
        <time>2013-05-11T16:03:06Z</time>
      </trkpt>
      <trkpt lat="59.8897348" lon="17.6474609">
        <ele>19.3638</ele>
        <time>2013-05-11T16:03:07Z</time>
      </trkpt>
      <trkpt lat="59.8897586" lon="17.6474056">
        <ele>19.3638</ele>
        <time>2013-05-11T16:03:08Z</time>
      </trkpt>
      <trkpt lat="59.8897809" lon="17.6473504">
        <ele>19.8444</ele>
        <time>2013-05-11T16:03:09Z</time>
      </trkpt>
      <trkpt lat="59.8898051" lon="17.6472883">
        <ele>20.325</ele>
        <time>2013-05-11T16:03:10Z</time>
      </trkpt>
      <trkpt lat="59.8898275" lon="17.6472274">
        <ele>20.8057</ele>
        <time>2013-05-11T16:03:11Z</time>
      </trkpt>
      <trkpt lat="59.8898478" lon="17.6471777">
        <ele>21.2864</ele>
        <time>2013-05-11T16:03:12Z</time>
      </trkpt>
      <trkpt lat="59.8898678" lon="17.6471338">
        <ele>21.2864</ele>
        <time>2013-05-11T16:03:13Z</time>
      </trkpt>
      <trkpt lat="59.8898907" lon="17.6470905">
        <ele>21.767</ele>
        <time>2013-05-11T16:03:14Z</time>
      </trkpt>
      <trkpt lat="59.8899176" lon="17.6470584">
        <ele>22.2476</ele>
        <time>2013-05-11T16:03:15Z</time>
      </trkpt>
      <trkpt lat="59.889946" lon="17.6470615">
        <ele>22.2476</ele>
        <time>2013-05-11T16:03:16Z</time>
      </trkpt>
      <trkpt lat="59.8899729" lon="17.6470785">
        <ele>22.2476</ele>
        <time>2013-05-11T16:03:17Z</time>
      </trkpt>
      <trkpt lat="59.8900015" lon="17.6471008">
        <ele>22.2476</ele>
        <time>2013-05-11T16:03:18Z</time>
      </trkpt>
      <trkpt lat="59.8900316" lon="17.6471194">
        <ele>22.2476</ele>
        <time>2013-05-11T16:03:19Z</time>
      </trkpt>
      <trkpt lat="59.890062" lon="17.6471393">
        <ele>22.7283</ele>
        <time>2013-05-11T16:03:20Z</time>
      </trkpt>
      <trkpt lat="59.8900958" lon="17.6471696">
        <ele>22.7283</ele>
        <time>2013-05-11T16:03:21Z</time>
      </trkpt>
      <trkpt lat="59.8901288" lon="17.6472009">
        <ele>22.7283</ele>
        <time>2013-05-11T16:03:22Z</time>
      </trkpt>
      <trkpt lat="59.8901624" lon="17.64724">
        <ele>22.7283</ele>
        <time>2013-05-11T16:03:23Z</time>
      </trkpt>
      <trkpt lat="59.8901977" lon="17.6472856">
        <ele>22.7283</ele>
        <time>2013-05-11T16:03:24Z</time>
      </trkpt>
      <trkpt lat="59.8902353" lon="17.6473338">
        <ele>22.2476</ele>
        <time>2013-05-11T16:03:25Z</time>
      </trkpt>
      <trkpt lat="59.8902755" lon="17.6473859">
        <ele>22.2476</ele>
        <time>2013-05-11T16:03:26Z</time>
      </trkpt>
      <trkpt lat="59.8903184" lon="17.6474433">
        <ele>22.2476</ele>
        <time>2013-05-11T16:03:27Z</time>
      </trkpt>
      <trkpt lat="59.890361" lon="17.6475014">
        <ele>21.2864</ele>
        <time>2013-05-11T16:03:28Z</time>
      </trkpt>
      <trkpt lat="59.890403" lon="17.6475557">
        <ele>21.2864</ele>
        <time>2013-05-11T16:03:29Z</time>
      </trkpt>
      <trkpt lat="59.8904434" lon="17.6476089">
        <ele>20.8057</ele>
        <time>2013-05-11T16:03:30Z</time>
      </trkpt>
      <trkpt lat="59.8904807" lon="17.6476578">
        <ele>20.8057</ele>
        <time>2013-05-11T16:03:31Z</time>
      </trkpt>
      <trkpt lat="59.8905179" lon="17.6477089">
        <ele>20.8057</ele>
        <time>2013-05-11T16:03:32Z</time>
      </trkpt>
      <trkpt lat="59.8905556" lon="17.6477624">
        <ele>20.8057</ele>
        <time>2013-05-11T16:03:33Z</time>
      </trkpt>
      <trkpt lat="59.8905936" lon="17.6478163">
        <ele>21.2864</ele>
        <time>2013-05-11T16:03:34Z</time>
      </trkpt>
      <trkpt lat="59.8906325" lon="17.6478681">
        <ele>21.2864</ele>
        <time>2013-05-11T16:03:35Z</time>
      </trkpt>
      <trkpt lat="59.8906727" lon="17.6479215">
        <ele>21.2864</ele>
        <time>2013-05-11T16:03:36Z</time>
      </trkpt>
      <trkpt lat="59.8907134" lon="17.6479803">
        <ele>21.2864</ele>
        <time>2013-05-11T16:03:37Z</time>
      </trkpt>
      <trkpt lat="59.8907555" lon="17.6480411">
        <ele>21.767</ele>
        <time>2013-05-11T16:03:38Z</time>
      </trkpt>
      <trkpt lat="59.8908008" lon="17.6481013">
        <ele>21.767</ele>
        <time>2013-05-11T16:03:39Z</time>
      </trkpt>
      <trkpt lat="59.8908472" lon="17.6481595">
        <ele>21.767</ele>
        <time>2013-05-11T16:03:40Z</time>
      </trkpt>
      <trkpt lat="59.8908951" lon="17.6482187">
        <ele>22.2476</ele>
        <time>2013-05-11T16:03:41Z</time>
      </trkpt>
      <trkpt lat="59.8909434" lon="17.6482819">
        <ele>22.2476</ele>
        <time>2013-05-11T16:03:42Z</time>
      </trkpt>
      <trkpt lat="59.8909936" lon="17.6483456">
        <ele>22.7283</ele>
        <time>2013-05-11T16:03:43Z</time>
      </trkpt>
      <trkpt lat="59.8910469" lon="17.6484109">
        <ele>22.7283</ele>
        <time>2013-05-11T16:03:44Z</time>
      </trkpt>
      <trkpt lat="59.8911018" lon="17.6484813">
        <ele>22.7283</ele>
        <time>2013-05-11T16:03:45Z</time>
      </trkpt>
      <trkpt lat="59.8911549" lon="17.6485532">
        <ele>22.7283</ele>
        <time>2013-05-11T16:03:46Z</time>
      </trkpt>
      <trkpt lat="59.8912064" lon="17.6486215">
        <ele>23.209</ele>
        <time>2013-05-11T16:03:47Z</time>
      </trkpt>
      <trkpt lat="59.8912561" lon="17.6486889">
        <ele>23.209</ele>
        <time>2013-05-11T16:03:48Z</time>
      </trkpt>
      <trkpt lat="59.8913047" lon="17.6487538">
        <ele>23.209</ele>
        <time>2013-05-11T16:03:49Z</time>
      </trkpt>
      <trkpt lat="59.8913542" lon="17.648812">
        <ele>24.1703</ele>
        <time>2013-05-11T16:03:50Z</time>
      </trkpt>
      <trkpt lat="59.8914015" lon="17.6488688">
        <ele>24.1703</ele>
        <time>2013-05-11T16:03:51Z</time>
      </trkpt>
      <trkpt lat="59.8914463" lon="17.648922">
        <ele>24.651</ele>
        <time>2013-05-11T16:03:52Z</time>
      </trkpt>
      <trkpt lat="59.8914912" lon="17.6489689">
        <ele>24.651</ele>
        <time>2013-05-11T16:03:53Z</time>
      </trkpt>
      <trkpt lat="59.8915374" lon="17.6490066">
        <ele>25.1317</ele>
        <time>2013-05-11T16:03:54Z</time>
      </trkpt>
      <trkpt lat="59.8915844" lon="17.6490268">
        <ele>25.6123</ele>
        <time>2013-05-11T16:03:55Z</time>
      </trkpt>
      <trkpt lat="59.8916332" lon="17.6490004">
        <ele>25.6123</ele>
        <time>2013-05-11T16:03:56Z</time>
      </trkpt>
      <trkpt lat="59.8916768" lon="17.6489277">
        <ele>26.5736</ele>
        <time>2013-05-11T16:03:57Z</time>
      </trkpt>
      <trkpt lat="59.8917049" lon="17.6488736">
        <ele>27.0543</ele>
        <time>2013-05-11T16:03:58Z</time>
      </trkpt>
      <trkpt lat="59.8917343" lon="17.6488159">
        <ele>27.0543</ele>
        <time>2013-05-11T16:03:59Z</time>
      </trkpt>
      <trkpt lat="59.8917571" lon="17.6487472">
        <ele>27.5349</ele>
        <time>2013-05-11T16:04:00Z</time>
      </trkpt>
      <trkpt lat="59.8917755" lon="17.648674">
        <ele>27.5349</ele>
        <time>2013-05-11T16:04:01Z</time>
      </trkpt>
      <trkpt lat="59.8917908" lon="17.6485938">
        <ele>27.5349</ele>
        <time>2013-05-11T16:04:02Z</time>
      </trkpt>
      <trkpt lat="59.8918032" lon="17.6485159">
        <ele>27.5349</ele>
        <time>2013-05-11T16:04:03Z</time>
      </trkpt>
      <trkpt lat="59.8918201" lon="17.6484485">
        <ele>28.0155</ele>
        <time>2013-05-11T16:04:04Z</time>
      </trkpt>
      <trkpt lat="59.8918462" lon="17.648398">
        <ele>28.0155</ele>
        <time>2013-05-11T16:04:05Z</time>
      </trkpt>
      <trkpt lat="59.8918778" lon="17.6483554">
        <ele>28.0155</ele>
        <time>2013-05-11T16:04:06Z</time>
      </trkpt>
      <trkpt lat="59.891913" lon="17.6483058">
        <ele>28.4962</ele>
        <time>2013-05-11T16:04:07Z</time>
      </trkpt>
      <trkpt lat="59.8919471" lon="17.6482507">
        <ele>28.4962</ele>
        <time>2013-05-11T16:04:08Z</time>
      </trkpt>
      <trkpt lat="59.8919777" lon="17.6481849">
        <ele>28.9769</ele>
        <time>2013-05-11T16:04:09Z</time>
      </trkpt>
      <trkpt lat="59.8920025" lon="17.6481037">
        <ele>28.4962</ele>
        <time>2013-05-11T16:04:10Z</time>
      </trkpt>
      <trkpt lat="59.892016" lon="17.6480043">
        <ele>28.0155</ele>
        <time>2013-05-11T16:04:11Z</time>
      </trkpt>
      <trkpt lat="59.8920295" lon="17.6479038">
        <ele>28.0155</ele>
        <time>2013-05-11T16:04:12Z</time>
      </trkpt>
      <trkpt lat="59.8920371" lon="17.6477934">
        <ele>27.5349</ele>
        <time>2013-05-11T16:04:13Z</time>
      </trkpt>
      <trkpt lat="59.8920528" lon="17.6476904">
        <ele>27.5349</ele>
        <time>2013-05-11T16:04:14Z</time>
      </trkpt>
      <trkpt lat="59.8920694" lon="17.6475897">
        <ele>27.0543</ele>
        <time>2013-05-11T16:04:15Z</time>
      </trkpt>
      <trkpt lat="59.8920854" lon="17.6474771">
        <ele>27.0543</ele>
        <time>2013-05-11T16:04:16Z</time>
      </trkpt>
      <trkpt lat="59.8921026" lon="17.6473792">
        <ele>26.5736</ele>
        <time>2013-05-11T16:04:17Z</time>
      </trkpt>
      <trkpt lat="59.8921189" lon="17.6472866">
        <ele>26.5736</ele>
        <time>2013-05-11T16:04:18Z</time>
      </trkpt>
      <trkpt lat="59.8921331" lon="17.6471958">
        <ele>26.5736</ele>
        <time>2013-05-11T16:04:19Z</time>
      </trkpt>
      <trkpt lat="59.8921433" lon="17.6470989">
        <ele>26.5736</ele>
        <time>2013-05-11T16:04:20Z</time>
      </trkpt>
      <trkpt lat="59.8921531" lon="17.6470019">
        <ele>26.5736</ele>
        <time>2013-05-11T16:04:21Z</time>
      </trkpt>
      <trkpt lat="59.8921586" lon="17.6468919">
        <ele>26.5736</ele>
        <time>2013-05-11T16:04:22Z</time>
      </trkpt>
      <trkpt lat="59.8921689" lon="17.6467962">
        <ele>26.5736</ele>
        <time>2013-05-11T16:04:23Z</time>
      </trkpt>
      <trkpt lat="59.8921785" lon="17.6467019">
        <ele>26.5736</ele>
        <time>2013-05-11T16:04:24Z</time>
      </trkpt>
      <trkpt lat="59.8921855" lon="17.6466076">
        <ele>26.5736</ele>
        <time>2013-05-11T16:04:25Z</time>
      </trkpt>
      <trkpt lat="59.8921925" lon="17.646514">
        <ele>26.5736</ele>
        <time>2013-05-11T16:04:26Z</time>
      </trkpt>
      <trkpt lat="59.8922013" lon="17.6464195">
        <ele>26.5736</ele>
        <time>2013-05-11T16:04:27Z</time>
      </trkpt>
      <trkpt lat="59.8922122" lon="17.6463203">
        <ele>26.5736</ele>
        <time>2013-05-11T16:04:28Z</time>
      </trkpt>
      <trkpt lat="59.8922228" lon="17.6462212">
        <ele>26.5736</ele>
        <time>2013-05-11T16:04:29Z</time>
      </trkpt>
      <trkpt lat="59.8922341" lon="17.6461274">
        <ele>26.5736</ele>
        <time>2013-05-11T16:04:30Z</time>
      </trkpt>
      <trkpt lat="59.8922464" lon="17.6460337">
        <ele>26.0929</ele>
        <time>2013-05-11T16:04:31Z</time>
      </trkpt>
      <trkpt lat="59.8922591" lon="17.6459315">
        <ele>26.0929</ele>
        <time>2013-05-11T16:04:32Z</time>
      </trkpt>
      <trkpt lat="59.8922716" lon="17.6458286">
        <ele>26.0929</ele>
        <time>2013-05-11T16:04:33Z</time>
      </trkpt>
      <trkpt lat="59.8922839" lon="17.6457287">
        <ele>26.0929</ele>
        <time>2013-05-11T16:04:34Z</time>
      </trkpt>
      <trkpt lat="59.8922964" lon="17.645635">
        <ele>26.0929</ele>
        <time>2013-05-11T16:04:35Z</time>
      </trkpt>
      <trkpt lat="59.892305" lon="17.6455499">
        <ele>26.0929</ele>
        <time>2013-05-11T16:04:36Z</time>
      </trkpt>
      <trkpt lat="59.8923153" lon="17.6454667">
        <ele>25.6123</ele>
        <time>2013-05-11T16:04:37Z</time>
      </trkpt>
      <trkpt lat="59.8923265" lon="17.6453838">
        <ele>25.6123</ele>
        <time>2013-05-11T16:04:38Z</time>
      </trkpt>
      <trkpt lat="59.8923366" lon="17.6452957">
        <ele>25.6123</ele>
        <time>2013-05-11T16:04:39Z</time>
      </trkpt>
      <trkpt lat="59.8923436" lon="17.6451972">
        <ele>25.1317</ele>
        <time>2013-05-11T16:04:40Z</time>
      </trkpt>
      <trkpt lat="59.8923517" lon="17.6450896">
        <ele>25.1317</ele>
        <time>2013-05-11T16:04:41Z</time>
      </trkpt>
      <trkpt lat="59.8923616" lon="17.6449751">
        <ele>25.1317</ele>
        <time>2013-05-11T16:04:42Z</time>
      </trkpt>
      <trkpt lat="59.8923714" lon="17.6448568">
        <ele>25.1317</ele>
        <time>2013-05-11T16:04:43Z</time>
      </trkpt>
      <trkpt lat="59.8923849" lon="17.6447415">
        <ele>24.651</ele>
        <time>2013-05-11T16:04:44Z</time>
      </trkpt>
      <trkpt lat="59.8923992" lon="17.6446213">
        <ele>24.651</ele>
        <time>2013-05-11T16:04:45Z</time>
      </trkpt>
      <trkpt lat="59.8924127" lon="17.6444978">
        <ele>24.1703</ele>
        <time>2013-05-11T16:04:46Z</time>
      </trkpt>
      <trkpt lat="59.8924263" lon="17.6443728">
        <ele>24.1703</ele>
        <time>2013-05-11T16:04:47Z</time>
      </trkpt>
      <trkpt lat="59.8924415" lon="17.6442462">
        <ele>23.6896</ele>
        <time>2013-05-11T16:04:48Z</time>
      </trkpt>
      <trkpt lat="59.8924569" lon="17.6441173">
        <ele>23.6896</ele>
        <time>2013-05-11T16:04:49Z</time>
      </trkpt>
      <trkpt lat="59.8924749" lon="17.6439638">
        <ele>23.6896</ele>
        <time>2013-05-11T16:04:50Z</time>
      </trkpt>
      <trkpt lat="59.8924837" lon="17.6438271">
        <ele>23.209</ele>
        <time>2013-05-11T16:04:51Z</time>
      </trkpt>
      <trkpt lat="59.8924907" lon="17.6436938">
        <ele>23.209</ele>
        <time>2013-05-11T16:04:52Z</time>
      </trkpt>
      <trkpt lat="59.8925009" lon="17.6435689">
        <ele>23.209</ele>
        <time>2013-05-11T16:04:53Z</time>
      </trkpt>
      <trkpt lat="59.8925149" lon="17.643451">
        <ele>23.209</ele>
        <time>2013-05-11T16:04:54Z</time>
      </trkpt>
      <trkpt lat="59.8925302" lon="17.6433413">
        <ele>22.7283</ele>
        <time>2013-05-11T16:04:55Z</time>
      </trkpt>
      <trkpt lat="59.8925438" lon="17.6432391">
        <ele>22.7283</ele>
        <time>2013-05-11T16:04:56Z</time>
      </trkpt>
      <trkpt lat="59.8925591" lon="17.6431315">
        <ele>22.7283</ele>
        <time>2013-05-11T16:04:57Z</time>
      </trkpt>
      <trkpt lat="59.892577" lon="17.6430257">
        <ele>22.2476</ele>
        <time>2013-05-11T16:04:58Z</time>
      </trkpt>
      <trkpt lat="59.8925917" lon="17.6429199">
        <ele>22.2476</ele>
        <time>2013-05-11T16:04:59Z</time>
      </trkpt>
      <trkpt lat="59.8926019" lon="17.6428096">
        <ele>22.2476</ele>
        <time>2013-05-11T16:05:00Z</time>
      </trkpt>
      <trkpt lat="59.8926079" lon="17.642701">
        <ele>22.2476</ele>
        <time>2013-05-11T16:05:01Z</time>
      </trkpt>
      <trkpt lat="59.8926128" lon="17.642593">
        <ele>22.2476</ele>
        <time>2013-05-11T16:05:02Z</time>
      </trkpt>
      <trkpt lat="59.8926184" lon="17.6424806">
        <ele>22.2476</ele>
        <time>2013-05-11T16:05:03Z</time>
      </trkpt>
      <trkpt lat="59.8926242" lon="17.6423769">
        <ele>21.767</ele>
        <time>2013-05-11T16:05:04Z</time>
      </trkpt>
      <trkpt lat="59.8926308" lon="17.6422782">
        <ele>21.767</ele>
        <time>2013-05-11T16:05:05Z</time>
      </trkpt>
      <trkpt lat="59.8926372" lon="17.6421788">
        <ele>21.2864</ele>
        <time>2013-05-11T16:05:06Z</time>
      </trkpt>
      <trkpt lat="59.8926395" lon="17.642048">
        <ele>21.2864</ele>
        <time>2013-05-11T16:05:07Z</time>
      </trkpt>
      <trkpt lat="59.892646" lon="17.6419183">
        <ele>21.2864</ele>
        <time>2013-05-11T16:05:08Z</time>
      </trkpt>
      <trkpt lat="59.8926458" lon="17.6418069">
        <ele>21.2864</ele>
        <time>2013-05-11T16:05:09Z</time>
      </trkpt>
      <trkpt lat="59.892648" lon="17.6416926">
        <ele>21.2864</ele>
        <time>2013-05-11T16:05:10Z</time>
      </trkpt>
      <trkpt lat="59.8926494" lon="17.641568">
        <ele>21.767</ele>
        <time>2013-05-11T16:05:11Z</time>
      </trkpt>
      <trkpt lat="59.8926547" lon="17.6414531">
        <ele>22.2476</ele>
        <time>2013-05-11T16:05:12Z</time>
      </trkpt>
      <trkpt lat="59.8926598" lon="17.6413447">
        <ele>22.2476</ele>
        <time>2013-05-11T16:05:13Z</time>
      </trkpt>
      <trkpt lat="59.8926645" lon="17.6412364">
        <ele>22.7283</ele>
        <time>2013-05-11T16:05:14Z</time>
      </trkpt>
      <trkpt lat="59.8926708" lon="17.6411273">
        <ele>22.7283</ele>
        <time>2013-05-11T16:05:15Z</time>
      </trkpt>
      <trkpt lat="59.8926781" lon="17.6410164">
        <ele>23.209</ele>
        <time>2013-05-11T16:05:16Z</time>
      </trkpt>
      <trkpt lat="59.8926843" lon="17.6409034">
        <ele>23.209</ele>
        <time>2013-05-11T16:05:17Z</time>
      </trkpt>
      <trkpt lat="59.8926936" lon="17.6407889">
        <ele>23.6896</ele>
        <time>2013-05-11T16:05:18Z</time>
      </trkpt>
      <trkpt lat="59.8927014" lon="17.6406799">
        <ele>24.1703</ele>
        <time>2013-05-11T16:05:19Z</time>
      </trkpt>
      <trkpt lat="59.8927061" lon="17.640577">
        <ele>24.1703</ele>
        <time>2013-05-11T16:05:20Z</time>
      </trkpt>
      <trkpt lat="59.8927107" lon="17.6404793">
        <ele>24.651</ele>
        <time>2013-05-11T16:05:21Z</time>
      </trkpt>
      <trkpt lat="59.8927153" lon="17.6403867">
        <ele>24.651</ele>
        <time>2013-05-11T16:05:22Z</time>
      </trkpt>
      <trkpt lat="59.8927191" lon="17.6402985">
        <ele>24.651</ele>
        <time>2013-05-11T16:05:23Z</time>
      </trkpt>
      <trkpt lat="59.8927242" lon="17.6402087">
        <ele>25.1317</ele>
        <time>2013-05-11T16:05:24Z</time>
      </trkpt>
      <trkpt lat="59.8927273" lon="17.6401176">
        <ele>24.651</ele>
        <time>2013-05-11T16:05:25Z</time>
      </trkpt>
      <trkpt lat="59.8927329" lon="17.6400228">
        <ele>24.651</ele>
        <time>2013-05-11T16:05:26Z</time>
      </trkpt>
      <trkpt lat="59.8927345" lon="17.6399252">
        <ele>24.1703</ele>
        <time>2013-05-11T16:05:27Z</time>
      </trkpt>
      <trkpt lat="59.8927386" lon="17.6398269">
        <ele>24.1703</ele>
        <time>2013-05-11T16:05:28Z</time>
      </trkpt>
      <trkpt lat="59.8927398" lon="17.6397229">
        <ele>23.6896</ele>
        <time>2013-05-11T16:05:29Z</time>
      </trkpt>
      <trkpt lat="59.8927438" lon="17.639613">
        <ele>22.7283</ele>
        <time>2013-05-11T16:05:30Z</time>
      </trkpt>
      <trkpt lat="59.8927459" lon="17.6395001">
        <ele>22.2476</ele>
        <time>2013-05-11T16:05:31Z</time>
      </trkpt>
      <trkpt lat="59.8927468" lon="17.6393906">
        <ele>21.2864</ele>
        <time>2013-05-11T16:05:32Z</time>
      </trkpt>
      <trkpt lat="59.8927483" lon="17.6392824">
        <ele>21.2864</ele>
        <time>2013-05-11T16:05:33Z</time>
      </trkpt>
      <trkpt lat="59.8927506" lon="17.6391758">
        <ele>20.8057</ele>
        <time>2013-05-11T16:05:34Z</time>
      </trkpt>
      <trkpt lat="59.8927516" lon="17.6390734">
        <ele>20.8057</ele>
        <time>2013-05-11T16:05:35Z</time>
      </trkpt>
      <trkpt lat="59.8927517" lon="17.6389733">
        <ele>20.325</ele>
        <time>2013-05-11T16:05:36Z</time>
      </trkpt>
      <trkpt lat="59.8927496" lon="17.6388758">
        <ele>20.8057</ele>
        <time>2013-05-11T16:05:37Z</time>
      </trkpt>
      <trkpt lat="59.8927499" lon="17.6387785">
        <ele>20.8057</ele>
        <time>2013-05-11T16:05:38Z</time>
      </trkpt>
      <trkpt lat="59.8927542" lon="17.6386853">
        <ele>20.8057</ele>
        <time>2013-05-11T16:05:39Z</time>
      </trkpt>
      <trkpt lat="59.8927605" lon="17.6386017">
        <ele>20.8057</ele>
        <time>2013-05-11T16:05:40Z</time>
      </trkpt>
      <trkpt lat="59.8927628" lon="17.6385175">
        <ele>21.2864</ele>
        <time>2013-05-11T16:05:41Z</time>
      </trkpt>
      <trkpt lat="59.8927699" lon="17.6384406">
        <ele>22.2476</ele>
        <time>2013-05-11T16:05:42Z</time>
      </trkpt>
      <trkpt lat="59.892791" lon="17.6383776">
        <ele>22.7283</ele>
        <time>2013-05-11T16:05:43Z</time>
      </trkpt>
      <trkpt lat="59.8928225" lon="17.6383294">
        <ele>22.7283</ele>
        <time>2013-05-11T16:05:44Z</time>
      </trkpt>
      <trkpt lat="59.8928603" lon="17.6382912">
        <ele>23.209</ele>
        <time>2013-05-11T16:05:45Z</time>
      </trkpt>
      <trkpt lat="59.8928998" lon="17.6382641">
        <ele>22.2476</ele>
        <time>2013-05-11T16:05:46Z</time>
      </trkpt>
      <trkpt lat="59.8929438" lon="17.6382423">
        <ele>22.2476</ele>
        <time>2013-05-11T16:05:47Z</time>
      </trkpt>
      <trkpt lat="59.8929905" lon="17.638227">
        <ele>22.2476</ele>
        <time>2013-05-11T16:05:48Z</time>
      </trkpt>
      <trkpt lat="59.8930369" lon="17.6382189">
        <ele>22.2476</ele>
        <time>2013-05-11T16:05:49Z</time>
      </trkpt>
      <trkpt lat="59.8930838" lon="17.6382015">
        <ele>22.7283</ele>
        <time>2013-05-11T16:05:50Z</time>
      </trkpt>
      <trkpt lat="59.8931329" lon="17.6381811">
        <ele>22.7283</ele>
        <time>2013-05-11T16:05:51Z</time>
      </trkpt>
      <trkpt lat="59.8931816" lon="17.638157">
        <ele>22.7283</ele>
        <time>2013-05-11T16:05:52Z</time>
      </trkpt>
      <trkpt lat="59.8932335" lon="17.6381264">
        <ele>23.209</ele>
        <time>2013-05-11T16:05:53Z</time>
      </trkpt>
      <trkpt lat="59.8932815" lon="17.6380968">
        <ele>23.6896</ele>
        <time>2013-05-11T16:05:54Z</time>
      </trkpt>
      <trkpt lat="59.8933282" lon="17.638074">
        <ele>24.1703</ele>
        <time>2013-05-11T16:05:55Z</time>
      </trkpt>
      <trkpt lat="59.8933738" lon="17.638055">
        <ele>23.6896</ele>
        <time>2013-05-11T16:05:56Z</time>
      </trkpt>
      <trkpt lat="59.893415" lon="17.6380367">
        <ele>23.6896</ele>
        <time>2013-05-11T16:05:57Z</time>
      </trkpt>
      <trkpt lat="59.8934494" lon="17.6380213">
        <ele>24.1703</ele>
        <time>2013-05-11T16:05:58Z</time>
      </trkpt>
      <trkpt lat="59.8934808" lon="17.6380091">
        <ele>23.6896</ele>
        <time>2013-05-11T16:05:59Z</time>
      </trkpt>
      <trkpt lat="59.8935183" lon="17.6379896">
        <ele>23.6896</ele>
        <time>2013-05-11T16:06:00Z</time>
      </trkpt>
      <trkpt lat="59.8935571" lon="17.6379586">
        <ele>23.6896</ele>
        <time>2013-05-11T16:06:01Z</time>
      </trkpt>
      <trkpt lat="59.8936033" lon="17.637915">
        <ele>24.1703</ele>
        <time>2013-05-11T16:06:02Z</time>
      </trkpt>
      <trkpt lat="59.8936483" lon="17.637877">
        <ele>24.1703</ele>
        <time>2013-05-11T16:06:03Z</time>
      </trkpt>
      <trkpt lat="59.8936959" lon="17.6378409">
        <ele>24.1703</ele>
        <time>2013-05-11T16:06:04Z</time>
      </trkpt>
      <trkpt lat="59.8937486" lon="17.6378061">
        <ele>23.6896</ele>
        <time>2013-05-11T16:06:05Z</time>
      </trkpt>
      <trkpt lat="59.8938012" lon="17.6377714">
        <ele>23.6896</ele>
        <time>2013-05-11T16:06:06Z</time>
      </trkpt>
      <trkpt lat="59.8938539" lon="17.6377311">
        <ele>23.6896</ele>
        <time>2013-05-11T16:06:07Z</time>
      </trkpt>
      <trkpt lat="59.8939078" lon="17.637689">
        <ele>23.6896</ele>
        <time>2013-05-11T16:06:08Z</time>
      </trkpt>
      <trkpt lat="59.8939632" lon="17.6376497">
        <ele>23.6896</ele>
        <time>2013-05-11T16:06:09Z</time>
      </trkpt>
      <trkpt lat="59.8940165" lon="17.6376141">
        <ele>23.6896</ele>
        <time>2013-05-11T16:06:10Z</time>
      </trkpt>
      <trkpt lat="59.8940696" lon="17.6375768">
        <ele>23.6896</ele>
        <time>2013-05-11T16:06:11Z</time>
      </trkpt>
      <trkpt lat="59.8941224" lon="17.6375382">
        <ele>24.651</ele>
        <time>2013-05-11T16:06:12Z</time>
      </trkpt>
      <trkpt lat="59.8941726" lon="17.6374985">
        <ele>24.651</ele>
        <time>2013-05-11T16:06:13Z</time>
      </trkpt>
      <trkpt lat="59.8942247" lon="17.6374613">
        <ele>25.1317</ele>
        <time>2013-05-11T16:06:14Z</time>
      </trkpt>
      <trkpt lat="59.8942736" lon="17.6374369">
        <ele>24.651</ele>
        <time>2013-05-11T16:06:15Z</time>
      </trkpt>
      <trkpt lat="59.8943229" lon="17.6374094">
        <ele>24.651</ele>
        <time>2013-05-11T16:06:16Z</time>
      </trkpt>
      <trkpt lat="59.8943711" lon="17.6373813">
        <ele>24.1703</ele>
        <time>2013-05-11T16:06:17Z</time>
      </trkpt>
      <trkpt lat="59.8944161" lon="17.6373522">
        <ele>23.6896</ele>
        <time>2013-05-11T16:06:18Z</time>
      </trkpt>
      <trkpt lat="59.8944605" lon="17.6373218">
        <ele>23.6896</ele>
        <time>2013-05-11T16:06:19Z</time>
      </trkpt>
      <trkpt lat="59.8945042" lon="17.6372875">
        <ele>22.7283</ele>
        <time>2013-05-11T16:06:20Z</time>
      </trkpt>
      <trkpt lat="59.894548" lon="17.6372638">
        <ele>22.2476</ele>
        <time>2013-05-11T16:06:21Z</time>
      </trkpt>
      <trkpt lat="59.8945911" lon="17.6372488">
        <ele>21.767</ele>
        <time>2013-05-11T16:06:22Z</time>
      </trkpt>
      <trkpt lat="59.8946372" lon="17.6372227">
        <ele>21.767</ele>
        <time>2013-05-11T16:06:23Z</time>
      </trkpt>
      <trkpt lat="59.8946815" lon="17.6371943">
        <ele>21.767</ele>
        <time>2013-05-11T16:06:24Z</time>
      </trkpt>
      <trkpt lat="59.8947264" lon="17.637166">
        <ele>21.767</ele>
        <time>2013-05-11T16:06:25Z</time>
      </trkpt>
      <trkpt lat="59.8947739" lon="17.6371318">
        <ele>21.767</ele>
        <time>2013-05-11T16:06:26Z</time>
      </trkpt>
      <trkpt lat="59.8948226" lon="17.637097">
        <ele>21.767</ele>
        <time>2013-05-11T16:06:27Z</time>
      </trkpt>
      <trkpt lat="59.8948724" lon="17.6370609">
        <ele>21.2864</ele>
        <time>2013-05-11T16:06:28Z</time>
      </trkpt>
      <trkpt lat="59.8949276" lon="17.637025">
        <ele>21.2864</ele>
        <time>2013-05-11T16:06:29Z</time>
      </trkpt>
      <trkpt lat="59.8949832" lon="17.6369889">
        <ele>21.2864</ele>
        <time>2013-05-11T16:06:30Z</time>
      </trkpt>
      <trkpt lat="59.8950401" lon="17.636951">
        <ele>21.2864</ele>
        <time>2013-05-11T16:06:31Z</time>
      </trkpt>
      <trkpt lat="59.8950978" lon="17.6369156">
        <ele>21.2864</ele>
        <time>2013-05-11T16:06:32Z</time>
      </trkpt>
      <trkpt lat="59.8951568" lon="17.6368807">
        <ele>21.2864</ele>
        <time>2013-05-11T16:06:33Z</time>
      </trkpt>
      <trkpt lat="59.8952163" lon="17.6368475">
        <ele>21.2864</ele>
        <time>2013-05-11T16:06:34Z</time>
      </trkpt>
      <trkpt lat="59.8952759" lon="17.6368156">
        <ele>21.2864</ele>
        <time>2013-05-11T16:06:35Z</time>
      </trkpt>
      <trkpt lat="59.8953309" lon="17.6367832">
        <ele>21.767</ele>
        <time>2013-05-11T16:06:36Z</time>
      </trkpt>
      <trkpt lat="59.8953826" lon="17.6367506">
        <ele>21.767</ele>
        <time>2013-05-11T16:06:37Z</time>
      </trkpt>
      <trkpt lat="59.8954318" lon="17.6367234">
        <ele>21.767</ele>
        <time>2013-05-11T16:06:38Z</time>
      </trkpt>
      <trkpt lat="59.8954803" lon="17.636695">
        <ele>21.767</ele>
        <time>2013-05-11T16:06:39Z</time>
      </trkpt>
      <trkpt lat="59.8955293" lon="17.6366698">
        <ele>21.2864</ele>
        <time>2013-05-11T16:06:40Z</time>
      </trkpt>
      <trkpt lat="59.8955803" lon="17.6366541">
        <ele>21.2864</ele>
        <time>2013-05-11T16:06:41Z</time>
      </trkpt>
      <trkpt lat="59.8956331" lon="17.6366381">
        <ele>21.767</ele>
        <time>2013-05-11T16:06:42Z</time>
      </trkpt>
      <trkpt lat="59.8956866" lon="17.6366191">
        <ele>21.767</ele>
        <time>2013-05-11T16:06:43Z</time>
      </trkpt>
      <trkpt lat="59.8957424" lon="17.6365999">
        <ele>22.2476</ele>
        <time>2013-05-11T16:06:44Z</time>
      </trkpt>
      <trkpt lat="59.8957976" lon="17.6365903">
        <ele>22.7283</ele>
        <time>2013-05-11T16:06:45Z</time>
      </trkpt>
      <trkpt lat="59.8958545" lon="17.6365887">
        <ele>22.7283</ele>
        <time>2013-05-11T16:06:46Z</time>
      </trkpt>
      <trkpt lat="59.8959105" lon="17.6365926">
        <ele>22.7283</ele>
        <time>2013-05-11T16:06:47Z</time>
      </trkpt>
      <trkpt lat="59.8959658" lon="17.6365993">
        <ele>22.7283</ele>
        <time>2013-05-11T16:06:48Z</time>
      </trkpt>
      <trkpt lat="59.8960206" lon="17.6366065">
        <ele>22.7283</ele>
        <time>2013-05-11T16:06:49Z</time>
      </trkpt>
      <trkpt lat="59.896074" lon="17.6366158">
        <ele>23.209</ele>
        <time>2013-05-11T16:06:50Z</time>
      </trkpt>
      <trkpt lat="59.8961249" lon="17.636631">
        <ele>23.209</ele>
        <time>2013-05-11T16:06:51Z</time>
      </trkpt>
      <trkpt lat="59.8961745" lon="17.6366495">
        <ele>22.7283</ele>
        <time>2013-05-11T16:06:52Z</time>
      </trkpt>
      <trkpt lat="59.8962238" lon="17.636669">
        <ele>23.209</ele>
        <time>2013-05-11T16:06:53Z</time>
      </trkpt>
      <trkpt lat="59.8962735" lon="17.6366856">
        <ele>22.7283</ele>
        <time>2013-05-11T16:06:54Z</time>
      </trkpt>
      <trkpt lat="59.8963244" lon="17.6367049">
        <ele>22.7283</ele>
        <time>2013-05-11T16:06:55Z</time>
      </trkpt>
      <trkpt lat="59.8963767" lon="17.6367261">
        <ele>22.2476</ele>
        <time>2013-05-11T16:06:56Z</time>
      </trkpt>
      <trkpt lat="59.8964285" lon="17.6367465">
        <ele>22.2476</ele>
        <time>2013-05-11T16:06:57Z</time>
      </trkpt>
      <trkpt lat="59.8964803" lon="17.6367612">
        <ele>22.2476</ele>
        <time>2013-05-11T16:06:58Z</time>
      </trkpt>
      <trkpt lat="59.8965347" lon="17.636777">
        <ele>22.7283</ele>
        <time>2013-05-11T16:06:59Z</time>
      </trkpt>
      <trkpt lat="59.8965876" lon="17.6367966">
        <ele>22.2476</ele>
        <time>2013-05-11T16:07:00Z</time>
      </trkpt>
      <trkpt lat="59.8966381" lon="17.6368173">
        <ele>22.2476</ele>
        <time>2013-05-11T16:07:01Z</time>
      </trkpt>
      <trkpt lat="59.896687" lon="17.6368392">
        <ele>22.2476</ele>
        <time>2013-05-11T16:07:02Z</time>
      </trkpt>
      <trkpt lat="59.8967361" lon="17.6368602">
        <ele>22.2476</ele>
        <time>2013-05-11T16:07:03Z</time>
      </trkpt>
      <trkpt lat="59.8967847" lon="17.6368783">
        <ele>21.767</ele>
        <time>2013-05-11T16:07:04Z</time>
      </trkpt>
      <trkpt lat="59.8968326" lon="17.6368961">
        <ele>21.767</ele>
        <time>2013-05-11T16:07:05Z</time>
      </trkpt>
      <trkpt lat="59.89688" lon="17.6369135">
        <ele>21.767</ele>
        <time>2013-05-11T16:07:06Z</time>
      </trkpt>
      <trkpt lat="59.8969303" lon="17.6369291">
        <ele>21.767</ele>
        <time>2013-05-11T16:07:07Z</time>
      </trkpt>
      <trkpt lat="59.8969813" lon="17.6369459">
        <ele>21.767</ele>
        <time>2013-05-11T16:07:08Z</time>
      </trkpt>
      <trkpt lat="59.8970377" lon="17.6369646">
        <ele>22.2476</ele>
        <time>2013-05-11T16:07:09Z</time>
      </trkpt>
      <trkpt lat="59.8970978" lon="17.636985">
        <ele>22.2476</ele>
        <time>2013-05-11T16:07:10Z</time>
      </trkpt>
      <trkpt lat="59.8971567" lon="17.6370076">
        <ele>22.2476</ele>
        <time>2013-05-11T16:07:11Z</time>
      </trkpt>
      <trkpt lat="59.8972165" lon="17.6370337">
        <ele>22.2476</ele>
        <time>2013-05-11T16:07:12Z</time>
      </trkpt>
      <trkpt lat="59.8972775" lon="17.637064">
        <ele>22.2476</ele>
        <time>2013-05-11T16:07:13Z</time>
      </trkpt>
      <trkpt lat="59.89734" lon="17.6370969">
        <ele>22.2476</ele>
        <time>2013-05-11T16:07:14Z</time>
      </trkpt>
      <trkpt lat="59.8974059" lon="17.6371469">
        <ele>22.2476</ele>
        <time>2013-05-11T16:07:15Z</time>
      </trkpt>
      <trkpt lat="59.8974697" lon="17.6371872">
        <ele>22.2476</ele>
        <time>2013-05-11T16:07:16Z</time>
      </trkpt>
      <trkpt lat="59.8975338" lon="17.6372287">
        <ele>22.2476</ele>
        <time>2013-05-11T16:07:17Z</time>
      </trkpt>
      <trkpt lat="59.8975981" lon="17.6372747">
        <ele>22.2476</ele>
        <time>2013-05-11T16:07:18Z</time>
      </trkpt>
      <trkpt lat="59.8976619" lon="17.6373271">
        <ele>22.2476</ele>
        <time>2013-05-11T16:07:19Z</time>
      </trkpt>
      <trkpt lat="59.8977209" lon="17.6373942">
        <ele>21.767</ele>
        <time>2013-05-11T16:07:20Z</time>
      </trkpt>
      <trkpt lat="59.8977751" lon="17.6374768">
        <ele>21.767</ele>
        <time>2013-05-11T16:07:21Z</time>
      </trkpt>
      <trkpt lat="59.8978241" lon="17.6375708">
        <ele>21.767</ele>
        <time>2013-05-11T16:07:22Z</time>
      </trkpt>
      <trkpt lat="59.897872" lon="17.6376643">
        <ele>22.2476</ele>
        <time>2013-05-11T16:07:23Z</time>
      </trkpt>
      <trkpt lat="59.8979235" lon="17.637748">
        <ele>22.2476</ele>
        <time>2013-05-11T16:07:24Z</time>
      </trkpt>
      <trkpt lat="59.8979789" lon="17.6378203">
        <ele>22.2476</ele>
        <time>2013-05-11T16:07:25Z</time>
      </trkpt>
      <trkpt lat="59.8980347" lon="17.6378855">
        <ele>22.2476</ele>
        <time>2013-05-11T16:07:26Z</time>
      </trkpt>
      <trkpt lat="59.8980908" lon="17.6379449">
        <ele>22.2476</ele>
        <time>2013-05-11T16:07:27Z</time>
      </trkpt>
      <trkpt lat="59.8981463" lon="17.6379979">
        <ele>22.2476</ele>
        <time>2013-05-11T16:07:28Z</time>
      </trkpt>
      <trkpt lat="59.8982032" lon="17.6380467">
        <ele>22.2476</ele>
        <time>2013-05-11T16:07:29Z</time>
      </trkpt>
      <trkpt lat="59.8982621" lon="17.6380933">
        <ele>22.2476</ele>
        <time>2013-05-11T16:07:30Z</time>
      </trkpt>
      <trkpt lat="59.8983219" lon="17.638144">
        <ele>22.2476</ele>
        <time>2013-05-11T16:07:31Z</time>
      </trkpt>
      <trkpt lat="59.8983812" lon="17.6381979">
        <ele>22.2476</ele>
        <time>2013-05-11T16:07:32Z</time>
      </trkpt>
      <trkpt lat="59.8984389" lon="17.6382525">
        <ele>21.767</ele>
        <time>2013-05-11T16:07:33Z</time>
      </trkpt>
      <trkpt lat="59.8984953" lon="17.6382953">
        <ele>21.767</ele>
        <time>2013-05-11T16:07:34Z</time>
      </trkpt>
      <trkpt lat="59.8985573" lon="17.6383279">
        <ele>21.767</ele>
        <time>2013-05-11T16:07:35Z</time>
      </trkpt>
      <trkpt lat="59.8986208" lon="17.6383394">
        <ele>21.767</ele>
        <time>2013-05-11T16:07:36Z</time>
      </trkpt>
      <trkpt lat="59.8986817" lon="17.6383336">
        <ele>21.2864</ele>
        <time>2013-05-11T16:07:37Z</time>
      </trkpt>
      <trkpt lat="59.8987459" lon="17.6383225">
        <ele>20.8057</ele>
        <time>2013-05-11T16:07:38Z</time>
      </trkpt>
      <trkpt lat="59.8988093" lon="17.6383355">
        <ele>20.8057</ele>
        <time>2013-05-11T16:07:39Z</time>
      </trkpt>
      <trkpt lat="59.8988693" lon="17.6383627">
        <ele>20.325</ele>
        <time>2013-05-11T16:07:40Z</time>
      </trkpt>
      <trkpt lat="59.8989273" lon="17.638404">
        <ele>20.325</ele>
        <time>2013-05-11T16:07:41Z</time>
      </trkpt>
      <trkpt lat="59.8989786" lon="17.6384522">
        <ele>19.8444</ele>
        <time>2013-05-11T16:07:42Z</time>
      </trkpt>
      <trkpt lat="59.8990252" lon="17.6385051">
        <ele>19.3638</ele>
        <time>2013-05-11T16:07:43Z</time>
      </trkpt>
      <trkpt lat="59.899079" lon="17.6385579">
        <ele>19.3638</ele>
        <time>2013-05-11T16:07:44Z</time>
      </trkpt>
      <trkpt lat="59.8991336" lon="17.6386113">
        <ele>19.3638</ele>
        <time>2013-05-11T16:07:45Z</time>
      </trkpt>
      <trkpt lat="59.8991899" lon="17.6386654">
        <ele>19.3638</ele>
        <time>2013-05-11T16:07:46Z</time>
      </trkpt>
      <trkpt lat="59.8992486" lon="17.6387177">
        <ele>19.3638</ele>
        <time>2013-05-11T16:07:47Z</time>
      </trkpt>
      <trkpt lat="59.8993107" lon="17.6387747">
        <ele>19.3638</ele>
        <time>2013-05-11T16:07:48Z</time>
      </trkpt>
      <trkpt lat="59.8993677" lon="17.638835">
        <ele>19.3638</ele>
        <time>2013-05-11T16:07:49Z</time>
      </trkpt>
      <trkpt lat="59.899427" lon="17.6388915">
        <ele>19.3638</ele>
        <time>2013-05-11T16:07:50Z</time>
      </trkpt>
      <trkpt lat="59.8994876" lon="17.6389462">
        <ele>19.3638</ele>
        <time>2013-05-11T16:07:51Z</time>
      </trkpt>
      <trkpt lat="59.8995438" lon="17.6390049">
        <ele>19.3638</ele>
        <time>2013-05-11T16:07:52Z</time>
      </trkpt>
      <trkpt lat="59.8996007" lon="17.6390644">
        <ele>19.3638</ele>
        <time>2013-05-11T16:07:53Z</time>
      </trkpt>
      <trkpt lat="59.8996578" lon="17.6391236">
        <ele>19.3638</ele>
        <time>2013-05-11T16:07:54Z</time>
      </trkpt>
      <trkpt lat="59.8997147" lon="17.6391816">
        <ele>19.3638</ele>
        <time>2013-05-11T16:07:55Z</time>
      </trkpt>
      <trkpt lat="59.8997727" lon="17.6392375">
        <ele>18.8831</ele>
        <time>2013-05-11T16:07:56Z</time>
      </trkpt>
      <trkpt lat="59.8998314" lon="17.6392989">
        <ele>18.8831</ele>
        <time>2013-05-11T16:07:57Z</time>
      </trkpt>
      <trkpt lat="59.899891" lon="17.6393587">
        <ele>18.8831</ele>
        <time>2013-05-11T16:07:58Z</time>
      </trkpt>
      <trkpt lat="59.8999505" lon="17.6394191">
        <ele>18.8831</ele>
        <time>2013-05-11T16:07:59Z</time>
      </trkpt>
      <trkpt lat="59.9000093" lon="17.6394816">
        <ele>18.8831</ele>
        <time>2013-05-11T16:08:00Z</time>
      </trkpt>
      <trkpt lat="59.9000685" lon="17.6395416">
        <ele>18.8831</ele>
        <time>2013-05-11T16:08:01Z</time>
      </trkpt>
      <trkpt lat="59.9001274" lon="17.6396007">
        <ele>18.8831</ele>
        <time>2013-05-11T16:08:02Z</time>
      </trkpt>
      <trkpt lat="59.900186" lon="17.6396612">
        <ele>18.8831</ele>
        <time>2013-05-11T16:08:03Z</time>
      </trkpt>
      <trkpt lat="59.9002444" lon="17.6397217">
        <ele>18.8831</ele>
        <time>2013-05-11T16:08:04Z</time>
      </trkpt>
      <trkpt lat="59.9002991" lon="17.6397786">
        <ele>18.8831</ele>
        <time>2013-05-11T16:08:05Z</time>
      </trkpt>
      <trkpt lat="59.900354" lon="17.6398345">
        <ele>18.4023</ele>
        <time>2013-05-11T16:08:06Z</time>
      </trkpt>
      <trkpt lat="59.9004116" lon="17.6398933">
        <ele>18.4023</ele>
        <time>2013-05-11T16:08:07Z</time>
      </trkpt>
      <trkpt lat="59.9004693" lon="17.6399503">
        <ele>18.4023</ele>
        <time>2013-05-11T16:08:08Z</time>
      </trkpt>
      <trkpt lat="59.9005275" lon="17.6400062">
        <ele>18.4023</ele>
        <time>2013-05-11T16:08:09Z</time>
      </trkpt>
      <trkpt lat="59.9005853" lon="17.640063">
        <ele>18.4023</ele>
        <time>2013-05-11T16:08:10Z</time>
      </trkpt>
      <trkpt lat="59.900643" lon="17.6401176">
        <ele>18.4023</ele>
        <time>2013-05-11T16:08:11Z</time>
      </trkpt>
      <trkpt lat="59.900701" lon="17.6401709">
        <ele>18.4023</ele>
        <time>2013-05-11T16:08:12Z</time>
      </trkpt>
      <trkpt lat="59.9007588" lon="17.6402268">
        <ele>18.4023</ele>
        <time>2013-05-11T16:08:13Z</time>
      </trkpt>
      <trkpt lat="59.9008179" lon="17.6402852">
        <ele>17.9218</ele>
        <time>2013-05-11T16:08:14Z</time>
      </trkpt>
      <trkpt lat="59.9008785" lon="17.6403471">
        <ele>17.9218</ele>
        <time>2013-05-11T16:08:15Z</time>
      </trkpt>
      <trkpt lat="59.9009414" lon="17.6404097">
        <ele>17.9218</ele>
        <time>2013-05-11T16:08:16Z</time>
      </trkpt>
      <trkpt lat="59.9010071" lon="17.6404719">
        <ele>17.9218</ele>
        <time>2013-05-11T16:08:17Z</time>
      </trkpt>
      <trkpt lat="59.901074" lon="17.6405365">
        <ele>17.9218</ele>
        <time>2013-05-11T16:08:18Z</time>
      </trkpt>
      <trkpt lat="59.9011413" lon="17.640602">
        <ele>17.9218</ele>
        <time>2013-05-11T16:08:19Z</time>
      </trkpt>
      <trkpt lat="59.9012083" lon="17.6406667">
        <ele>17.4412</ele>
        <time>2013-05-11T16:08:20Z</time>
      </trkpt>
      <trkpt lat="59.9012755" lon="17.64073">
        <ele>17.4412</ele>
        <time>2013-05-11T16:08:21Z</time>
      </trkpt>
      <trkpt lat="59.9013424" lon="17.640793">
        <ele>17.4412</ele>
        <time>2013-05-11T16:08:22Z</time>
      </trkpt>
      <trkpt lat="59.9014086" lon="17.6408586">
        <ele>17.4412</ele>
        <time>2013-05-11T16:08:23Z</time>
      </trkpt>
      <trkpt lat="59.9014742" lon="17.640924">
        <ele>17.4412</ele>
        <time>2013-05-11T16:08:24Z</time>
      </trkpt>
      <trkpt lat="59.9015395" lon="17.6409853">
        <ele>17.4412</ele>
        <time>2013-05-11T16:08:25Z</time>
      </trkpt>
      <trkpt lat="59.901605" lon="17.6410429">
        <ele>16.9604</ele>
        <time>2013-05-11T16:08:26Z</time>
      </trkpt>
      <trkpt lat="59.9016705" lon="17.6410993">
        <ele>16.9604</ele>
        <time>2013-05-11T16:08:27Z</time>
      </trkpt>
      <trkpt lat="59.9017355" lon="17.6411575">
        <ele>16.9604</ele>
        <time>2013-05-11T16:08:28Z</time>
      </trkpt>
      <trkpt lat="59.9018001" lon="17.6412154">
        <ele>16.9604</ele>
        <time>2013-05-11T16:08:29Z</time>
      </trkpt>
      <trkpt lat="59.901865" lon="17.6412686">
        <ele>17.4412</ele>
        <time>2013-05-11T16:08:30Z</time>
      </trkpt>
      <trkpt lat="59.9019299" lon="17.6413161">
        <ele>16.9604</ele>
        <time>2013-05-11T16:08:31Z</time>
      </trkpt>
      <trkpt lat="59.9019939" lon="17.6413635">
        <ele>16.9604</ele>
        <time>2013-05-11T16:08:32Z</time>
      </trkpt>
      <trkpt lat="59.902057" lon="17.6414127">
        <ele>16.9604</ele>
        <time>2013-05-11T16:08:33Z</time>
      </trkpt>
      <trkpt lat="59.9021198" lon="17.6414599">
        <ele>16.9604</ele>
        <time>2013-05-11T16:08:34Z</time>
      </trkpt>
      <trkpt lat="59.9021824" lon="17.6415054">
        <ele>16.9604</ele>
        <time>2013-05-11T16:08:35Z</time>
      </trkpt>
      <trkpt lat="59.9022437" lon="17.6415524">
        <ele>16.9604</ele>
        <time>2013-05-11T16:08:36Z</time>
      </trkpt>
      <trkpt lat="59.9023039" lon="17.6415992">
        <ele>16.9604</ele>
        <time>2013-05-11T16:08:37Z</time>
      </trkpt>
      <trkpt lat="59.9023639" lon="17.6416426">
        <ele>16.9604</ele>
        <time>2013-05-11T16:08:38Z</time>
      </trkpt>
      <trkpt lat="59.9024234" lon="17.6416818">
        <ele>16.4797</ele>
        <time>2013-05-11T16:08:39Z</time>
      </trkpt>
      <trkpt lat="59.9024819" lon="17.6417182">
        <ele>16.4797</ele>
        <time>2013-05-11T16:08:40Z</time>
      </trkpt>
      <trkpt lat="59.9025389" lon="17.6417535">
        <ele>16.4797</ele>
        <time>2013-05-11T16:08:41Z</time>
      </trkpt>
      <trkpt lat="59.9025957" lon="17.6417844">
        <ele>16.4797</ele>
        <time>2013-05-11T16:08:42Z</time>
      </trkpt>
      <trkpt lat="59.9026532" lon="17.6418099">
        <ele>16.4797</ele>
        <time>2013-05-11T16:08:43Z</time>
      </trkpt>
      <trkpt lat="59.9027109" lon="17.6418281">
        <ele>16.4797</ele>
        <time>2013-05-11T16:08:44Z</time>
      </trkpt>
      <trkpt lat="59.9027685" lon="17.6418422">
        <ele>15.999</ele>
        <time>2013-05-11T16:08:45Z</time>
      </trkpt>
      <trkpt lat="59.9028253" lon="17.6418584">
        <ele>15.999</ele>
        <time>2013-05-11T16:08:46Z</time>
      </trkpt>
      <trkpt lat="59.9028808" lon="17.6418752">
        <ele>15.999</ele>
        <time>2013-05-11T16:08:47Z</time>
      </trkpt>
      <trkpt lat="59.9029343" lon="17.6418926">
        <ele>15.999</ele>
        <time>2013-05-11T16:08:48Z</time>
      </trkpt>
      <trkpt lat="59.9029827" lon="17.641912">
        <ele>15.999</ele>
        <time>2013-05-11T16:08:49Z</time>
      </trkpt>
      <trkpt lat="59.9030249" lon="17.6419254">
        <ele>15.5184</ele>
        <time>2013-05-11T16:08:50Z</time>
      </trkpt>
      <trkpt lat="59.9030614" lon="17.6419216">
        <ele>15.5184</ele>
        <time>2013-05-11T16:08:51Z</time>
      </trkpt>
      <trkpt lat="59.9030958" lon="17.6419">
        <ele>15.5184</ele>
        <time>2013-05-11T16:08:52Z</time>
      </trkpt>
      <trkpt lat="59.9031254" lon="17.64187">
        <ele>15.0377</ele>
        <time>2013-05-11T16:08:53Z</time>
      </trkpt>
      <trkpt lat="59.9031569" lon="17.641841">
        <ele>15.0377</ele>
        <time>2013-05-11T16:08:54Z</time>
      </trkpt>
      <trkpt lat="59.903191" lon="17.6418313">
        <ele>15.0377</ele>
        <time>2013-05-11T16:08:55Z</time>
      </trkpt>
      <trkpt lat="59.9032266" lon="17.6418439">
        <ele>15.0377</ele>
        <time>2013-05-11T16:08:56Z</time>
      </trkpt>
      <trkpt lat="59.9032617" lon="17.641868">
        <ele>14.557</ele>
        <time>2013-05-11T16:08:57Z</time>
      </trkpt>
      <trkpt lat="59.9032988" lon="17.6418944">
        <ele>14.557</ele>
        <time>2013-05-11T16:08:58Z</time>
      </trkpt>
      <trkpt lat="59.9033398" lon="17.6419161">
        <ele>14.557</ele>
        <time>2013-05-11T16:08:59Z</time>
      </trkpt>
      <trkpt lat="59.9033827" lon="17.6419404">
        <ele>14.557</ele>
        <time>2013-05-11T16:09:00Z</time>
      </trkpt>
      <trkpt lat="59.9034273" lon="17.6419669">
        <ele>15.0377</ele>
        <time>2013-05-11T16:09:01Z</time>
      </trkpt>
      <trkpt lat="59.9034727" lon="17.6419963">
        <ele>15.0377</ele>
        <time>2013-05-11T16:09:02Z</time>
      </trkpt>
      <trkpt lat="59.9035164" lon="17.6420235">
        <ele>15.5184</ele>
        <time>2013-05-11T16:09:03Z</time>
      </trkpt>
      <trkpt lat="59.9035584" lon="17.6420356">
        <ele>15.0377</ele>
        <time>2013-05-11T16:09:04Z</time>
      </trkpt>
      <trkpt lat="59.9035986" lon="17.6420304">
        <ele>15.0377</ele>
        <time>2013-05-11T16:09:05Z</time>
      </trkpt>
      <trkpt lat="59.903639" lon="17.6420253">
        <ele>15.0377</ele>
        <time>2013-05-11T16:09:06Z</time>
      </trkpt>
      <trkpt lat="59.9036832" lon="17.6420353">
        <ele>15.0377</ele>
        <time>2013-05-11T16:09:07Z</time>
      </trkpt>
      <trkpt lat="59.9037323" lon="17.6420553">
        <ele>15.0377</ele>
        <time>2013-05-11T16:09:08Z</time>
      </trkpt>
      <trkpt lat="59.9037847" lon="17.642078">
        <ele>15.0377</ele>
        <time>2013-05-11T16:09:09Z</time>
      </trkpt>
      <trkpt lat="59.9038377" lon="17.6421015">
        <ele>15.0377</ele>
        <time>2013-05-11T16:09:10Z</time>
      </trkpt>
      <trkpt lat="59.903891" lon="17.6421278">
        <ele>15.0377</ele>
        <time>2013-05-11T16:09:11Z</time>
      </trkpt>
      <trkpt lat="59.9039441" lon="17.6421561">
        <ele>15.0377</ele>
        <time>2013-05-11T16:09:12Z</time>
      </trkpt>
      <trkpt lat="59.9039974" lon="17.6421842">
        <ele>15.0377</ele>
        <time>2013-05-11T16:09:13Z</time>
      </trkpt>
      <trkpt lat="59.9040506" lon="17.6422127">
        <ele>15.0377</ele>
        <time>2013-05-11T16:09:14Z</time>
      </trkpt>
      <trkpt lat="59.9041044" lon="17.642243">
        <ele>15.0377</ele>
        <time>2013-05-11T16:09:15Z</time>
      </trkpt>
      <trkpt lat="59.9041581" lon="17.6422741">
        <ele>15.0377</ele>
        <time>2013-05-11T16:09:16Z</time>
      </trkpt>
      <trkpt lat="59.9042121" lon="17.6423072">
        <ele>15.0377</ele>
        <time>2013-05-11T16:09:17Z</time>
      </trkpt>
      <trkpt lat="59.9042648" lon="17.6423404">
        <ele>15.0377</ele>
        <time>2013-05-11T16:09:18Z</time>
      </trkpt>
      <trkpt lat="59.9043198" lon="17.6423729">
        <ele>15.0377</ele>
        <time>2013-05-11T16:09:19Z</time>
      </trkpt>
      <trkpt lat="59.904381" lon="17.6424004">
        <ele>15.5184</ele>
        <time>2013-05-11T16:09:20Z</time>
      </trkpt>
      <trkpt lat="59.9044426" lon="17.6424295">
        <ele>15.5184</ele>
        <time>2013-05-11T16:09:21Z</time>
      </trkpt>
      <trkpt lat="59.9045026" lon="17.6424651">
        <ele>15.999</ele>
        <time>2013-05-11T16:09:22Z</time>
      </trkpt>
      <trkpt lat="59.9045619" lon="17.6424998">
        <ele>15.999</ele>
        <time>2013-05-11T16:09:23Z</time>
      </trkpt>
      <trkpt lat="59.9046219" lon="17.6425304">
        <ele>16.4797</ele>
        <time>2013-05-11T16:09:24Z</time>
      </trkpt>
      <trkpt lat="59.9046819" lon="17.642567">
        <ele>16.4797</ele>
        <time>2013-05-11T16:09:25Z</time>
      </trkpt>
      <trkpt lat="59.9047425" lon="17.6426128">
        <ele>16.9604</ele>
        <time>2013-05-11T16:09:26Z</time>
      </trkpt>
      <trkpt lat="59.9048021" lon="17.6426584">
        <ele>17.4412</ele>
        <time>2013-05-11T16:09:27Z</time>
      </trkpt>
      <trkpt lat="59.9048608" lon="17.6426956">
        <ele>17.4412</ele>
        <time>2013-05-11T16:09:28Z</time>
      </trkpt>
      <trkpt lat="59.9049213" lon="17.64273">
        <ele>16.9604</ele>
        <time>2013-05-11T16:09:29Z</time>
      </trkpt>
      <trkpt lat="59.9049813" lon="17.6427598">
        <ele>16.9604</ele>
        <time>2013-05-11T16:09:30Z</time>
      </trkpt>
      <trkpt lat="59.9050455" lon="17.6427853">
        <ele>16.4797</ele>
        <time>2013-05-11T16:09:31Z</time>
      </trkpt>
      <trkpt lat="59.9051108" lon="17.6428179">
        <ele>16.9604</ele>
        <time>2013-05-11T16:09:32Z</time>
      </trkpt>
      <trkpt lat="59.9051709" lon="17.6428428">
        <ele>17.4412</ele>
        <time>2013-05-11T16:09:33Z</time>
      </trkpt>
      <trkpt lat="59.9052346" lon="17.6428769">
        <ele>18.4023</ele>
        <time>2013-05-11T16:09:34Z</time>
      </trkpt>
      <trkpt lat="59.9053008" lon="17.642909">
        <ele>18.4023</ele>
        <time>2013-05-11T16:09:35Z</time>
      </trkpt>
      <trkpt lat="59.9053629" lon="17.6429375">
        <ele>16.4797</ele>
        <time>2013-05-11T16:09:36Z</time>
      </trkpt>
      <trkpt lat="59.9054258" lon="17.6429497">
        <ele>15.5184</ele>
        <time>2013-05-11T16:09:37Z</time>
      </trkpt>
      <trkpt lat="59.9054885" lon="17.6429511">
        <ele>14.557</ele>
        <time>2013-05-11T16:09:38Z</time>
      </trkpt>
      <trkpt lat="59.9055539" lon="17.6429594">
        <ele>14.557</ele>
        <time>2013-05-11T16:09:39Z</time>
      </trkpt>
      <trkpt lat="59.9056184" lon="17.6429749">
        <ele>15.0377</ele>
        <time>2013-05-11T16:09:40Z</time>
      </trkpt>
      <trkpt lat="59.9056801" lon="17.6429978">
        <ele>15.0377</ele>
        <time>2013-05-11T16:09:41Z</time>
      </trkpt>
      <trkpt lat="59.90574" lon="17.6430262">
        <ele>15.0377</ele>
        <time>2013-05-11T16:09:42Z</time>
      </trkpt>
      <trkpt lat="59.9058011" lon="17.6430581">
        <ele>15.5184</ele>
        <time>2013-05-11T16:09:43Z</time>
      </trkpt>
      <trkpt lat="59.9058628" lon="17.6430894">
        <ele>15.5184</ele>
        <time>2013-05-11T16:09:44Z</time>
      </trkpt>
      <trkpt lat="59.9059251" lon="17.6431206">
        <ele>15.999</ele>
        <time>2013-05-11T16:09:45Z</time>
      </trkpt>
      <trkpt lat="59.9059868" lon="17.6431517">
        <ele>15.5184</ele>
        <time>2013-05-11T16:09:46Z</time>
      </trkpt>
      <trkpt lat="59.906052" lon="17.6431812">
        <ele>15.5184</ele>
        <time>2013-05-11T16:09:47Z</time>
      </trkpt>
      <trkpt lat="59.9061178" lon="17.6432096">
        <ele>15.5184</ele>
        <time>2013-05-11T16:09:48Z</time>
      </trkpt>
      <trkpt lat="59.9061835" lon="17.6432361">
        <ele>15.5184</ele>
        <time>2013-05-11T16:09:49Z</time>
      </trkpt>
      <trkpt lat="59.9062495" lon="17.6432641">
        <ele>15.999</ele>
        <time>2013-05-11T16:09:50Z</time>
      </trkpt>
      <trkpt lat="59.906316" lon="17.6432928">
        <ele>15.999</ele>
        <time>2013-05-11T16:09:51Z</time>
      </trkpt>
      <trkpt lat="59.9063826" lon="17.643321">
        <ele>16.4797</ele>
        <time>2013-05-11T16:09:52Z</time>
      </trkpt>
      <trkpt lat="59.9064497" lon="17.6433474">
        <ele>16.4797</ele>
        <time>2013-05-11T16:09:53Z</time>
      </trkpt>
      <trkpt lat="59.9065174" lon="17.6433705">
        <ele>16.9604</ele>
        <time>2013-05-11T16:09:54Z</time>
      </trkpt>
      <trkpt lat="59.9065861" lon="17.6433924">
        <ele>16.9604</ele>
        <time>2013-05-11T16:09:55Z</time>
      </trkpt>
      <trkpt lat="59.9066555" lon="17.6434152">
        <ele>16.9604</ele>
        <time>2013-05-11T16:09:56Z</time>
      </trkpt>
      <trkpt lat="59.9067234" lon="17.643437">
        <ele>16.9604</ele>
        <time>2013-05-11T16:09:57Z</time>
      </trkpt>
      <trkpt lat="59.9067891" lon="17.6434555">
        <ele>17.4412</ele>
        <time>2013-05-11T16:09:58Z</time>
      </trkpt>
      <trkpt lat="59.9068528" lon="17.6434711">
        <ele>17.4412</ele>
        <time>2013-05-11T16:09:59Z</time>
      </trkpt>
      <trkpt lat="59.9069141" lon="17.6434841">
        <ele>17.4412</ele>
        <time>2013-05-11T16:10:00Z</time>
      </trkpt>
      <trkpt lat="59.9069731" lon="17.6434962">
        <ele>17.4412</ele>
        <time>2013-05-11T16:10:01Z</time>
      </trkpt>
      <trkpt lat="59.9070294" lon="17.6435095">
        <ele>17.9218</ele>
        <time>2013-05-11T16:10:02Z</time>
      </trkpt>
      <trkpt lat="59.9070839" lon="17.6435235">
        <ele>17.9218</ele>
        <time>2013-05-11T16:10:03Z</time>
      </trkpt>
      <trkpt lat="59.9071376" lon="17.6435338">
        <ele>17.9218</ele>
        <time>2013-05-11T16:10:04Z</time>
      </trkpt>
      <trkpt lat="59.9071901" lon="17.6435392">
        <ele>17.9218</ele>
        <time>2013-05-11T16:10:05Z</time>
      </trkpt>
      <trkpt lat="59.9072433" lon="17.6435459">
        <ele>18.4023</ele>
        <time>2013-05-11T16:10:06Z</time>
      </trkpt>
      <trkpt lat="59.9072967" lon="17.6435587">
        <ele>18.4023</ele>
        <time>2013-05-11T16:10:07Z</time>
      </trkpt>
      <trkpt lat="59.9073507" lon="17.6435733">
        <ele>18.4023</ele>
        <time>2013-05-11T16:10:08Z</time>
      </trkpt>
      <trkpt lat="59.9074052" lon="17.6435872">
        <ele>18.8831</ele>
        <time>2013-05-11T16:10:09Z</time>
      </trkpt>
      <trkpt lat="59.9074598" lon="17.6435966">
        <ele>18.8831</ele>
        <time>2013-05-11T16:10:10Z</time>
      </trkpt>
      <trkpt lat="59.9075142" lon="17.6436032">
        <ele>19.3638</ele>
        <time>2013-05-11T16:10:11Z</time>
      </trkpt>
      <trkpt lat="59.9075683" lon="17.643612">
        <ele>19.3638</ele>
        <time>2013-05-11T16:10:12Z</time>
      </trkpt>
      <trkpt lat="59.9076226" lon="17.6436231">
        <ele>19.3638</ele>
        <time>2013-05-11T16:10:13Z</time>
      </trkpt>
      <trkpt lat="59.9076756" lon="17.6436338">
        <ele>19.8444</ele>
        <time>2013-05-11T16:10:14Z</time>
      </trkpt>
      <trkpt lat="59.9077287" lon="17.6436421">
        <ele>19.8444</ele>
        <time>2013-05-11T16:10:15Z</time>
      </trkpt>
      <trkpt lat="59.9077802" lon="17.6436505">
        <ele>20.325</ele>
        <time>2013-05-11T16:10:16Z</time>
      </trkpt>
      <trkpt lat="59.9078313" lon="17.643659">
        <ele>20.325</ele>
        <time>2013-05-11T16:10:17Z</time>
      </trkpt>
      <trkpt lat="59.9078816" lon="17.6436675">
        <ele>20.8057</ele>
        <time>2013-05-11T16:10:18Z</time>
      </trkpt>
      <trkpt lat="59.9079313" lon="17.6436768">
        <ele>20.8057</ele>
        <time>2013-05-11T16:10:19Z</time>
      </trkpt>
      <trkpt lat="59.9079811" lon="17.6436849">
        <ele>20.8057</ele>
        <time>2013-05-11T16:10:20Z</time>
      </trkpt>
      <trkpt lat="59.9080314" lon="17.6436903">
        <ele>21.2864</ele>
        <time>2013-05-11T16:10:21Z</time>
      </trkpt>
      <trkpt lat="59.9080825" lon="17.6436963">
        <ele>21.2864</ele>
        <time>2013-05-11T16:10:22Z</time>
      </trkpt>
      <trkpt lat="59.908134" lon="17.6437038">
        <ele>21.2864</ele>
        <time>2013-05-11T16:10:23Z</time>
      </trkpt>
      <trkpt lat="59.9081856" lon="17.6437118">
        <ele>21.767</ele>
        <time>2013-05-11T16:10:24Z</time>
      </trkpt>
      <trkpt lat="59.9082373" lon="17.6437181">
        <ele>21.767</ele>
        <time>2013-05-11T16:10:25Z</time>
      </trkpt>
      <trkpt lat="59.9082887" lon="17.6437235">
        <ele>22.2476</ele>
        <time>2013-05-11T16:10:26Z</time>
      </trkpt>
      <trkpt lat="59.9083399" lon="17.6437297">
        <ele>22.2476</ele>
        <time>2013-05-11T16:10:27Z</time>
      </trkpt>
      <trkpt lat="59.9083904" lon="17.6437348">
        <ele>22.2476</ele>
        <time>2013-05-11T16:10:28Z</time>
      </trkpt>
      <trkpt lat="59.9084428" lon="17.6437374">
        <ele>22.2476</ele>
        <time>2013-05-11T16:10:29Z</time>
      </trkpt>
      <trkpt lat="59.9084972" lon="17.6437395">
        <ele>22.2476</ele>
        <time>2013-05-11T16:10:30Z</time>
      </trkpt>
      <trkpt lat="59.9085525" lon="17.6437426">
        <ele>22.2476</ele>
        <time>2013-05-11T16:10:31Z</time>
      </trkpt>
      <trkpt lat="59.9086086" lon="17.6437421">
        <ele>22.2476</ele>
        <time>2013-05-11T16:10:32Z</time>
      </trkpt>
      <trkpt lat="59.9086649" lon="17.6437364">
        <ele>22.2476</ele>
        <time>2013-05-11T16:10:33Z</time>
      </trkpt>
      <trkpt lat="59.9087209" lon="17.6437329">
        <ele>22.2476</ele>
        <time>2013-05-11T16:10:34Z</time>
      </trkpt>
      <trkpt lat="59.9087756" lon="17.6437319">
        <ele>22.2476</ele>
        <time>2013-05-11T16:10:35Z</time>
      </trkpt>
      <trkpt lat="59.9088299" lon="17.6437302">
        <ele>22.2476</ele>
        <time>2013-05-11T16:10:36Z</time>
      </trkpt>
      <trkpt lat="59.9088835" lon="17.6437276">
        <ele>22.2476</ele>
        <time>2013-05-11T16:10:37Z</time>
      </trkpt>
      <trkpt lat="59.9089362" lon="17.6437224">
        <ele>22.2476</ele>
        <time>2013-05-11T16:10:38Z</time>
      </trkpt>
      <trkpt lat="59.9089881" lon="17.6437162">
        <ele>22.2476</ele>
        <time>2013-05-11T16:10:39Z</time>
      </trkpt>
      <trkpt lat="59.9090405" lon="17.6437121">
        <ele>22.2476</ele>
        <time>2013-05-11T16:10:40Z</time>
      </trkpt>
      <trkpt lat="59.9090942" lon="17.643708">
        <ele>21.767</ele>
        <time>2013-05-11T16:10:41Z</time>
      </trkpt>
      <trkpt lat="59.9091498" lon="17.6437017">
        <ele>21.767</ele>
        <time>2013-05-11T16:10:42Z</time>
      </trkpt>
      <trkpt lat="59.9092073" lon="17.6436913">
        <ele>21.767</ele>
        <time>2013-05-11T16:10:43Z</time>
      </trkpt>
      <trkpt lat="59.9092674" lon="17.6436792">
        <ele>21.767</ele>
        <time>2013-05-11T16:10:44Z</time>
      </trkpt>
      <trkpt lat="59.9093299" lon="17.6436669">
        <ele>21.767</ele>
        <time>2013-05-11T16:10:45Z</time>
      </trkpt>
      <trkpt lat="59.9093951" lon="17.6436557">
        <ele>21.767</ele>
        <time>2013-05-11T16:10:46Z</time>
      </trkpt>
      <trkpt lat="59.9094602" lon="17.6436448">
        <ele>21.767</ele>
        <time>2013-05-11T16:10:47Z</time>
      </trkpt>
      <trkpt lat="59.9095233" lon="17.6436302">
        <ele>22.2476</ele>
        <time>2013-05-11T16:10:48Z</time>
      </trkpt>
      <trkpt lat="59.9095845" lon="17.6436129">
        <ele>22.2476</ele>
        <time>2013-05-11T16:10:49Z</time>
      </trkpt>
      <trkpt lat="59.9096408" lon="17.6436002">
        <ele>21.767</ele>
        <time>2013-05-11T16:10:50Z</time>
      </trkpt>
      <trkpt lat="59.9096941" lon="17.6435883">
        <ele>21.767</ele>
        <time>2013-05-11T16:10:51Z</time>
      </trkpt>
      <trkpt lat="59.9097479" lon="17.6435747">
        <ele>21.767</ele>
        <time>2013-05-11T16:10:52Z</time>
      </trkpt>
      <trkpt lat="59.9098029" lon="17.6435674">
        <ele>22.2476</ele>
        <time>2013-05-11T16:10:53Z</time>
      </trkpt>
      <trkpt lat="59.9098585" lon="17.6435687">
        <ele>22.2476</ele>
        <time>2013-05-11T16:10:54Z</time>
      </trkpt>
      <trkpt lat="59.9099152" lon="17.6435826">
        <ele>22.7283</ele>
        <time>2013-05-11T16:10:55Z</time>
      </trkpt>
      <trkpt lat="59.9099734" lon="17.6436042">
        <ele>23.209</ele>
        <time>2013-05-11T16:10:56Z</time>
      </trkpt>
      <trkpt lat="59.9100313" lon="17.643624">
        <ele>23.6896</ele>
        <time>2013-05-11T16:10:57Z</time>
      </trkpt>
      <trkpt lat="59.9100823" lon="17.643637">
        <ele>24.1703</ele>
        <time>2013-05-11T16:10:58Z</time>
      </trkpt>
      <trkpt lat="59.910133" lon="17.6436452">
        <ele>24.651</ele>
        <time>2013-05-11T16:10:59Z</time>
      </trkpt>
      <trkpt lat="59.9101848" lon="17.6436487">
        <ele>25.1317</ele>
        <time>2013-05-11T16:11:00Z</time>
      </trkpt>
      <trkpt lat="59.910236" lon="17.6436424">
        <ele>25.6123</ele>
        <time>2013-05-11T16:11:01Z</time>
      </trkpt>
      <trkpt lat="59.9102879" lon="17.6436329">
        <ele>25.1317</ele>
        <time>2013-05-11T16:11:02Z</time>
      </trkpt>
      <trkpt lat="59.9103407" lon="17.643623">
        <ele>25.1317</ele>
        <time>2013-05-11T16:11:03Z</time>
      </trkpt>
      <trkpt lat="59.9103864" lon="17.6436124">
        <ele>24.1703</ele>
        <time>2013-05-11T16:11:04Z</time>
      </trkpt>
      <trkpt lat="59.9104333" lon="17.6435949">
        <ele>24.1703</ele>
        <time>2013-05-11T16:11:05Z</time>
      </trkpt>
      <trkpt lat="59.9104795" lon="17.6435696">
        <ele>24.1703</ele>
        <time>2013-05-11T16:11:06Z</time>
      </trkpt>
      <trkpt lat="59.9105256" lon="17.6435395">
        <ele>24.651</ele>
        <time>2013-05-11T16:11:07Z</time>
      </trkpt>
      <trkpt lat="59.9105732" lon="17.6435141">
        <ele>24.651</ele>
        <time>2013-05-11T16:11:08Z</time>
      </trkpt>
      <trkpt lat="59.910623" lon="17.6434929">
        <ele>24.651</ele>
        <time>2013-05-11T16:11:09Z</time>
      </trkpt>
      <trkpt lat="59.9106752" lon="17.6434738">
        <ele>24.651</ele>
        <time>2013-05-11T16:11:10Z</time>
      </trkpt>
      <trkpt lat="59.9107296" lon="17.6434604">
        <ele>24.651</ele>
        <time>2013-05-11T16:11:11Z</time>
      </trkpt>
      <trkpt lat="59.910786" lon="17.6434515">
        <ele>24.651</ele>
        <time>2013-05-11T16:11:12Z</time>
      </trkpt>
      <trkpt lat="59.9108421" lon="17.6434426">
        <ele>24.651</ele>
        <time>2013-05-11T16:11:13Z</time>
      </trkpt>
      <trkpt lat="59.9108987" lon="17.6434327">
        <ele>24.1703</ele>
        <time>2013-05-11T16:11:14Z</time>
      </trkpt>
      <trkpt lat="59.9109561" lon="17.6434219">
        <ele>24.1703</ele>
        <time>2013-05-11T16:11:15Z</time>
      </trkpt>
      <trkpt lat="59.9110135" lon="17.6434111">
        <ele>24.1703</ele>
        <time>2013-05-11T16:11:16Z</time>
      </trkpt>
      <trkpt lat="59.9110719" lon="17.6434012">
        <ele>24.1703</ele>
        <time>2013-05-11T16:11:17Z</time>
      </trkpt>
      <trkpt lat="59.9111331" lon="17.6433919">
        <ele>24.651</ele>
        <time>2013-05-11T16:11:18Z</time>
      </trkpt>
      <trkpt lat="59.9111936" lon="17.6433831">
        <ele>24.1703</ele>
        <time>2013-05-11T16:11:19Z</time>
      </trkpt>
      <trkpt lat="59.9112519" lon="17.6433712">
        <ele>24.1703</ele>
        <time>2013-05-11T16:11:20Z</time>
      </trkpt>
      <trkpt lat="59.9113067" lon="17.6433557">
        <ele>23.6896</ele>
        <time>2013-05-11T16:11:21Z</time>
      </trkpt>
      <trkpt lat="59.9113612" lon="17.6433396">
        <ele>23.209</ele>
        <time>2013-05-11T16:11:22Z</time>
      </trkpt>
      <trkpt lat="59.911414" lon="17.6433265">
        <ele>22.7283</ele>
        <time>2013-05-11T16:11:23Z</time>
      </trkpt>
      <trkpt lat="59.9114656" lon="17.6433148">
        <ele>22.7283</ele>
        <time>2013-05-11T16:11:24Z</time>
      </trkpt>
      <trkpt lat="59.9115165" lon="17.643307">
        <ele>21.767</ele>
        <time>2013-05-11T16:11:25Z</time>
      </trkpt>
      <trkpt lat="59.9115668" lon="17.6433028">
        <ele>20.8057</ele>
        <time>2013-05-11T16:11:26Z</time>
      </trkpt>
      <trkpt lat="59.911618" lon="17.6432997">
        <ele>20.8057</ele>
        <time>2013-05-11T16:11:27Z</time>
      </trkpt>
      <trkpt lat="59.9116684" lon="17.6432935">
        <ele>19.8444</ele>
        <time>2013-05-11T16:11:28Z</time>
      </trkpt>
      <trkpt lat="59.911717" lon="17.643285">
        <ele>19.3638</ele>
        <time>2013-05-11T16:11:29Z</time>
      </trkpt>
      <trkpt lat="59.9117668" lon="17.6432754">
        <ele>18.8831</ele>
        <time>2013-05-11T16:11:30Z</time>
      </trkpt>
      <trkpt lat="59.9118176" lon="17.6432629">
        <ele>18.8831</ele>
        <time>2013-05-11T16:11:31Z</time>
      </trkpt>
      <trkpt lat="59.9118687" lon="17.643251">
        <ele>18.4023</ele>
        <time>2013-05-11T16:11:32Z</time>
      </trkpt>
      <trkpt lat="59.9119211" lon="17.6432394">
        <ele>17.9218</ele>
        <time>2013-05-11T16:11:33Z</time>
      </trkpt>
      <trkpt lat="59.9119796" lon="17.6432249">
        <ele>17.9218</ele>
        <time>2013-05-11T16:11:34Z</time>
      </trkpt>
      <trkpt lat="59.9120399" lon="17.6432092">
        <ele>17.9218</ele>
        <time>2013-05-11T16:11:35Z</time>
      </trkpt>
      <trkpt lat="59.9121002" lon="17.6431884">
        <ele>17.4412</ele>
        <time>2013-05-11T16:11:36Z</time>
      </trkpt>
      <trkpt lat="59.912161" lon="17.6431656">
        <ele>16.9604</ele>
        <time>2013-05-11T16:11:37Z</time>
      </trkpt>
      <trkpt lat="59.9122246" lon="17.6431431">
        <ele>16.9604</ele>
        <time>2013-05-11T16:11:38Z</time>
      </trkpt>
      <trkpt lat="59.9122897" lon="17.6431226">
        <ele>16.9604</ele>
        <time>2013-05-11T16:11:39Z</time>
      </trkpt>
      <trkpt lat="59.9123541" lon="17.6431081">
        <ele>16.4797</ele>
        <time>2013-05-11T16:11:40Z</time>
      </trkpt>
      <trkpt lat="59.9124189" lon="17.643099">
        <ele>16.9604</ele>
        <time>2013-05-11T16:11:41Z</time>
      </trkpt>
      <trkpt lat="59.9124837" lon="17.6430939">
        <ele>16.9604</ele>
        <time>2013-05-11T16:11:42Z</time>
      </trkpt>
      <trkpt lat="59.9125463" lon="17.6430977">
        <ele>16.9604</ele>
        <time>2013-05-11T16:11:43Z</time>
      </trkpt>
      <trkpt lat="59.9126074" lon="17.6431193">
        <ele>16.9604</ele>
        <time>2013-05-11T16:11:44Z</time>
      </trkpt>
      <trkpt lat="59.912665" lon="17.6431503">
        <ele>17.4412</ele>
        <time>2013-05-11T16:11:45Z</time>
      </trkpt>
      <trkpt lat="59.9127187" lon="17.6431721">
        <ele>17.9218</ele>
        <time>2013-05-11T16:11:46Z</time>
      </trkpt>
      <trkpt lat="59.9127664" lon="17.6431767">
        <ele>18.4023</ele>
        <time>2013-05-11T16:11:47Z</time>
      </trkpt>
      <trkpt lat="59.9128198" lon="17.6431745">
        <ele>18.8831</ele>
        <time>2013-05-11T16:11:48Z</time>
      </trkpt>
      <trkpt lat="59.9128701" lon="17.6431745">
        <ele>17.9218</ele>
        <time>2013-05-11T16:11:49Z</time>
      </trkpt>
      <trkpt lat="59.9129254" lon="17.6431708">
        <ele>18.4023</ele>
        <time>2013-05-11T16:11:50Z</time>
      </trkpt>
      <trkpt lat="59.9129764" lon="17.6431681">
        <ele>17.9218</ele>
        <time>2013-05-11T16:11:51Z</time>
      </trkpt>
      <trkpt lat="59.9130249" lon="17.643164">
        <ele>17.4412</ele>
        <time>2013-05-11T16:11:52Z</time>
      </trkpt>
      <trkpt lat="59.9130761" lon="17.6431537">
        <ele>17.9218</ele>
        <time>2013-05-11T16:11:53Z</time>
      </trkpt>
      <trkpt lat="59.9131276" lon="17.6431386">
        <ele>18.4023</ele>
        <time>2013-05-11T16:11:54Z</time>
      </trkpt>
      <trkpt lat="59.9131797" lon="17.6431226">
        <ele>18.8831</ele>
        <time>2013-05-11T16:11:55Z</time>
      </trkpt>
      <trkpt lat="59.9132308" lon="17.6431094">
        <ele>19.8444</ele>
        <time>2013-05-11T16:11:56Z</time>
      </trkpt>
      <trkpt lat="59.9132808" lon="17.6430983">
        <ele>19.8444</ele>
        <time>2013-05-11T16:11:57Z</time>
      </trkpt>
      <trkpt lat="59.9133311" lon="17.6430863">
        <ele>20.8057</ele>
        <time>2013-05-11T16:11:58Z</time>
      </trkpt>
      <trkpt lat="59.9133808" lon="17.6430739">
        <ele>21.2864</ele>
        <time>2013-05-11T16:11:59Z</time>
      </trkpt>
      <trkpt lat="59.9134311" lon="17.64306">
        <ele>21.767</ele>
        <time>2013-05-11T16:12:00Z</time>
      </trkpt>
      <trkpt lat="59.9134793" lon="17.6430481">
        <ele>21.2864</ele>
        <time>2013-05-11T16:12:01Z</time>
      </trkpt>
      <trkpt lat="59.9135324" lon="17.6430362">
        <ele>21.767</ele>
        <time>2013-05-11T16:12:02Z</time>
      </trkpt>
      <trkpt lat="59.9135879" lon="17.6430226">
        <ele>22.2476</ele>
        <time>2013-05-11T16:12:03Z</time>
      </trkpt>
      <trkpt lat="59.9136446" lon="17.6430082">
        <ele>22.2476</ele>
        <time>2013-05-11T16:12:04Z</time>
      </trkpt>
      <trkpt lat="59.9137008" lon="17.6429954">
        <ele>22.7283</ele>
        <time>2013-05-11T16:12:05Z</time>
      </trkpt>
      <trkpt lat="59.913758" lon="17.6429863">
        <ele>22.7283</ele>
        <time>2013-05-11T16:12:06Z</time>
      </trkpt>
      <trkpt lat="59.9138181" lon="17.642978">
        <ele>23.6896</ele>
        <time>2013-05-11T16:12:07Z</time>
      </trkpt>
      <trkpt lat="59.9138762" lon="17.6429677">
        <ele>24.1703</ele>
        <time>2013-05-11T16:12:08Z</time>
      </trkpt>
      <trkpt lat="59.9139349" lon="17.6429548">
        <ele>24.1703</ele>
        <time>2013-05-11T16:12:09Z</time>
      </trkpt>
      <trkpt lat="59.9139907" lon="17.6429438">
        <ele>24.1703</ele>
        <time>2013-05-11T16:12:10Z</time>
      </trkpt>
      <trkpt lat="59.9140487" lon="17.6429325">
        <ele>24.651</ele>
        <time>2013-05-11T16:12:11Z</time>
      </trkpt>
      <trkpt lat="59.9141052" lon="17.6429205">
        <ele>24.1703</ele>
        <time>2013-05-11T16:12:12Z</time>
      </trkpt>
      <trkpt lat="59.9141651" lon="17.6429074">
        <ele>24.1703</ele>
        <time>2013-05-11T16:12:13Z</time>
      </trkpt>
      <trkpt lat="59.9142237" lon="17.6428953">
        <ele>24.1703</ele>
        <time>2013-05-11T16:12:14Z</time>
      </trkpt>
      <trkpt lat="59.914282" lon="17.6428846">
        <ele>24.1703</ele>
        <time>2013-05-11T16:12:15Z</time>
      </trkpt>
      <trkpt lat="59.9143407" lon="17.6428765">
        <ele>23.6896</ele>
        <time>2013-05-11T16:12:16Z</time>
      </trkpt>
      <trkpt lat="59.9144001" lon="17.6428686">
        <ele>23.6896</ele>
        <time>2013-05-11T16:12:17Z</time>
      </trkpt>
      <trkpt lat="59.9144595" lon="17.6428574">
        <ele>23.209</ele>
        <time>2013-05-11T16:12:18Z</time>
      </trkpt>
      <trkpt lat="59.9145208" lon="17.6428449">
        <ele>23.209</ele>
        <time>2013-05-11T16:12:19Z</time>
      </trkpt>
      <trkpt lat="59.9145815" lon="17.6428335">
        <ele>23.209</ele>
        <time>2013-05-11T16:12:20Z</time>
      </trkpt>
      <trkpt lat="59.9146417" lon="17.6428183">
        <ele>22.7283</ele>
        <time>2013-05-11T16:12:21Z</time>
      </trkpt>
      <trkpt lat="59.9147012" lon="17.6428033">
        <ele>22.7283</ele>
        <time>2013-05-11T16:12:22Z</time>
      </trkpt>
      <trkpt lat="59.914764" lon="17.6427882">
        <ele>22.7283</ele>
        <time>2013-05-11T16:12:23Z</time>
      </trkpt>
      <trkpt lat="59.914829" lon="17.6427733">
        <ele>22.2476</ele>
        <time>2013-05-11T16:12:24Z</time>
      </trkpt>
      <trkpt lat="59.9148954" lon="17.6427566">
        <ele>22.2476</ele>
        <time>2013-05-11T16:12:25Z</time>
      </trkpt>
      <trkpt lat="59.9149609" lon="17.6427417">
        <ele>21.767</ele>
        <time>2013-05-11T16:12:26Z</time>
      </trkpt>
      <trkpt lat="59.9150261" lon="17.6427305">
        <ele>21.2864</ele>
        <time>2013-05-11T16:12:27Z</time>
      </trkpt>
      <trkpt lat="59.9150886" lon="17.6427155">
        <ele>20.325</ele>
        <time>2013-05-11T16:12:28Z</time>
      </trkpt>
      <trkpt lat="59.9151494" lon="17.6426881">
        <ele>19.8444</ele>
        <time>2013-05-11T16:12:29Z</time>
      </trkpt>
      <trkpt lat="59.9152115" lon="17.6426463">
        <ele>19.3638</ele>
        <time>2013-05-11T16:12:30Z</time>
      </trkpt>
      <trkpt lat="59.9152787" lon="17.6425983">
        <ele>19.3638</ele>
        <time>2013-05-11T16:12:31Z</time>
      </trkpt>
      <trkpt lat="59.915352" lon="17.6425564">
        <ele>18.8831</ele>
        <time>2013-05-11T16:12:32Z</time>
      </trkpt>
      <trkpt lat="59.9154291" lon="17.6425275">
        <ele>18.8831</ele>
        <time>2013-05-11T16:12:33Z</time>
      </trkpt>
      <trkpt lat="59.9155079" lon="17.6425101">
        <ele>18.8831</ele>
        <time>2013-05-11T16:12:34Z</time>
      </trkpt>
      <trkpt lat="59.9155895" lon="17.6424959">
        <ele>18.8831</ele>
        <time>2013-05-11T16:12:35Z</time>
      </trkpt>
      <trkpt lat="59.9156723" lon="17.6424812">
        <ele>18.8831</ele>
        <time>2013-05-11T16:12:36Z</time>
      </trkpt>
      <trkpt lat="59.915756" lon="17.642471">
        <ele>19.3638</ele>
        <time>2013-05-11T16:12:37Z</time>
      </trkpt>
      <trkpt lat="59.9158412" lon="17.642466">
        <ele>19.3638</ele>
        <time>2013-05-11T16:12:38Z</time>
      </trkpt>
      <trkpt lat="59.9159258" lon="17.6424635">
        <ele>19.8444</ele>
        <time>2013-05-11T16:12:39Z</time>
      </trkpt>
      <trkpt lat="59.9160101" lon="17.6424601">
        <ele>19.8444</ele>
        <time>2013-05-11T16:12:40Z</time>
      </trkpt>
      <trkpt lat="59.9160941" lon="17.6424569">
        <ele>19.8444</ele>
        <time>2013-05-11T16:12:41Z</time>
      </trkpt>
      <trkpt lat="59.9161785" lon="17.6424515">
        <ele>20.325</ele>
        <time>2013-05-11T16:12:42Z</time>
      </trkpt>
      <trkpt lat="59.9162608" lon="17.6424465">
        <ele>20.325</ele>
        <time>2013-05-11T16:12:43Z</time>
      </trkpt>
      <trkpt lat="59.9163397" lon="17.6424396">
        <ele>20.325</ele>
        <time>2013-05-11T16:12:44Z</time>
      </trkpt>
      <trkpt lat="59.9164169" lon="17.6424258">
        <ele>20.325</ele>
        <time>2013-05-11T16:12:45Z</time>
      </trkpt>
      <trkpt lat="59.9164921" lon="17.6424119">
        <ele>20.325</ele>
        <time>2013-05-11T16:12:46Z</time>
      </trkpt>
      <trkpt lat="59.916566" lon="17.642401">
        <ele>20.325</ele>
        <time>2013-05-11T16:12:47Z</time>
      </trkpt>
      <trkpt lat="59.9166387" lon="17.6423899">
        <ele>19.8444</ele>
        <time>2013-05-11T16:12:48Z</time>
      </trkpt>
      <trkpt lat="59.9167111" lon="17.6423766">
        <ele>19.8444</ele>
        <time>2013-05-11T16:12:49Z</time>
      </trkpt>
      <trkpt lat="59.9167833" lon="17.6423632">
        <ele>19.8444</ele>
        <time>2013-05-11T16:12:50Z</time>
      </trkpt>
      <trkpt lat="59.9168557" lon="17.6423526">
        <ele>19.3638</ele>
        <time>2013-05-11T16:12:51Z</time>
      </trkpt>
      <trkpt lat="59.916927" lon="17.6423429">
        <ele>19.3638</ele>
        <time>2013-05-11T16:12:52Z</time>
      </trkpt>
      <trkpt lat="59.9169966" lon="17.642331">
        <ele>19.3638</ele>
        <time>2013-05-11T16:12:53Z</time>
      </trkpt>
      <trkpt lat="59.9170644" lon="17.6423151">
        <ele>19.3638</ele>
        <time>2013-05-11T16:12:54Z</time>
      </trkpt>
      <trkpt lat="59.9171305" lon="17.6422913">
        <ele>18.8831</ele>
        <time>2013-05-11T16:12:55Z</time>
      </trkpt>
      <trkpt lat="59.9171955" lon="17.6422674">
        <ele>18.8831</ele>
        <time>2013-05-11T16:12:56Z</time>
      </trkpt>
      <trkpt lat="59.9172608" lon="17.6422606">
        <ele>18.8831</ele>
        <time>2013-05-11T16:12:57Z</time>
      </trkpt>
      <trkpt lat="59.917325" lon="17.6422647">
        <ele>18.8831</ele>
        <time>2013-05-11T16:12:58Z</time>
      </trkpt>
      <trkpt lat="59.9173866" lon="17.6422674">
        <ele>18.8831</ele>
        <time>2013-05-11T16:12:59Z</time>
      </trkpt>
      <trkpt lat="59.9174472" lon="17.6422647">
        <ele>18.8831</ele>
        <time>2013-05-11T16:13:00Z</time>
      </trkpt>
      <trkpt lat="59.9175077" lon="17.6422594">
        <ele>19.3638</ele>
        <time>2013-05-11T16:13:01Z</time>
      </trkpt>
      <trkpt lat="59.9175675" lon="17.6422575">
        <ele>19.3638</ele>
        <time>2013-05-11T16:13:02Z</time>
      </trkpt>
      <trkpt lat="59.9176276" lon="17.6422589">
        <ele>18.8831</ele>
        <time>2013-05-11T16:13:03Z</time>
      </trkpt>
      <trkpt lat="59.9176882" lon="17.6422605">
        <ele>18.8831</ele>
        <time>2013-05-11T16:13:04Z</time>
      </trkpt>
      <trkpt lat="59.917749" lon="17.6422607">
        <ele>18.8831</ele>
        <time>2013-05-11T16:13:05Z</time>
      </trkpt>
      <trkpt lat="59.9178095" lon="17.6422593">
        <ele>18.8831</ele>
        <time>2013-05-11T16:13:06Z</time>
      </trkpt>
      <trkpt lat="59.9178697" lon="17.6422559">
        <ele>19.3638</ele>
        <time>2013-05-11T16:13:07Z</time>
      </trkpt>
      <trkpt lat="59.9179294" lon="17.6422506">
        <ele>19.3638</ele>
        <time>2013-05-11T16:13:08Z</time>
      </trkpt>
      <trkpt lat="59.9179886" lon="17.6422451">
        <ele>19.3638</ele>
        <time>2013-05-11T16:13:09Z</time>
      </trkpt>
      <trkpt lat="59.9180474" lon="17.6422428">
        <ele>19.3638</ele>
        <time>2013-05-11T16:13:10Z</time>
      </trkpt>
      <trkpt lat="59.9181049" lon="17.6422403">
        <ele>19.8444</ele>
        <time>2013-05-11T16:13:11Z</time>
      </trkpt>
      <trkpt lat="59.918161" lon="17.6422337">
        <ele>19.8444</ele>
        <time>2013-05-11T16:13:12Z</time>
      </trkpt>
      <trkpt lat="59.9182155" lon="17.6422273">
        <ele>19.8444</ele>
        <time>2013-05-11T16:13:13Z</time>
      </trkpt>
      <trkpt lat="59.9182684" lon="17.6422224">
        <ele>20.325</ele>
        <time>2013-05-11T16:13:14Z</time>
      </trkpt>
      <trkpt lat="59.9183201" lon="17.6422192">
        <ele>20.325</ele>
        <time>2013-05-11T16:13:15Z</time>
      </trkpt>
      <trkpt lat="59.9183713" lon="17.6422171">
        <ele>20.325</ele>
        <time>2013-05-11T16:13:16Z</time>
      </trkpt>
      <trkpt lat="59.9184222" lon="17.642213">
        <ele>20.8057</ele>
        <time>2013-05-11T16:13:17Z</time>
      </trkpt>
      <trkpt lat="59.918473" lon="17.6422053">
        <ele>20.8057</ele>
        <time>2013-05-11T16:13:18Z</time>
      </trkpt>
      <trkpt lat="59.918524" lon="17.6421958">
        <ele>20.8057</ele>
        <time>2013-05-11T16:13:19Z</time>
      </trkpt>
      <trkpt lat="59.9185755" lon="17.6421873">
        <ele>21.2864</ele>
        <time>2013-05-11T16:13:20Z</time>
      </trkpt>
      <trkpt lat="59.9186278" lon="17.6421811">
        <ele>21.2864</ele>
        <time>2013-05-11T16:13:21Z</time>
      </trkpt>
      <trkpt lat="59.9186812" lon="17.6421766">
        <ele>21.2864</ele>
        <time>2013-05-11T16:13:22Z</time>
      </trkpt>
      <trkpt lat="59.918735" lon="17.6421706">
        <ele>21.2864</ele>
        <time>2013-05-11T16:13:23Z</time>
      </trkpt>
      <trkpt lat="59.9187887" lon="17.642161">
        <ele>21.2864</ele>
        <time>2013-05-11T16:13:24Z</time>
      </trkpt>
      <trkpt lat="59.9188428" lon="17.6421517">
        <ele>21.2864</ele>
        <time>2013-05-11T16:13:25Z</time>
      </trkpt>
      <trkpt lat="59.9188972" lon="17.6421435">
        <ele>21.2864</ele>
        <time>2013-05-11T16:13:26Z</time>
      </trkpt>
      <trkpt lat="59.918952" lon="17.6421368">
        <ele>21.2864</ele>
        <time>2013-05-11T16:13:27Z</time>
      </trkpt>
      <trkpt lat="59.9190073" lon="17.6421319">
        <ele>21.2864</ele>
        <time>2013-05-11T16:13:28Z</time>
      </trkpt>
      <trkpt lat="59.9190633" lon="17.6421262">
        <ele>21.767</ele>
        <time>2013-05-11T16:13:29Z</time>
      </trkpt>
      <trkpt lat="59.9191187" lon="17.642119">
        <ele>21.767</ele>
        <time>2013-05-11T16:13:30Z</time>
      </trkpt>
      <trkpt lat="59.9191728" lon="17.6421117">
        <ele>21.2864</ele>
        <time>2013-05-11T16:13:31Z</time>
      </trkpt>
      <trkpt lat="59.9192262" lon="17.6421063">
        <ele>21.2864</ele>
        <time>2013-05-11T16:13:32Z</time>
      </trkpt>
      <trkpt lat="59.9192792" lon="17.6421035">
        <ele>21.2864</ele>
        <time>2013-05-11T16:13:33Z</time>
      </trkpt>
      <trkpt lat="59.9193316" lon="17.6420995">
        <ele>21.2864</ele>
        <time>2013-05-11T16:13:34Z</time>
      </trkpt>
      <trkpt lat="59.9193834" lon="17.6420926">
        <ele>21.2864</ele>
        <time>2013-05-11T16:13:35Z</time>
      </trkpt>
      <trkpt lat="59.9194349" lon="17.6420851">
        <ele>21.2864</ele>
        <time>2013-05-11T16:13:36Z</time>
      </trkpt>
      <trkpt lat="59.9194862" lon="17.6420808">
        <ele>21.2864</ele>
        <time>2013-05-11T16:13:37Z</time>
      </trkpt>
      <trkpt lat="59.9195365" lon="17.6420778">
        <ele>21.2864</ele>
        <time>2013-05-11T16:13:38Z</time>
      </trkpt>
      <trkpt lat="59.9195871" lon="17.6420741">
        <ele>21.2864</ele>
        <time>2013-05-11T16:13:39Z</time>
      </trkpt>
      <trkpt lat="59.9196384" lon="17.6420679">
        <ele>21.2864</ele>
        <time>2013-05-11T16:13:40Z</time>
      </trkpt>
      <trkpt lat="59.9196907" lon="17.6420585">
        <ele>21.2864</ele>
        <time>2013-05-11T16:13:41Z</time>
      </trkpt>
      <trkpt lat="59.9197446" lon="17.6420471">
        <ele>21.2864</ele>
        <time>2013-05-11T16:13:42Z</time>
      </trkpt>
      <trkpt lat="59.9198005" lon="17.6420327">
        <ele>21.767</ele>
        <time>2013-05-11T16:13:43Z</time>
      </trkpt>
      <trkpt lat="59.9198586" lon="17.6420169">
        <ele>21.767</ele>
        <time>2013-05-11T16:13:44Z</time>
      </trkpt>
      <trkpt lat="59.9199188" lon="17.6419995">
        <ele>21.767</ele>
        <time>2013-05-11T16:13:45Z</time>
      </trkpt>
      <trkpt lat="59.9199818" lon="17.6419819">
        <ele>21.767</ele>
        <time>2013-05-11T16:13:46Z</time>
      </trkpt>
      <trkpt lat="59.9200457" lon="17.641969">
        <ele>21.767</ele>
        <time>2013-05-11T16:13:47Z</time>
      </trkpt>
      <trkpt lat="59.9201082" lon="17.6419615">
        <ele>21.767</ele>
        <time>2013-05-11T16:13:48Z</time>
      </trkpt>
      <trkpt lat="59.9201681" lon="17.641959">
        <ele>22.2476</ele>
        <time>2013-05-11T16:13:49Z</time>
      </trkpt>
      <trkpt lat="59.9202246" lon="17.6419617">
        <ele>22.2476</ele>
        <time>2013-05-11T16:13:50Z</time>
      </trkpt>
      <trkpt lat="59.9202793" lon="17.6419608">
        <ele>22.2476</ele>
        <time>2013-05-11T16:13:51Z</time>
      </trkpt>
      <trkpt lat="59.9203344" lon="17.6419565">
        <ele>21.767</ele>
        <time>2013-05-11T16:13:52Z</time>
      </trkpt>
      <trkpt lat="59.9203899" lon="17.6419548">
        <ele>22.2476</ele>
        <time>2013-05-11T16:13:53Z</time>
      </trkpt>
      <trkpt lat="59.9204446" lon="17.6419519">
        <ele>22.2476</ele>
        <time>2013-05-11T16:13:54Z</time>
      </trkpt>
      <trkpt lat="59.9204983" lon="17.6419502">
        <ele>22.2476</ele>
        <time>2013-05-11T16:13:55Z</time>
      </trkpt>
      <trkpt lat="59.9205522" lon="17.6419499">
        <ele>22.2476</ele>
        <time>2013-05-11T16:13:56Z</time>
      </trkpt>
      <trkpt lat="59.9206096" lon="17.6419481">
        <ele>22.2476</ele>
        <time>2013-05-11T16:13:57Z</time>
      </trkpt>
      <trkpt lat="59.9206675" lon="17.6419487">
        <ele>21.767</ele>
        <time>2013-05-11T16:13:58Z</time>
      </trkpt>
      <trkpt lat="59.9207248" lon="17.6419501">
        <ele>21.767</ele>
        <time>2013-05-11T16:13:59Z</time>
      </trkpt>
      <trkpt lat="59.9207799" lon="17.6419492">
        <ele>21.767</ele>
        <time>2013-05-11T16:14:00Z</time>
      </trkpt>
      <trkpt lat="59.920833" lon="17.6419486">
        <ele>21.2864</ele>
        <time>2013-05-11T16:14:01Z</time>
      </trkpt>
      <trkpt lat="59.9208851" lon="17.6419477">
        <ele>21.767</ele>
        <time>2013-05-11T16:14:02Z</time>
      </trkpt>
      <trkpt lat="59.9209343" lon="17.6419437">
        <ele>21.767</ele>
        <time>2013-05-11T16:14:03Z</time>
      </trkpt>
      <trkpt lat="59.9209809" lon="17.6419397">
        <ele>21.767</ele>
        <time>2013-05-11T16:14:04Z</time>
      </trkpt>
      <trkpt lat="59.9210247" lon="17.6419393">
        <ele>21.767</ele>
        <time>2013-05-11T16:14:05Z</time>
      </trkpt>
      <trkpt lat="59.9210707" lon="17.6419392">
        <ele>21.767</ele>
        <time>2013-05-11T16:14:06Z</time>
      </trkpt>
      <trkpt lat="59.9211188" lon="17.6419379">
        <ele>21.767</ele>
        <time>2013-05-11T16:14:07Z</time>
      </trkpt>
      <trkpt lat="59.9211692" lon="17.6419342">
        <ele>21.767</ele>
        <time>2013-05-11T16:14:08Z</time>
      </trkpt>
      <trkpt lat="59.92122" lon="17.6419269">
        <ele>22.2476</ele>
        <time>2013-05-11T16:14:09Z</time>
      </trkpt>
      <trkpt lat="59.9212698" lon="17.6419213">
        <ele>22.7283</ele>
        <time>2013-05-11T16:14:10Z</time>
      </trkpt>
      <trkpt lat="59.92132" lon="17.6419171">
        <ele>22.7283</ele>
        <time>2013-05-11T16:14:11Z</time>
      </trkpt>
      <trkpt lat="59.9213701" lon="17.641915">
        <ele>22.7283</ele>
        <time>2013-05-11T16:14:12Z</time>
      </trkpt>
      <trkpt lat="59.9214205" lon="17.6419104">
        <ele>23.209</ele>
        <time>2013-05-11T16:14:13Z</time>
      </trkpt>
      <trkpt lat="59.9214696" lon="17.641905">
        <ele>23.209</ele>
        <time>2013-05-11T16:14:14Z</time>
      </trkpt>
      <trkpt lat="59.9215182" lon="17.641904">
        <ele>22.7283</ele>
        <time>2013-05-11T16:14:15Z</time>
      </trkpt>
      <trkpt lat="59.9215688" lon="17.6419004">
        <ele>22.7283</ele>
        <time>2013-05-11T16:14:16Z</time>
      </trkpt>
      <trkpt lat="59.9216209" lon="17.6418905">
        <ele>22.2476</ele>
        <time>2013-05-11T16:14:17Z</time>
      </trkpt>
      <trkpt lat="59.9216737" lon="17.6418855">
        <ele>22.2476</ele>
        <time>2013-05-11T16:14:18Z</time>
      </trkpt>
      <trkpt lat="59.9217265" lon="17.6418822">
        <ele>21.767</ele>
        <time>2013-05-11T16:14:19Z</time>
      </trkpt>
      <trkpt lat="59.9217795" lon="17.6418781">
        <ele>21.2864</ele>
        <time>2013-05-11T16:14:20Z</time>
      </trkpt>
      <trkpt lat="59.9218322" lon="17.6418725">
        <ele>21.2864</ele>
        <time>2013-05-11T16:14:21Z</time>
      </trkpt>
      <trkpt lat="59.9218841" lon="17.641866">
        <ele>20.8057</ele>
        <time>2013-05-11T16:14:22Z</time>
      </trkpt>
      <trkpt lat="59.9219373" lon="17.6418601">
        <ele>20.8057</ele>
        <time>2013-05-11T16:14:23Z</time>
      </trkpt>
      <trkpt lat="59.9219903" lon="17.6418576">
        <ele>20.325</ele>
        <time>2013-05-11T16:14:24Z</time>
      </trkpt>
      <trkpt lat="59.9220431" lon="17.6418535">
        <ele>20.325</ele>
        <time>2013-05-11T16:14:25Z</time>
      </trkpt>
      <trkpt lat="59.9220958" lon="17.6418461">
        <ele>20.325</ele>
        <time>2013-05-11T16:14:26Z</time>
      </trkpt>
      <trkpt lat="59.9221472" lon="17.6418411">
        <ele>20.325</ele>
        <time>2013-05-11T16:14:27Z</time>
      </trkpt>
      <trkpt lat="59.9221982" lon="17.6418364">
        <ele>20.325</ele>
        <time>2013-05-11T16:14:28Z</time>
      </trkpt>
      <trkpt lat="59.9222485" lon="17.6418315">
        <ele>20.325</ele>
        <time>2013-05-11T16:14:29Z</time>
      </trkpt>
      <trkpt lat="59.9222993" lon="17.6418265">
        <ele>20.325</ele>
        <time>2013-05-11T16:14:30Z</time>
      </trkpt>
      <trkpt lat="59.9223502" lon="17.6418203">
        <ele>20.325</ele>
        <time>2013-05-11T16:14:31Z</time>
      </trkpt>
      <trkpt lat="59.9223994" lon="17.6418151">
        <ele>20.325</ele>
        <time>2013-05-11T16:14:32Z</time>
      </trkpt>
      <trkpt lat="59.9224498" lon="17.6418089">
        <ele>20.325</ele>
        <time>2013-05-11T16:14:33Z</time>
      </trkpt>
      <trkpt lat="59.9225036" lon="17.6417988">
        <ele>20.8057</ele>
        <time>2013-05-11T16:14:34Z</time>
      </trkpt>
      <trkpt lat="59.9225593" lon="17.6417833">
        <ele>20.8057</ele>
        <time>2013-05-11T16:14:35Z</time>
      </trkpt>
      <trkpt lat="59.922614" lon="17.6417669">
        <ele>20.8057</ele>
        <time>2013-05-11T16:14:36Z</time>
      </trkpt>
      <trkpt lat="59.9226681" lon="17.6417593">
        <ele>20.8057</ele>
        <time>2013-05-11T16:14:37Z</time>
      </trkpt>
      <trkpt lat="59.9227216" lon="17.6417579">
        <ele>20.8057</ele>
        <time>2013-05-11T16:14:38Z</time>
      </trkpt>
      <trkpt lat="59.922774" lon="17.6417524">
        <ele>20.8057</ele>
        <time>2013-05-11T16:14:39Z</time>
      </trkpt>
      <trkpt lat="59.9228271" lon="17.6417439">
        <ele>20.8057</ele>
        <time>2013-05-11T16:14:40Z</time>
      </trkpt>
      <trkpt lat="59.9228811" lon="17.64174">
        <ele>20.8057</ele>
        <time>2013-05-11T16:14:41Z</time>
      </trkpt>
      <trkpt lat="59.9229362" lon="17.6417388">
        <ele>20.8057</ele>
        <time>2013-05-11T16:14:42Z</time>
      </trkpt>
      <trkpt lat="59.922992" lon="17.6417358">
        <ele>20.8057</ele>
        <time>2013-05-11T16:14:43Z</time>
      </trkpt>
      <trkpt lat="59.923048" lon="17.641731">
        <ele>20.325</ele>
        <time>2013-05-11T16:14:44Z</time>
      </trkpt>
      <trkpt lat="59.923106" lon="17.641724">
        <ele>20.325</ele>
        <time>2013-05-11T16:14:45Z</time>
      </trkpt>
      <trkpt lat="59.9231667" lon="17.641716">
        <ele>20.325</ele>
        <time>2013-05-11T16:14:46Z</time>
      </trkpt>
      <trkpt lat="59.9232293" lon="17.6417068">
        <ele>20.325</ele>
        <time>2013-05-11T16:14:47Z</time>
      </trkpt>
      <trkpt lat="59.9232946" lon="17.6416969">
        <ele>20.325</ele>
        <time>2013-05-11T16:14:48Z</time>
      </trkpt>
      <trkpt lat="59.9233633" lon="17.6416867">
        <ele>20.325</ele>
        <time>2013-05-11T16:14:49Z</time>
      </trkpt>
      <trkpt lat="59.9234355" lon="17.6416752">
        <ele>19.8444</ele>
        <time>2013-05-11T16:14:50Z</time>
      </trkpt>
      <trkpt lat="59.9235116" lon="17.6416618">
        <ele>19.8444</ele>
        <time>2013-05-11T16:14:51Z</time>
      </trkpt>
      <trkpt lat="59.9235898" lon="17.6416491">
        <ele>19.8444</ele>
        <time>2013-05-11T16:14:52Z</time>
      </trkpt>
      <trkpt lat="59.9236685" lon="17.6416363">
        <ele>19.3638</ele>
        <time>2013-05-11T16:14:53Z</time>
      </trkpt>
      <trkpt lat="59.9237468" lon="17.6416224">
        <ele>19.3638</ele>
        <time>2013-05-11T16:14:54Z</time>
      </trkpt>
      <trkpt lat="59.9238243" lon="17.641611">
        <ele>18.8831</ele>
        <time>2013-05-11T16:14:55Z</time>
      </trkpt>
      <trkpt lat="59.9239" lon="17.6416011">
        <ele>18.8831</ele>
        <time>2013-05-11T16:14:56Z</time>
      </trkpt>
      <trkpt lat="59.9239736" lon="17.6415916">
        <ele>18.8831</ele>
        <time>2013-05-11T16:14:57Z</time>
      </trkpt>
      <trkpt lat="59.9240451" lon="17.641582">
        <ele>18.8831</ele>
        <time>2013-05-11T16:14:58Z</time>
      </trkpt>
      <trkpt lat="59.9241146" lon="17.6415737">
        <ele>18.4023</ele>
        <time>2013-05-11T16:14:59Z</time>
      </trkpt>
      <trkpt lat="59.924182" lon="17.641567">
        <ele>18.4023</ele>
        <time>2013-05-11T16:15:00Z</time>
      </trkpt>
      <trkpt lat="59.9242472" lon="17.6415623">
        <ele>18.4023</ele>
        <time>2013-05-11T16:15:01Z</time>
      </trkpt>
      <trkpt lat="59.9243105" lon="17.641559">
        <ele>18.4023</ele>
        <time>2013-05-11T16:15:02Z</time>
      </trkpt>
      <trkpt lat="59.9243723" lon="17.6415545">
        <ele>18.4023</ele>
        <time>2013-05-11T16:15:03Z</time>
      </trkpt>
      <trkpt lat="59.9244319" lon="17.6415486">
        <ele>18.4023</ele>
        <time>2013-05-11T16:15:04Z</time>
      </trkpt>
      <trkpt lat="59.9244918" lon="17.6415402">
        <ele>18.4023</ele>
        <time>2013-05-11T16:15:05Z</time>
      </trkpt>
      <trkpt lat="59.9245542" lon="17.641527">
        <ele>18.4023</ele>
        <time>2013-05-11T16:15:06Z</time>
      </trkpt>
      <trkpt lat="59.924616" lon="17.6415104">
        <ele>18.4023</ele>
        <time>2013-05-11T16:15:07Z</time>
      </trkpt>
      <trkpt lat="59.924675" lon="17.6414966">
        <ele>18.4023</ele>
        <time>2013-05-11T16:15:08Z</time>
      </trkpt>
      <trkpt lat="59.9247325" lon="17.6414829">
        <ele>18.4023</ele>
        <time>2013-05-11T16:15:09Z</time>
      </trkpt>
      <trkpt lat="59.924788" lon="17.6414665">
        <ele>18.4023</ele>
        <time>2013-05-11T16:15:10Z</time>
      </trkpt>
      <trkpt lat="59.9248418" lon="17.6414525">
        <ele>18.4023</ele>
        <time>2013-05-11T16:15:11Z</time>
      </trkpt>
      <trkpt lat="59.9248971" lon="17.6414447">
        <ele>18.4023</ele>
        <time>2013-05-11T16:15:12Z</time>
      </trkpt>
      <trkpt lat="59.924954" lon="17.6414393">
        <ele>18.4023</ele>
        <time>2013-05-11T16:15:13Z</time>
      </trkpt>
      <trkpt lat="59.92501" lon="17.6414321">
        <ele>17.9218</ele>
        <time>2013-05-11T16:15:14Z</time>
      </trkpt>
      <trkpt lat="59.9250654" lon="17.6414257">
        <ele>17.9218</ele>
        <time>2013-05-11T16:15:15Z</time>
      </trkpt>
      <trkpt lat="59.9251203" lon="17.6414209">
        <ele>17.9218</ele>
        <time>2013-05-11T16:15:16Z</time>
      </trkpt>
      <trkpt lat="59.9251747" lon="17.6414195">
        <ele>17.9218</ele>
        <time>2013-05-11T16:15:17Z</time>
      </trkpt>
      <trkpt lat="59.9252278" lon="17.6414225">
        <ele>17.9218</ele>
        <time>2013-05-11T16:15:18Z</time>
      </trkpt>
      <trkpt lat="59.9252802" lon="17.6414259">
        <ele>17.9218</ele>
        <time>2013-05-11T16:15:19Z</time>
      </trkpt>
      <trkpt lat="59.9253343" lon="17.641424">
        <ele>17.9218</ele>
        <time>2013-05-11T16:15:20Z</time>
      </trkpt>
      <trkpt lat="59.9253905" lon="17.6414188">
        <ele>17.9218</ele>
        <time>2013-05-11T16:15:21Z</time>
      </trkpt>
      <trkpt lat="59.92545" lon="17.641411">
        <ele>17.9218</ele>
        <time>2013-05-11T16:15:22Z</time>
      </trkpt>
      <trkpt lat="59.9255115" lon="17.6414038">
        <ele>17.9218</ele>
        <time>2013-05-11T16:15:23Z</time>
      </trkpt>
      <trkpt lat="59.9255727" lon="17.6413998">
        <ele>17.9218</ele>
        <time>2013-05-11T16:15:24Z</time>
      </trkpt>
      <trkpt lat="59.925633" lon="17.6413944">
        <ele>17.9218</ele>
        <time>2013-05-11T16:15:25Z</time>
      </trkpt>
      <trkpt lat="59.9256925" lon="17.6413863">
        <ele>17.9218</ele>
        <time>2013-05-11T16:15:26Z</time>
      </trkpt>
      <trkpt lat="59.9257508" lon="17.6413796">
        <ele>17.9218</ele>
        <time>2013-05-11T16:15:27Z</time>
      </trkpt>
      <trkpt lat="59.9258088" lon="17.6413738">
        <ele>17.4412</ele>
        <time>2013-05-11T16:15:28Z</time>
      </trkpt>
      <trkpt lat="59.9258678" lon="17.6413674">
        <ele>16.9604</ele>
        <time>2013-05-11T16:15:29Z</time>
      </trkpt>
      <trkpt lat="59.9259253" lon="17.6413628">
        <ele>16.4797</ele>
        <time>2013-05-11T16:15:30Z</time>
      </trkpt>
      <trkpt lat="59.9259821" lon="17.6413556">
        <ele>15.999</ele>
        <time>2013-05-11T16:15:31Z</time>
      </trkpt>
      <trkpt lat="59.9260395" lon="17.6413451">
        <ele>15.999</ele>
        <time>2013-05-11T16:15:32Z</time>
      </trkpt>
      <trkpt lat="59.9260986" lon="17.641335">
        <ele>15.999</ele>
        <time>2013-05-11T16:15:33Z</time>
      </trkpt>
      <trkpt lat="59.9261613" lon="17.6413257">
        <ele>15.999</ele>
        <time>2013-05-11T16:15:34Z</time>
      </trkpt>
      <trkpt lat="59.9262269" lon="17.6413159">
        <ele>15.999</ele>
        <time>2013-05-11T16:15:35Z</time>
      </trkpt>
      <trkpt lat="59.9262944" lon="17.6413073">
        <ele>15.999</ele>
        <time>2013-05-11T16:15:36Z</time>
      </trkpt>
      <trkpt lat="59.9263617" lon="17.6412979">
        <ele>15.999</ele>
        <time>2013-05-11T16:15:37Z</time>
      </trkpt>
      <trkpt lat="59.9264269" lon="17.6412867">
        <ele>15.999</ele>
        <time>2013-05-11T16:15:38Z</time>
      </trkpt>
      <trkpt lat="59.9264902" lon="17.6412768">
        <ele>15.999</ele>
        <time>2013-05-11T16:15:39Z</time>
      </trkpt>
      <trkpt lat="59.9265516" lon="17.6412671">
        <ele>16.4797</ele>
        <time>2013-05-11T16:15:40Z</time>
      </trkpt>
      <trkpt lat="59.9266109" lon="17.6412592">
        <ele>16.4797</ele>
        <time>2013-05-11T16:15:41Z</time>
      </trkpt>
      <trkpt lat="59.9266683" lon="17.6412558">
        <ele>16.4797</ele>
        <time>2013-05-11T16:15:42Z</time>
      </trkpt>
      <trkpt lat="59.9267254" lon="17.641252">
        <ele>16.4797</ele>
        <time>2013-05-11T16:15:43Z</time>
      </trkpt>
      <trkpt lat="59.9267849" lon="17.6412453">
        <ele>16.9604</ele>
        <time>2013-05-11T16:15:44Z</time>
      </trkpt>
      <trkpt lat="59.9268438" lon="17.6412412">
        <ele>16.4797</ele>
        <time>2013-05-11T16:15:45Z</time>
      </trkpt>
      <trkpt lat="59.9269012" lon="17.6412385">
        <ele>15.999</ele>
        <time>2013-05-11T16:15:46Z</time>
      </trkpt>
      <trkpt lat="59.9269579" lon="17.6412327">
        <ele>16.4797</ele>
        <time>2013-05-11T16:15:47Z</time>
      </trkpt>
      <trkpt lat="59.9270158" lon="17.6412245">
        <ele>16.4797</ele>
        <time>2013-05-11T16:15:48Z</time>
      </trkpt>
      <trkpt lat="59.9270759" lon="17.6412177">
        <ele>16.4797</ele>
        <time>2013-05-11T16:15:49Z</time>
      </trkpt>
      <trkpt lat="59.9271378" lon="17.6412127">
        <ele>16.4797</ele>
        <time>2013-05-11T16:15:50Z</time>
      </trkpt>
      <trkpt lat="59.9272019" lon="17.6412096">
        <ele>16.9604</ele>
        <time>2013-05-11T16:15:51Z</time>
      </trkpt>
      <trkpt lat="59.9272678" lon="17.6412049">
        <ele>16.9604</ele>
        <time>2013-05-11T16:15:52Z</time>
      </trkpt>
      <trkpt lat="59.9273336" lon="17.6411979">
        <ele>16.9604</ele>
        <time>2013-05-11T16:15:53Z</time>
      </trkpt>
      <trkpt lat="59.9273977" lon="17.6411912">
        <ele>17.4412</ele>
        <time>2013-05-11T16:15:54Z</time>
      </trkpt>
      <trkpt lat="59.92746" lon="17.6411862">
        <ele>17.4412</ele>
        <time>2013-05-11T16:15:55Z</time>
      </trkpt>
      <trkpt lat="59.9275206" lon="17.6411812">
        <ele>17.4412</ele>
        <time>2013-05-11T16:15:56Z</time>
      </trkpt>
      <trkpt lat="59.9275796" lon="17.6411743">
        <ele>17.4412</ele>
        <time>2013-05-11T16:15:57Z</time>
      </trkpt>
      <trkpt lat="59.9276371" lon="17.6411682">
        <ele>17.4412</ele>
        <time>2013-05-11T16:15:58Z</time>
      </trkpt>
      <trkpt lat="59.9276935" lon="17.641164">
        <ele>17.4412</ele>
        <time>2013-05-11T16:15:59Z</time>
      </trkpt>
      <trkpt lat="59.9277489" lon="17.6411614">
        <ele>17.4412</ele>
        <time>2013-05-11T16:16:00Z</time>
      </trkpt>
      <trkpt lat="59.9278034" lon="17.6411576">
        <ele>17.4412</ele>
        <time>2013-05-11T16:16:01Z</time>
      </trkpt>
      <trkpt lat="59.9278567" lon="17.6411519">
        <ele>16.9604</ele>
        <time>2013-05-11T16:16:02Z</time>
      </trkpt>
      <trkpt lat="59.9279073" lon="17.6411499">
        <ele>16.9604</ele>
        <time>2013-05-11T16:16:03Z</time>
      </trkpt>
      <trkpt lat="59.9279561" lon="17.6411444">
        <ele>16.9604</ele>
        <time>2013-05-11T16:16:04Z</time>
      </trkpt>
      <trkpt lat="59.9280034" lon="17.6411314">
        <ele>16.9604</ele>
        <time>2013-05-11T16:16:05Z</time>
      </trkpt>
      <trkpt lat="59.92805" lon="17.6411185">
        <ele>16.9604</ele>
        <time>2013-05-11T16:16:06Z</time>
      </trkpt>
      <trkpt lat="59.9280982" lon="17.6411138">
        <ele>17.4412</ele>
        <time>2013-05-11T16:16:07Z</time>
      </trkpt>
      <trkpt lat="59.9281473" lon="17.6411126">
        <ele>17.4412</ele>
        <time>2013-05-11T16:16:08Z</time>
      </trkpt>
      <trkpt lat="59.9281953" lon="17.6411109">
        <ele>16.9604</ele>
        <time>2013-05-11T16:16:09Z</time>
      </trkpt>
      <trkpt lat="59.9282427" lon="17.641106">
        <ele>16.9604</ele>
        <time>2013-05-11T16:16:10Z</time>
      </trkpt>
      <trkpt lat="59.9282887" lon="17.6410983">
        <ele>16.9604</ele>
        <time>2013-05-11T16:16:11Z</time>
      </trkpt>
      <trkpt lat="59.9283337" lon="17.6410924">
        <ele>16.9604</ele>
        <time>2013-05-11T16:16:12Z</time>
      </trkpt>
      <trkpt lat="59.9283789" lon="17.6410871">
        <ele>16.9604</ele>
        <time>2013-05-11T16:16:13Z</time>
      </trkpt>
      <trkpt lat="59.9284243" lon="17.6410814">
        <ele>16.4797</ele>
        <time>2013-05-11T16:16:14Z</time>
      </trkpt>
      <trkpt lat="59.9284688" lon="17.6410754">
        <ele>16.9604</ele>
        <time>2013-05-11T16:16:15Z</time>
      </trkpt>
      <trkpt lat="59.9285129" lon="17.6410712">
        <ele>16.9604</ele>
        <time>2013-05-11T16:16:16Z</time>
      </trkpt>
      <trkpt lat="59.9285586" lon="17.6410641">
        <ele>16.9604</ele>
        <time>2013-05-11T16:16:17Z</time>
      </trkpt>
      <trkpt lat="59.9286061" lon="17.6410537">
        <ele>16.9604</ele>
        <time>2013-05-11T16:16:18Z</time>
      </trkpt>
      <trkpt lat="59.9286547" lon="17.6410447">
        <ele>16.9604</ele>
        <time>2013-05-11T16:16:19Z</time>
      </trkpt>
      <trkpt lat="59.928705" lon="17.6410355">
        <ele>16.9604</ele>
        <time>2013-05-11T16:16:20Z</time>
      </trkpt>
      <trkpt lat="59.9287578" lon="17.6410247">
        <ele>16.9604</ele>
        <time>2013-05-11T16:16:21Z</time>
      </trkpt>
      <trkpt lat="59.9288132" lon="17.6410127">
        <ele>16.9604</ele>
        <time>2013-05-11T16:16:22Z</time>
      </trkpt>
      <trkpt lat="59.9288683" lon="17.6410001">
        <ele>16.9604</ele>
        <time>2013-05-11T16:16:23Z</time>
      </trkpt>
      <trkpt lat="59.9289217" lon="17.6409863">
        <ele>16.9604</ele>
        <time>2013-05-11T16:16:24Z</time>
      </trkpt>
      <trkpt lat="59.9289735" lon="17.6409759">
        <ele>16.9604</ele>
        <time>2013-05-11T16:16:25Z</time>
      </trkpt>
      <trkpt lat="59.9290248" lon="17.6409727">
        <ele>17.4412</ele>
        <time>2013-05-11T16:16:26Z</time>
      </trkpt>
      <trkpt lat="59.9290753" lon="17.6409713">
        <ele>17.4412</ele>
        <time>2013-05-11T16:16:27Z</time>
      </trkpt>
      <trkpt lat="59.929124" lon="17.6409697">
        <ele>17.4412</ele>
        <time>2013-05-11T16:16:28Z</time>
      </trkpt>
      <trkpt lat="59.9291706" lon="17.6409697">
        <ele>17.4412</ele>
        <time>2013-05-11T16:16:29Z</time>
      </trkpt>
      <trkpt lat="59.9292173" lon="17.6409706">
        <ele>17.9218</ele>
        <time>2013-05-11T16:16:30Z</time>
      </trkpt>
      <trkpt lat="59.9292651" lon="17.6409693">
        <ele>17.9218</ele>
        <time>2013-05-11T16:16:31Z</time>
      </trkpt>
      <trkpt lat="59.9293143" lon="17.6409671">
        <ele>17.9218</ele>
        <time>2013-05-11T16:16:32Z</time>
      </trkpt>
      <trkpt lat="59.9293651" lon="17.6409641">
        <ele>18.4023</ele>
        <time>2013-05-11T16:16:33Z</time>
      </trkpt>
      <trkpt lat="59.9294173" lon="17.6409583">
        <ele>18.4023</ele>
        <time>2013-05-11T16:16:34Z</time>
      </trkpt>
      <trkpt lat="59.9294709" lon="17.6409495">
        <ele>18.4023</ele>
        <time>2013-05-11T16:16:35Z</time>
      </trkpt>
      <trkpt lat="59.9295255" lon="17.6409406">
        <ele>18.4023</ele>
        <time>2013-05-11T16:16:36Z</time>
      </trkpt>
      <trkpt lat="59.9295816" lon="17.6409284">
        <ele>18.4023</ele>
        <time>2013-05-11T16:16:37Z</time>
      </trkpt>
      <trkpt lat="59.929638" lon="17.6409079">
        <ele>18.4023</ele>
        <time>2013-05-11T16:16:38Z</time>
      </trkpt>
      <trkpt lat="59.9296936" lon="17.6408861">
        <ele>18.4023</ele>
        <time>2013-05-11T16:16:39Z</time>
      </trkpt>
      <trkpt lat="59.9297496" lon="17.640874">
        <ele>18.8831</ele>
        <time>2013-05-11T16:16:40Z</time>
      </trkpt>
      <trkpt lat="59.9298038" lon="17.6408682">
        <ele>18.8831</ele>
        <time>2013-05-11T16:16:41Z</time>
      </trkpt>
      <trkpt lat="59.9298546" lon="17.6408619">
        <ele>19.3638</ele>
        <time>2013-05-11T16:16:42Z</time>
      </trkpt>
      <trkpt lat="59.9299049" lon="17.6408604">
        <ele>19.3638</ele>
        <time>2013-05-11T16:16:43Z</time>
      </trkpt>
      <trkpt lat="59.9299561" lon="17.6408618">
        <ele>18.8831</ele>
        <time>2013-05-11T16:16:44Z</time>
      </trkpt>
      <trkpt lat="59.9300085" lon="17.6408649">
        <ele>19.3638</ele>
        <time>2013-05-11T16:16:45Z</time>
      </trkpt>
      <trkpt lat="59.9300604" lon="17.6408686">
        <ele>19.3638</ele>
        <time>2013-05-11T16:16:46Z</time>
      </trkpt>
      <trkpt lat="59.930111" lon="17.6408697">
        <ele>19.3638</ele>
        <time>2013-05-11T16:16:47Z</time>
      </trkpt>
      <trkpt lat="59.9301616" lon="17.6408692">
        <ele>19.8444</ele>
        <time>2013-05-11T16:16:48Z</time>
      </trkpt>
      <trkpt lat="59.930214" lon="17.6408692">
        <ele>19.8444</ele>
        <time>2013-05-11T16:16:49Z</time>
      </trkpt>
      <trkpt lat="59.9302685" lon="17.6408697">
        <ele>19.8444</ele>
        <time>2013-05-11T16:16:50Z</time>
      </trkpt>
      <trkpt lat="59.9303244" lon="17.6408703">
        <ele>19.8444</ele>
        <time>2013-05-11T16:16:51Z</time>
      </trkpt>
      <trkpt lat="59.9303814" lon="17.6408723">
        <ele>19.8444</ele>
        <time>2013-05-11T16:16:52Z</time>
      </trkpt>
      <trkpt lat="59.93044" lon="17.6408729">
        <ele>19.8444</ele>
        <time>2013-05-11T16:16:53Z</time>
      </trkpt>
      <trkpt lat="59.9304983" lon="17.6408728">
        <ele>19.8444</ele>
        <time>2013-05-11T16:16:54Z</time>
      </trkpt>
      <trkpt lat="59.9305564" lon="17.6408703">
        <ele>19.8444</ele>
        <time>2013-05-11T16:16:55Z</time>
      </trkpt>
      <trkpt lat="59.9306129" lon="17.6408687">
        <ele>19.8444</ele>
        <time>2013-05-11T16:16:56Z</time>
      </trkpt>
      <trkpt lat="59.9306687" lon="17.6408603">
        <ele>20.8057</ele>
        <time>2013-05-11T16:16:57Z</time>
      </trkpt>
      <trkpt lat="59.9307248" lon="17.6408499">
        <ele>21.2864</ele>
        <time>2013-05-11T16:16:58Z</time>
      </trkpt>
      <trkpt lat="59.9307786" lon="17.6408432">
        <ele>21.2864</ele>
        <time>2013-05-11T16:16:59Z</time>
      </trkpt>
      <trkpt lat="59.9308327" lon="17.6408476">
        <ele>21.2864</ele>
        <time>2013-05-11T16:17:00Z</time>
      </trkpt>
      <trkpt lat="59.9308871" lon="17.6408599">
        <ele>21.767</ele>
        <time>2013-05-11T16:17:01Z</time>
      </trkpt>
      <trkpt lat="59.9309402" lon="17.640878">
        <ele>21.767</ele>
        <time>2013-05-11T16:17:02Z</time>
      </trkpt>
      <trkpt lat="59.9309913" lon="17.6409019">
        <ele>21.767</ele>
        <time>2013-05-11T16:17:03Z</time>
      </trkpt>
      <trkpt lat="59.9310404" lon="17.6409319">
        <ele>21.767</ele>
        <time>2013-05-11T16:17:04Z</time>
      </trkpt>
      <trkpt lat="59.9310864" lon="17.6409651">
        <ele>22.2476</ele>
        <time>2013-05-11T16:17:05Z</time>
      </trkpt>
      <trkpt lat="59.9311289" lon="17.6409992">
        <ele>22.2476</ele>
        <time>2013-05-11T16:17:06Z</time>
      </trkpt>
      <trkpt lat="59.9311689" lon="17.6410319">
        <ele>22.7283</ele>
        <time>2013-05-11T16:17:07Z</time>
      </trkpt>
      <trkpt lat="59.9312081" lon="17.6410629">
        <ele>22.7283</ele>
        <time>2013-05-11T16:17:08Z</time>
      </trkpt>
      <trkpt lat="59.9312456" lon="17.6410941">
        <ele>22.7283</ele>
        <time>2013-05-11T16:17:09Z</time>
      </trkpt>
      <trkpt lat="59.9312811" lon="17.6411241">
        <ele>23.209</ele>
        <time>2013-05-11T16:17:10Z</time>
      </trkpt>
      <trkpt lat="59.9313157" lon="17.64115">
        <ele>23.209</ele>
        <time>2013-05-11T16:17:11Z</time>
      </trkpt>
      <trkpt lat="59.9313496" lon="17.6411739">
        <ele>24.1703</ele>
        <time>2013-05-11T16:17:12Z</time>
      </trkpt>
      <trkpt lat="59.9313812" lon="17.641195">
        <ele>24.1703</ele>
        <time>2013-05-11T16:17:13Z</time>
      </trkpt>
      <trkpt lat="59.9314136" lon="17.6412163">
        <ele>24.1703</ele>
        <time>2013-05-11T16:17:14Z</time>
      </trkpt>
      <trkpt lat="59.931448" lon="17.6412441">
        <ele>24.1703</ele>
        <time>2013-05-11T16:17:15Z</time>
      </trkpt>
      <trkpt lat="59.9314853" lon="17.6412734">
        <ele>24.651</ele>
        <time>2013-05-11T16:17:16Z</time>
      </trkpt>
      <trkpt lat="59.9315273" lon="17.6413023">
        <ele>24.651</ele>
        <time>2013-05-11T16:17:17Z</time>
      </trkpt>
      <trkpt lat="59.9315708" lon="17.6413334">
        <ele>24.651</ele>
        <time>2013-05-11T16:17:18Z</time>
      </trkpt>
      <trkpt lat="59.931612" lon="17.6413645">
        <ele>25.1317</ele>
        <time>2013-05-11T16:17:19Z</time>
      </trkpt>
      <trkpt lat="59.9316521" lon="17.6413943">
        <ele>25.1317</ele>
        <time>2013-05-11T16:17:20Z</time>
      </trkpt>
      <trkpt lat="59.9316909" lon="17.6414236">
        <ele>25.1317</ele>
        <time>2013-05-11T16:17:21Z</time>
      </trkpt>
      <trkpt lat="59.9317271" lon="17.6414551">
        <ele>25.1317</ele>
        <time>2013-05-11T16:17:22Z</time>
      </trkpt>
      <trkpt lat="59.9317625" lon="17.6414842">
        <ele>25.1317</ele>
        <time>2013-05-11T16:17:23Z</time>
      </trkpt>
      <trkpt lat="59.9317998" lon="17.6415086">
        <ele>25.6123</ele>
        <time>2013-05-11T16:17:24Z</time>
      </trkpt>
      <trkpt lat="59.9318349" lon="17.6415316">
        <ele>25.1317</ele>
        <time>2013-05-11T16:17:25Z</time>
      </trkpt>
      <trkpt lat="59.9318667" lon="17.6415517">
        <ele>25.6123</ele>
        <time>2013-05-11T16:17:26Z</time>
      </trkpt>
      <trkpt lat="59.9318982" lon="17.6415725">
        <ele>25.6123</ele>
        <time>2013-05-11T16:17:27Z</time>
      </trkpt>
      <trkpt lat="59.9319314" lon="17.6415914">
        <ele>25.6123</ele>
        <time>2013-05-11T16:17:28Z</time>
      </trkpt>
      <trkpt lat="59.9319655" lon="17.6416088">
        <ele>25.6123</ele>
        <time>2013-05-11T16:17:29Z</time>
      </trkpt>
      <trkpt lat="59.9319992" lon="17.6416292">
        <ele>26.0929</ele>
        <time>2013-05-11T16:17:30Z</time>
      </trkpt>
      <trkpt lat="59.9320299" lon="17.6416546">
        <ele>26.0929</ele>
        <time>2013-05-11T16:17:31Z</time>
      </trkpt>
      <trkpt lat="59.9320597" lon="17.6416815">
        <ele>26.0929</ele>
        <time>2013-05-11T16:17:32Z</time>
      </trkpt>
      <trkpt lat="59.9320919" lon="17.6417116">
        <ele>26.0929</ele>
        <time>2013-05-11T16:17:33Z</time>
      </trkpt>
      <trkpt lat="59.9321266" lon="17.6417474">
        <ele>26.0929</ele>
        <time>2013-05-11T16:17:34Z</time>
      </trkpt>
      <trkpt lat="59.9321668" lon="17.6417847">
        <ele>26.0929</ele>
        <time>2013-05-11T16:17:35Z</time>
      </trkpt>
      <trkpt lat="59.9322077" lon="17.6418224">
        <ele>26.0929</ele>
        <time>2013-05-11T16:17:36Z</time>
      </trkpt>
      <trkpt lat="59.9322489" lon="17.6418605">
        <ele>25.6123</ele>
        <time>2013-05-11T16:17:37Z</time>
      </trkpt>
      <trkpt lat="59.9322898" lon="17.641899">
        <ele>25.6123</ele>
        <time>2013-05-11T16:17:38Z</time>
      </trkpt>
      <trkpt lat="59.9323307" lon="17.6419379">
        <ele>25.6123</ele>
        <time>2013-05-11T16:17:39Z</time>
      </trkpt>
      <trkpt lat="59.9323704" lon="17.6419767">
        <ele>25.6123</ele>
        <time>2013-05-11T16:17:40Z</time>
      </trkpt>
      <trkpt lat="59.932413" lon="17.6420171">
        <ele>25.6123</ele>
        <time>2013-05-11T16:17:41Z</time>
      </trkpt>
      <trkpt lat="59.9324559" lon="17.6420543">
        <ele>26.0929</ele>
        <time>2013-05-11T16:17:42Z</time>
      </trkpt>
      <trkpt lat="59.9324958" lon="17.6420929">
        <ele>26.0929</ele>
        <time>2013-05-11T16:17:43Z</time>
      </trkpt>
      <trkpt lat="59.9325342" lon="17.6421299">
        <ele>26.0929</ele>
        <time>2013-05-11T16:17:44Z</time>
      </trkpt>
      <trkpt lat="59.9325709" lon="17.6421638">
        <ele>26.0929</ele>
        <time>2013-05-11T16:17:45Z</time>
      </trkpt>
      <trkpt lat="59.9326063" lon="17.642204">
        <ele>26.0929</ele>
        <time>2013-05-11T16:17:46Z</time>
      </trkpt>
      <trkpt lat="59.9326426" lon="17.6422509">
        <ele>26.0929</ele>
        <time>2013-05-11T16:17:47Z</time>
      </trkpt>
      <trkpt lat="59.932681" lon="17.6422984">
        <ele>26.5736</ele>
        <time>2013-05-11T16:17:48Z</time>
      </trkpt>
      <trkpt lat="59.9327208" lon="17.6423493">
        <ele>26.5736</ele>
        <time>2013-05-11T16:17:49Z</time>
      </trkpt>
      <trkpt lat="59.9327591" lon="17.6424086">
        <ele>26.5736</ele>
        <time>2013-05-11T16:17:50Z</time>
      </trkpt>
      <trkpt lat="59.9327948" lon="17.6424754">
        <ele>27.0543</ele>
        <time>2013-05-11T16:17:51Z</time>
      </trkpt>
      <trkpt lat="59.9328301" lon="17.6425445">
        <ele>27.0543</ele>
        <time>2013-05-11T16:17:52Z</time>
      </trkpt>
      <trkpt lat="59.9328689" lon="17.6426113">
        <ele>27.0543</ele>
        <time>2013-05-11T16:17:53Z</time>
      </trkpt>
      <trkpt lat="59.9329094" lon="17.6426764">
        <ele>27.5349</ele>
        <time>2013-05-11T16:17:54Z</time>
      </trkpt>
      <trkpt lat="59.9329518" lon="17.6427404">
        <ele>27.5349</ele>
        <time>2013-05-11T16:17:55Z</time>
      </trkpt>
      <trkpt lat="59.9329987" lon="17.6428003">
        <ele>28.0155</ele>
        <time>2013-05-11T16:17:56Z</time>
      </trkpt>
      <trkpt lat="59.933045" lon="17.6428597">
        <ele>28.0155</ele>
        <time>2013-05-11T16:17:57Z</time>
      </trkpt>
      <trkpt lat="59.9330891" lon="17.6429224">
        <ele>28.4962</ele>
        <time>2013-05-11T16:17:58Z</time>
      </trkpt>
      <trkpt lat="59.9331334" lon="17.642984">
        <ele>28.4962</ele>
        <time>2013-05-11T16:17:59Z</time>
      </trkpt>
      <trkpt lat="59.9331772" lon="17.6430464">
        <ele>28.9769</ele>
        <time>2013-05-11T16:18:00Z</time>
      </trkpt>
      <trkpt lat="59.9332179" lon="17.6431117">
        <ele>29.9381</ele>
        <time>2013-05-11T16:18:01Z</time>
      </trkpt>
      <trkpt lat="59.9332562" lon="17.6431799">
        <ele>29.9381</ele>
        <time>2013-05-11T16:18:02Z</time>
      </trkpt>
      <trkpt lat="59.9332928" lon="17.6432443">
        <ele>29.9381</ele>
        <time>2013-05-11T16:18:03Z</time>
      </trkpt>
      <trkpt lat="59.9333268" lon="17.643308">
        <ele>29.9381</ele>
        <time>2013-05-11T16:18:04Z</time>
      </trkpt>
      <trkpt lat="59.9333565" lon="17.6433634">
        <ele>29.9381</ele>
        <time>2013-05-11T16:18:05Z</time>
      </trkpt>
      <trkpt lat="59.9333844" lon="17.6434068">
        <ele>29.9381</ele>
        <time>2013-05-11T16:18:06Z</time>
      </trkpt>
      <trkpt lat="59.9334113" lon="17.6434396">
        <ele>30.4188</ele>
        <time>2013-05-11T16:18:07Z</time>
      </trkpt>
      <trkpt lat="59.9334334" lon="17.6434696">
        <ele>29.9381</ele>
        <time>2013-05-11T16:18:08Z</time>
      </trkpt>
      <trkpt lat="59.9334568" lon="17.6434922">
        <ele>29.4575</ele>
        <time>2013-05-11T16:18:09Z</time>
      </trkpt>
      <trkpt lat="59.9334785" lon="17.6435047">
        <ele>28.9769</ele>
        <time>2013-05-11T16:18:10Z</time>
      </trkpt>
      <trkpt lat="59.9335005" lon="17.6435157">
        <ele>28.4962</ele>
        <time>2013-05-11T16:18:11Z</time>
      </trkpt>
      <trkpt lat="59.9335222" lon="17.6435334">
        <ele>28.0155</ele>
        <time>2013-05-11T16:18:12Z</time>
      </trkpt>
      <trkpt lat="59.9335471" lon="17.6435697">
        <ele>26.5736</ele>
        <time>2013-05-11T16:18:13Z</time>
      </trkpt>
      <trkpt lat="59.9335748" lon="17.6436057">
        <ele>26.5736</ele>
        <time>2013-05-11T16:18:14Z</time>
      </trkpt>
      <trkpt lat="59.9336058" lon="17.6436431">
        <ele>26.5736</ele>
        <time>2013-05-11T16:18:15Z</time>
      </trkpt>
      <trkpt lat="59.9336318" lon="17.643673">
        <ele>26.0929</ele>
        <time>2013-05-11T16:18:16Z</time>
      </trkpt>
      <trkpt lat="59.9336541" lon="17.6437072">
        <ele>25.6123</ele>
        <time>2013-05-11T16:18:17Z</time>
      </trkpt>
      <trkpt lat="59.9336827" lon="17.6437429">
        <ele>25.6123</ele>
        <time>2013-05-11T16:18:18Z</time>
      </trkpt>
      <trkpt lat="59.9337138" lon="17.6437763">
        <ele>26.0929</ele>
        <time>2013-05-11T16:18:19Z</time>
      </trkpt>
      <trkpt lat="59.9337427" lon="17.6438058">
        <ele>25.6123</ele>
        <time>2013-05-11T16:18:20Z</time>
      </trkpt>
      <trkpt lat="59.9337718" lon="17.6438348">
        <ele>25.6123</ele>
        <time>2013-05-11T16:18:21Z</time>
      </trkpt>
      <trkpt lat="59.9338009" lon="17.6438644">
        <ele>25.6123</ele>
        <time>2013-05-11T16:18:22Z</time>
      </trkpt>
      <trkpt lat="59.9338322" lon="17.6438913">
        <ele>25.1317</ele>
        <time>2013-05-11T16:18:23Z</time>
      </trkpt>
      <trkpt lat="59.9338645" lon="17.643926">
        <ele>25.1317</ele>
        <time>2013-05-11T16:18:24Z</time>
      </trkpt>
      <trkpt lat="59.9338961" lon="17.6439654">
        <ele>25.1317</ele>
        <time>2013-05-11T16:18:25Z</time>
      </trkpt>
      <trkpt lat="59.9339286" lon="17.6440068">
        <ele>25.1317</ele>
        <time>2013-05-11T16:18:26Z</time>
      </trkpt>
      <trkpt lat="59.9339598" lon="17.6440527">
        <ele>25.1317</ele>
        <time>2013-05-11T16:18:27Z</time>
      </trkpt>
      <trkpt lat="59.9339912" lon="17.6440985">
        <ele>25.1317</ele>
        <time>2013-05-11T16:18:28Z</time>
      </trkpt>
      <trkpt lat="59.9340225" lon="17.6441413">
        <ele>25.1317</ele>
        <time>2013-05-11T16:18:29Z</time>
      </trkpt>
      <trkpt lat="59.9340545" lon="17.6441829">
        <ele>25.1317</ele>
        <time>2013-05-11T16:18:30Z</time>
      </trkpt>
      <trkpt lat="59.9340872" lon="17.6442259">
        <ele>25.6123</ele>
        <time>2013-05-11T16:18:31Z</time>
      </trkpt>
      <trkpt lat="59.9341204" lon="17.644268">
        <ele>25.6123</ele>
        <time>2013-05-11T16:18:32Z</time>
      </trkpt>
      <trkpt lat="59.9341508" lon="17.6443124">
        <ele>25.1317</ele>
        <time>2013-05-11T16:18:33Z</time>
      </trkpt>
      <trkpt lat="59.9341829" lon="17.644361">
        <ele>25.1317</ele>
        <time>2013-05-11T16:18:34Z</time>
      </trkpt>
      <trkpt lat="59.9342132" lon="17.6444073">
        <ele>25.1317</ele>
        <time>2013-05-11T16:18:35Z</time>
      </trkpt>
      <trkpt lat="59.9342471" lon="17.644457">
        <ele>25.1317</ele>
        <time>2013-05-11T16:18:36Z</time>
      </trkpt>
      <trkpt lat="59.9342844" lon="17.6445049">
        <ele>25.6123</ele>
        <time>2013-05-11T16:18:37Z</time>
      </trkpt>
      <trkpt lat="59.9343199" lon="17.644548">
        <ele>26.5736</ele>
        <time>2013-05-11T16:18:38Z</time>
      </trkpt>
      <trkpt lat="59.9343477" lon="17.6445984">
        <ele>26.5736</ele>
        <time>2013-05-11T16:18:39Z</time>
      </trkpt>
      <trkpt lat="59.9343753" lon="17.6446459">
        <ele>26.5736</ele>
        <time>2013-05-11T16:18:40Z</time>
      </trkpt>
      <trkpt lat="59.9343996" lon="17.644687">
        <ele>26.5736</ele>
        <time>2013-05-11T16:18:41Z</time>
      </trkpt>
      <trkpt lat="59.9344274" lon="17.6447254">
        <ele>27.0543</ele>
        <time>2013-05-11T16:18:42Z</time>
      </trkpt>
      <trkpt lat="59.9344607" lon="17.6447636">
        <ele>28.0155</ele>
        <time>2013-05-11T16:18:43Z</time>
      </trkpt>
      <trkpt lat="59.9344939" lon="17.6447973">
        <ele>28.9769</ele>
        <time>2013-05-11T16:18:44Z</time>
      </trkpt>
      <trkpt lat="59.9345219" lon="17.6448331">
        <ele>29.4575</ele>
        <time>2013-05-11T16:18:45Z</time>
      </trkpt>
      <trkpt lat="59.9345518" lon="17.6448688">
        <ele>29.4575</ele>
        <time>2013-05-11T16:18:46Z</time>
      </trkpt>
      <trkpt lat="59.934582" lon="17.6448993">
        <ele>29.9381</ele>
        <time>2013-05-11T16:18:47Z</time>
      </trkpt>
      <trkpt lat="59.9346121" lon="17.6449326">
        <ele>30.4188</ele>
        <time>2013-05-11T16:18:48Z</time>
      </trkpt>
      <trkpt lat="59.9346422" lon="17.6449719">
        <ele>29.9381</ele>
        <time>2013-05-11T16:18:49Z</time>
      </trkpt>
      <trkpt lat="59.9346745" lon="17.6450128">
        <ele>29.9381</ele>
        <time>2013-05-11T16:18:50Z</time>
      </trkpt>
      <trkpt lat="59.9347084" lon="17.6450541">
        <ele>29.9381</ele>
        <time>2013-05-11T16:18:51Z</time>
      </trkpt>
      <trkpt lat="59.9347426" lon="17.6450977">
        <ele>29.9381</ele>
        <time>2013-05-11T16:18:52Z</time>
      </trkpt>
      <trkpt lat="59.9347695" lon="17.6451484">
        <ele>28.9769</ele>
        <time>2013-05-11T16:18:53Z</time>
      </trkpt>
      <trkpt lat="59.9348007" lon="17.6451936">
        <ele>28.9769</ele>
        <time>2013-05-11T16:18:54Z</time>
      </trkpt>
      <trkpt lat="59.9348282" lon="17.6452396">
        <ele>28.9769</ele>
        <time>2013-05-11T16:18:55Z</time>
      </trkpt>
      <trkpt lat="59.9348553" lon="17.6452859">
        <ele>28.9769</ele>
        <time>2013-05-11T16:18:56Z</time>
      </trkpt>
      <trkpt lat="59.9348824" lon="17.6453346">
        <ele>28.9769</ele>
        <time>2013-05-11T16:18:57Z</time>
      </trkpt>
      <trkpt lat="59.9349202" lon="17.645385">
        <ele>28.0155</ele>
        <time>2013-05-11T16:18:58Z</time>
      </trkpt>
      <trkpt lat="59.9349615" lon="17.6454335">
        <ele>27.5349</ele>
        <time>2013-05-11T16:18:59Z</time>
      </trkpt>
      <trkpt lat="59.9350055" lon="17.6454791">
        <ele>27.5349</ele>
        <time>2013-05-11T16:19:00Z</time>
      </trkpt>
      <trkpt lat="59.9350485" lon="17.6455256">
        <ele>27.5349</ele>
        <time>2013-05-11T16:19:01Z</time>
      </trkpt>
      <trkpt lat="59.9350863" lon="17.6455779">
        <ele>27.0543</ele>
        <time>2013-05-11T16:19:02Z</time>
      </trkpt>
      <trkpt lat="59.9351201" lon="17.6456365">
        <ele>27.5349</ele>
        <time>2013-05-11T16:19:03Z</time>
      </trkpt>
      <trkpt lat="59.9351478" lon="17.6457032">
        <ele>27.5349</ele>
        <time>2013-05-11T16:19:04Z</time>
      </trkpt>
      <trkpt lat="59.935172" lon="17.6457705">
        <ele>28.0155</ele>
        <time>2013-05-11T16:19:05Z</time>
      </trkpt>
      <trkpt lat="59.9351952" lon="17.6458391">
        <ele>28.4962</ele>
        <time>2013-05-11T16:19:06Z</time>
      </trkpt>
      <trkpt lat="59.9352185" lon="17.6459074">
        <ele>28.4962</ele>
        <time>2013-05-11T16:19:07Z</time>
      </trkpt>
      <trkpt lat="59.935243" lon="17.6459722">
        <ele>28.9769</ele>
        <time>2013-05-11T16:19:08Z</time>
      </trkpt>
      <trkpt lat="59.9352725" lon="17.6460368">
        <ele>29.4575</ele>
        <time>2013-05-11T16:19:09Z</time>
      </trkpt>
      <trkpt lat="59.9353068" lon="17.6461006">
        <ele>29.4575</ele>
        <time>2013-05-11T16:19:10Z</time>
      </trkpt>
      <trkpt lat="59.9353507" lon="17.6461577">
        <ele>29.9381</ele>
        <time>2013-05-11T16:19:11Z</time>
      </trkpt>
      <trkpt lat="59.9353973" lon="17.6462138">
        <ele>30.4188</ele>
        <time>2013-05-11T16:19:12Z</time>
      </trkpt>
      <trkpt lat="59.935441" lon="17.6462706">
        <ele>30.4188</ele>
        <time>2013-05-11T16:19:13Z</time>
      </trkpt>
      <trkpt lat="59.9354833" lon="17.6463233">
        <ele>30.4188</ele>
        <time>2013-05-11T16:19:14Z</time>
      </trkpt>
      <trkpt lat="59.9355289" lon="17.6463777">
        <ele>30.8995</ele>
        <time>2013-05-11T16:19:15Z</time>
      </trkpt>
      <trkpt lat="59.9355727" lon="17.6464326">
        <ele>31.3801</ele>
        <time>2013-05-11T16:19:16Z</time>
      </trkpt>
      <trkpt lat="59.9356135" lon="17.646486">
        <ele>31.3801</ele>
        <time>2013-05-11T16:19:17Z</time>
      </trkpt>
      <trkpt lat="59.9356562" lon="17.6465409">
        <ele>31.8607</ele>
        <time>2013-05-11T16:19:18Z</time>
      </trkpt>
      <trkpt lat="59.9357026" lon="17.6465999">
        <ele>31.8607</ele>
        <time>2013-05-11T16:19:19Z</time>
      </trkpt>
      <trkpt lat="59.9357517" lon="17.6466619">
        <ele>31.8607</ele>
        <time>2013-05-11T16:19:20Z</time>
      </trkpt>
      <trkpt lat="59.9357977" lon="17.6467217">
        <ele>32.3416</ele>
        <time>2013-05-11T16:19:21Z</time>
      </trkpt>
      <trkpt lat="59.9358443" lon="17.6467803">
        <ele>32.3416</ele>
        <time>2013-05-11T16:19:22Z</time>
      </trkpt>
      <trkpt lat="59.9358916" lon="17.6468396">
        <ele>32.3416</ele>
        <time>2013-05-11T16:19:23Z</time>
      </trkpt>
      <trkpt lat="59.9359374" lon="17.6468937">
        <ele>32.3416</ele>
        <time>2013-05-11T16:19:24Z</time>
      </trkpt>
      <trkpt lat="59.9359841" lon="17.6469486">
        <ele>32.8223</ele>
        <time>2013-05-11T16:19:25Z</time>
      </trkpt>
      <trkpt lat="59.9360339" lon="17.6470092">
        <ele>32.8223</ele>
        <time>2013-05-11T16:19:26Z</time>
      </trkpt>
      <trkpt lat="59.9360831" lon="17.6470707">
        <ele>33.3029</ele>
        <time>2013-05-11T16:19:27Z</time>
      </trkpt>
      <trkpt lat="59.9361353" lon="17.6471338">
        <ele>33.3029</ele>
        <time>2013-05-11T16:19:28Z</time>
      </trkpt>
      <trkpt lat="59.9361893" lon="17.6472007">
        <ele>33.7834</ele>
        <time>2013-05-11T16:19:29Z</time>
      </trkpt>
      <trkpt lat="59.9362461" lon="17.6472696">
        <ele>33.7834</ele>
        <time>2013-05-11T16:19:30Z</time>
      </trkpt>
      <trkpt lat="59.9363043" lon="17.6473428">
        <ele>33.3029</ele>
        <time>2013-05-11T16:19:31Z</time>
      </trkpt>
      <trkpt lat="59.936362" lon="17.6474157">
        <ele>32.8223</ele>
        <time>2013-05-11T16:19:32Z</time>
      </trkpt>
      <trkpt lat="59.9364192" lon="17.6474863">
        <ele>32.8223</ele>
        <time>2013-05-11T16:19:33Z</time>
      </trkpt>
      <trkpt lat="59.9364756" lon="17.6475577">
        <ele>32.3416</ele>
        <time>2013-05-11T16:19:34Z</time>
      </trkpt>
      <trkpt lat="59.9365332" lon="17.6476288">
        <ele>32.3416</ele>
        <time>2013-05-11T16:19:35Z</time>
      </trkpt>
      <trkpt lat="59.9365923" lon="17.6477001">
        <ele>31.8607</ele>
        <time>2013-05-11T16:19:36Z</time>
      </trkpt>
      <trkpt lat="59.9366517" lon="17.6477737">
        <ele>31.8607</ele>
        <time>2013-05-11T16:19:37Z</time>
      </trkpt>
      <trkpt lat="59.9367114" lon="17.6478488">
        <ele>31.3801</ele>
        <time>2013-05-11T16:19:38Z</time>
      </trkpt>
      <trkpt lat="59.9367721" lon="17.6479233">
        <ele>31.3801</ele>
        <time>2013-05-11T16:19:39Z</time>
      </trkpt>
      <trkpt lat="59.9368328" lon="17.647996">
        <ele>30.8995</ele>
        <time>2013-05-11T16:19:40Z</time>
      </trkpt>
      <trkpt lat="59.9368921" lon="17.6480684">
        <ele>30.8995</ele>
        <time>2013-05-11T16:19:41Z</time>
      </trkpt>
      <trkpt lat="59.9369496" lon="17.6481416">
        <ele>30.4188</ele>
        <time>2013-05-11T16:19:42Z</time>
      </trkpt>
      <trkpt lat="59.9370069" lon="17.6482147">
        <ele>30.4188</ele>
        <time>2013-05-11T16:19:43Z</time>
      </trkpt>
      <trkpt lat="59.9370633" lon="17.6482876">
        <ele>29.9381</ele>
        <time>2013-05-11T16:19:44Z</time>
      </trkpt>
      <trkpt lat="59.9371178" lon="17.6483607">
        <ele>29.4575</ele>
        <time>2013-05-11T16:19:45Z</time>
      </trkpt>
      <trkpt lat="59.9371711" lon="17.6484345">
        <ele>29.4575</ele>
        <time>2013-05-11T16:19:46Z</time>
      </trkpt>
      <trkpt lat="59.9372245" lon="17.6485079">
        <ele>28.9769</ele>
        <time>2013-05-11T16:19:47Z</time>
      </trkpt>
      <trkpt lat="59.9372765" lon="17.6485832">
        <ele>28.9769</ele>
        <time>2013-05-11T16:19:48Z</time>
      </trkpt>
      <trkpt lat="59.9373273" lon="17.6486611">
        <ele>28.9769</ele>
        <time>2013-05-11T16:19:49Z</time>
      </trkpt>
      <trkpt lat="59.937376" lon="17.6487408">
        <ele>28.4962</ele>
        <time>2013-05-11T16:19:50Z</time>
      </trkpt>
      <trkpt lat="59.9374254" lon="17.6488212">
        <ele>28.9769</ele>
        <time>2013-05-11T16:19:51Z</time>
      </trkpt>
      <trkpt lat="59.9374752" lon="17.6489015">
        <ele>28.9769</ele>
        <time>2013-05-11T16:19:52Z</time>
      </trkpt>
      <trkpt lat="59.9375233" lon="17.6489829">
        <ele>28.9769</ele>
        <time>2013-05-11T16:19:53Z</time>
      </trkpt>
      <trkpt lat="59.9375709" lon="17.6490673">
        <ele>28.9769</ele>
        <time>2013-05-11T16:19:54Z</time>
      </trkpt>
      <trkpt lat="59.937617" lon="17.6491553">
        <ele>28.9769</ele>
        <time>2013-05-11T16:19:55Z</time>
      </trkpt>
      <trkpt lat="59.937663" lon="17.6492444">
        <ele>28.9769</ele>
        <time>2013-05-11T16:19:56Z</time>
      </trkpt>
      <trkpt lat="59.9377077" lon="17.6493345">
        <ele>28.9769</ele>
        <time>2013-05-11T16:19:57Z</time>
      </trkpt>
      <trkpt lat="59.9377473" lon="17.6494329">
        <ele>28.9769</ele>
        <time>2013-05-11T16:19:58Z</time>
      </trkpt>
      <trkpt lat="59.9377823" lon="17.649538">
        <ele>28.9769</ele>
        <time>2013-05-11T16:19:59Z</time>
      </trkpt>
      <trkpt lat="59.9378176" lon="17.6496415">
        <ele>28.9769</ele>
        <time>2013-05-11T16:20:00Z</time>
      </trkpt>
      <trkpt lat="59.9378553" lon="17.6497438">
        <ele>29.4575</ele>
        <time>2013-05-11T16:20:01Z</time>
      </trkpt>
      <trkpt lat="59.9378945" lon="17.6498463">
        <ele>29.4575</ele>
        <time>2013-05-11T16:20:02Z</time>
      </trkpt>
      <trkpt lat="59.9379356" lon="17.6499499">
        <ele>29.4575</ele>
        <time>2013-05-11T16:20:03Z</time>
      </trkpt>
      <trkpt lat="59.9379795" lon="17.6500556">
        <ele>29.4575</ele>
        <time>2013-05-11T16:20:04Z</time>
      </trkpt>
      <trkpt lat="59.9380236" lon="17.6501664">
        <ele>29.4575</ele>
        <time>2013-05-11T16:20:05Z</time>
      </trkpt>
      <trkpt lat="59.9380664" lon="17.6502819">
        <ele>29.4575</ele>
        <time>2013-05-11T16:20:06Z</time>
      </trkpt>
      <trkpt lat="59.9381077" lon="17.6503984">
        <ele>29.9381</ele>
        <time>2013-05-11T16:20:07Z</time>
      </trkpt>
      <trkpt lat="59.9381488" lon="17.6505135">
        <ele>29.9381</ele>
        <time>2013-05-11T16:20:08Z</time>
      </trkpt>
      <trkpt lat="59.9381899" lon="17.650627">
        <ele>29.9381</ele>
        <time>2013-05-11T16:20:09Z</time>
      </trkpt>
      <trkpt lat="59.9382314" lon="17.6507382">
        <ele>29.4575</ele>
        <time>2013-05-11T16:20:10Z</time>
      </trkpt>
      <trkpt lat="59.9382759" lon="17.650842">
        <ele>29.9381</ele>
        <time>2013-05-11T16:20:11Z</time>
      </trkpt>
      <trkpt lat="59.9383231" lon="17.6509397">
        <ele>29.9381</ele>
        <time>2013-05-11T16:20:12Z</time>
      </trkpt>
      <trkpt lat="59.9383702" lon="17.6510339">
        <ele>29.9381</ele>
        <time>2013-05-11T16:20:13Z</time>
      </trkpt>
      <trkpt lat="59.9384141" lon="17.6511311">
        <ele>29.9381</ele>
        <time>2013-05-11T16:20:14Z</time>
      </trkpt>
      <trkpt lat="59.938452" lon="17.6512336">
        <ele>29.9381</ele>
        <time>2013-05-11T16:20:15Z</time>
      </trkpt>
      <trkpt lat="59.9384873" lon="17.6513366">
        <ele>30.4188</ele>
        <time>2013-05-11T16:20:16Z</time>
      </trkpt>
      <trkpt lat="59.938522" lon="17.6514366">
        <ele>30.4188</ele>
        <time>2013-05-11T16:20:17Z</time>
      </trkpt>
      <trkpt lat="59.9385556" lon="17.651535">
        <ele>30.4188</ele>
        <time>2013-05-11T16:20:18Z</time>
      </trkpt>
      <trkpt lat="59.9385867" lon="17.6516327">
        <ele>30.8995</ele>
        <time>2013-05-11T16:20:19Z</time>
      </trkpt>
      <trkpt lat="59.9386155" lon="17.6517298">
        <ele>30.8995</ele>
        <time>2013-05-11T16:20:20Z</time>
      </trkpt>
      <trkpt lat="59.9386432" lon="17.651825">
        <ele>30.8995</ele>
        <time>2013-05-11T16:20:21Z</time>
      </trkpt>
      <trkpt lat="59.9386723" lon="17.6519157">
        <ele>30.8995</ele>
        <time>2013-05-11T16:20:22Z</time>
      </trkpt>
      <trkpt lat="59.9387007" lon="17.6520049">
        <ele>30.8995</ele>
        <time>2013-05-11T16:20:23Z</time>
      </trkpt>
      <trkpt lat="59.9387279" lon="17.6520927">
        <ele>30.8995</ele>
        <time>2013-05-11T16:20:24Z</time>
      </trkpt>
      <trkpt lat="59.9387528" lon="17.65218">
        <ele>30.8995</ele>
        <time>2013-05-11T16:20:25Z</time>
      </trkpt>
      <trkpt lat="59.9387764" lon="17.6522678">
        <ele>30.8995</ele>
        <time>2013-05-11T16:20:26Z</time>
      </trkpt>
      <trkpt lat="59.9388008" lon="17.6523556">
        <ele>30.8995</ele>
        <time>2013-05-11T16:20:27Z</time>
      </trkpt>
      <trkpt lat="59.9388248" lon="17.6524471">
        <ele>30.8995</ele>
        <time>2013-05-11T16:20:28Z</time>
      </trkpt>
      <trkpt lat="59.9388498" lon="17.6525415">
        <ele>30.8995</ele>
        <time>2013-05-11T16:20:29Z</time>
      </trkpt>
      <trkpt lat="59.9388764" lon="17.6526357">
        <ele>30.8995</ele>
        <time>2013-05-11T16:20:30Z</time>
      </trkpt>
      <trkpt lat="59.9389036" lon="17.6527294">
        <ele>30.8995</ele>
        <time>2013-05-11T16:20:31Z</time>
      </trkpt>
      <trkpt lat="59.9389303" lon="17.652828">
        <ele>30.8995</ele>
        <time>2013-05-11T16:20:32Z</time>
      </trkpt>
      <trkpt lat="59.9389565" lon="17.6529321">
        <ele>30.8995</ele>
        <time>2013-05-11T16:20:33Z</time>
      </trkpt>
      <trkpt lat="59.9389826" lon="17.6530407">
        <ele>31.3801</ele>
        <time>2013-05-11T16:20:34Z</time>
      </trkpt>
      <trkpt lat="59.9390089" lon="17.6531507">
        <ele>30.8995</ele>
        <time>2013-05-11T16:20:35Z</time>
      </trkpt>
      <trkpt lat="59.9390369" lon="17.6532632">
        <ele>30.4188</ele>
        <time>2013-05-11T16:20:36Z</time>
      </trkpt>
      <trkpt lat="59.9390659" lon="17.6533797">
        <ele>30.4188</ele>
        <time>2013-05-11T16:20:37Z</time>
      </trkpt>
      <trkpt lat="59.9390939" lon="17.6534999">
        <ele>29.9381</ele>
        <time>2013-05-11T16:20:38Z</time>
      </trkpt>
      <trkpt lat="59.9391208" lon="17.6536221">
        <ele>29.4575</ele>
        <time>2013-05-11T16:20:39Z</time>
      </trkpt>
      <trkpt lat="59.9391487" lon="17.6537485">
        <ele>29.4575</ele>
        <time>2013-05-11T16:20:40Z</time>
      </trkpt>
      <trkpt lat="59.9391766" lon="17.6538748">
        <ele>28.9769</ele>
        <time>2013-05-11T16:20:41Z</time>
      </trkpt>
      <trkpt lat="59.9392037" lon="17.6539987">
        <ele>28.4962</ele>
        <time>2013-05-11T16:20:42Z</time>
      </trkpt>
      <trkpt lat="59.939229" lon="17.6541216">
        <ele>28.4962</ele>
        <time>2013-05-11T16:20:43Z</time>
      </trkpt>
      <trkpt lat="59.9392544" lon="17.6542427">
        <ele>28.0155</ele>
        <time>2013-05-11T16:20:44Z</time>
      </trkpt>
      <trkpt lat="59.9392786" lon="17.6543621">
        <ele>28.0155</ele>
        <time>2013-05-11T16:20:45Z</time>
      </trkpt>
      <trkpt lat="59.9393009" lon="17.6544836">
        <ele>27.5349</ele>
        <time>2013-05-11T16:20:46Z</time>
      </trkpt>
      <trkpt lat="59.9393234" lon="17.6546089">
        <ele>27.5349</ele>
        <time>2013-05-11T16:20:47Z</time>
      </trkpt>
      <trkpt lat="59.9393486" lon="17.6547379">
        <ele>27.5349</ele>
        <time>2013-05-11T16:20:48Z</time>
      </trkpt>
      <trkpt lat="59.9393767" lon="17.654871">
        <ele>27.0543</ele>
        <time>2013-05-11T16:20:49Z</time>
      </trkpt>
      <trkpt lat="59.9394055" lon="17.6550093">
        <ele>27.0543</ele>
        <time>2013-05-11T16:20:50Z</time>
      </trkpt>
      <trkpt lat="59.9394326" lon="17.6551506">
        <ele>27.0543</ele>
        <time>2013-05-11T16:20:51Z</time>
      </trkpt>
      <trkpt lat="59.93946" lon="17.6552896">
        <ele>26.5736</ele>
        <time>2013-05-11T16:20:52Z</time>
      </trkpt>
      <trkpt lat="59.9394881" lon="17.6554274">
        <ele>26.0929</ele>
        <time>2013-05-11T16:20:53Z</time>
      </trkpt>
      <trkpt lat="59.9395161" lon="17.6555644">
        <ele>26.0929</ele>
        <time>2013-05-11T16:20:54Z</time>
      </trkpt>
      <trkpt lat="59.939544" lon="17.655701">
        <ele>25.6123</ele>
        <time>2013-05-11T16:20:55Z</time>
      </trkpt>
      <trkpt lat="59.9395715" lon="17.6558374">
        <ele>25.6123</ele>
        <time>2013-05-11T16:20:56Z</time>
      </trkpt>
      <trkpt lat="59.9395994" lon="17.6559735">
        <ele>25.6123</ele>
        <time>2013-05-11T16:20:57Z</time>
      </trkpt>
      <trkpt lat="59.9396265" lon="17.6561102">
        <ele>25.1317</ele>
        <time>2013-05-11T16:20:58Z</time>
      </trkpt>
      <trkpt lat="59.9396533" lon="17.6562477">
        <ele>25.1317</ele>
        <time>2013-05-11T16:20:59Z</time>
      </trkpt>
      <trkpt lat="59.9396809" lon="17.6563847">
        <ele>25.1317</ele>
        <time>2013-05-11T16:21:00Z</time>
      </trkpt>
      <trkpt lat="59.9397098" lon="17.6565218">
        <ele>25.1317</ele>
        <time>2013-05-11T16:21:01Z</time>
      </trkpt>
      <trkpt lat="59.9397377" lon="17.6566596">
        <ele>24.651</ele>
        <time>2013-05-11T16:21:02Z</time>
      </trkpt>
      <trkpt lat="59.9397647" lon="17.656798">
        <ele>24.651</ele>
        <time>2013-05-11T16:21:03Z</time>
      </trkpt>
      <trkpt lat="59.939792" lon="17.6569377">
        <ele>24.651</ele>
        <time>2013-05-11T16:21:04Z</time>
      </trkpt>
      <trkpt lat="59.9398197" lon="17.6570784">
        <ele>24.1703</ele>
        <time>2013-05-11T16:21:05Z</time>
      </trkpt>
      <trkpt lat="59.9398486" lon="17.6572197">
        <ele>24.1703</ele>
        <time>2013-05-11T16:21:06Z</time>
      </trkpt>
      <trkpt lat="59.9398777" lon="17.657363">
        <ele>23.6896</ele>
        <time>2013-05-11T16:21:07Z</time>
      </trkpt>
      <trkpt lat="59.9399071" lon="17.6575085">
        <ele>23.6896</ele>
        <time>2013-05-11T16:21:08Z</time>
      </trkpt>
      <trkpt lat="59.9399371" lon="17.6576551">
        <ele>23.209</ele>
        <time>2013-05-11T16:21:09Z</time>
      </trkpt>
      <trkpt lat="59.939967" lon="17.657803">
        <ele>23.209</ele>
        <time>2013-05-11T16:21:10Z</time>
      </trkpt>
      <trkpt lat="59.9399973" lon="17.6579516">
        <ele>23.209</ele>
        <time>2013-05-11T16:21:11Z</time>
      </trkpt>
      <trkpt lat="59.9400289" lon="17.6581007">
        <ele>22.7283</ele>
        <time>2013-05-11T16:21:12Z</time>
      </trkpt>
      <trkpt lat="59.940061" lon="17.6582517">
        <ele>22.7283</ele>
        <time>2013-05-11T16:21:13Z</time>
      </trkpt>
      <trkpt lat="59.9400941" lon="17.6584037">
        <ele>22.2476</ele>
        <time>2013-05-11T16:21:14Z</time>
      </trkpt>
      <trkpt lat="59.9401287" lon="17.6585554">
        <ele>22.2476</ele>
        <time>2013-05-11T16:21:15Z</time>
      </trkpt>
      <trkpt lat="59.940163" lon="17.658708">
        <ele>22.2476</ele>
        <time>2013-05-11T16:21:16Z</time>
      </trkpt>
      <trkpt lat="59.9401968" lon="17.6588613">
        <ele>21.767</ele>
        <time>2013-05-11T16:21:17Z</time>
      </trkpt>
      <trkpt lat="59.9402288" lon="17.6590149">
        <ele>21.767</ele>
        <time>2013-05-11T16:21:18Z</time>
      </trkpt>
      <trkpt lat="59.9402576" lon="17.659166">
        <ele>22.2476</ele>
        <time>2013-05-11T16:21:19Z</time>
      </trkpt>
      <trkpt lat="59.9402832" lon="17.6593135">
        <ele>22.2476</ele>
        <time>2013-05-11T16:21:20Z</time>
      </trkpt>
      <trkpt lat="59.940306" lon="17.6594568">
        <ele>22.2476</ele>
        <time>2013-05-11T16:21:21Z</time>
      </trkpt>
      <trkpt lat="59.9403279" lon="17.6595947">
        <ele>22.2476</ele>
        <time>2013-05-11T16:21:22Z</time>
      </trkpt>
      <trkpt lat="59.9403531" lon="17.659723">
        <ele>22.2476</ele>
        <time>2013-05-11T16:21:23Z</time>
      </trkpt>
      <trkpt lat="59.9403822" lon="17.6598413">
        <ele>22.7283</ele>
        <time>2013-05-11T16:21:24Z</time>
      </trkpt>
      <trkpt lat="59.9404137" lon="17.6599512">
        <ele>22.2476</ele>
        <time>2013-05-11T16:21:25Z</time>
      </trkpt>
      <trkpt lat="59.9404472" lon="17.6600551">
        <ele>22.7283</ele>
        <time>2013-05-11T16:21:26Z</time>
      </trkpt>
      <trkpt lat="59.9404778" lon="17.660161">
        <ele>23.6896</ele>
        <time>2013-05-11T16:21:27Z</time>
      </trkpt>
      <trkpt lat="59.9405038" lon="17.660267">
        <ele>23.209</ele>
        <time>2013-05-11T16:21:28Z</time>
      </trkpt>
      <trkpt lat="59.9405105" lon="17.6604149">
        <ele>23.209</ele>
        <time>2013-05-11T16:21:29Z</time>
      </trkpt>
      <trkpt lat="59.9404931" lon="17.6605645">
        <ele>23.209</ele>
        <time>2013-05-11T16:21:30Z</time>
      </trkpt>
      <trkpt lat="59.9404692" lon="17.6607022">
        <ele>23.209</ele>
        <time>2013-05-11T16:21:31Z</time>
      </trkpt>
      <trkpt lat="59.9404365" lon="17.6608385">
        <ele>23.209</ele>
        <time>2013-05-11T16:21:32Z</time>
      </trkpt>
      <trkpt lat="59.9404039" lon="17.6609738">
        <ele>23.6896</ele>
        <time>2013-05-11T16:21:33Z</time>
      </trkpt>
      <trkpt lat="59.9403816" lon="17.6611225">
        <ele>23.6896</ele>
        <time>2013-05-11T16:21:34Z</time>
      </trkpt>
      <trkpt lat="59.9403675" lon="17.6612684">
        <ele>23.209</ele>
        <time>2013-05-11T16:21:35Z</time>
      </trkpt>
      <trkpt lat="59.9403612" lon="17.6614068">
        <ele>22.7283</ele>
        <time>2013-05-11T16:21:36Z</time>
      </trkpt>
      <trkpt lat="59.9403568" lon="17.661543">
        <ele>21.767</ele>
        <time>2013-05-11T16:21:37Z</time>
      </trkpt>
      <trkpt lat="59.9403595" lon="17.6616719">
        <ele>21.2864</ele>
        <time>2013-05-11T16:21:38Z</time>
      </trkpt>
      <trkpt lat="59.9403933" lon="17.661794">
        <ele>20.8057</ele>
        <time>2013-05-11T16:21:39Z</time>
      </trkpt>
      <trkpt lat="59.9404288" lon="17.661917">
        <ele>20.325</ele>
        <time>2013-05-11T16:21:40Z</time>
      </trkpt>
      <trkpt lat="59.9404779" lon="17.6620087">
        <ele>19.8444</ele>
        <time>2013-05-11T16:21:41Z</time>
      </trkpt>
      <trkpt lat="59.9405308" lon="17.6620821">
        <ele>19.8444</ele>
        <time>2013-05-11T16:21:42Z</time>
      </trkpt>
      <trkpt lat="59.9405928" lon="17.6621449">
        <ele>19.3638</ele>
        <time>2013-05-11T16:21:43Z</time>
      </trkpt>
      <trkpt lat="59.9406634" lon="17.6621882">
        <ele>19.3638</ele>
        <time>2013-05-11T16:21:44Z</time>
      </trkpt>
      <trkpt lat="59.9407354" lon="17.6622198">
        <ele>19.8444</ele>
        <time>2013-05-11T16:21:45Z</time>
      </trkpt>
      <trkpt lat="59.9408067" lon="17.6622439">
        <ele>20.8057</ele>
        <time>2013-05-11T16:21:46Z</time>
      </trkpt>
      <trkpt lat="59.9408794" lon="17.6622618">
        <ele>21.2864</ele>
        <time>2013-05-11T16:21:47Z</time>
      </trkpt>
      <trkpt lat="59.9409526" lon="17.6622821">
        <ele>21.2864</ele>
        <time>2013-05-11T16:21:48Z</time>
      </trkpt>
      <trkpt lat="59.9410289" lon="17.6623058">
        <ele>21.767</ele>
        <time>2013-05-11T16:21:49Z</time>
      </trkpt>
      <trkpt lat="59.9411016" lon="17.6623433">
        <ele>22.2476</ele>
        <time>2013-05-11T16:21:50Z</time>
      </trkpt>
      <trkpt lat="59.9411706" lon="17.6623787">
        <ele>23.6896</ele>
        <time>2013-05-11T16:21:51Z</time>
      </trkpt>
      <trkpt lat="59.9412405" lon="17.6624294">
        <ele>23.6896</ele>
        <time>2013-05-11T16:21:52Z</time>
      </trkpt>
      <trkpt lat="59.9413109" lon="17.6624857">
        <ele>24.651</ele>
        <time>2013-05-11T16:21:53Z</time>
      </trkpt>
      <trkpt lat="59.9413783" lon="17.6625526">
        <ele>24.651</ele>
        <time>2013-05-11T16:21:54Z</time>
      </trkpt>
      <trkpt lat="59.9414418" lon="17.6626225">
        <ele>25.1317</ele>
        <time>2013-05-11T16:21:55Z</time>
      </trkpt>
      <trkpt lat="59.9414993" lon="17.6626998">
        <ele>25.6123</ele>
        <time>2013-05-11T16:21:56Z</time>
      </trkpt>
      <trkpt lat="59.9415508" lon="17.6627862">
        <ele>25.6123</ele>
        <time>2013-05-11T16:21:57Z</time>
      </trkpt>
      <trkpt lat="59.9415999" lon="17.6628759">
        <ele>26.0929</ele>
        <time>2013-05-11T16:21:58Z</time>
      </trkpt>
      <trkpt lat="59.941643" lon="17.6629645">
        <ele>26.0929</ele>
        <time>2013-05-11T16:21:59Z</time>
      </trkpt>
      <trkpt lat="59.9416917" lon="17.6630479">
        <ele>26.0929</ele>
        <time>2013-05-11T16:22:00Z</time>
      </trkpt>
      <trkpt lat="59.9417404" lon="17.6631297">
        <ele>26.5736</ele>
        <time>2013-05-11T16:22:01Z</time>
      </trkpt>
      <trkpt lat="59.941789" lon="17.6632129">
        <ele>26.5736</ele>
        <time>2013-05-11T16:22:02Z</time>
      </trkpt>
      <trkpt lat="59.9418391" lon="17.6632966">
        <ele>27.0543</ele>
        <time>2013-05-11T16:22:03Z</time>
      </trkpt>
      <trkpt lat="59.9418904" lon="17.6633798">
        <ele>27.0543</ele>
        <time>2013-05-11T16:22:04Z</time>
      </trkpt>
      <trkpt lat="59.9419429" lon="17.6634625">
        <ele>27.0543</ele>
        <time>2013-05-11T16:22:05Z</time>
      </trkpt>
      <trkpt lat="59.9419967" lon="17.6635459">
        <ele>27.5349</ele>
        <time>2013-05-11T16:22:06Z</time>
      </trkpt>
      <trkpt lat="59.9420505" lon="17.6636315">
        <ele>27.5349</ele>
        <time>2013-05-11T16:22:07Z</time>
      </trkpt>
      <trkpt lat="59.942105" lon="17.6637153">
        <ele>27.5349</ele>
        <time>2013-05-11T16:22:08Z</time>
      </trkpt>
      <trkpt lat="59.942158" lon="17.6637886">
        <ele>27.5349</ele>
        <time>2013-05-11T16:22:09Z</time>
      </trkpt>
      <trkpt lat="59.9422107" lon="17.6638615">
        <ele>27.5349</ele>
        <time>2013-05-11T16:22:10Z</time>
      </trkpt>
      <trkpt lat="59.9422625" lon="17.6639355">
        <ele>27.5349</ele>
        <time>2013-05-11T16:22:11Z</time>
      </trkpt>
      <trkpt lat="59.9423143" lon="17.6640072">
        <ele>27.5349</ele>
        <time>2013-05-11T16:22:12Z</time>
      </trkpt>
      <trkpt lat="59.9423664" lon="17.6640751">
        <ele>27.5349</ele>
        <time>2013-05-11T16:22:13Z</time>
      </trkpt>
      <trkpt lat="59.94242" lon="17.6641422">
        <ele>27.5349</ele>
        <time>2013-05-11T16:22:14Z</time>
      </trkpt>
      <trkpt lat="59.9424719" lon="17.664207">
        <ele>27.5349</ele>
        <time>2013-05-11T16:22:15Z</time>
      </trkpt>
      <trkpt lat="59.9425245" lon="17.6642717">
        <ele>27.5349</ele>
        <time>2013-05-11T16:22:16Z</time>
      </trkpt>
      <trkpt lat="59.9425773" lon="17.6643351">
        <ele>27.5349</ele>
        <time>2013-05-11T16:22:17Z</time>
      </trkpt>
      <trkpt lat="59.9426298" lon="17.6643976">
        <ele>27.5349</ele>
        <time>2013-05-11T16:22:18Z</time>
      </trkpt>
      <trkpt lat="59.9426826" lon="17.6644585">
        <ele>27.5349</ele>
        <time>2013-05-11T16:22:19Z</time>
      </trkpt>
      <trkpt lat="59.9427355" lon="17.6645167">
        <ele>27.5349</ele>
        <time>2013-05-11T16:22:20Z</time>
      </trkpt>
      <trkpt lat="59.9427888" lon="17.6645722">
        <ele>27.5349</ele>
        <time>2013-05-11T16:22:21Z</time>
      </trkpt>
      <trkpt lat="59.942843" lon="17.6646263">
        <ele>27.5349</ele>
        <time>2013-05-11T16:22:22Z</time>
      </trkpt>
      <trkpt lat="59.9428975" lon="17.6646801">
        <ele>27.5349</ele>
        <time>2013-05-11T16:22:23Z</time>
      </trkpt>
      <trkpt lat="59.9429523" lon="17.6647333">
        <ele>27.5349</ele>
        <time>2013-05-11T16:22:24Z</time>
      </trkpt>
      <trkpt lat="59.9430068" lon="17.6647857">
        <ele>27.5349</ele>
        <time>2013-05-11T16:22:25Z</time>
      </trkpt>
      <trkpt lat="59.9430607" lon="17.6648375">
        <ele>27.5349</ele>
        <time>2013-05-11T16:22:26Z</time>
      </trkpt>
      <trkpt lat="59.9431146" lon="17.6648879">
        <ele>27.0543</ele>
        <time>2013-05-11T16:22:27Z</time>
      </trkpt>
      <trkpt lat="59.9431695" lon="17.6649375">
        <ele>27.0543</ele>
        <time>2013-05-11T16:22:28Z</time>
      </trkpt>
      <trkpt lat="59.9432246" lon="17.6649863">
        <ele>27.0543</ele>
        <time>2013-05-11T16:22:29Z</time>
      </trkpt>
      <trkpt lat="59.9432798" lon="17.6650335">
        <ele>27.0543</ele>
        <time>2013-05-11T16:22:30Z</time>
      </trkpt>
      <trkpt lat="59.9433354" lon="17.6650775">
        <ele>27.0543</ele>
        <time>2013-05-11T16:22:31Z</time>
      </trkpt>
      <trkpt lat="59.9433937" lon="17.6651196">
        <ele>27.0543</ele>
        <time>2013-05-11T16:22:32Z</time>
      </trkpt>
      <trkpt lat="59.9434524" lon="17.6651603">
        <ele>27.0543</ele>
        <time>2013-05-11T16:22:33Z</time>
      </trkpt>
      <trkpt lat="59.943515" lon="17.6652012">
        <ele>27.0543</ele>
        <time>2013-05-11T16:22:34Z</time>
      </trkpt>
      <trkpt lat="59.9435799" lon="17.6652391">
        <ele>27.0543</ele>
        <time>2013-05-11T16:22:35Z</time>
      </trkpt>
      <trkpt lat="59.9436495" lon="17.6652816">
        <ele>26.5736</ele>
        <time>2013-05-11T16:22:36Z</time>
      </trkpt>
      <trkpt lat="59.9437202" lon="17.6653271">
        <ele>26.5736</ele>
        <time>2013-05-11T16:22:37Z</time>
      </trkpt>
      <trkpt lat="59.943792" lon="17.6653726">
        <ele>26.5736</ele>
        <time>2013-05-11T16:22:38Z</time>
      </trkpt>
      <trkpt lat="59.943863" lon="17.6654145">
        <ele>26.0929</ele>
        <time>2013-05-11T16:22:39Z</time>
      </trkpt>
      <trkpt lat="59.9439327" lon="17.6654555">
        <ele>26.0929</ele>
        <time>2013-05-11T16:22:40Z</time>
      </trkpt>
      <trkpt lat="59.944002" lon="17.6654954">
        <ele>25.6123</ele>
        <time>2013-05-11T16:22:41Z</time>
      </trkpt>
      <trkpt lat="59.9440707" lon="17.6655323">
        <ele>25.6123</ele>
        <time>2013-05-11T16:22:42Z</time>
      </trkpt>
      <trkpt lat="59.9441403" lon="17.6655679">
        <ele>25.6123</ele>
        <time>2013-05-11T16:22:43Z</time>
      </trkpt>
      <trkpt lat="59.9442092" lon="17.6656011">
        <ele>25.1317</ele>
        <time>2013-05-11T16:22:44Z</time>
      </trkpt>
      <trkpt lat="59.9442746" lon="17.665629">
        <ele>25.1317</ele>
        <time>2013-05-11T16:22:45Z</time>
      </trkpt>
      <trkpt lat="59.9443404" lon="17.6656576">
        <ele>25.1317</ele>
        <time>2013-05-11T16:22:46Z</time>
      </trkpt>
      <trkpt lat="59.9444071" lon="17.665683">
        <ele>25.6123</ele>
        <time>2013-05-11T16:22:47Z</time>
      </trkpt>
      <trkpt lat="59.9444764" lon="17.6657074">
        <ele>25.6123</ele>
        <time>2013-05-11T16:22:48Z</time>
      </trkpt>
      <trkpt lat="59.9445479" lon="17.6657363">
        <ele>25.6123</ele>
        <time>2013-05-11T16:22:49Z</time>
      </trkpt>
      <trkpt lat="59.9446234" lon="17.6657659">
        <ele>26.0929</ele>
        <time>2013-05-11T16:22:50Z</time>
      </trkpt>
      <trkpt lat="59.9446986" lon="17.6657922">
        <ele>26.0929</ele>
        <time>2013-05-11T16:22:51Z</time>
      </trkpt>
      <trkpt lat="59.9447738" lon="17.6658195">
        <ele>26.0929</ele>
        <time>2013-05-11T16:22:52Z</time>
      </trkpt>
      <trkpt lat="59.9448468" lon="17.6658465">
        <ele>26.0929</ele>
        <time>2013-05-11T16:22:53Z</time>
      </trkpt>
      <trkpt lat="59.9449182" lon="17.6658718">
        <ele>26.0929</ele>
        <time>2013-05-11T16:22:54Z</time>
      </trkpt>
      <trkpt lat="59.9449883" lon="17.6658948">
        <ele>26.0929</ele>
        <time>2013-05-11T16:22:55Z</time>
      </trkpt>
      <trkpt lat="59.9450567" lon="17.6659174">
        <ele>26.0929</ele>
        <time>2013-05-11T16:22:56Z</time>
      </trkpt>
      <trkpt lat="59.9451235" lon="17.6659424">
        <ele>26.0929</ele>
        <time>2013-05-11T16:22:57Z</time>
      </trkpt>
      <trkpt lat="59.9451887" lon="17.6659689">
        <ele>26.0929</ele>
        <time>2013-05-11T16:22:58Z</time>
      </trkpt>
      <trkpt lat="59.9452525" lon="17.6659948">
        <ele>26.0929</ele>
        <time>2013-05-11T16:22:59Z</time>
      </trkpt>
      <trkpt lat="59.9453156" lon="17.6660192">
        <ele>26.0929</ele>
        <time>2013-05-11T16:23:00Z</time>
      </trkpt>
      <trkpt lat="59.9453767" lon="17.6660443">
        <ele>26.0929</ele>
        <time>2013-05-11T16:23:01Z</time>
      </trkpt>
      <trkpt lat="59.9454382" lon="17.6660704">
        <ele>26.5736</ele>
        <time>2013-05-11T16:23:02Z</time>
      </trkpt>
      <trkpt lat="59.9455001" lon="17.6660936">
        <ele>26.5736</ele>
        <time>2013-05-11T16:23:03Z</time>
      </trkpt>
      <trkpt lat="59.9455605" lon="17.6661153">
        <ele>26.5736</ele>
        <time>2013-05-11T16:23:04Z</time>
      </trkpt>
      <trkpt lat="59.9456188" lon="17.6661346">
        <ele>26.5736</ele>
        <time>2013-05-11T16:23:05Z</time>
      </trkpt>
      <trkpt lat="59.9456767" lon="17.6661558">
        <ele>26.5736</ele>
        <time>2013-05-11T16:23:06Z</time>
      </trkpt>
      <trkpt lat="59.9457358" lon="17.66618">
        <ele>27.0543</ele>
        <time>2013-05-11T16:23:07Z</time>
      </trkpt>
      <trkpt lat="59.945797" lon="17.6662021">
        <ele>26.5736</ele>
        <time>2013-05-11T16:23:08Z</time>
      </trkpt>
      <trkpt lat="59.9458607" lon="17.6662231">
        <ele>27.0543</ele>
        <time>2013-05-11T16:23:09Z</time>
      </trkpt>
      <trkpt lat="59.9459263" lon="17.6662443">
        <ele>27.0543</ele>
        <time>2013-05-11T16:23:10Z</time>
      </trkpt>
      <trkpt lat="59.9459932" lon="17.6662686">
        <ele>27.0543</ele>
        <time>2013-05-11T16:23:11Z</time>
      </trkpt>
      <trkpt lat="59.9460621" lon="17.6662956">
        <ele>27.0543</ele>
        <time>2013-05-11T16:23:12Z</time>
      </trkpt>
      <trkpt lat="59.9461331" lon="17.6663242">
        <ele>27.0543</ele>
        <time>2013-05-11T16:23:13Z</time>
      </trkpt>
      <trkpt lat="59.9462056" lon="17.6663582">
        <ele>27.0543</ele>
        <time>2013-05-11T16:23:14Z</time>
      </trkpt>
      <trkpt lat="59.9462791" lon="17.6664039">
        <ele>27.0543</ele>
        <time>2013-05-11T16:23:15Z</time>
      </trkpt>
      <trkpt lat="59.9463512" lon="17.6664568">
        <ele>27.5349</ele>
        <time>2013-05-11T16:23:16Z</time>
      </trkpt>
      <trkpt lat="59.9464232" lon="17.6665019">
        <ele>27.5349</ele>
        <time>2013-05-11T16:23:17Z</time>
      </trkpt>
      <trkpt lat="59.9464963" lon="17.6665335">
        <ele>27.5349</ele>
        <time>2013-05-11T16:23:18Z</time>
      </trkpt>
      <trkpt lat="59.9465696" lon="17.6665554">
        <ele>28.0155</ele>
        <time>2013-05-11T16:23:19Z</time>
      </trkpt>
      <trkpt lat="59.9467144" lon="17.6665709">
        <ele>28.0155</ele>
        <time>2013-05-11T16:23:21Z</time>
      </trkpt>
      <trkpt lat="59.9467851" lon="17.6665838">
        <ele>28.0155</ele>
        <time>2013-05-11T16:23:22Z</time>
      </trkpt>
      <trkpt lat="59.9468536" lon="17.6666075">
        <ele>28.0155</ele>
        <time>2013-05-11T16:23:23Z</time>
      </trkpt>
      <trkpt lat="59.9469219" lon="17.6666375">
        <ele>28.0155</ele>
        <time>2013-05-11T16:23:24Z</time>
      </trkpt>
      <trkpt lat="59.9469915" lon="17.6666691">
        <ele>28.0155</ele>
        <time>2013-05-11T16:23:25Z</time>
      </trkpt>
      <trkpt lat="59.947063" lon="17.6667007">
        <ele>28.0155</ele>
        <time>2013-05-11T16:23:26Z</time>
      </trkpt>
      <trkpt lat="59.947137" lon="17.6667334">
        <ele>28.0155</ele>
        <time>2013-05-11T16:23:27Z</time>
      </trkpt>
      <trkpt lat="59.9472132" lon="17.6667669">
        <ele>28.0155</ele>
        <time>2013-05-11T16:23:28Z</time>
      </trkpt>
      <trkpt lat="59.9472918" lon="17.6668017">
        <ele>28.0155</ele>
        <time>2013-05-11T16:23:29Z</time>
      </trkpt>
      <trkpt lat="59.9473716" lon="17.666839">
        <ele>28.0155</ele>
        <time>2013-05-11T16:23:30Z</time>
      </trkpt>
      <trkpt lat="59.9474514" lon="17.666879">
        <ele>28.0155</ele>
        <time>2013-05-11T16:23:31Z</time>
      </trkpt>
      <trkpt lat="59.9475307" lon="17.6669185">
        <ele>28.0155</ele>
        <time>2013-05-11T16:23:32Z</time>
      </trkpt>
      <trkpt lat="59.9476088" lon="17.6669557">
        <ele>28.0155</ele>
        <time>2013-05-11T16:23:33Z</time>
      </trkpt>
      <trkpt lat="59.9476854" lon="17.6669914">
        <ele>28.0155</ele>
        <time>2013-05-11T16:23:34Z</time>
      </trkpt>
      <trkpt lat="59.9477607" lon="17.6670268">
        <ele>28.0155</ele>
        <time>2013-05-11T16:23:35Z</time>
      </trkpt>
      <trkpt lat="59.9478348" lon="17.6670623">
        <ele>28.0155</ele>
        <time>2013-05-11T16:23:36Z</time>
      </trkpt>
      <trkpt lat="59.9479072" lon="17.667098">
        <ele>28.0155</ele>
        <time>2013-05-11T16:23:37Z</time>
      </trkpt>
      <trkpt lat="59.9479777" lon="17.6671349">
        <ele>28.0155</ele>
        <time>2013-05-11T16:23:38Z</time>
      </trkpt>
      <trkpt lat="59.9480475" lon="17.6671748">
        <ele>28.0155</ele>
        <time>2013-05-11T16:23:39Z</time>
      </trkpt>
      <trkpt lat="59.9481177" lon="17.667214">
        <ele>28.0155</ele>
        <time>2013-05-11T16:23:40Z</time>
      </trkpt>
      <trkpt lat="59.948187" lon="17.6672515">
        <ele>28.0155</ele>
        <time>2013-05-11T16:23:41Z</time>
      </trkpt>
      <trkpt lat="59.948255" lon="17.6672877">
        <ele>28.0155</ele>
        <time>2013-05-11T16:23:42Z</time>
      </trkpt>
      <trkpt lat="59.9483221" lon="17.6673243">
        <ele>27.5349</ele>
        <time>2013-05-11T16:23:43Z</time>
      </trkpt>
      <trkpt lat="59.948388" lon="17.6673624">
        <ele>27.5349</ele>
        <time>2013-05-11T16:23:44Z</time>
      </trkpt>
      <trkpt lat="59.9484543" lon="17.6674011">
        <ele>27.5349</ele>
        <time>2013-05-11T16:23:45Z</time>
      </trkpt>
      <trkpt lat="59.9485225" lon="17.6674408">
        <ele>28.0155</ele>
        <time>2013-05-11T16:23:46Z</time>
      </trkpt>
      <trkpt lat="59.94859" lon="17.6674788">
        <ele>28.0155</ele>
        <time>2013-05-11T16:23:47Z</time>
      </trkpt>
      <trkpt lat="59.9486568" lon="17.6675154">
        <ele>28.0155</ele>
        <time>2013-05-11T16:23:48Z</time>
      </trkpt>
      <trkpt lat="59.948723" lon="17.667551">
        <ele>28.0155</ele>
        <time>2013-05-11T16:23:49Z</time>
      </trkpt>
      <trkpt lat="59.9487879" lon="17.6675862">
        <ele>28.0155</ele>
        <time>2013-05-11T16:23:50Z</time>
      </trkpt>
      <trkpt lat="59.9488517" lon="17.6676208">
        <ele>28.0155</ele>
        <time>2013-05-11T16:23:51Z</time>
      </trkpt>
      <trkpt lat="59.9489167" lon="17.6676555">
        <ele>28.0155</ele>
        <time>2013-05-11T16:23:52Z</time>
      </trkpt>
      <trkpt lat="59.948984" lon="17.6676955">
        <ele>28.0155</ele>
        <time>2013-05-11T16:23:53Z</time>
      </trkpt>
      <trkpt lat="59.9490512" lon="17.6677383">
        <ele>28.0155</ele>
        <time>2013-05-11T16:23:54Z</time>
      </trkpt>
      <trkpt lat="59.9491173" lon="17.6677781">
        <ele>28.0155</ele>
        <time>2013-05-11T16:23:55Z</time>
      </trkpt>
      <trkpt lat="59.9491829" lon="17.6678161">
        <ele>28.0155</ele>
        <time>2013-05-11T16:23:56Z</time>
      </trkpt>
      <trkpt lat="59.9492479" lon="17.6678525">
        <ele>28.0155</ele>
        <time>2013-05-11T16:23:57Z</time>
      </trkpt>
      <trkpt lat="59.9493126" lon="17.6678898">
        <ele>28.0155</ele>
        <time>2013-05-11T16:23:58Z</time>
      </trkpt>
      <trkpt lat="59.9493773" lon="17.6679275">
        <ele>28.0155</ele>
        <time>2013-05-11T16:23:59Z</time>
      </trkpt>
      <trkpt lat="59.9494419" lon="17.667964">
        <ele>28.0155</ele>
        <time>2013-05-11T16:24:00Z</time>
      </trkpt>
      <trkpt lat="59.9495059" lon="17.6680003">
        <ele>28.0155</ele>
        <time>2013-05-11T16:24:01Z</time>
      </trkpt>
      <trkpt lat="59.9495694" lon="17.6680335">
        <ele>28.0155</ele>
        <time>2013-05-11T16:24:02Z</time>
      </trkpt>
      <trkpt lat="59.9496343" lon="17.6680647">
        <ele>28.0155</ele>
        <time>2013-05-11T16:24:03Z</time>
      </trkpt>
      <trkpt lat="59.9497016" lon="17.6680983">
        <ele>28.0155</ele>
        <time>2013-05-11T16:24:04Z</time>
      </trkpt>
      <trkpt lat="59.9497717" lon="17.6681347">
        <ele>28.0155</ele>
        <time>2013-05-11T16:24:05Z</time>
      </trkpt>
      <trkpt lat="59.9498427" lon="17.6681692">
        <ele>28.0155</ele>
        <time>2013-05-11T16:24:06Z</time>
      </trkpt>
      <trkpt lat="59.9499129" lon="17.6681979">
        <ele>28.0155</ele>
        <time>2013-05-11T16:24:07Z</time>
      </trkpt>
      <trkpt lat="59.9499819" lon="17.6682239">
        <ele>28.0155</ele>
        <time>2013-05-11T16:24:08Z</time>
      </trkpt>
      <trkpt lat="59.9500499" lon="17.6682474">
        <ele>28.0155</ele>
        <time>2013-05-11T16:24:09Z</time>
      </trkpt>
      <trkpt lat="59.9501172" lon="17.6682667">
        <ele>28.0155</ele>
        <time>2013-05-11T16:24:10Z</time>
      </trkpt>
      <trkpt lat="59.9501838" lon="17.6682833">
        <ele>28.0155</ele>
        <time>2013-05-11T16:24:11Z</time>
      </trkpt>
      <trkpt lat="59.9502505" lon="17.6682978">
        <ele>28.0155</ele>
        <time>2013-05-11T16:24:12Z</time>
      </trkpt>
      <trkpt lat="59.9503168" lon="17.6683113">
        <ele>28.4962</ele>
        <time>2013-05-11T16:24:13Z</time>
      </trkpt>
      <trkpt lat="59.9503827" lon="17.6683212">
        <ele>28.4962</ele>
        <time>2013-05-11T16:24:14Z</time>
      </trkpt>
      <trkpt lat="59.9504493" lon="17.6683256">
        <ele>28.4962</ele>
        <time>2013-05-11T16:24:15Z</time>
      </trkpt>
      <trkpt lat="59.9505189" lon="17.6683268">
        <ele>28.0155</ele>
        <time>2013-05-11T16:24:16Z</time>
      </trkpt>
      <trkpt lat="59.9505901" lon="17.6683268">
        <ele>28.4962</ele>
        <time>2013-05-11T16:24:17Z</time>
      </trkpt>
      <trkpt lat="59.950661" lon="17.668322">
        <ele>28.0155</ele>
        <time>2013-05-11T16:24:18Z</time>
      </trkpt>
      <trkpt lat="59.9507309" lon="17.6683109">
        <ele>28.0155</ele>
        <time>2013-05-11T16:24:19Z</time>
      </trkpt>
      <trkpt lat="59.950801" lon="17.6682985">
        <ele>27.5349</ele>
        <time>2013-05-11T16:24:20Z</time>
      </trkpt>
      <trkpt lat="59.950867" lon="17.6682865">
        <ele>27.5349</ele>
        <time>2013-05-11T16:24:21Z</time>
      </trkpt>
      <trkpt lat="59.9509344" lon="17.6682692">
        <ele>27.5349</ele>
        <time>2013-05-11T16:24:22Z</time>
      </trkpt>
      <trkpt lat="59.9510015" lon="17.6682481">
        <ele>27.0543</ele>
        <time>2013-05-11T16:24:23Z</time>
      </trkpt>
      <trkpt lat="59.9510685" lon="17.6682283">
        <ele>27.0543</ele>
        <time>2013-05-11T16:24:24Z</time>
      </trkpt>
      <trkpt lat="59.9511354" lon="17.668208">
        <ele>26.5736</ele>
        <time>2013-05-11T16:24:25Z</time>
      </trkpt>
      <trkpt lat="59.9512018" lon="17.6681837">
        <ele>26.5736</ele>
        <time>2013-05-11T16:24:26Z</time>
      </trkpt>
      <trkpt lat="59.9512692" lon="17.6681576">
        <ele>26.5736</ele>
        <time>2013-05-11T16:24:27Z</time>
      </trkpt>
      <trkpt lat="59.951337" lon="17.6681358">
        <ele>26.0929</ele>
        <time>2013-05-11T16:24:28Z</time>
      </trkpt>
      <trkpt lat="59.9514044" lon="17.6681185">
        <ele>26.0929</ele>
        <time>2013-05-11T16:24:29Z</time>
      </trkpt>
      <trkpt lat="59.9514712" lon="17.668105">
        <ele>25.6123</ele>
        <time>2013-05-11T16:24:30Z</time>
      </trkpt>
      <trkpt lat="59.9515383" lon="17.6681001">
        <ele>25.6123</ele>
        <time>2013-05-11T16:24:31Z</time>
      </trkpt>
      <trkpt lat="59.9516043" lon="17.6681166">
        <ele>25.6123</ele>
        <time>2013-05-11T16:24:32Z</time>
      </trkpt>
      <trkpt lat="59.9516653" lon="17.6681682">
        <ele>25.1317</ele>
        <time>2013-05-11T16:24:33Z</time>
      </trkpt>
      <trkpt lat="59.9517142" lon="17.6682574">
        <ele>25.1317</ele>
        <time>2013-05-11T16:24:34Z</time>
      </trkpt>
      <trkpt lat="59.9517525" lon="17.6683691">
        <ele>25.1317</ele>
        <time>2013-05-11T16:24:35Z</time>
      </trkpt>
      <trkpt lat="59.9517818" lon="17.6684922">
        <ele>24.651</ele>
        <time>2013-05-11T16:24:36Z</time>
      </trkpt>
      <trkpt lat="59.9518074" lon="17.668622">
        <ele>24.1703</ele>
        <time>2013-05-11T16:24:37Z</time>
      </trkpt>
      <trkpt lat="59.9518281" lon="17.6687567">
        <ele>24.1703</ele>
        <time>2013-05-11T16:24:38Z</time>
      </trkpt>
      <trkpt lat="59.9518404" lon="17.6688962">
        <ele>24.1703</ele>
        <time>2013-05-11T16:24:39Z</time>
      </trkpt>
      <trkpt lat="59.9518417" lon="17.6690376">
        <ele>24.1703</ele>
        <time>2013-05-11T16:24:40Z</time>
      </trkpt>
      <trkpt lat="59.9518354" lon="17.6691796">
        <ele>24.1703</ele>
        <time>2013-05-11T16:24:41Z</time>
      </trkpt>
      <trkpt lat="59.9518261" lon="17.6693239">
        <ele>23.6896</ele>
        <time>2013-05-11T16:24:42Z</time>
      </trkpt>
      <trkpt lat="59.9518166" lon="17.6694722">
        <ele>23.6896</ele>
        <time>2013-05-11T16:24:43Z</time>
      </trkpt>
      <trkpt lat="59.9518088" lon="17.6696219">
        <ele>23.6896</ele>
        <time>2013-05-11T16:24:44Z</time>
      </trkpt>
      <trkpt lat="59.9518027" lon="17.6697689">
        <ele>24.651</ele>
        <time>2013-05-11T16:24:45Z</time>
      </trkpt>
      <trkpt lat="59.9517973" lon="17.6699113">
        <ele>25.1317</ele>
        <time>2013-05-11T16:24:46Z</time>
      </trkpt>
      <trkpt lat="59.951789" lon="17.6700488">
        <ele>24.651</ele>
        <time>2013-05-11T16:24:47Z</time>
      </trkpt>
      <trkpt lat="59.9517783" lon="17.6701818">
        <ele>24.651</ele>
        <time>2013-05-11T16:24:48Z</time>
      </trkpt>
      <trkpt lat="59.9517668" lon="17.6703103">
        <ele>24.651</ele>
        <time>2013-05-11T16:24:49Z</time>
      </trkpt>
      <trkpt lat="59.9517536" lon="17.6704388">
        <ele>24.651</ele>
        <time>2013-05-11T16:24:50Z</time>
      </trkpt>
      <trkpt lat="59.9517422" lon="17.6705693">
        <ele>24.651</ele>
        <time>2013-05-11T16:24:51Z</time>
      </trkpt>
      <trkpt lat="59.9517329" lon="17.670703">
        <ele>25.1317</ele>
        <time>2013-05-11T16:24:52Z</time>
      </trkpt>
      <trkpt lat="59.9517284" lon="17.6708378">
        <ele>25.1317</ele>
        <time>2013-05-11T16:24:53Z</time>
      </trkpt>
      <trkpt lat="59.9517303" lon="17.6709707">
        <ele>25.6123</ele>
        <time>2013-05-11T16:24:54Z</time>
      </trkpt>
      <trkpt lat="59.9517389" lon="17.6710972">
        <ele>25.6123</ele>
        <time>2013-05-11T16:24:55Z</time>
      </trkpt>
      <trkpt lat="59.9517571" lon="17.6712167">
        <ele>25.6123</ele>
        <time>2013-05-11T16:24:56Z</time>
      </trkpt>
      <trkpt lat="59.9517789" lon="17.6713339">
        <ele>26.0929</ele>
        <time>2013-05-11T16:24:57Z</time>
      </trkpt>
      <trkpt lat="59.9517939" lon="17.6714519">
        <ele>26.0929</ele>
        <time>2013-05-11T16:24:58Z</time>
      </trkpt>
      <trkpt lat="59.9517985" lon="17.6715691">
        <ele>26.5736</ele>
        <time>2013-05-11T16:24:59Z</time>
      </trkpt>
      <trkpt lat="59.951798" lon="17.6716876">
        <ele>26.5736</ele>
        <time>2013-05-11T16:25:00Z</time>
      </trkpt>
      <trkpt lat="59.9517963" lon="17.6718058">
        <ele>26.0929</ele>
        <time>2013-05-11T16:25:01Z</time>
      </trkpt>
      <trkpt lat="59.9517968" lon="17.6719229">
        <ele>26.0929</ele>
        <time>2013-05-11T16:25:02Z</time>
      </trkpt>
      <trkpt lat="59.9518015" lon="17.6720439">
        <ele>26.0929</ele>
        <time>2013-05-11T16:25:03Z</time>
      </trkpt>
      <trkpt lat="59.9518115" lon="17.6721708">
        <ele>25.6123</ele>
        <time>2013-05-11T16:25:04Z</time>
      </trkpt>
      <trkpt lat="59.9518241" lon="17.6722978">
        <ele>25.6123</ele>
        <time>2013-05-11T16:25:05Z</time>
      </trkpt>
      <trkpt lat="59.9518353" lon="17.6724215">
        <ele>25.6123</ele>
        <time>2013-05-11T16:25:06Z</time>
      </trkpt>
      <trkpt lat="59.9518452" lon="17.672542">
        <ele>25.6123</ele>
        <time>2013-05-11T16:25:07Z</time>
      </trkpt>
      <trkpt lat="59.9518562" lon="17.6726588">
        <ele>25.6123</ele>
        <time>2013-05-11T16:25:08Z</time>
      </trkpt>
      <trkpt lat="59.951869" lon="17.6727728">
        <ele>26.0929</ele>
        <time>2013-05-11T16:25:09Z</time>
      </trkpt>
      <trkpt lat="59.9518836" lon="17.6728846">
        <ele>25.6123</ele>
        <time>2013-05-11T16:25:10Z</time>
      </trkpt>
      <trkpt lat="59.9518995" lon="17.6729966">
        <ele>25.6123</ele>
        <time>2013-05-11T16:25:11Z</time>
      </trkpt>
      <trkpt lat="59.9519146" lon="17.6731098">
        <ele>25.6123</ele>
        <time>2013-05-11T16:25:12Z</time>
      </trkpt>
      <trkpt lat="59.9519297" lon="17.6732234">
        <ele>25.6123</ele>
        <time>2013-05-11T16:25:13Z</time>
      </trkpt>
      <trkpt lat="59.9519472" lon="17.6733358">
        <ele>25.6123</ele>
        <time>2013-05-11T16:25:14Z</time>
      </trkpt>
      <trkpt lat="59.9519664" lon="17.6734474">
        <ele>25.6123</ele>
        <time>2013-05-11T16:25:15Z</time>
      </trkpt>
      <trkpt lat="59.9519854" lon="17.6735582">
        <ele>25.6123</ele>
        <time>2013-05-11T16:25:16Z</time>
      </trkpt>
      <trkpt lat="59.9520043" lon="17.6736678">
        <ele>25.6123</ele>
        <time>2013-05-11T16:25:17Z</time>
      </trkpt>
      <trkpt lat="59.9520239" lon="17.6737763">
        <ele>26.0929</ele>
        <time>2013-05-11T16:25:18Z</time>
      </trkpt>
      <trkpt lat="59.952043" lon="17.6738837">
        <ele>26.0929</ele>
        <time>2013-05-11T16:25:19Z</time>
      </trkpt>
      <trkpt lat="59.9520612" lon="17.6739887">
        <ele>26.0929</ele>
        <time>2013-05-11T16:25:20Z</time>
      </trkpt>
      <trkpt lat="59.95208" lon="17.67409">
        <ele>26.0929</ele>
        <time>2013-05-11T16:25:21Z</time>
      </trkpt>
      <trkpt lat="59.9521006" lon="17.6741887">
        <ele>26.0929</ele>
        <time>2013-05-11T16:25:22Z</time>
      </trkpt>
      <trkpt lat="59.9521223" lon="17.674287">
        <ele>26.0929</ele>
        <time>2013-05-11T16:25:23Z</time>
      </trkpt>
      <trkpt lat="59.9521441" lon="17.674385">
        <ele>26.0929</ele>
        <time>2013-05-11T16:25:24Z</time>
      </trkpt>
      <trkpt lat="59.9521648" lon="17.6744855">
        <ele>26.0929</ele>
        <time>2013-05-11T16:25:25Z</time>
      </trkpt>
      <trkpt lat="59.9521845" lon="17.6745879">
        <ele>26.0929</ele>
        <time>2013-05-11T16:25:26Z</time>
      </trkpt>
      <trkpt lat="59.9522012" lon="17.6746885">
        <ele>26.0929</ele>
        <time>2013-05-11T16:25:27Z</time>
      </trkpt>
      <trkpt lat="59.9522165" lon="17.6747839">
        <ele>26.0929</ele>
        <time>2013-05-11T16:25:28Z</time>
      </trkpt>
      <trkpt lat="59.9522327" lon="17.6748699">
        <ele>26.0929</ele>
        <time>2013-05-11T16:25:29Z</time>
      </trkpt>
      <trkpt lat="59.9522493" lon="17.6749486">
        <ele>26.0929</ele>
        <time>2013-05-11T16:25:30Z</time>
      </trkpt>
      <trkpt lat="59.9522646" lon="17.6750221">
        <ele>26.0929</ele>
        <time>2013-05-11T16:25:31Z</time>
      </trkpt>
      <trkpt lat="59.9522797" lon="17.6750937">
        <ele>26.0929</ele>
        <time>2013-05-11T16:25:32Z</time>
      </trkpt>
      <trkpt lat="59.952296" lon="17.6751641">
        <ele>25.6123</ele>
        <time>2013-05-11T16:25:33Z</time>
      </trkpt>
      <trkpt lat="59.9523143" lon="17.6752345">
        <ele>25.1317</ele>
        <time>2013-05-11T16:25:34Z</time>
      </trkpt>
      <trkpt lat="59.9523343" lon="17.6753073">
        <ele>24.651</ele>
        <time>2013-05-11T16:25:35Z</time>
      </trkpt>
      <trkpt lat="59.9523578" lon="17.6753795">
        <ele>24.1703</ele>
        <time>2013-05-11T16:25:36Z</time>
      </trkpt>
      <trkpt lat="59.952385" lon="17.6754525">
        <ele>23.6896</ele>
        <time>2013-05-11T16:25:37Z</time>
      </trkpt>
      <trkpt lat="59.9524145" lon="17.6755289">
        <ele>23.6896</ele>
        <time>2013-05-11T16:25:38Z</time>
      </trkpt>
      <trkpt lat="59.9524446" lon="17.6756107">
        <ele>23.209</ele>
        <time>2013-05-11T16:25:39Z</time>
      </trkpt>
      <trkpt lat="59.9524764" lon="17.6756972">
        <ele>23.209</ele>
        <time>2013-05-11T16:25:40Z</time>
      </trkpt>
      <trkpt lat="59.9525133" lon="17.6757857">
        <ele>22.7283</ele>
        <time>2013-05-11T16:25:41Z</time>
      </trkpt>
      <trkpt lat="59.9525527" lon="17.67588">
        <ele>22.7283</ele>
        <time>2013-05-11T16:25:42Z</time>
      </trkpt>
      <trkpt lat="59.952592" lon="17.6759799">
        <ele>22.7283</ele>
        <time>2013-05-11T16:25:43Z</time>
      </trkpt>
      <trkpt lat="59.9526296" lon="17.676085">
        <ele>22.2476</ele>
        <time>2013-05-11T16:25:44Z</time>
      </trkpt>
      <trkpt lat="59.9526684" lon="17.6761949">
        <ele>22.7283</ele>
        <time>2013-05-11T16:25:45Z</time>
      </trkpt>
      <trkpt lat="59.9527066" lon="17.6763042">
        <ele>22.2476</ele>
        <time>2013-05-11T16:25:46Z</time>
      </trkpt>
      <trkpt lat="59.9527448" lon="17.6764109">
        <ele>22.7283</ele>
        <time>2013-05-11T16:25:47Z</time>
      </trkpt>
      <trkpt lat="59.9527836" lon="17.6765183">
        <ele>22.7283</ele>
        <time>2013-05-11T16:25:48Z</time>
      </trkpt>
      <trkpt lat="59.9528245" lon="17.6766218">
        <ele>22.7283</ele>
        <time>2013-05-11T16:25:49Z</time>
      </trkpt>
      <trkpt lat="59.9528668" lon="17.6767257">
        <ele>22.7283</ele>
        <time>2013-05-11T16:25:50Z</time>
      </trkpt>
      <trkpt lat="59.9529087" lon="17.67683">
        <ele>22.7283</ele>
        <time>2013-05-11T16:25:51Z</time>
      </trkpt>
      <trkpt lat="59.952951" lon="17.676935">
        <ele>22.7283</ele>
        <time>2013-05-11T16:25:52Z</time>
      </trkpt>
      <trkpt lat="59.952993" lon="17.6770406">
        <ele>22.7283</ele>
        <time>2013-05-11T16:25:53Z</time>
      </trkpt>
      <trkpt lat="59.9530331" lon="17.677146">
        <ele>23.209</ele>
        <time>2013-05-11T16:25:54Z</time>
      </trkpt>
      <trkpt lat="59.9530708" lon="17.6772491">
        <ele>23.6896</ele>
        <time>2013-05-11T16:25:55Z</time>
      </trkpt>
      <trkpt lat="59.9531072" lon="17.6773523">
        <ele>23.6896</ele>
        <time>2013-05-11T16:25:56Z</time>
      </trkpt>
      <trkpt lat="59.9531434" lon="17.6774548">
        <ele>24.1703</ele>
        <time>2013-05-11T16:25:57Z</time>
      </trkpt>
      <trkpt lat="59.9531801" lon="17.6775567">
        <ele>24.651</ele>
        <time>2013-05-11T16:25:58Z</time>
      </trkpt>
      <trkpt lat="59.9532167" lon="17.6776561">
        <ele>25.1317</ele>
        <time>2013-05-11T16:25:59Z</time>
      </trkpt>
      <trkpt lat="59.9532531" lon="17.6777629">
        <ele>25.1317</ele>
        <time>2013-05-11T16:26:00Z</time>
      </trkpt>
      <trkpt lat="59.9532887" lon="17.6778649">
        <ele>25.6123</ele>
        <time>2013-05-11T16:26:01Z</time>
      </trkpt>
      <trkpt lat="59.9533256" lon="17.677971">
        <ele>25.6123</ele>
        <time>2013-05-11T16:26:02Z</time>
      </trkpt>
      <trkpt lat="59.9533624" lon="17.6780794">
        <ele>25.6123</ele>
        <time>2013-05-11T16:26:03Z</time>
      </trkpt>
      <trkpt lat="59.9533961" lon="17.6781835">
        <ele>26.0929</ele>
        <time>2013-05-11T16:26:04Z</time>
      </trkpt>
      <trkpt lat="59.9534302" lon="17.6782882">
        <ele>26.5736</ele>
        <time>2013-05-11T16:26:05Z</time>
      </trkpt>
      <trkpt lat="59.9534646" lon="17.6783898">
        <ele>27.0543</ele>
        <time>2013-05-11T16:26:06Z</time>
      </trkpt>
      <trkpt lat="59.9535" lon="17.6784942">
        <ele>27.5349</ele>
        <time>2013-05-11T16:26:07Z</time>
      </trkpt>
      <trkpt lat="59.9535338" lon="17.6785995">
        <ele>28.0155</ele>
        <time>2013-05-11T16:26:08Z</time>
      </trkpt>
      <trkpt lat="59.9535679" lon="17.6787065">
        <ele>28.4962</ele>
        <time>2013-05-11T16:26:09Z</time>
      </trkpt>
      <trkpt lat="59.9536032" lon="17.6788163">
        <ele>28.4962</ele>
        <time>2013-05-11T16:26:10Z</time>
      </trkpt>
      <trkpt lat="59.9536391" lon="17.6789267">
        <ele>28.4962</ele>
        <time>2013-05-11T16:26:11Z</time>
      </trkpt>
      <trkpt lat="59.9536749" lon="17.6790365">
        <ele>28.4962</ele>
        <time>2013-05-11T16:26:12Z</time>
      </trkpt>
      <trkpt lat="59.9537111" lon="17.6791438">
        <ele>28.9769</ele>
        <time>2013-05-11T16:26:13Z</time>
      </trkpt>
      <trkpt lat="59.9537473" lon="17.6792532">
        <ele>28.9769</ele>
        <time>2013-05-11T16:26:14Z</time>
      </trkpt>
      <trkpt lat="59.9537841" lon="17.6793641">
        <ele>28.9769</ele>
        <time>2013-05-11T16:26:15Z</time>
      </trkpt>
      <trkpt lat="59.9538197" lon="17.6794733">
        <ele>28.9769</ele>
        <time>2013-05-11T16:26:16Z</time>
      </trkpt>
      <trkpt lat="59.9538554" lon="17.6795822">
        <ele>28.4962</ele>
        <time>2013-05-11T16:26:17Z</time>
      </trkpt>
      <trkpt lat="59.9538916" lon="17.6796897">
        <ele>28.4962</ele>
        <time>2013-05-11T16:26:18Z</time>
      </trkpt>
      <trkpt lat="59.9539279" lon="17.6797966">
        <ele>28.4962</ele>
        <time>2013-05-11T16:26:19Z</time>
      </trkpt>
      <trkpt lat="59.9539629" lon="17.6799049">
        <ele>28.0155</ele>
        <time>2013-05-11T16:26:20Z</time>
      </trkpt>
      <trkpt lat="59.9539979" lon="17.6800127">
        <ele>28.0155</ele>
        <time>2013-05-11T16:26:21Z</time>
      </trkpt>
      <trkpt lat="59.9540342" lon="17.6801171">
        <ele>27.5349</ele>
        <time>2013-05-11T16:26:22Z</time>
      </trkpt>
      <trkpt lat="59.9540714" lon="17.6802203">
        <ele>27.5349</ele>
        <time>2013-05-11T16:26:23Z</time>
      </trkpt>
      <trkpt lat="59.9541084" lon="17.6803232">
        <ele>27.0543</ele>
        <time>2013-05-11T16:26:24Z</time>
      </trkpt>
      <trkpt lat="59.9541446" lon="17.680427">
        <ele>27.0543</ele>
        <time>2013-05-11T16:26:25Z</time>
      </trkpt>
      <trkpt lat="59.9541814" lon="17.6805307">
        <ele>27.0543</ele>
        <time>2013-05-11T16:26:26Z</time>
      </trkpt>
      <trkpt lat="59.9542171" lon="17.6806341">
        <ele>27.0543</ele>
        <time>2013-05-11T16:26:27Z</time>
      </trkpt>
      <trkpt lat="59.9542533" lon="17.6807416">
        <ele>27.5349</ele>
        <time>2013-05-11T16:26:28Z</time>
      </trkpt>
      <trkpt lat="59.9542902" lon="17.6808565">
        <ele>27.5349</ele>
        <time>2013-05-11T16:26:29Z</time>
      </trkpt>
      <trkpt lat="59.9543284" lon="17.6809776">
        <ele>27.5349</ele>
        <time>2013-05-11T16:26:30Z</time>
      </trkpt>
      <trkpt lat="59.9543677" lon="17.681101">
        <ele>27.5349</ele>
        <time>2013-05-11T16:26:31Z</time>
      </trkpt>
      <trkpt lat="59.9544079" lon="17.6812213">
        <ele>28.0155</ele>
        <time>2013-05-11T16:26:32Z</time>
      </trkpt>
      <trkpt lat="59.9544466" lon="17.6813382">
        <ele>28.0155</ele>
        <time>2013-05-11T16:26:33Z</time>
      </trkpt>
      <trkpt lat="59.9544834" lon="17.6814486">
        <ele>28.4962</ele>
        <time>2013-05-11T16:26:34Z</time>
      </trkpt>
      <trkpt lat="59.9545207" lon="17.6815553">
        <ele>28.4962</ele>
        <time>2013-05-11T16:26:35Z</time>
      </trkpt>
      <trkpt lat="59.9545595" lon="17.6816573">
        <ele>28.9769</ele>
        <time>2013-05-11T16:26:36Z</time>
      </trkpt>
      <trkpt lat="59.9545987" lon="17.6817552">
        <ele>29.4575</ele>
        <time>2013-05-11T16:26:37Z</time>
      </trkpt>
      <trkpt lat="59.9546393" lon="17.6818489">
        <ele>29.4575</ele>
        <time>2013-05-11T16:26:38Z</time>
      </trkpt>
      <trkpt lat="59.9546859" lon="17.6819278">
        <ele>29.4575</ele>
        <time>2013-05-11T16:26:39Z</time>
      </trkpt>
      <trkpt lat="59.9547381" lon="17.6819938">
        <ele>29.4575</ele>
        <time>2013-05-11T16:26:40Z</time>
      </trkpt>
      <trkpt lat="59.9547871" lon="17.6820671">
        <ele>29.4575</ele>
        <time>2013-05-11T16:26:41Z</time>
      </trkpt>
      <trkpt lat="59.9548289" lon="17.6821606">
        <ele>29.9381</ele>
        <time>2013-05-11T16:26:42Z</time>
      </trkpt>
      <trkpt lat="59.9548657" lon="17.6822653">
        <ele>30.4188</ele>
        <time>2013-05-11T16:26:43Z</time>
      </trkpt>
      <trkpt lat="59.9549029" lon="17.6823779">
        <ele>30.8995</ele>
        <time>2013-05-11T16:26:44Z</time>
      </trkpt>
      <trkpt lat="59.9549376" lon="17.6824982">
        <ele>30.8995</ele>
        <time>2013-05-11T16:26:45Z</time>
      </trkpt>
      <trkpt lat="59.9549714" lon="17.6826233">
        <ele>30.8995</ele>
        <time>2013-05-11T16:26:46Z</time>
      </trkpt>
      <trkpt lat="59.9550048" lon="17.6827514">
        <ele>30.8995</ele>
        <time>2013-05-11T16:26:47Z</time>
      </trkpt>
      <trkpt lat="59.9550403" lon="17.6828829">
        <ele>30.8995</ele>
        <time>2013-05-11T16:26:48Z</time>
      </trkpt>
      <trkpt lat="59.9550776" lon="17.6830184">
        <ele>30.8995</ele>
        <time>2013-05-11T16:26:49Z</time>
      </trkpt>
      <trkpt lat="59.9551133" lon="17.6831585">
        <ele>30.8995</ele>
        <time>2013-05-11T16:26:50Z</time>
      </trkpt>
      <trkpt lat="59.955148" lon="17.6833">
        <ele>30.8995</ele>
        <time>2013-05-11T16:26:51Z</time>
      </trkpt>
      <trkpt lat="59.9551821" lon="17.6834391">
        <ele>30.8995</ele>
        <time>2013-05-11T16:26:52Z</time>
      </trkpt>
      <trkpt lat="59.9552154" lon="17.6835796">
        <ele>30.8995</ele>
        <time>2013-05-11T16:26:53Z</time>
      </trkpt>
      <trkpt lat="59.955247" lon="17.68372">
        <ele>31.3801</ele>
        <time>2013-05-11T16:26:54Z</time>
      </trkpt>
      <trkpt lat="59.9552755" lon="17.6838594">
        <ele>31.3801</ele>
        <time>2013-05-11T16:26:55Z</time>
      </trkpt>
      <trkpt lat="59.9553032" lon="17.6839956">
        <ele>31.8607</ele>
        <time>2013-05-11T16:26:56Z</time>
      </trkpt>
      <trkpt lat="59.9553297" lon="17.6841287">
        <ele>31.8607</ele>
        <time>2013-05-11T16:26:57Z</time>
      </trkpt>
      <trkpt lat="59.9553546" lon="17.6842596">
        <ele>31.8607</ele>
        <time>2013-05-11T16:26:58Z</time>
      </trkpt>
      <trkpt lat="59.9553843" lon="17.6843987">
        <ele>30.4188</ele>
        <time>2013-05-11T16:26:59Z</time>
      </trkpt>
      <trkpt lat="59.9554059" lon="17.6845327">
        <ele>29.4575</ele>
        <time>2013-05-11T16:27:00Z</time>
      </trkpt>
      <trkpt lat="59.9554286" lon="17.6846643">
        <ele>29.9381</ele>
        <time>2013-05-11T16:27:01Z</time>
      </trkpt>
      <trkpt lat="59.9554536" lon="17.6847992">
        <ele>30.4188</ele>
        <time>2013-05-11T16:27:02Z</time>
      </trkpt>
      <trkpt lat="59.9554804" lon="17.6849348">
        <ele>30.8995</ele>
        <time>2013-05-11T16:27:03Z</time>
      </trkpt>
      <trkpt lat="59.9555035" lon="17.685081">
        <ele>30.4188</ele>
        <time>2013-05-11T16:27:04Z</time>
      </trkpt>
      <trkpt lat="59.9555216" lon="17.685228">
        <ele>29.9381</ele>
        <time>2013-05-11T16:27:05Z</time>
      </trkpt>
      <trkpt lat="59.9555415" lon="17.6853713">
        <ele>29.9381</ele>
        <time>2013-05-11T16:27:06Z</time>
      </trkpt>
      <trkpt lat="59.9555601" lon="17.6855111">
        <ele>29.9381</ele>
        <time>2013-05-11T16:27:07Z</time>
      </trkpt>
      <trkpt lat="59.9555781" lon="17.6856461">
        <ele>29.9381</ele>
        <time>2013-05-11T16:27:08Z</time>
      </trkpt>
      <trkpt lat="59.9555967" lon="17.6857792">
        <ele>29.9381</ele>
        <time>2013-05-11T16:27:09Z</time>
      </trkpt>
      <trkpt lat="59.9556138" lon="17.6859133">
        <ele>29.4575</ele>
        <time>2013-05-11T16:27:10Z</time>
      </trkpt>
      <trkpt lat="59.9556283" lon="17.6860433">
        <ele>29.4575</ele>
        <time>2013-05-11T16:27:11Z</time>
      </trkpt>
      <trkpt lat="59.9556427" lon="17.6861705">
        <ele>29.4575</ele>
        <time>2013-05-11T16:27:12Z</time>
      </trkpt>
      <trkpt lat="59.955661" lon="17.6862981">
        <ele>29.4575</ele>
        <time>2013-05-11T16:27:13Z</time>
      </trkpt>
      <trkpt lat="59.9556795" lon="17.6864252">
        <ele>29.4575</ele>
        <time>2013-05-11T16:27:14Z</time>
      </trkpt>
      <trkpt lat="59.9556956" lon="17.6865504">
        <ele>29.4575</ele>
        <time>2013-05-11T16:27:15Z</time>
      </trkpt>
      <trkpt lat="59.955713" lon="17.6866716">
        <ele>29.9381</ele>
        <time>2013-05-11T16:27:16Z</time>
      </trkpt>
      <trkpt lat="59.9557319" lon="17.6867888">
        <ele>29.9381</ele>
        <time>2013-05-11T16:27:17Z</time>
      </trkpt>
      <trkpt lat="59.955752" lon="17.6869095">
        <ele>29.9381</ele>
        <time>2013-05-11T16:27:18Z</time>
      </trkpt>
      <trkpt lat="59.95577" lon="17.6870361">
        <ele>29.9381</ele>
        <time>2013-05-11T16:27:19Z</time>
      </trkpt>
      <trkpt lat="59.9557882" lon="17.6871669">
        <ele>29.9381</ele>
        <time>2013-05-11T16:27:20Z</time>
      </trkpt>
      <trkpt lat="59.955808" lon="17.6873005">
        <ele>30.4188</ele>
        <time>2013-05-11T16:27:21Z</time>
      </trkpt>
      <trkpt lat="59.95583" lon="17.6874404">
        <ele>30.4188</ele>
        <time>2013-05-11T16:27:22Z</time>
      </trkpt>
      <trkpt lat="59.9558493" lon="17.6875837">
        <ele>30.4188</ele>
        <time>2013-05-11T16:27:23Z</time>
      </trkpt>
      <trkpt lat="59.955867" lon="17.6877261">
        <ele>30.4188</ele>
        <time>2013-05-11T16:27:24Z</time>
      </trkpt>
      <trkpt lat="59.9558877" lon="17.6878647">
        <ele>30.4188</ele>
        <time>2013-05-11T16:27:25Z</time>
      </trkpt>
      <trkpt lat="59.9559105" lon="17.6879999">
        <ele>30.8995</ele>
        <time>2013-05-11T16:27:26Z</time>
      </trkpt>
      <trkpt lat="59.9559334" lon="17.6881315">
        <ele>30.8995</ele>
        <time>2013-05-11T16:27:27Z</time>
      </trkpt>
      <trkpt lat="59.9559559" lon="17.6882587">
        <ele>31.3801</ele>
        <time>2013-05-11T16:27:28Z</time>
      </trkpt>
      <trkpt lat="59.9559771" lon="17.6883806">
        <ele>31.8607</ele>
        <time>2013-05-11T16:27:29Z</time>
      </trkpt>
      <trkpt lat="59.955996" lon="17.688493">
        <ele>31.8607</ele>
        <time>2013-05-11T16:27:30Z</time>
      </trkpt>
      <trkpt lat="59.9560105" lon="17.6885909">
        <ele>31.8607</ele>
        <time>2013-05-11T16:27:31Z</time>
      </trkpt>
      <trkpt lat="59.9560229" lon="17.6886671">
        <ele>32.3416</ele>
        <time>2013-05-11T16:27:32Z</time>
      </trkpt>
      <trkpt lat="59.9560339" lon="17.6887252">
        <ele>32.8223</ele>
        <time>2013-05-11T16:27:33Z</time>
      </trkpt>
      <trkpt lat="59.956038" lon="17.6887722">
        <ele>32.8223</ele>
        <time>2013-05-11T16:27:34Z</time>
      </trkpt>
      <trkpt lat="59.9560447" lon="17.6888134">
        <ele>33.3029</ele>
        <time>2013-05-11T16:27:35Z</time>
      </trkpt>
      <trkpt lat="59.9560538" lon="17.6888551">
        <ele>33.3029</ele>
        <time>2013-05-11T16:27:36Z</time>
      </trkpt>
      <trkpt lat="59.956054" lon="17.6889002">
        <ele>33.3029</ele>
        <time>2013-05-11T16:27:37Z</time>
      </trkpt>
      <trkpt lat="59.9560533" lon="17.6889512">
        <ele>32.8223</ele>
        <time>2013-05-11T16:27:38Z</time>
      </trkpt>
      <trkpt lat="59.9560652" lon="17.6890044">
        <ele>32.3416</ele>
        <time>2013-05-11T16:27:39Z</time>
      </trkpt>
      <trkpt lat="59.9560855" lon="17.6890391">
        <ele>31.3801</ele>
        <time>2013-05-11T16:27:40Z</time>
      </trkpt>
      <trkpt lat="59.956115" lon="17.6890789">
        <ele>30.8995</ele>
        <time>2013-05-11T16:27:41Z</time>
      </trkpt>
      <trkpt lat="59.956151" lon="17.6891384">
        <ele>30.4188</ele>
        <time>2013-05-11T16:27:42Z</time>
      </trkpt>
      <trkpt lat="59.9561872" lon="17.689209">
        <ele>30.4188</ele>
        <time>2013-05-11T16:27:43Z</time>
      </trkpt>
      <trkpt lat="59.9562187" lon="17.6892854">
        <ele>31.3801</ele>
        <time>2013-05-11T16:27:44Z</time>
      </trkpt>
      <trkpt lat="59.9562448" lon="17.6893762">
        <ele>30.8995</ele>
        <time>2013-05-11T16:27:45Z</time>
      </trkpt>
      <trkpt lat="59.9562655" lon="17.6894723">
        <ele>30.4188</ele>
        <time>2013-05-11T16:27:46Z</time>
      </trkpt>
      <trkpt lat="59.9562848" lon="17.6895704">
        <ele>30.4188</ele>
        <time>2013-05-11T16:27:47Z</time>
      </trkpt>
      <trkpt lat="59.9563057" lon="17.6896715">
        <ele>29.9381</ele>
        <time>2013-05-11T16:27:48Z</time>
      </trkpt>
      <trkpt lat="59.9563263" lon="17.6897813">
        <ele>29.9381</ele>
        <time>2013-05-11T16:27:49Z</time>
      </trkpt>
      <trkpt lat="59.9563482" lon="17.6898914">
        <ele>29.9381</ele>
        <time>2013-05-11T16:27:50Z</time>
      </trkpt>
      <trkpt lat="59.9563747" lon="17.6899966">
        <ele>29.9381</ele>
        <time>2013-05-11T16:27:51Z</time>
      </trkpt>
      <trkpt lat="59.9564" lon="17.6900958">
        <ele>29.9381</ele>
        <time>2013-05-11T16:27:52Z</time>
      </trkpt>
      <trkpt lat="59.9564228" lon="17.6901957">
        <ele>30.4188</ele>
        <time>2013-05-11T16:27:53Z</time>
      </trkpt>
      <trkpt lat="59.956445" lon="17.6902926">
        <ele>29.9381</ele>
        <time>2013-05-11T16:27:54Z</time>
      </trkpt>
      <trkpt lat="59.956467" lon="17.6903853">
        <ele>30.4188</ele>
        <time>2013-05-11T16:27:55Z</time>
      </trkpt>
      <trkpt lat="59.9564923" lon="17.6904819">
        <ele>30.8995</ele>
        <time>2013-05-11T16:27:56Z</time>
      </trkpt>
      <trkpt lat="59.9565209" lon="17.6905708">
        <ele>30.4188</ele>
        <time>2013-05-11T16:27:57Z</time>
      </trkpt>
      <trkpt lat="59.9565574" lon="17.6906565">
        <ele>29.9381</ele>
        <time>2013-05-11T16:27:58Z</time>
      </trkpt>
      <trkpt lat="59.9565949" lon="17.69075">
        <ele>29.9381</ele>
        <time>2013-05-11T16:27:59Z</time>
      </trkpt>
      <trkpt lat="59.9566321" lon="17.6908514">
        <ele>29.9381</ele>
        <time>2013-05-11T16:28:00Z</time>
      </trkpt>
      <trkpt lat="59.9566656" lon="17.6909576">
        <ele>29.9381</ele>
        <time>2013-05-11T16:28:01Z</time>
      </trkpt>
      <trkpt lat="59.9567079" lon="17.6910628">
        <ele>30.8995</ele>
        <time>2013-05-11T16:28:02Z</time>
      </trkpt>
      <trkpt lat="59.9567471" lon="17.6911719">
        <ele>29.9381</ele>
        <time>2013-05-11T16:28:03Z</time>
      </trkpt>
      <trkpt lat="59.9567847" lon="17.6912892">
        <ele>29.4575</ele>
        <time>2013-05-11T16:28:04Z</time>
      </trkpt>
      <trkpt lat="59.9568248" lon="17.69141">
        <ele>29.4575</ele>
        <time>2013-05-11T16:28:05Z</time>
      </trkpt>
      <trkpt lat="59.9568668" lon="17.6915331">
        <ele>29.4575</ele>
        <time>2013-05-11T16:28:06Z</time>
      </trkpt>
      <trkpt lat="59.9569192" lon="17.6916529">
        <ele>30.4188</ele>
        <time>2013-05-11T16:28:07Z</time>
      </trkpt>
      <trkpt lat="59.9569722" lon="17.6917733">
        <ele>30.8995</ele>
        <time>2013-05-11T16:28:08Z</time>
      </trkpt>
      <trkpt lat="59.9570427" lon="17.6918868">
        <ele>31.3801</ele>
        <time>2013-05-11T16:28:09Z</time>
      </trkpt>
      <trkpt lat="59.9570813" lon="17.6920129">
        <ele>31.8607</ele>
        <time>2013-05-11T16:28:10Z</time>
      </trkpt>
      <trkpt lat="59.9571189" lon="17.6921366">
        <ele>31.3801</ele>
        <time>2013-05-11T16:28:11Z</time>
      </trkpt>
      <trkpt lat="59.957158" lon="17.6922584">
        <ele>30.8995</ele>
        <time>2013-05-11T16:28:12Z</time>
      </trkpt>
      <trkpt lat="59.9571927" lon="17.6923847">
        <ele>30.4188</ele>
        <time>2013-05-11T16:28:13Z</time>
      </trkpt>
      <trkpt lat="59.9572328" lon="17.6925006">
        <ele>30.4188</ele>
        <time>2013-05-11T16:28:14Z</time>
      </trkpt>
      <trkpt lat="59.9572713" lon="17.6926116">
        <ele>29.9381</ele>
        <time>2013-05-11T16:28:15Z</time>
      </trkpt>
      <trkpt lat="59.9573096" lon="17.6927213">
        <ele>29.9381</ele>
        <time>2013-05-11T16:28:16Z</time>
      </trkpt>
      <trkpt lat="59.9573447" lon="17.6928308">
        <ele>29.4575</ele>
        <time>2013-05-11T16:28:17Z</time>
      </trkpt>
      <trkpt lat="59.9573827" lon="17.6929391">
        <ele>29.4575</ele>
        <time>2013-05-11T16:28:18Z</time>
      </trkpt>
      <trkpt lat="59.9574206" lon="17.6930441">
        <ele>29.4575</ele>
        <time>2013-05-11T16:28:19Z</time>
      </trkpt>
      <trkpt lat="59.9574583" lon="17.6931463">
        <ele>29.9381</ele>
        <time>2013-05-11T16:28:20Z</time>
      </trkpt>
      <trkpt lat="59.9574949" lon="17.6932473">
        <ele>29.9381</ele>
        <time>2013-05-11T16:28:21Z</time>
      </trkpt>
      <trkpt lat="59.9575301" lon="17.6933473">
        <ele>30.4188</ele>
        <time>2013-05-11T16:28:22Z</time>
      </trkpt>
      <trkpt lat="59.9575635" lon="17.6934473">
        <ele>29.9381</ele>
        <time>2013-05-11T16:28:23Z</time>
      </trkpt>
      <trkpt lat="59.9575949" lon="17.6935454">
        <ele>29.9381</ele>
        <time>2013-05-11T16:28:24Z</time>
      </trkpt>
      <trkpt lat="59.9576257" lon="17.6936434">
        <ele>30.4188</ele>
        <time>2013-05-11T16:28:25Z</time>
      </trkpt>
      <trkpt lat="59.9576605" lon="17.6937424">
        <ele>31.3801</ele>
        <time>2013-05-11T16:28:26Z</time>
      </trkpt>
      <trkpt lat="59.9576941" lon="17.6938462">
        <ele>31.8607</ele>
        <time>2013-05-11T16:28:27Z</time>
      </trkpt>
      <trkpt lat="59.9577287" lon="17.6939523">
        <ele>32.3416</ele>
        <time>2013-05-11T16:28:28Z</time>
      </trkpt>
      <trkpt lat="59.957764" lon="17.694065">
        <ele>31.8607</ele>
        <time>2013-05-11T16:28:29Z</time>
      </trkpt>
      <trkpt lat="59.9578013" lon="17.6941811">
        <ele>31.3801</ele>
        <time>2013-05-11T16:28:30Z</time>
      </trkpt>
      <trkpt lat="59.9578437" lon="17.6942947">
        <ele>31.3801</ele>
        <time>2013-05-11T16:28:31Z</time>
      </trkpt>
      <trkpt lat="59.9578898" lon="17.6944026">
        <ele>31.8607</ele>
        <time>2013-05-11T16:28:32Z</time>
      </trkpt>
      <trkpt lat="59.9579298" lon="17.6945191">
        <ele>31.8607</ele>
        <time>2013-05-11T16:28:33Z</time>
      </trkpt>
      <trkpt lat="59.9579746" lon="17.694641">
        <ele>31.8607</ele>
        <time>2013-05-11T16:28:34Z</time>
      </trkpt>
      <trkpt lat="59.9580152" lon="17.6947589">
        <ele>31.8607</ele>
        <time>2013-05-11T16:28:35Z</time>
      </trkpt>
      <trkpt lat="59.9580458" lon="17.694879">
        <ele>31.3801</ele>
        <time>2013-05-11T16:28:36Z</time>
      </trkpt>
      <trkpt lat="59.9580774" lon="17.6949929">
        <ele>31.3801</ele>
        <time>2013-05-11T16:28:37Z</time>
      </trkpt>
      <trkpt lat="59.9581101" lon="17.6951006">
        <ele>30.8995</ele>
        <time>2013-05-11T16:28:38Z</time>
      </trkpt>
      <trkpt lat="59.9581447" lon="17.6952024">
        <ele>30.8995</ele>
        <time>2013-05-11T16:28:39Z</time>
      </trkpt>
      <trkpt lat="59.9581793" lon="17.6953017">
        <ele>30.8995</ele>
        <time>2013-05-11T16:28:40Z</time>
      </trkpt>
      <trkpt lat="59.9582158" lon="17.6953965">
        <ele>30.4188</ele>
        <time>2013-05-11T16:28:41Z</time>
      </trkpt>
      <trkpt lat="59.958253" lon="17.6954893">
        <ele>30.4188</ele>
        <time>2013-05-11T16:28:42Z</time>
      </trkpt>
      <trkpt lat="59.9582927" lon="17.6955859">
        <ele>30.4188</ele>
        <time>2013-05-11T16:28:43Z</time>
      </trkpt>
      <trkpt lat="59.9583379" lon="17.6956835">
        <ele>29.9381</ele>
        <time>2013-05-11T16:28:44Z</time>
      </trkpt>
      <trkpt lat="59.9583844" lon="17.6957834">
        <ele>29.9381</ele>
        <time>2013-05-11T16:28:45Z</time>
      </trkpt>
      <trkpt lat="59.9584301" lon="17.695887">
        <ele>29.4575</ele>
        <time>2013-05-11T16:28:46Z</time>
      </trkpt>
      <trkpt lat="59.9584746" lon="17.6959964">
        <ele>29.4575</ele>
        <time>2013-05-11T16:28:47Z</time>
      </trkpt>
      <trkpt lat="59.9585192" lon="17.6961088">
        <ele>29.9381</ele>
        <time>2013-05-11T16:28:48Z</time>
      </trkpt>
      <trkpt lat="59.9585638" lon="17.6962294">
        <ele>29.9381</ele>
        <time>2013-05-11T16:28:49Z</time>
      </trkpt>
      <trkpt lat="59.9586067" lon="17.6963583">
        <ele>29.9381</ele>
        <time>2013-05-11T16:28:50Z</time>
      </trkpt>
      <trkpt lat="59.9586498" lon="17.6964807">
        <ele>29.9381</ele>
        <time>2013-05-11T16:28:51Z</time>
      </trkpt>
      <trkpt lat="59.9586867" lon="17.6965999">
        <ele>31.3801</ele>
        <time>2013-05-11T16:28:52Z</time>
      </trkpt>
      <trkpt lat="59.9587229" lon="17.6967204">
        <ele>31.3801</ele>
        <time>2013-05-11T16:28:53Z</time>
      </trkpt>
      <trkpt lat="59.958756" lon="17.6968412">
        <ele>31.3801</ele>
        <time>2013-05-11T16:28:54Z</time>
      </trkpt>
      <trkpt lat="59.9587834" lon="17.6969638">
        <ele>31.3801</ele>
        <time>2013-05-11T16:28:55Z</time>
      </trkpt>
      <trkpt lat="59.9588045" lon="17.6970857">
        <ele>31.3801</ele>
        <time>2013-05-11T16:28:56Z</time>
      </trkpt>
      <trkpt lat="59.9588246" lon="17.6972055">
        <ele>30.8995</ele>
        <time>2013-05-11T16:28:57Z</time>
      </trkpt>
      <trkpt lat="59.9588467" lon="17.6973208">
        <ele>30.8995</ele>
        <time>2013-05-11T16:28:58Z</time>
      </trkpt>
      <trkpt lat="59.9588684" lon="17.6974378">
        <ele>30.8995</ele>
        <time>2013-05-11T16:28:59Z</time>
      </trkpt>
      <trkpt lat="59.9588891" lon="17.6975564">
        <ele>31.3801</ele>
        <time>2013-05-11T16:29:00Z</time>
      </trkpt>
      <trkpt lat="59.9589122" lon="17.6976667">
        <ele>31.8607</ele>
        <time>2013-05-11T16:29:01Z</time>
      </trkpt>
      <trkpt lat="59.9589321" lon="17.6977677">
        <ele>31.8607</ele>
        <time>2013-05-11T16:29:02Z</time>
      </trkpt>
      <trkpt lat="59.9589445" lon="17.697861">
        <ele>31.8607</ele>
        <time>2013-05-11T16:29:03Z</time>
      </trkpt>
      <trkpt lat="59.9589542" lon="17.6979472">
        <ele>32.3416</ele>
        <time>2013-05-11T16:29:04Z</time>
      </trkpt>
      <trkpt lat="59.9589616" lon="17.6980284">
        <ele>31.8607</ele>
        <time>2013-05-11T16:29:05Z</time>
      </trkpt>
      <trkpt lat="59.9589673" lon="17.6981043">
        <ele>31.8607</ele>
        <time>2013-05-11T16:29:06Z</time>
      </trkpt>
      <trkpt lat="59.958971" lon="17.6981767">
        <ele>31.3801</ele>
        <time>2013-05-11T16:29:07Z</time>
      </trkpt>
      <trkpt lat="59.958974" lon="17.6982474">
        <ele>31.3801</ele>
        <time>2013-05-11T16:29:08Z</time>
      </trkpt>
      <trkpt lat="59.9589791" lon="17.6983174">
        <ele>31.3801</ele>
        <time>2013-05-11T16:29:09Z</time>
      </trkpt>
      <trkpt lat="59.9589861" lon="17.6983869">
        <ele>30.4188</ele>
        <time>2013-05-11T16:29:10Z</time>
      </trkpt>
      <trkpt lat="59.9589917" lon="17.6984522">
        <ele>30.4188</ele>
        <time>2013-05-11T16:29:11Z</time>
      </trkpt>
      <trkpt lat="59.9589953" lon="17.6985218">
        <ele>29.9381</ele>
        <time>2013-05-11T16:29:12Z</time>
      </trkpt>
      <trkpt lat="59.9589942" lon="17.6985952">
        <ele>29.4575</ele>
        <time>2013-05-11T16:29:13Z</time>
      </trkpt>
      <trkpt lat="59.9589932" lon="17.6986739">
        <ele>29.4575</ele>
        <time>2013-05-11T16:29:14Z</time>
      </trkpt>
      <trkpt lat="59.9589947" lon="17.6987573">
        <ele>29.4575</ele>
        <time>2013-05-11T16:29:15Z</time>
      </trkpt>
      <trkpt lat="59.9589979" lon="17.6988444">
        <ele>29.4575</ele>
        <time>2013-05-11T16:29:16Z</time>
      </trkpt>
      <trkpt lat="59.9590023" lon="17.6989345">
        <ele>29.4575</ele>
        <time>2013-05-11T16:29:17Z</time>
      </trkpt>
      <trkpt lat="59.9590059" lon="17.6990287">
        <ele>29.9381</ele>
        <time>2013-05-11T16:29:18Z</time>
      </trkpt>
      <trkpt lat="59.9590059" lon="17.6991239">
        <ele>29.4575</ele>
        <time>2013-05-11T16:29:19Z</time>
      </trkpt>
      <trkpt lat="59.9590089" lon="17.6992216">
        <ele>28.9769</ele>
        <time>2013-05-11T16:29:20Z</time>
      </trkpt>
      <trkpt lat="59.9590134" lon="17.6993204">
        <ele>28.9769</ele>
        <time>2013-05-11T16:29:21Z</time>
      </trkpt>
      <trkpt lat="59.9590169" lon="17.6994171">
        <ele>28.9769</ele>
        <time>2013-05-11T16:29:22Z</time>
      </trkpt>
      <trkpt lat="59.9590207" lon="17.6995136">
        <ele>28.9769</ele>
        <time>2013-05-11T16:29:23Z</time>
      </trkpt>
      <trkpt lat="59.9590287" lon="17.6996099">
        <ele>29.4575</ele>
        <time>2013-05-11T16:29:24Z</time>
      </trkpt>
      <trkpt lat="59.9590353" lon="17.6997043">
        <ele>29.9381</ele>
        <time>2013-05-11T16:29:25Z</time>
      </trkpt>
      <trkpt lat="59.9590461" lon="17.6997986">
        <ele>29.9381</ele>
        <time>2013-05-11T16:29:26Z</time>
      </trkpt>
      <trkpt lat="59.9590593" lon="17.6998924">
        <ele>30.4188</ele>
        <time>2013-05-11T16:29:27Z</time>
      </trkpt>
      <trkpt lat="59.9590708" lon="17.6999881">
        <ele>30.4188</ele>
        <time>2013-05-11T16:29:28Z</time>
      </trkpt>
      <trkpt lat="59.9590803" lon="17.7000841">
        <ele>30.8995</ele>
        <time>2013-05-11T16:29:29Z</time>
      </trkpt>
      <trkpt lat="59.9590873" lon="17.7001817">
        <ele>30.8995</ele>
        <time>2013-05-11T16:29:30Z</time>
      </trkpt>
      <trkpt lat="59.9590942" lon="17.700284">
        <ele>31.3801</ele>
        <time>2013-05-11T16:29:31Z</time>
      </trkpt>
      <trkpt lat="59.9591025" lon="17.700391">
        <ele>31.3801</ele>
        <time>2013-05-11T16:29:32Z</time>
      </trkpt>
      <trkpt lat="59.9591101" lon="17.7005011">
        <ele>31.8607</ele>
        <time>2013-05-11T16:29:33Z</time>
      </trkpt>
      <trkpt lat="59.9591186" lon="17.7006134">
        <ele>31.8607</ele>
        <time>2013-05-11T16:29:34Z</time>
      </trkpt>
      <trkpt lat="59.959131" lon="17.7007243">
        <ele>32.3416</ele>
        <time>2013-05-11T16:29:35Z</time>
      </trkpt>
      <trkpt lat="59.9591437" lon="17.7008325">
        <ele>32.3416</ele>
        <time>2013-05-11T16:29:36Z</time>
      </trkpt>
      <trkpt lat="59.9591531" lon="17.7009366">
        <ele>32.8223</ele>
        <time>2013-05-11T16:29:37Z</time>
      </trkpt>
      <trkpt lat="59.9591635" lon="17.7010398">
        <ele>32.3416</ele>
        <time>2013-05-11T16:29:38Z</time>
      </trkpt>
      <trkpt lat="59.959176" lon="17.7011402">
        <ele>32.8223</ele>
        <time>2013-05-11T16:29:39Z</time>
      </trkpt>
      <trkpt lat="59.9591881" lon="17.7012397">
        <ele>32.8223</ele>
        <time>2013-05-11T16:29:40Z</time>
      </trkpt>
      <trkpt lat="59.9591992" lon="17.701335">
        <ele>32.8223</ele>
        <time>2013-05-11T16:29:41Z</time>
      </trkpt>
      <trkpt lat="59.9592123" lon="17.7014301">
        <ele>32.3416</ele>
        <time>2013-05-11T16:29:42Z</time>
      </trkpt>
      <trkpt lat="59.9592273" lon="17.7015183">
        <ele>32.8223</ele>
        <time>2013-05-11T16:29:43Z</time>
      </trkpt>
      <trkpt lat="59.9592448" lon="17.701605">
        <ele>32.8223</ele>
        <time>2013-05-11T16:29:44Z</time>
      </trkpt>
      <trkpt lat="59.9592641" lon="17.7016891">
        <ele>33.7834</ele>
        <time>2013-05-11T16:29:45Z</time>
      </trkpt>
      <trkpt lat="59.9592883" lon="17.7017718">
        <ele>34.2642</ele>
        <time>2013-05-11T16:29:46Z</time>
      </trkpt>
      <trkpt lat="59.9593087" lon="17.7018544">
        <ele>35.2255</ele>
        <time>2013-05-11T16:29:47Z</time>
      </trkpt>
      <trkpt lat="59.9593294" lon="17.7019351">
        <ele>36.1868</ele>
        <time>2013-05-11T16:29:48Z</time>
      </trkpt>
      <trkpt lat="59.9593496" lon="17.7020166">
        <ele>36.6675</ele>
        <time>2013-05-11T16:29:49Z</time>
      </trkpt>
      <trkpt lat="59.9593786" lon="17.702097">
        <ele>37.1481</ele>
        <time>2013-05-11T16:29:50Z</time>
      </trkpt>
      <trkpt lat="59.9594064" lon="17.7021778">
        <ele>37.1481</ele>
        <time>2013-05-11T16:29:51Z</time>
      </trkpt>
      <trkpt lat="59.9594309" lon="17.7022586">
        <ele>37.6287</ele>
        <time>2013-05-11T16:29:52Z</time>
      </trkpt>
      <trkpt lat="59.9594589" lon="17.7023394">
        <ele>37.6287</ele>
        <time>2013-05-11T16:29:53Z</time>
      </trkpt>
      <trkpt lat="59.9594853" lon="17.7024258">
        <ele>38.1094</ele>
        <time>2013-05-11T16:29:54Z</time>
      </trkpt>
      <trkpt lat="59.9595113" lon="17.7025149">
        <ele>38.5901</ele>
        <time>2013-05-11T16:29:55Z</time>
      </trkpt>
      <trkpt lat="59.9595364" lon="17.7026014">
        <ele>39.0707</ele>
        <time>2013-05-11T16:29:56Z</time>
      </trkpt>
      <trkpt lat="59.9595638" lon="17.7026831">
        <ele>39.5513</ele>
        <time>2013-05-11T16:29:57Z</time>
      </trkpt>
      <trkpt lat="59.9595869" lon="17.7027612">
        <ele>40.0321</ele>
        <time>2013-05-11T16:29:58Z</time>
      </trkpt>
      <trkpt lat="59.9596106" lon="17.7028357">
        <ele>40.5128</ele>
        <time>2013-05-11T16:29:59Z</time>
      </trkpt>
      <trkpt lat="59.9596355" lon="17.7029111">
        <ele>40.9934</ele>
        <time>2013-05-11T16:30:00Z</time>
      </trkpt>
      <trkpt lat="59.9596624" lon="17.7029863">
        <ele>41.9547</ele>
        <time>2013-05-11T16:30:01Z</time>
      </trkpt>
      <trkpt lat="59.9596882" lon="17.7030609">
        <ele>43.3966</ele>
        <time>2013-05-11T16:30:02Z</time>
      </trkpt>
      <trkpt lat="59.9597107" lon="17.7031439">
        <ele>43.3966</ele>
        <time>2013-05-11T16:30:03Z</time>
      </trkpt>
      <trkpt lat="59.959735" lon="17.7032307">
        <ele>43.8773</ele>
        <time>2013-05-11T16:30:04Z</time>
      </trkpt>
      <trkpt lat="59.9597639" lon="17.7033139">
        <ele>44.8386</ele>
        <time>2013-05-11T16:30:05Z</time>
      </trkpt>
      <trkpt lat="59.959792" lon="17.7033986">
        <ele>45.3192</ele>
        <time>2013-05-11T16:30:06Z</time>
      </trkpt>
      <trkpt lat="59.9598211" lon="17.7034829">
        <ele>46.2806</ele>
        <time>2013-05-11T16:30:07Z</time>
      </trkpt>
      <trkpt lat="59.9598415" lon="17.7035891">
        <ele>46.2806</ele>
        <time>2013-05-11T16:30:08Z</time>
      </trkpt>
      <trkpt lat="59.9598614" lon="17.7037043">
        <ele>45.7999</ele>
        <time>2013-05-11T16:30:09Z</time>
      </trkpt>
      <trkpt lat="59.9599164" lon="17.7038233">
        <ele>46.2806</ele>
        <time>2013-05-11T16:30:10Z</time>
      </trkpt>
      <trkpt lat="59.9599598" lon="17.7039265">
        <ele>46.7612</ele>
        <time>2013-05-11T16:30:11Z</time>
      </trkpt>
      <trkpt lat="59.9599716" lon="17.7040452">
        <ele>46.7612</ele>
        <time>2013-05-11T16:30:12Z</time>
      </trkpt>
      <trkpt lat="59.9599948" lon="17.7041291">
        <ele>46.7612</ele>
        <time>2013-05-11T16:30:13Z</time>
      </trkpt>
      <trkpt lat="59.9600402" lon="17.7041926">
        <ele>45.7999</ele>
        <time>2013-05-11T16:30:14Z</time>
      </trkpt>
      <trkpt lat="59.960083" lon="17.7042281">
        <ele>44.8386</ele>
        <time>2013-05-11T16:30:15Z</time>
      </trkpt>
      <trkpt lat="59.9601313" lon="17.704266">
        <ele>44.358</ele>
        <time>2013-05-11T16:30:16Z</time>
      </trkpt>
      <trkpt lat="59.9601739" lon="17.7043102">
        <ele>43.3966</ele>
        <time>2013-05-11T16:30:17Z</time>
      </trkpt>
      <trkpt lat="59.9602228" lon="17.7043441">
        <ele>40.9934</ele>
        <time>2013-05-11T16:30:18Z</time>
      </trkpt>
      <trkpt lat="59.9602766" lon="17.7043996">
        <ele>38.1094</ele>
        <time>2013-05-11T16:30:19Z</time>
      </trkpt>
      <trkpt lat="59.9603426" lon="17.704414">
        <ele>36.6675</ele>
        <time>2013-05-11T16:30:20Z</time>
      </trkpt>
      <trkpt lat="59.9603875" lon="17.70449">
        <ele>34.7449</ele>
        <time>2013-05-11T16:30:21Z</time>
      </trkpt>
      <trkpt lat="59.9604379" lon="17.7045641">
        <ele>32.8223</ele>
        <time>2013-05-11T16:30:22Z</time>
      </trkpt>
      <trkpt lat="59.9604856" lon="17.7046182">
        <ele>31.8607</ele>
        <time>2013-05-11T16:30:23Z</time>
      </trkpt>
      <trkpt lat="59.9605488" lon="17.7046687">
        <ele>33.3029</ele>
        <time>2013-05-11T16:30:24Z</time>
      </trkpt>
      <trkpt lat="59.9605877" lon="17.7047382">
        <ele>32.8223</ele>
        <time>2013-05-11T16:30:25Z</time>
      </trkpt>
      <trkpt lat="59.9606263" lon="17.704802">
        <ele>32.3416</ele>
        <time>2013-05-11T16:30:26Z</time>
      </trkpt>
      <trkpt lat="59.9606659" lon="17.7048616">
        <ele>32.8223</ele>
        <time>2013-05-11T16:30:27Z</time>
      </trkpt>
      <trkpt lat="59.9607025" lon="17.7049206">
        <ele>33.7834</ele>
        <time>2013-05-11T16:30:28Z</time>
      </trkpt>
      <trkpt lat="59.9607305" lon="17.7049917">
        <ele>34.7449</ele>
        <time>2013-05-11T16:30:29Z</time>
      </trkpt>
      <trkpt lat="59.9607638" lon="17.7050579">
        <ele>35.7061</ele>
        <time>2013-05-11T16:30:30Z</time>
      </trkpt>
      <trkpt lat="59.9607979" lon="17.7051252">
        <ele>35.2255</ele>
        <time>2013-05-11T16:30:31Z</time>
      </trkpt>
      <trkpt lat="59.9608381" lon="17.7051909">
        <ele>34.7449</ele>
        <time>2013-05-11T16:30:32Z</time>
      </trkpt>
      <trkpt lat="59.9608776" lon="17.705249">
        <ele>35.2255</ele>
        <time>2013-05-11T16:30:33Z</time>
      </trkpt>
      <trkpt lat="59.9609157" lon="17.7053179">
        <ele>35.2255</ele>
        <time>2013-05-11T16:30:34Z</time>
      </trkpt>
      <trkpt lat="59.9609606" lon="17.7053982">
        <ele>35.7061</ele>
        <time>2013-05-11T16:30:35Z</time>
      </trkpt>
      <trkpt lat="59.961005" lon="17.7054709">
        <ele>35.7061</ele>
        <time>2013-05-11T16:30:36Z</time>
      </trkpt>
      <trkpt lat="59.9610518" lon="17.7055505">
        <ele>35.2255</ele>
        <time>2013-05-11T16:30:37Z</time>
      </trkpt>
      <trkpt lat="59.9611027" lon="17.7056312">
        <ele>34.7449</ele>
        <time>2013-05-11T16:30:38Z</time>
      </trkpt>
      <trkpt lat="59.9611543" lon="17.7057194">
        <ele>35.2255</ele>
        <time>2013-05-11T16:30:39Z</time>
      </trkpt>
      <trkpt lat="59.9612011" lon="17.7058124">
        <ele>35.2255</ele>
        <time>2013-05-11T16:30:40Z</time>
      </trkpt>
      <trkpt lat="59.9612505" lon="17.7058928">
        <ele>36.1868</ele>
        <time>2013-05-11T16:30:41Z</time>
      </trkpt>
      <trkpt lat="59.9612954" lon="17.7059789">
        <ele>35.2255</ele>
        <time>2013-05-11T16:30:42Z</time>
      </trkpt>
      <trkpt lat="59.9613391" lon="17.7060723">
        <ele>34.2642</ele>
        <time>2013-05-11T16:30:43Z</time>
      </trkpt>
      <trkpt lat="59.9613812" lon="17.7061614">
        <ele>33.7834</ele>
        <time>2013-05-11T16:30:44Z</time>
      </trkpt>
      <trkpt lat="59.9614308" lon="17.7062398">
        <ele>34.2642</ele>
        <time>2013-05-11T16:30:45Z</time>
      </trkpt>
      <trkpt lat="59.9614787" lon="17.7063151">
        <ele>35.2255</ele>
        <time>2013-05-11T16:30:46Z</time>
      </trkpt>
      <trkpt lat="59.9615289" lon="17.7063908">
        <ele>35.7061</ele>
        <time>2013-05-11T16:30:47Z</time>
      </trkpt>
      <trkpt lat="59.9615833" lon="17.7064621">
        <ele>35.7061</ele>
        <time>2013-05-11T16:30:48Z</time>
      </trkpt>
      <trkpt lat="59.9616396" lon="17.7065307">
        <ele>35.7061</ele>
        <time>2013-05-11T16:30:49Z</time>
      </trkpt>
      <trkpt lat="59.9616988" lon="17.7065975">
        <ele>35.7061</ele>
        <time>2013-05-11T16:30:50Z</time>
      </trkpt>
      <trkpt lat="59.9617639" lon="17.7066569">
        <ele>35.7061</ele>
        <time>2013-05-11T16:30:51Z</time>
      </trkpt>
      <trkpt lat="59.9618276" lon="17.7067096">
        <ele>35.7061</ele>
        <time>2013-05-11T16:30:52Z</time>
      </trkpt>
      <trkpt lat="59.961892" lon="17.7067599">
        <ele>35.2255</ele>
        <time>2013-05-11T16:30:53Z</time>
      </trkpt>
      <trkpt lat="59.9619562" lon="17.7067979">
        <ele>35.7061</ele>
        <time>2013-05-11T16:30:54Z</time>
      </trkpt>
      <trkpt lat="59.9620197" lon="17.7068383">
        <ele>35.2255</ele>
        <time>2013-05-11T16:30:55Z</time>
      </trkpt>
      <trkpt lat="59.9620842" lon="17.7068754">
        <ele>35.7061</ele>
        <time>2013-05-11T16:30:56Z</time>
      </trkpt>
      <trkpt lat="59.9621482" lon="17.7069134">
        <ele>35.7061</ele>
        <time>2013-05-11T16:30:57Z</time>
      </trkpt>
      <trkpt lat="59.9622101" lon="17.7069481">
        <ele>35.2255</ele>
        <time>2013-05-11T16:30:58Z</time>
      </trkpt>
      <trkpt lat="59.9622716" lon="17.7069828">
        <ele>35.2255</ele>
        <time>2013-05-11T16:30:59Z</time>
      </trkpt>
      <trkpt lat="59.9623357" lon="17.7070134">
        <ele>35.2255</ele>
        <time>2013-05-11T16:31:00Z</time>
      </trkpt>
      <trkpt lat="59.9624027" lon="17.707042">
        <ele>34.2642</ele>
        <time>2013-05-11T16:31:01Z</time>
      </trkpt>
      <trkpt lat="59.9624732" lon="17.7070667">
        <ele>34.2642</ele>
        <time>2013-05-11T16:31:02Z</time>
      </trkpt>
      <trkpt lat="59.9625415" lon="17.7070839">
        <ele>34.2642</ele>
        <time>2013-05-11T16:31:03Z</time>
      </trkpt>
      <trkpt lat="59.9626106" lon="17.7070993">
        <ele>34.2642</ele>
        <time>2013-05-11T16:31:04Z</time>
      </trkpt>
      <trkpt lat="59.9626778" lon="17.7071096">
        <ele>34.2642</ele>
        <time>2013-05-11T16:31:05Z</time>
      </trkpt>
      <trkpt lat="59.9627451" lon="17.7071235">
        <ele>34.2642</ele>
        <time>2013-05-11T16:31:06Z</time>
      </trkpt>
      <trkpt lat="59.9628133" lon="17.7071321">
        <ele>34.2642</ele>
        <time>2013-05-11T16:31:07Z</time>
      </trkpt>
      <trkpt lat="59.9628819" lon="17.7071413">
        <ele>33.7834</ele>
        <time>2013-05-11T16:31:08Z</time>
      </trkpt>
      <trkpt lat="59.9629499" lon="17.7071479">
        <ele>33.3029</ele>
        <time>2013-05-11T16:31:09Z</time>
      </trkpt>
      <trkpt lat="59.9630183" lon="17.7071533">
        <ele>32.3416</ele>
        <time>2013-05-11T16:31:10Z</time>
      </trkpt>
      <trkpt lat="59.963085" lon="17.7071631">
        <ele>32.3416</ele>
        <time>2013-05-11T16:31:11Z</time>
      </trkpt>
      <trkpt lat="59.9631488" lon="17.7071704">
        <ele>32.3416</ele>
        <time>2013-05-11T16:31:12Z</time>
      </trkpt>
      <trkpt lat="59.9632143" lon="17.7071785">
        <ele>31.8607</ele>
        <time>2013-05-11T16:31:13Z</time>
      </trkpt>
      <trkpt lat="59.9632793" lon="17.707179">
        <ele>31.8607</ele>
        <time>2013-05-11T16:31:14Z</time>
      </trkpt>
      <trkpt lat="59.9633445" lon="17.7071854">
        <ele>31.3801</ele>
        <time>2013-05-11T16:31:15Z</time>
      </trkpt>
      <trkpt lat="59.9634123" lon="17.7071875">
        <ele>30.8995</ele>
        <time>2013-05-11T16:31:16Z</time>
      </trkpt>
      <trkpt lat="59.9634808" lon="17.7071989">
        <ele>29.4575</ele>
        <time>2013-05-11T16:31:17Z</time>
      </trkpt>
      <trkpt lat="59.9635536" lon="17.7072106">
        <ele>28.4962</ele>
        <time>2013-05-11T16:31:18Z</time>
      </trkpt>
      <trkpt lat="59.9636299" lon="17.7072236">
        <ele>28.9769</ele>
        <time>2013-05-11T16:31:19Z</time>
      </trkpt>
      <trkpt lat="59.963704" lon="17.7072279">
        <ele>28.4962</ele>
        <time>2013-05-11T16:31:20Z</time>
      </trkpt>
      <trkpt lat="59.9637766" lon="17.7072318">
        <ele>28.4962</ele>
        <time>2013-05-11T16:31:21Z</time>
      </trkpt>
      <trkpt lat="59.9638483" lon="17.7072377">
        <ele>28.0155</ele>
        <time>2013-05-11T16:31:22Z</time>
      </trkpt>
      <trkpt lat="59.9639188" lon="17.707246">
        <ele>28.0155</ele>
        <time>2013-05-11T16:31:23Z</time>
      </trkpt>
      <trkpt lat="59.9639871" lon="17.7072579">
        <ele>28.0155</ele>
        <time>2013-05-11T16:31:24Z</time>
      </trkpt>
      <trkpt lat="59.964054" lon="17.7072735">
        <ele>28.0155</ele>
        <time>2013-05-11T16:31:25Z</time>
      </trkpt>
      <trkpt lat="59.9641204" lon="17.7072931">
        <ele>27.5349</ele>
        <time>2013-05-11T16:31:26Z</time>
      </trkpt>
      <trkpt lat="59.9641847" lon="17.707319">
        <ele>27.5349</ele>
        <time>2013-05-11T16:31:27Z</time>
      </trkpt>
      <trkpt lat="59.9642495" lon="17.7073448">
        <ele>27.5349</ele>
        <time>2013-05-11T16:31:28Z</time>
      </trkpt>
      <trkpt lat="59.9643142" lon="17.7073711">
        <ele>27.0543</ele>
        <time>2013-05-11T16:31:29Z</time>
      </trkpt>
      <trkpt lat="59.964381" lon="17.7074001">
        <ele>27.0543</ele>
        <time>2013-05-11T16:31:30Z</time>
      </trkpt>
      <trkpt lat="59.9644529" lon="17.7074274">
        <ele>26.5736</ele>
        <time>2013-05-11T16:31:31Z</time>
      </trkpt>
      <trkpt lat="59.964525" lon="17.7074666">
        <ele>26.5736</ele>
        <time>2013-05-11T16:31:32Z</time>
      </trkpt>
      <trkpt lat="59.9645975" lon="17.707508">
        <ele>26.0929</ele>
        <time>2013-05-11T16:31:33Z</time>
      </trkpt>
      <trkpt lat="59.9646696" lon="17.7075519">
        <ele>25.6123</ele>
        <time>2013-05-11T16:31:34Z</time>
      </trkpt>
      <trkpt lat="59.964742" lon="17.7075996">
        <ele>25.6123</ele>
        <time>2013-05-11T16:31:35Z</time>
      </trkpt>
      <trkpt lat="59.9648162" lon="17.7076499">
        <ele>26.0929</ele>
        <time>2013-05-11T16:31:36Z</time>
      </trkpt>
      <trkpt lat="59.9648871" lon="17.7077024">
        <ele>26.0929</ele>
        <time>2013-05-11T16:31:37Z</time>
      </trkpt>
      <trkpt lat="59.964957" lon="17.7077529">
        <ele>26.5736</ele>
        <time>2013-05-11T16:31:38Z</time>
      </trkpt>
      <trkpt lat="59.9650245" lon="17.7078048">
        <ele>26.5736</ele>
        <time>2013-05-11T16:31:39Z</time>
      </trkpt>
      <trkpt lat="59.965092" lon="17.7078567">
        <ele>26.5736</ele>
        <time>2013-05-11T16:31:40Z</time>
      </trkpt>
      <trkpt lat="59.9651586" lon="17.7079085">
        <ele>26.5736</ele>
        <time>2013-05-11T16:31:41Z</time>
      </trkpt>
      <trkpt lat="59.9652243" lon="17.7079619">
        <ele>26.5736</ele>
        <time>2013-05-11T16:31:42Z</time>
      </trkpt>
      <trkpt lat="59.9652885" lon="17.7080184">
        <ele>26.5736</ele>
        <time>2013-05-11T16:31:43Z</time>
      </trkpt>
      <trkpt lat="59.9653514" lon="17.7080746">
        <ele>26.5736</ele>
        <time>2013-05-11T16:31:44Z</time>
      </trkpt>
      <trkpt lat="59.9654138" lon="17.7081286">
        <ele>26.5736</ele>
        <time>2013-05-11T16:31:45Z</time>
      </trkpt>
      <trkpt lat="59.9654738" lon="17.7081877">
        <ele>26.5736</ele>
        <time>2013-05-11T16:31:46Z</time>
      </trkpt>
      <trkpt lat="59.9655314" lon="17.7082528">
        <ele>26.5736</ele>
        <time>2013-05-11T16:31:47Z</time>
      </trkpt>
      <trkpt lat="59.9655865" lon="17.7083217">
        <ele>26.5736</ele>
        <time>2013-05-11T16:31:48Z</time>
      </trkpt>
      <trkpt lat="59.9656383" lon="17.7083955">
        <ele>26.5736</ele>
        <time>2013-05-11T16:31:49Z</time>
      </trkpt>
      <trkpt lat="59.9656875" lon="17.7084781">
        <ele>26.5736</ele>
        <time>2013-05-11T16:31:50Z</time>
      </trkpt>
      <trkpt lat="59.9657356" lon="17.7085601">
        <ele>26.5736</ele>
        <time>2013-05-11T16:31:51Z</time>
      </trkpt>
      <trkpt lat="59.9657821" lon="17.7086482">
        <ele>26.0929</ele>
        <time>2013-05-11T16:31:52Z</time>
      </trkpt>
      <trkpt lat="59.9658252" lon="17.7087468">
        <ele>26.0929</ele>
        <time>2013-05-11T16:31:53Z</time>
      </trkpt>
      <trkpt lat="59.9658636" lon="17.708856">
        <ele>25.6123</ele>
        <time>2013-05-11T16:31:54Z</time>
      </trkpt>
      <trkpt lat="59.965901" lon="17.7089719">
        <ele>25.6123</ele>
        <time>2013-05-11T16:31:55Z</time>
      </trkpt>
      <trkpt lat="59.965939" lon="17.7090963">
        <ele>25.6123</ele>
        <time>2013-05-11T16:31:56Z</time>
      </trkpt>
      <trkpt lat="59.9659728" lon="17.7092256">
        <ele>26.0929</ele>
        <time>2013-05-11T16:31:57Z</time>
      </trkpt>
      <trkpt lat="59.9660041" lon="17.7093513">
        <ele>26.5736</ele>
        <time>2013-05-11T16:31:58Z</time>
      </trkpt>
      <trkpt lat="59.9660355" lon="17.709475">
        <ele>26.5736</ele>
        <time>2013-05-11T16:31:59Z</time>
      </trkpt>
      <trkpt lat="59.9660667" lon="17.7095977">
        <ele>26.0929</ele>
        <time>2013-05-11T16:32:00Z</time>
      </trkpt>
      <trkpt lat="59.9660956" lon="17.7097143">
        <ele>27.0543</ele>
        <time>2013-05-11T16:32:01Z</time>
      </trkpt>
      <trkpt lat="59.9661258" lon="17.7098294">
        <ele>26.5736</ele>
        <time>2013-05-11T16:32:02Z</time>
      </trkpt>
      <trkpt lat="59.9661569" lon="17.7099368">
        <ele>27.5349</ele>
        <time>2013-05-11T16:32:03Z</time>
      </trkpt>
      <trkpt lat="59.9661851" lon="17.7100436">
        <ele>27.5349</ele>
        <time>2013-05-11T16:32:04Z</time>
      </trkpt>
      <trkpt lat="59.9662116" lon="17.7101511">
        <ele>27.0543</ele>
        <time>2013-05-11T16:32:05Z</time>
      </trkpt>
      <trkpt lat="59.9662371" lon="17.7102608">
        <ele>27.5349</ele>
        <time>2013-05-11T16:32:06Z</time>
      </trkpt>
      <trkpt lat="59.9662659" lon="17.7103782">
        <ele>28.0155</ele>
        <time>2013-05-11T16:32:07Z</time>
      </trkpt>
      <trkpt lat="59.9663" lon="17.710496">
        <ele>28.4962</ele>
        <time>2013-05-11T16:32:08Z</time>
      </trkpt>
      <trkpt lat="59.9663375" lon="17.7106094">
        <ele>28.4962</ele>
        <time>2013-05-11T16:32:09Z</time>
      </trkpt>
      <trkpt lat="59.9663731" lon="17.7107203">
        <ele>28.9769</ele>
        <time>2013-05-11T16:32:10Z</time>
      </trkpt>
      <trkpt lat="59.9664039" lon="17.7108276">
        <ele>29.9381</ele>
        <time>2013-05-11T16:32:11Z</time>
      </trkpt>
      <trkpt lat="59.9664329" lon="17.7109326">
        <ele>30.4188</ele>
        <time>2013-05-11T16:32:12Z</time>
      </trkpt>
      <trkpt lat="59.9664596" lon="17.7110347">
        <ele>30.4188</ele>
        <time>2013-05-11T16:32:13Z</time>
      </trkpt>
      <trkpt lat="59.9664866" lon="17.7111337">
        <ele>29.9381</ele>
        <time>2013-05-11T16:32:14Z</time>
      </trkpt>
      <trkpt lat="59.9665282" lon="17.7112481">
        <ele>29.9381</ele>
        <time>2013-05-11T16:32:15Z</time>
      </trkpt>
      <trkpt lat="59.966548" lon="17.7113379">
        <ele>29.9381</ele>
        <time>2013-05-11T16:32:16Z</time>
      </trkpt>
      <trkpt lat="59.9665664" lon="17.711436">
        <ele>30.8995</ele>
        <time>2013-05-11T16:32:17Z</time>
      </trkpt>
      <trkpt lat="59.9666008" lon="17.7115329">
        <ele>29.9381</ele>
        <time>2013-05-11T16:32:18Z</time>
      </trkpt>
      <trkpt lat="59.9666267" lon="17.7116339">
        <ele>29.9381</ele>
        <time>2013-05-11T16:32:19Z</time>
      </trkpt>
      <trkpt lat="59.9666726" lon="17.7117163">
        <ele>30.4188</ele>
        <time>2013-05-11T16:32:20Z</time>
      </trkpt>
      <trkpt lat="59.9667051" lon="17.7118115">
        <ele>30.4188</ele>
        <time>2013-05-11T16:32:21Z</time>
      </trkpt>
      <trkpt lat="59.9667312" lon="17.7119096">
        <ele>29.9381</ele>
        <time>2013-05-11T16:32:22Z</time>
      </trkpt>
      <trkpt lat="59.9667571" lon="17.7120035">
        <ele>29.9381</ele>
        <time>2013-05-11T16:32:23Z</time>
      </trkpt>
      <trkpt lat="59.966786" lon="17.7120919">
        <ele>29.9381</ele>
        <time>2013-05-11T16:32:24Z</time>
      </trkpt>
      <trkpt lat="59.9668198" lon="17.7121739">
        <ele>29.9381</ele>
        <time>2013-05-11T16:32:25Z</time>
      </trkpt>
      <trkpt lat="59.9668524" lon="17.7122534">
        <ele>29.4575</ele>
        <time>2013-05-11T16:32:26Z</time>
      </trkpt>
      <trkpt lat="59.9668831" lon="17.7123384">
        <ele>28.9769</ele>
        <time>2013-05-11T16:32:27Z</time>
      </trkpt>
      <trkpt lat="59.9669105" lon="17.7124251">
        <ele>28.4962</ele>
        <time>2013-05-11T16:32:28Z</time>
      </trkpt>
      <trkpt lat="59.9669351" lon="17.7125105">
        <ele>28.4962</ele>
        <time>2013-05-11T16:32:29Z</time>
      </trkpt>
      <trkpt lat="59.9669584" lon="17.712597">
        <ele>28.4962</ele>
        <time>2013-05-11T16:32:30Z</time>
      </trkpt>
      <trkpt lat="59.9669782" lon="17.7126881">
        <ele>28.4962</ele>
        <time>2013-05-11T16:32:31Z</time>
      </trkpt>
      <trkpt lat="59.967003" lon="17.7127758">
        <ele>28.0155</ele>
        <time>2013-05-11T16:32:32Z</time>
      </trkpt>
      <trkpt lat="59.9670384" lon="17.7128605">
        <ele>29.4575</ele>
        <time>2013-05-11T16:32:33Z</time>
      </trkpt>
      <trkpt lat="59.9670729" lon="17.7129468">
        <ele>30.8995</ele>
        <time>2013-05-11T16:32:34Z</time>
      </trkpt>
      <trkpt lat="59.9671025" lon="17.713042">
        <ele>30.8995</ele>
        <time>2013-05-11T16:32:35Z</time>
      </trkpt>
      <trkpt lat="59.967128" lon="17.7131434">
        <ele>31.3801</ele>
        <time>2013-05-11T16:32:36Z</time>
      </trkpt>
      <trkpt lat="59.9671523" lon="17.7132487">
        <ele>31.3801</ele>
        <time>2013-05-11T16:32:37Z</time>
      </trkpt>
      <trkpt lat="59.9671771" lon="17.713358">
        <ele>31.3801</ele>
        <time>2013-05-11T16:32:38Z</time>
      </trkpt>
      <trkpt lat="59.967201" lon="17.7134715">
        <ele>31.8607</ele>
        <time>2013-05-11T16:32:39Z</time>
      </trkpt>
      <trkpt lat="59.9672245" lon="17.7135904">
        <ele>31.8607</ele>
        <time>2013-05-11T16:32:40Z</time>
      </trkpt>
      <trkpt lat="59.967249" lon="17.7137124">
        <ele>31.3801</ele>
        <time>2013-05-11T16:32:41Z</time>
      </trkpt>
      <trkpt lat="59.9672715" lon="17.7138431">
        <ele>31.3801</ele>
        <time>2013-05-11T16:32:42Z</time>
      </trkpt>
      <trkpt lat="59.9672939" lon="17.7139797">
        <ele>30.8995</ele>
        <time>2013-05-11T16:32:43Z</time>
      </trkpt>
      <trkpt lat="59.9673157" lon="17.7141231">
        <ele>30.8995</ele>
        <time>2013-05-11T16:32:44Z</time>
      </trkpt>
      <trkpt lat="59.9673383" lon="17.7142697">
        <ele>30.8995</ele>
        <time>2013-05-11T16:32:45Z</time>
      </trkpt>
      <trkpt lat="59.9673611" lon="17.7144209">
        <ele>30.4188</ele>
        <time>2013-05-11T16:32:46Z</time>
      </trkpt>
      <trkpt lat="59.9673845" lon="17.7145772">
        <ele>30.4188</ele>
        <time>2013-05-11T16:32:47Z</time>
      </trkpt>
      <trkpt lat="59.9674077" lon="17.7147375">
        <ele>29.9381</ele>
        <time>2013-05-11T16:32:48Z</time>
      </trkpt>
      <trkpt lat="59.9674229" lon="17.7149217">
        <ele>29.9381</ele>
        <time>2013-05-11T16:32:49Z</time>
      </trkpt>
      <trkpt lat="59.9674352" lon="17.7150849">
        <ele>29.9381</ele>
        <time>2013-05-11T16:32:50Z</time>
      </trkpt>
      <trkpt lat="59.9674631" lon="17.7152597">
        <ele>28.4962</ele>
        <time>2013-05-11T16:32:51Z</time>
      </trkpt>
      <trkpt lat="59.9674767" lon="17.7154246">
        <ele>28.0155</ele>
        <time>2013-05-11T16:32:52Z</time>
      </trkpt>
      <trkpt lat="59.9675104" lon="17.7156409">
        <ele>27.5349</ele>
        <time>2013-05-11T16:32:53Z</time>
      </trkpt>
      <trkpt lat="59.9675465" lon="17.7157849">
        <ele>27.0543</ele>
        <time>2013-05-11T16:32:54Z</time>
      </trkpt>
      <trkpt lat="59.9675839" lon="17.7158942">
        <ele>27.5349</ele>
        <time>2013-05-11T16:32:55Z</time>
      </trkpt>
      <trkpt lat="59.9676109" lon="17.7160198">
        <ele>27.5349</ele>
        <time>2013-05-11T16:32:56Z</time>
      </trkpt>
      <trkpt lat="59.967646" lon="17.71612">
        <ele>26.5736</ele>
        <time>2013-05-11T16:32:57Z</time>
      </trkpt>
      <trkpt lat="59.9676817" lon="17.7162206">
        <ele>26.5736</ele>
        <time>2013-05-11T16:32:58Z</time>
      </trkpt>
      <trkpt lat="59.9677293" lon="17.7163196">
        <ele>26.0929</ele>
        <time>2013-05-11T16:32:59Z</time>
      </trkpt>
      <trkpt lat="59.9677643" lon="17.7164071">
        <ele>26.0929</ele>
        <time>2013-05-11T16:33:00Z</time>
      </trkpt>
      <trkpt lat="59.9678012" lon="17.7164917">
        <ele>25.6123</ele>
        <time>2013-05-11T16:33:01Z</time>
      </trkpt>
      <trkpt lat="59.9678378" lon="17.7165728">
        <ele>24.651</ele>
        <time>2013-05-11T16:33:02Z</time>
      </trkpt>
      <trkpt lat="59.9678793" lon="17.716642">
        <ele>24.1703</ele>
        <time>2013-05-11T16:33:03Z</time>
      </trkpt>
      <trkpt lat="59.9679214" lon="17.7167098">
        <ele>24.1703</ele>
        <time>2013-05-11T16:33:04Z</time>
      </trkpt>
      <trkpt lat="59.9679621" lon="17.7167723">
        <ele>24.1703</ele>
        <time>2013-05-11T16:33:05Z</time>
      </trkpt>
      <trkpt lat="59.9680055" lon="17.716829">
        <ele>24.651</ele>
        <time>2013-05-11T16:33:06Z</time>
      </trkpt>
      <trkpt lat="59.9680447" lon="17.7168863">
        <ele>24.651</ele>
        <time>2013-05-11T16:33:07Z</time>
      </trkpt>
      <trkpt lat="59.9680865" lon="17.716935">
        <ele>24.651</ele>
        <time>2013-05-11T16:33:08Z</time>
      </trkpt>
      <trkpt lat="59.9681286" lon="17.7169814">
        <ele>25.1317</ele>
        <time>2013-05-11T16:33:09Z</time>
      </trkpt>
      <trkpt lat="59.9681708" lon="17.7170249">
        <ele>25.1317</ele>
        <time>2013-05-11T16:33:10Z</time>
      </trkpt>
      <trkpt lat="59.9682121" lon="17.7170645">
        <ele>25.1317</ele>
        <time>2013-05-11T16:33:11Z</time>
      </trkpt>
      <trkpt lat="59.9682562" lon="17.7171028">
        <ele>25.1317</ele>
        <time>2013-05-11T16:33:12Z</time>
      </trkpt>
      <trkpt lat="59.9683006" lon="17.7171411">
        <ele>25.1317</ele>
        <time>2013-05-11T16:33:13Z</time>
      </trkpt>
      <trkpt lat="59.9683464" lon="17.7171727">
        <ele>25.6123</ele>
        <time>2013-05-11T16:33:14Z</time>
      </trkpt>
      <trkpt lat="59.9683941" lon="17.7171995">
        <ele>25.6123</ele>
        <time>2013-05-11T16:33:15Z</time>
      </trkpt>
      <trkpt lat="59.9684418" lon="17.7172256">
        <ele>26.0929</ele>
        <time>2013-05-11T16:33:16Z</time>
      </trkpt>
      <trkpt lat="59.9684914" lon="17.7172472">
        <ele>26.0929</ele>
        <time>2013-05-11T16:33:17Z</time>
      </trkpt>
      <trkpt lat="59.9685422" lon="17.7172648">
        <ele>26.0929</ele>
        <time>2013-05-11T16:33:18Z</time>
      </trkpt>
      <trkpt lat="59.9685951" lon="17.7172866">
        <ele>27.0543</ele>
        <time>2013-05-11T16:33:19Z</time>
      </trkpt>
      <trkpt lat="59.9686457" lon="17.7173114">
        <ele>27.0543</ele>
        <time>2013-05-11T16:33:20Z</time>
      </trkpt>
      <trkpt lat="59.9686954" lon="17.7173328">
        <ele>27.0543</ele>
        <time>2013-05-11T16:33:21Z</time>
      </trkpt>
      <trkpt lat="59.9687433" lon="17.7173518">
        <ele>27.0543</ele>
        <time>2013-05-11T16:33:22Z</time>
      </trkpt>
      <trkpt lat="59.9687898" lon="17.7173639">
        <ele>27.0543</ele>
        <time>2013-05-11T16:33:23Z</time>
      </trkpt>
      <trkpt lat="59.9688355" lon="17.7173762">
        <ele>27.0543</ele>
        <time>2013-05-11T16:33:24Z</time>
      </trkpt>
      <trkpt lat="59.9688798" lon="17.7173941">
        <ele>27.5349</ele>
        <time>2013-05-11T16:33:25Z</time>
      </trkpt>
      <trkpt lat="59.9689228" lon="17.7174141">
        <ele>27.5349</ele>
        <time>2013-05-11T16:33:26Z</time>
      </trkpt>
      <trkpt lat="59.9689649" lon="17.7174337">
        <ele>27.5349</ele>
        <time>2013-05-11T16:33:27Z</time>
      </trkpt>
      <trkpt lat="59.9690053" lon="17.7174535">
        <ele>27.5349</ele>
        <time>2013-05-11T16:33:28Z</time>
      </trkpt>
      <trkpt lat="59.9690466" lon="17.7174637">
        <ele>27.5349</ele>
        <time>2013-05-11T16:33:29Z</time>
      </trkpt>
      <trkpt lat="59.9690887" lon="17.7174777">
        <ele>27.5349</ele>
        <time>2013-05-11T16:33:30Z</time>
      </trkpt>
      <trkpt lat="59.9691349" lon="17.7174999">
        <ele>27.5349</ele>
        <time>2013-05-11T16:33:31Z</time>
      </trkpt>
      <trkpt lat="59.969185" lon="17.7175196">
        <ele>27.5349</ele>
        <time>2013-05-11T16:33:32Z</time>
      </trkpt>
      <trkpt lat="59.9692375" lon="17.7175392">
        <ele>28.4962</ele>
        <time>2013-05-11T16:33:33Z</time>
      </trkpt>
      <trkpt lat="59.9692897" lon="17.7175566">
        <ele>28.4962</ele>
        <time>2013-05-11T16:33:34Z</time>
      </trkpt>
      <trkpt lat="59.9693425" lon="17.7175776">
        <ele>28.9769</ele>
        <time>2013-05-11T16:33:35Z</time>
      </trkpt>
      <trkpt lat="59.9693958" lon="17.7176016">
        <ele>29.4575</ele>
        <time>2013-05-11T16:33:36Z</time>
      </trkpt>
      <trkpt lat="59.9694493" lon="17.7176255">
        <ele>29.9381</ele>
        <time>2013-05-11T16:33:37Z</time>
      </trkpt>
      <trkpt lat="59.9695022" lon="17.7176533">
        <ele>30.4188</ele>
        <time>2013-05-11T16:33:38Z</time>
      </trkpt>
      <trkpt lat="59.9695547" lon="17.7176843">
        <ele>30.4188</ele>
        <time>2013-05-11T16:33:39Z</time>
      </trkpt>
      <trkpt lat="59.969607" lon="17.7177164">
        <ele>30.8995</ele>
        <time>2013-05-11T16:33:40Z</time>
      </trkpt>
      <trkpt lat="59.969658" lon="17.7177518">
        <ele>30.8995</ele>
        <time>2013-05-11T16:33:41Z</time>
      </trkpt>
      <trkpt lat="59.9697072" lon="17.7177916">
        <ele>30.8995</ele>
        <time>2013-05-11T16:33:42Z</time>
      </trkpt>
      <trkpt lat="59.9697553" lon="17.7178311">
        <ele>30.4188</ele>
        <time>2013-05-11T16:33:43Z</time>
      </trkpt>
      <trkpt lat="59.969803" lon="17.7178738">
        <ele>30.4188</ele>
        <time>2013-05-11T16:33:44Z</time>
      </trkpt>
      <trkpt lat="59.9698505" lon="17.7179134">
        <ele>30.4188</ele>
        <time>2013-05-11T16:33:45Z</time>
      </trkpt>
      <trkpt lat="59.9698978" lon="17.7179531">
        <ele>29.9381</ele>
        <time>2013-05-11T16:33:46Z</time>
      </trkpt>
      <trkpt lat="59.969945" lon="17.7179937">
        <ele>29.9381</ele>
        <time>2013-05-11T16:33:47Z</time>
      </trkpt>
      <trkpt lat="59.9699919" lon="17.7180366">
        <ele>29.9381</ele>
        <time>2013-05-11T16:33:48Z</time>
      </trkpt>
      <trkpt lat="59.9700385" lon="17.7180807">
        <ele>29.9381</ele>
        <time>2013-05-11T16:33:49Z</time>
      </trkpt>
      <trkpt lat="59.9700848" lon="17.7181225">
        <ele>30.4188</ele>
        <time>2013-05-11T16:33:50Z</time>
      </trkpt>
      <trkpt lat="59.9701304" lon="17.7181635">
        <ele>30.4188</ele>
        <time>2013-05-11T16:33:51Z</time>
      </trkpt>
      <trkpt lat="59.9701753" lon="17.7182055">
        <ele>30.4188</ele>
        <time>2013-05-11T16:33:52Z</time>
      </trkpt>
      <trkpt lat="59.97022" lon="17.7182453">
        <ele>30.4188</ele>
        <time>2013-05-11T16:33:53Z</time>
      </trkpt>
      <trkpt lat="59.9702616" lon="17.7182716">
        <ele>29.9381</ele>
        <time>2013-05-11T16:33:54Z</time>
      </trkpt>
      <trkpt lat="59.9703012" lon="17.7182998">
        <ele>29.4575</ele>
        <time>2013-05-11T16:33:55Z</time>
      </trkpt>
      <trkpt lat="59.9703455" lon="17.7183354">
        <ele>29.4575</ele>
        <time>2013-05-11T16:33:56Z</time>
      </trkpt>
      <trkpt lat="59.9703929" lon="17.7183739">
        <ele>28.9769</ele>
        <time>2013-05-11T16:33:57Z</time>
      </trkpt>
      <trkpt lat="59.9704417" lon="17.7184151">
        <ele>28.4962</ele>
        <time>2013-05-11T16:33:58Z</time>
      </trkpt>
      <trkpt lat="59.9704935" lon="17.7184599">
        <ele>28.0155</ele>
        <time>2013-05-11T16:33:59Z</time>
      </trkpt>
      <trkpt lat="59.9705484" lon="17.7185111">
        <ele>27.5349</ele>
        <time>2013-05-11T16:34:00Z</time>
      </trkpt>
      <trkpt lat="59.970606" lon="17.7185625">
        <ele>27.0543</ele>
        <time>2013-05-11T16:34:01Z</time>
      </trkpt>
      <trkpt lat="59.9706659" lon="17.7186162">
        <ele>27.5349</ele>
        <time>2013-05-11T16:34:02Z</time>
      </trkpt>
      <trkpt lat="59.9707256" lon="17.7186695">
        <ele>27.5349</ele>
        <time>2013-05-11T16:34:03Z</time>
      </trkpt>
      <trkpt lat="59.9707853" lon="17.7187218">
        <ele>27.5349</ele>
        <time>2013-05-11T16:34:04Z</time>
      </trkpt>
      <trkpt lat="59.9708448" lon="17.7187748">
        <ele>28.0155</ele>
        <time>2013-05-11T16:34:05Z</time>
      </trkpt>
      <trkpt lat="59.9709042" lon="17.7188271">
        <ele>28.4962</ele>
        <time>2013-05-11T16:34:06Z</time>
      </trkpt>
      <trkpt lat="59.9709624" lon="17.7188785">
        <ele>28.4962</ele>
        <time>2013-05-11T16:34:07Z</time>
      </trkpt>
      <trkpt lat="59.9710198" lon="17.7189293">
        <ele>28.9769</ele>
        <time>2013-05-11T16:34:08Z</time>
      </trkpt>
      <trkpt lat="59.9710758" lon="17.7189825">
        <ele>28.9769</ele>
        <time>2013-05-11T16:34:09Z</time>
      </trkpt>
      <trkpt lat="59.97113" lon="17.7190379">
        <ele>28.9769</ele>
        <time>2013-05-11T16:34:10Z</time>
      </trkpt>
      <trkpt lat="59.9711819" lon="17.7190861">
        <ele>28.9769</ele>
        <time>2013-05-11T16:34:11Z</time>
      </trkpt>
      <trkpt lat="59.9712346" lon="17.7191318">
        <ele>28.4962</ele>
        <time>2013-05-11T16:34:12Z</time>
      </trkpt>
      <trkpt lat="59.9712908" lon="17.7191804">
        <ele>28.4962</ele>
        <time>2013-05-11T16:34:13Z</time>
      </trkpt>
      <trkpt lat="59.9713483" lon="17.7192317">
        <ele>28.4962</ele>
        <time>2013-05-11T16:34:14Z</time>
      </trkpt>
      <trkpt lat="59.9714054" lon="17.7192813">
        <ele>28.0155</ele>
        <time>2013-05-11T16:34:15Z</time>
      </trkpt>
      <trkpt lat="59.971461" lon="17.7193304">
        <ele>28.0155</ele>
        <time>2013-05-11T16:34:16Z</time>
      </trkpt>
      <trkpt lat="59.9715152" lon="17.7193783">
        <ele>27.5349</ele>
        <time>2013-05-11T16:34:17Z</time>
      </trkpt>
      <trkpt lat="59.9715694" lon="17.7194239">
        <ele>27.0543</ele>
        <time>2013-05-11T16:34:18Z</time>
      </trkpt>
      <trkpt lat="59.9716254" lon="17.7194669">
        <ele>27.0543</ele>
        <time>2013-05-11T16:34:19Z</time>
      </trkpt>
      <trkpt lat="59.9716839" lon="17.7195172">
        <ele>26.5736</ele>
        <time>2013-05-11T16:34:20Z</time>
      </trkpt>
      <trkpt lat="59.9717412" lon="17.7195689">
        <ele>26.5736</ele>
        <time>2013-05-11T16:34:21Z</time>
      </trkpt>
      <trkpt lat="59.971797" lon="17.7196193">
        <ele>27.0543</ele>
        <time>2013-05-11T16:34:22Z</time>
      </trkpt>
      <trkpt lat="59.9718502" lon="17.7196677">
        <ele>27.5349</ele>
        <time>2013-05-11T16:34:23Z</time>
      </trkpt>
      <trkpt lat="59.971904" lon="17.719716">
        <ele>27.5349</ele>
        <time>2013-05-11T16:34:24Z</time>
      </trkpt>
      <trkpt lat="59.97196" lon="17.7197646">
        <ele>27.0543</ele>
        <time>2013-05-11T16:34:25Z</time>
      </trkpt>
      <trkpt lat="59.9720176" lon="17.719816">
        <ele>27.0543</ele>
        <time>2013-05-11T16:34:26Z</time>
      </trkpt>
      <trkpt lat="59.9720748" lon="17.7198664">
        <ele>26.5736</ele>
        <time>2013-05-11T16:34:27Z</time>
      </trkpt>
      <trkpt lat="59.9721318" lon="17.7199132">
        <ele>27.0543</ele>
        <time>2013-05-11T16:34:28Z</time>
      </trkpt>
      <trkpt lat="59.972188" lon="17.7199616">
        <ele>27.0543</ele>
        <time>2013-05-11T16:34:29Z</time>
      </trkpt>
      <trkpt lat="59.9722437" lon="17.7200099">
        <ele>27.5349</ele>
        <time>2013-05-11T16:34:30Z</time>
      </trkpt>
      <trkpt lat="59.9722993" lon="17.7200564">
        <ele>28.0155</ele>
        <time>2013-05-11T16:34:31Z</time>
      </trkpt>
      <trkpt lat="59.9723553" lon="17.7201009">
        <ele>27.5349</ele>
        <time>2013-05-11T16:34:32Z</time>
      </trkpt>
      <trkpt lat="59.9724106" lon="17.720144">
        <ele>28.0155</ele>
        <time>2013-05-11T16:34:33Z</time>
      </trkpt>
      <trkpt lat="59.9724644" lon="17.7201891">
        <ele>28.0155</ele>
        <time>2013-05-11T16:34:34Z</time>
      </trkpt>
      <trkpt lat="59.9725169" lon="17.7202349">
        <ele>28.4962</ele>
        <time>2013-05-11T16:34:35Z</time>
      </trkpt>
      <trkpt lat="59.972568" lon="17.7202801">
        <ele>28.4962</ele>
        <time>2013-05-11T16:34:36Z</time>
      </trkpt>
      <trkpt lat="59.9726195" lon="17.7203263">
        <ele>28.4962</ele>
        <time>2013-05-11T16:34:37Z</time>
      </trkpt>
      <trkpt lat="59.9726719" lon="17.7203713">
        <ele>28.4962</ele>
        <time>2013-05-11T16:34:38Z</time>
      </trkpt>
      <trkpt lat="59.972723" lon="17.7204191">
        <ele>28.4962</ele>
        <time>2013-05-11T16:34:39Z</time>
      </trkpt>
      <trkpt lat="59.9727723" lon="17.7204701">
        <ele>28.0155</ele>
        <time>2013-05-11T16:34:40Z</time>
      </trkpt>
      <trkpt lat="59.9728218" lon="17.7205201">
        <ele>28.0155</ele>
        <time>2013-05-11T16:34:41Z</time>
      </trkpt>
      <trkpt lat="59.9728717" lon="17.7205753">
        <ele>27.5349</ele>
        <time>2013-05-11T16:34:42Z</time>
      </trkpt>
      <trkpt lat="59.9729221" lon="17.7206397">
        <ele>27.0543</ele>
        <time>2013-05-11T16:34:43Z</time>
      </trkpt>
      <trkpt lat="59.9729743" lon="17.720709">
        <ele>27.0543</ele>
        <time>2013-05-11T16:34:44Z</time>
      </trkpt>
      <trkpt lat="59.9730274" lon="17.7207778">
        <ele>27.5349</ele>
        <time>2013-05-11T16:34:45Z</time>
      </trkpt>
      <trkpt lat="59.9730796" lon="17.7208485">
        <ele>28.0155</ele>
        <time>2013-05-11T16:34:46Z</time>
      </trkpt>
      <trkpt lat="59.9731298" lon="17.7209219">
        <ele>28.4962</ele>
        <time>2013-05-11T16:34:47Z</time>
      </trkpt>
      <trkpt lat="59.9731775" lon="17.7209997">
        <ele>28.4962</ele>
        <time>2013-05-11T16:34:48Z</time>
      </trkpt>
      <trkpt lat="59.9732241" lon="17.7210763">
        <ele>28.9769</ele>
        <time>2013-05-11T16:34:49Z</time>
      </trkpt>
      <trkpt lat="59.9732691" lon="17.7211544">
        <ele>29.4575</ele>
        <time>2013-05-11T16:34:50Z</time>
      </trkpt>
      <trkpt lat="59.9733126" lon="17.7212346">
        <ele>29.9381</ele>
        <time>2013-05-11T16:34:51Z</time>
      </trkpt>
      <trkpt lat="59.973355" lon="17.7213152">
        <ele>29.9381</ele>
        <time>2013-05-11T16:34:52Z</time>
      </trkpt>
      <trkpt lat="59.9733955" lon="17.7213983">
        <ele>30.4188</ele>
        <time>2013-05-11T16:34:53Z</time>
      </trkpt>
      <trkpt lat="59.9734369" lon="17.721487">
        <ele>30.4188</ele>
        <time>2013-05-11T16:34:54Z</time>
      </trkpt>
      <trkpt lat="59.9734814" lon="17.7215818">
        <ele>30.4188</ele>
        <time>2013-05-11T16:34:55Z</time>
      </trkpt>
      <trkpt lat="59.9735255" lon="17.7216814">
        <ele>30.4188</ele>
        <time>2013-05-11T16:34:56Z</time>
      </trkpt>
      <trkpt lat="59.973567" lon="17.7217843">
        <ele>30.4188</ele>
        <time>2013-05-11T16:34:57Z</time>
      </trkpt>
      <trkpt lat="59.9736058" lon="17.72189">
        <ele>30.4188</ele>
        <time>2013-05-11T16:34:58Z</time>
      </trkpt>
      <trkpt lat="59.973643" lon="17.7219966">
        <ele>30.4188</ele>
        <time>2013-05-11T16:34:59Z</time>
      </trkpt>
      <trkpt lat="59.9736789" lon="17.7221042">
        <ele>30.4188</ele>
        <time>2013-05-11T16:35:00Z</time>
      </trkpt>
      <trkpt lat="59.9737136" lon="17.7222124">
        <ele>29.9381</ele>
        <time>2013-05-11T16:35:01Z</time>
      </trkpt>
      <trkpt lat="59.9737472" lon="17.7223202">
        <ele>29.9381</ele>
        <time>2013-05-11T16:35:02Z</time>
      </trkpt>
      <trkpt lat="59.9737781" lon="17.7224282">
        <ele>30.4188</ele>
        <time>2013-05-11T16:35:03Z</time>
      </trkpt>
      <trkpt lat="59.9738089" lon="17.722538">
        <ele>29.9381</ele>
        <time>2013-05-11T16:35:04Z</time>
      </trkpt>
      <trkpt lat="59.9738377" lon="17.7226469">
        <ele>29.4575</ele>
        <time>2013-05-11T16:35:05Z</time>
      </trkpt>
      <trkpt lat="59.9738636" lon="17.7227547">
        <ele>29.4575</ele>
        <time>2013-05-11T16:35:06Z</time>
      </trkpt>
      <trkpt lat="59.9738865" lon="17.7228579">
        <ele>29.4575</ele>
        <time>2013-05-11T16:35:07Z</time>
      </trkpt>
      <trkpt lat="59.9739094" lon="17.7229636">
        <ele>29.4575</ele>
        <time>2013-05-11T16:35:08Z</time>
      </trkpt>
      <trkpt lat="59.9739321" lon="17.723072">
        <ele>29.4575</ele>
        <time>2013-05-11T16:35:09Z</time>
      </trkpt>
      <trkpt lat="59.9739555" lon="17.7231829">
        <ele>29.4575</ele>
        <time>2013-05-11T16:35:10Z</time>
      </trkpt>
      <trkpt lat="59.9739786" lon="17.7232989">
        <ele>29.4575</ele>
        <time>2013-05-11T16:35:11Z</time>
      </trkpt>
      <trkpt lat="59.974" lon="17.7234194">
        <ele>29.4575</ele>
        <time>2013-05-11T16:35:12Z</time>
      </trkpt>
      <trkpt lat="59.97402" lon="17.7235445">
        <ele>29.4575</ele>
        <time>2013-05-11T16:35:13Z</time>
      </trkpt>
      <trkpt lat="59.9740378" lon="17.7236746">
        <ele>29.9381</ele>
        <time>2013-05-11T16:35:14Z</time>
      </trkpt>
      <trkpt lat="59.9740567" lon="17.7238072">
        <ele>29.4575</ele>
        <time>2013-05-11T16:35:15Z</time>
      </trkpt>
      <trkpt lat="59.9740736" lon="17.7239445">
        <ele>29.4575</ele>
        <time>2013-05-11T16:35:16Z</time>
      </trkpt>
      <trkpt lat="59.9740922" lon="17.7240812">
        <ele>29.9381</ele>
        <time>2013-05-11T16:35:17Z</time>
      </trkpt>
      <trkpt lat="59.9741107" lon="17.7242144">
        <ele>29.9381</ele>
        <time>2013-05-11T16:35:18Z</time>
      </trkpt>
      <trkpt lat="59.9741289" lon="17.7243446">
        <ele>29.9381</ele>
        <time>2013-05-11T16:35:19Z</time>
      </trkpt>
      <trkpt lat="59.9741461" lon="17.7244729">
        <ele>29.9381</ele>
        <time>2013-05-11T16:35:20Z</time>
      </trkpt>
      <trkpt lat="59.9741626" lon="17.7245998">
        <ele>29.9381</ele>
        <time>2013-05-11T16:35:21Z</time>
      </trkpt>
      <trkpt lat="59.9741792" lon="17.724725">
        <ele>30.4188</ele>
        <time>2013-05-11T16:35:22Z</time>
      </trkpt>
      <trkpt lat="59.9741963" lon="17.7248475">
        <ele>30.4188</ele>
        <time>2013-05-11T16:35:23Z</time>
      </trkpt>
      <trkpt lat="59.9742126" lon="17.7249676">
        <ele>30.4188</ele>
        <time>2013-05-11T16:35:24Z</time>
      </trkpt>
      <trkpt lat="59.9742279" lon="17.7250848">
        <ele>30.4188</ele>
        <time>2013-05-11T16:35:25Z</time>
      </trkpt>
      <trkpt lat="59.9742425" lon="17.7251986">
        <ele>30.4188</ele>
        <time>2013-05-11T16:35:26Z</time>
      </trkpt>
      <trkpt lat="59.9742559" lon="17.7253126">
        <ele>30.4188</ele>
        <time>2013-05-11T16:35:27Z</time>
      </trkpt>
      <trkpt lat="59.9742691" lon="17.7254281">
        <ele>30.4188</ele>
        <time>2013-05-11T16:35:28Z</time>
      </trkpt>
      <trkpt lat="59.9742808" lon="17.7255407">
        <ele>30.4188</ele>
        <time>2013-05-11T16:35:29Z</time>
      </trkpt>
      <trkpt lat="59.9742912" lon="17.7256523">
        <ele>30.4188</ele>
        <time>2013-05-11T16:35:30Z</time>
      </trkpt>
      <trkpt lat="59.9743004" lon="17.7257683">
        <ele>30.4188</ele>
        <time>2013-05-11T16:35:31Z</time>
      </trkpt>
      <trkpt lat="59.9743092" lon="17.7258855">
        <ele>30.4188</ele>
        <time>2013-05-11T16:35:32Z</time>
      </trkpt>
      <trkpt lat="59.9743165" lon="17.7260005">
        <ele>30.4188</ele>
        <time>2013-05-11T16:35:33Z</time>
      </trkpt>
      <trkpt lat="59.9743217" lon="17.7261134">
        <ele>30.4188</ele>
        <time>2013-05-11T16:35:34Z</time>
      </trkpt>
      <trkpt lat="59.9743257" lon="17.7262248">
        <ele>30.4188</ele>
        <time>2013-05-11T16:35:35Z</time>
      </trkpt>
      <trkpt lat="59.9743297" lon="17.7263332">
        <ele>30.4188</ele>
        <time>2013-05-11T16:35:36Z</time>
      </trkpt>
      <trkpt lat="59.9743339" lon="17.7264382">
        <ele>30.4188</ele>
        <time>2013-05-11T16:35:37Z</time>
      </trkpt>
      <trkpt lat="59.9743407" lon="17.7265486">
        <ele>29.4575</ele>
        <time>2013-05-11T16:35:38Z</time>
      </trkpt>
      <trkpt lat="59.9743464" lon="17.726657">
        <ele>29.4575</ele>
        <time>2013-05-11T16:35:39Z</time>
      </trkpt>
      <trkpt lat="59.9743479" lon="17.7267656">
        <ele>28.9769</ele>
        <time>2013-05-11T16:35:40Z</time>
      </trkpt>
      <trkpt lat="59.9743492" lon="17.726876">
        <ele>28.9769</ele>
        <time>2013-05-11T16:35:41Z</time>
      </trkpt>
      <trkpt lat="59.9743527" lon="17.7269864">
        <ele>28.9769</ele>
        <time>2013-05-11T16:35:42Z</time>
      </trkpt>
      <trkpt lat="59.9743553" lon="17.7270983">
        <ele>28.4962</ele>
        <time>2013-05-11T16:35:43Z</time>
      </trkpt>
      <trkpt lat="59.9743569" lon="17.7272125">
        <ele>28.4962</ele>
        <time>2013-05-11T16:35:44Z</time>
      </trkpt>
      <trkpt lat="59.9743589" lon="17.7273283">
        <ele>28.4962</ele>
        <time>2013-05-11T16:35:45Z</time>
      </trkpt>
      <trkpt lat="59.9743598" lon="17.7274463">
        <ele>28.4962</ele>
        <time>2013-05-11T16:35:46Z</time>
      </trkpt>
      <trkpt lat="59.9743595" lon="17.7275668">
        <ele>28.0155</ele>
        <time>2013-05-11T16:35:47Z</time>
      </trkpt>
      <trkpt lat="59.9743606" lon="17.7276886">
        <ele>28.0155</ele>
        <time>2013-05-11T16:35:48Z</time>
      </trkpt>
      <trkpt lat="59.9743624" lon="17.7278124">
        <ele>28.0155</ele>
        <time>2013-05-11T16:35:49Z</time>
      </trkpt>
      <trkpt lat="59.9743644" lon="17.7279378">
        <ele>28.0155</ele>
        <time>2013-05-11T16:35:50Z</time>
      </trkpt>
      <trkpt lat="59.9743666" lon="17.7280633">
        <ele>28.0155</ele>
        <time>2013-05-11T16:35:51Z</time>
      </trkpt>
      <trkpt lat="59.9743692" lon="17.7281898">
        <ele>27.5349</ele>
        <time>2013-05-11T16:35:52Z</time>
      </trkpt>
      <trkpt lat="59.9743722" lon="17.7283174">
        <ele>27.0543</ele>
        <time>2013-05-11T16:35:53Z</time>
      </trkpt>
      <trkpt lat="59.9743748" lon="17.7284392">
        <ele>26.5736</ele>
        <time>2013-05-11T16:35:54Z</time>
      </trkpt>
      <trkpt lat="59.9743769" lon="17.7285575">
        <ele>26.0929</ele>
        <time>2013-05-11T16:35:55Z</time>
      </trkpt>
      <trkpt lat="59.9743795" lon="17.7286729">
        <ele>26.0929</ele>
        <time>2013-05-11T16:35:56Z</time>
      </trkpt>
      <trkpt lat="59.9743808" lon="17.7287905">
        <ele>26.0929</ele>
        <time>2013-05-11T16:35:57Z</time>
      </trkpt>
      <trkpt lat="59.9743834" lon="17.728911">
        <ele>26.0929</ele>
        <time>2013-05-11T16:35:58Z</time>
      </trkpt>
      <trkpt lat="59.9743879" lon="17.7290354">
        <ele>26.0929</ele>
        <time>2013-05-11T16:35:59Z</time>
      </trkpt>
      <trkpt lat="59.9743943" lon="17.7291614">
        <ele>26.0929</ele>
        <time>2013-05-11T16:36:00Z</time>
      </trkpt>
      <trkpt lat="59.9744009" lon="17.7292899">
        <ele>26.0929</ele>
        <time>2013-05-11T16:36:01Z</time>
      </trkpt>
      <trkpt lat="59.9744014" lon="17.7294244">
        <ele>25.6123</ele>
        <time>2013-05-11T16:36:02Z</time>
      </trkpt>
      <trkpt lat="59.9743978" lon="17.7295588">
        <ele>25.6123</ele>
        <time>2013-05-11T16:36:03Z</time>
      </trkpt>
      <trkpt lat="59.9743926" lon="17.7296891">
        <ele>25.6123</ele>
        <time>2013-05-11T16:36:04Z</time>
      </trkpt>
      <trkpt lat="59.9743848" lon="17.7298152">
        <ele>25.6123</ele>
        <time>2013-05-11T16:36:05Z</time>
      </trkpt>
      <trkpt lat="59.974374" lon="17.7299374">
        <ele>25.6123</ele>
        <time>2013-05-11T16:36:06Z</time>
      </trkpt>
      <trkpt lat="59.9743615" lon="17.7300556">
        <ele>25.6123</ele>
        <time>2013-05-11T16:36:07Z</time>
      </trkpt>
      <trkpt lat="59.9743495" lon="17.7301714">
        <ele>25.6123</ele>
        <time>2013-05-11T16:36:08Z</time>
      </trkpt>
      <trkpt lat="59.9743393" lon="17.730285">
        <ele>25.6123</ele>
        <time>2013-05-11T16:36:09Z</time>
      </trkpt>
      <trkpt lat="59.9743325" lon="17.7304006">
        <ele>24.651</ele>
        <time>2013-05-11T16:36:10Z</time>
      </trkpt>
      <trkpt lat="59.9743259" lon="17.7305189">
        <ele>24.651</ele>
        <time>2013-05-11T16:36:11Z</time>
      </trkpt>
      <trkpt lat="59.974317" lon="17.7306371">
        <ele>24.651</ele>
        <time>2013-05-11T16:36:12Z</time>
      </trkpt>
      <trkpt lat="59.9743077" lon="17.7307615">
        <ele>24.651</ele>
        <time>2013-05-11T16:36:13Z</time>
      </trkpt>
      <trkpt lat="59.9743007" lon="17.7308886">
        <ele>24.651</ele>
        <time>2013-05-11T16:36:14Z</time>
      </trkpt>
      <trkpt lat="59.9742952" lon="17.7310133">
        <ele>24.651</ele>
        <time>2013-05-11T16:36:15Z</time>
      </trkpt>
      <trkpt lat="59.9742893" lon="17.7311359">
        <ele>24.651</ele>
        <time>2013-05-11T16:36:16Z</time>
      </trkpt>
      <trkpt lat="59.9742838" lon="17.7312573">
        <ele>24.651</ele>
        <time>2013-05-11T16:36:17Z</time>
      </trkpt>
      <trkpt lat="59.9742791" lon="17.7313784">
        <ele>24.1703</ele>
        <time>2013-05-11T16:36:18Z</time>
      </trkpt>
      <trkpt lat="59.9742746" lon="17.7314983">
        <ele>24.1703</ele>
        <time>2013-05-11T16:36:19Z</time>
      </trkpt>
      <trkpt lat="59.9742705" lon="17.7316189">
        <ele>24.1703</ele>
        <time>2013-05-11T16:36:20Z</time>
      </trkpt>
      <trkpt lat="59.9742678" lon="17.7317383">
        <ele>24.1703</ele>
        <time>2013-05-11T16:36:21Z</time>
      </trkpt>
      <trkpt lat="59.9742687" lon="17.7318551">
        <ele>24.651</ele>
        <time>2013-05-11T16:36:22Z</time>
      </trkpt>
      <trkpt lat="59.9742729" lon="17.731971">
        <ele>24.651</ele>
        <time>2013-05-11T16:36:23Z</time>
      </trkpt>
      <trkpt lat="59.9742776" lon="17.7320864">
        <ele>24.651</ele>
        <time>2013-05-11T16:36:24Z</time>
      </trkpt>
      <trkpt lat="59.97428" lon="17.7322006">
        <ele>24.651</ele>
        <time>2013-05-11T16:36:25Z</time>
      </trkpt>
      <trkpt lat="59.9742806" lon="17.7323139">
        <ele>24.651</ele>
        <time>2013-05-11T16:36:26Z</time>
      </trkpt>
      <trkpt lat="59.9742833" lon="17.7324275">
        <ele>24.1703</ele>
        <time>2013-05-11T16:36:27Z</time>
      </trkpt>
      <trkpt lat="59.9742864" lon="17.7325395">
        <ele>24.1703</ele>
        <time>2013-05-11T16:36:28Z</time>
      </trkpt>
      <trkpt lat="59.9742886" lon="17.7326512">
        <ele>24.1703</ele>
        <time>2013-05-11T16:36:29Z</time>
      </trkpt>
      <trkpt lat="59.9742895" lon="17.732763">
        <ele>24.1703</ele>
        <time>2013-05-11T16:36:30Z</time>
      </trkpt>
      <trkpt lat="59.9742881" lon="17.7328755">
        <ele>24.1703</ele>
        <time>2013-05-11T16:36:31Z</time>
      </trkpt>
      <trkpt lat="59.9742845" lon="17.7329902">
        <ele>24.1703</ele>
        <time>2013-05-11T16:36:32Z</time>
      </trkpt>
      <trkpt lat="59.9742829" lon="17.7331045">
        <ele>23.6896</ele>
        <time>2013-05-11T16:36:33Z</time>
      </trkpt>
      <trkpt lat="59.9742817" lon="17.7332189">
        <ele>23.209</ele>
        <time>2013-05-11T16:36:34Z</time>
      </trkpt>
      <trkpt lat="59.9742786" lon="17.7333319">
        <ele>23.209</ele>
        <time>2013-05-11T16:36:35Z</time>
      </trkpt>
      <trkpt lat="59.9742745" lon="17.7334434">
        <ele>23.209</ele>
        <time>2013-05-11T16:36:36Z</time>
      </trkpt>
      <trkpt lat="59.9742709" lon="17.7335531">
        <ele>22.7283</ele>
        <time>2013-05-11T16:36:37Z</time>
      </trkpt>
      <trkpt lat="59.9742662" lon="17.7336622">
        <ele>23.209</ele>
        <time>2013-05-11T16:36:38Z</time>
      </trkpt>
      <trkpt lat="59.9742598" lon="17.7337672">
        <ele>23.209</ele>
        <time>2013-05-11T16:36:39Z</time>
      </trkpt>
      <trkpt lat="59.9742526" lon="17.7338727">
        <ele>23.209</ele>
        <time>2013-05-11T16:36:40Z</time>
      </trkpt>
      <trkpt lat="59.974247" lon="17.7339839">
        <ele>23.209</ele>
        <time>2013-05-11T16:36:41Z</time>
      </trkpt>
      <trkpt lat="59.9742424" lon="17.7341008">
        <ele>23.6896</ele>
        <time>2013-05-11T16:36:42Z</time>
      </trkpt>
      <trkpt lat="59.9742378" lon="17.7342239">
        <ele>23.6896</ele>
        <time>2013-05-11T16:36:43Z</time>
      </trkpt>
      <trkpt lat="59.9742347" lon="17.7343536">
        <ele>23.6896</ele>
        <time>2013-05-11T16:36:44Z</time>
      </trkpt>
      <trkpt lat="59.974234" lon="17.7344861">
        <ele>23.6896</ele>
        <time>2013-05-11T16:36:45Z</time>
      </trkpt>
      <trkpt lat="59.974237" lon="17.7346169">
        <ele>23.6896</ele>
        <time>2013-05-11T16:36:46Z</time>
      </trkpt>
      <trkpt lat="59.9742428" lon="17.7347466">
        <ele>23.6896</ele>
        <time>2013-05-11T16:36:47Z</time>
      </trkpt>
      <trkpt lat="59.9742492" lon="17.7348752">
        <ele>23.6896</ele>
        <time>2013-05-11T16:36:48Z</time>
      </trkpt>
      <trkpt lat="59.974256" lon="17.7350035">
        <ele>23.6896</ele>
        <time>2013-05-11T16:36:49Z</time>
      </trkpt>
      <trkpt lat="59.9742647" lon="17.7351324">
        <ele>24.1703</ele>
        <time>2013-05-11T16:36:50Z</time>
      </trkpt>
      <trkpt lat="59.974274" lon="17.7352655">
        <ele>24.1703</ele>
        <time>2013-05-11T16:36:51Z</time>
      </trkpt>
      <trkpt lat="59.9742864" lon="17.7353999">
        <ele>24.651</ele>
        <time>2013-05-11T16:36:52Z</time>
      </trkpt>
      <trkpt lat="59.9743025" lon="17.7355319">
        <ele>24.651</ele>
        <time>2013-05-11T16:36:53Z</time>
      </trkpt>
      <trkpt lat="59.9743211" lon="17.7356581">
        <ele>25.1317</ele>
        <time>2013-05-11T16:36:54Z</time>
      </trkpt>
      <trkpt lat="59.9743408" lon="17.7357806">
        <ele>25.1317</ele>
        <time>2013-05-11T16:36:55Z</time>
      </trkpt>
      <trkpt lat="59.9743599" lon="17.7359001">
        <ele>25.1317</ele>
        <time>2013-05-11T16:36:56Z</time>
      </trkpt>
      <trkpt lat="59.9743786" lon="17.7360151">
        <ele>25.1317</ele>
        <time>2013-05-11T16:36:57Z</time>
      </trkpt>
      <trkpt lat="59.9743993" lon="17.7361285">
        <ele>25.1317</ele>
        <time>2013-05-11T16:36:58Z</time>
      </trkpt>
      <trkpt lat="59.9744224" lon="17.7362419">
        <ele>25.6123</ele>
        <time>2013-05-11T16:36:59Z</time>
      </trkpt>
      <trkpt lat="59.9744439" lon="17.7363531">
        <ele>25.6123</ele>
        <time>2013-05-11T16:37:00Z</time>
      </trkpt>
      <trkpt lat="59.9744667" lon="17.7364595">
        <ele>25.6123</ele>
        <time>2013-05-11T16:37:01Z</time>
      </trkpt>
      <trkpt lat="59.974494" lon="17.7365586">
        <ele>25.1317</ele>
        <time>2013-05-11T16:37:02Z</time>
      </trkpt>
      <trkpt lat="59.9745245" lon="17.736655">
        <ele>25.6123</ele>
        <time>2013-05-11T16:37:03Z</time>
      </trkpt>
      <trkpt lat="59.9745568" lon="17.7367513">
        <ele>25.6123</ele>
        <time>2013-05-11T16:37:04Z</time>
      </trkpt>
      <trkpt lat="59.9745893" lon="17.7368523">
        <ele>25.1317</ele>
        <time>2013-05-11T16:37:05Z</time>
      </trkpt>
      <trkpt lat="59.9746226" lon="17.736957">
        <ele>26.0929</ele>
        <time>2013-05-11T16:37:06Z</time>
      </trkpt>
      <trkpt lat="59.9746569" lon="17.7370513">
        <ele>26.0929</ele>
        <time>2013-05-11T16:37:07Z</time>
      </trkpt>
      <trkpt lat="59.9746901" lon="17.737143">
        <ele>26.0929</ele>
        <time>2013-05-11T16:37:08Z</time>
      </trkpt>
      <trkpt lat="59.9747231" lon="17.7372349">
        <ele>27.0543</ele>
        <time>2013-05-11T16:37:09Z</time>
      </trkpt>
      <trkpt lat="59.9747582" lon="17.7373242">
        <ele>27.5349</ele>
        <time>2013-05-11T16:37:10Z</time>
      </trkpt>
      <trkpt lat="59.9747957" lon="17.7374133">
        <ele>27.5349</ele>
        <time>2013-05-11T16:37:11Z</time>
      </trkpt>
      <trkpt lat="59.974836" lon="17.7375019">
        <ele>27.5349</ele>
        <time>2013-05-11T16:37:12Z</time>
      </trkpt>
      <trkpt lat="59.9748785" lon="17.7375885">
        <ele>28.0155</ele>
        <time>2013-05-11T16:37:13Z</time>
      </trkpt>
      <trkpt lat="59.974922" lon="17.7376729">
        <ele>28.0155</ele>
        <time>2013-05-11T16:37:14Z</time>
      </trkpt>
      <trkpt lat="59.9749664" lon="17.7377592">
        <ele>28.0155</ele>
        <time>2013-05-11T16:37:15Z</time>
      </trkpt>
      <trkpt lat="59.9750114" lon="17.7378447">
        <ele>28.0155</ele>
        <time>2013-05-11T16:37:16Z</time>
      </trkpt>
      <trkpt lat="59.9750593" lon="17.7379296">
        <ele>28.0155</ele>
        <time>2013-05-11T16:37:17Z</time>
      </trkpt>
      <trkpt lat="59.9751084" lon="17.7380159">
        <ele>28.0155</ele>
        <time>2013-05-11T16:37:18Z</time>
      </trkpt>
      <trkpt lat="59.9751567" lon="17.7381001">
        <ele>28.0155</ele>
        <time>2013-05-11T16:37:19Z</time>
      </trkpt>
      <trkpt lat="59.975205" lon="17.7381825">
        <ele>28.0155</ele>
        <time>2013-05-11T16:37:20Z</time>
      </trkpt>
      <trkpt lat="59.9752528" lon="17.7382638">
        <ele>28.0155</ele>
        <time>2013-05-11T16:37:21Z</time>
      </trkpt>
      <trkpt lat="59.9753001" lon="17.7383431">
        <ele>28.0155</ele>
        <time>2013-05-11T16:37:22Z</time>
      </trkpt>
      <trkpt lat="59.9753469" lon="17.7384207">
        <ele>28.0155</ele>
        <time>2013-05-11T16:37:23Z</time>
      </trkpt>
      <trkpt lat="59.9753929" lon="17.7384964">
        <ele>28.0155</ele>
        <time>2013-05-11T16:37:24Z</time>
      </trkpt>
      <trkpt lat="59.9754385" lon="17.7385711">
        <ele>28.0155</ele>
        <time>2013-05-11T16:37:25Z</time>
      </trkpt>
      <trkpt lat="59.9754809" lon="17.7386453">
        <ele>28.0155</ele>
        <time>2013-05-11T16:37:26Z</time>
      </trkpt>
      <trkpt lat="59.9755162" lon="17.7387125">
        <ele>28.9769</ele>
        <time>2013-05-11T16:37:27Z</time>
      </trkpt>
      <trkpt lat="59.9755555" lon="17.7387843">
        <ele>28.9769</ele>
        <time>2013-05-11T16:37:28Z</time>
      </trkpt>
      <trkpt lat="59.9755957" lon="17.738855">
        <ele>29.4575</ele>
        <time>2013-05-11T16:37:29Z</time>
      </trkpt>
      <trkpt lat="59.9756394" lon="17.738927">
        <ele>29.4575</ele>
        <time>2013-05-11T16:37:30Z</time>
      </trkpt>
      <trkpt lat="59.9756843" lon="17.7390009">
        <ele>28.9769</ele>
        <time>2013-05-11T16:37:31Z</time>
      </trkpt>
      <trkpt lat="59.9757266" lon="17.7390741">
        <ele>29.4575</ele>
        <time>2013-05-11T16:37:32Z</time>
      </trkpt>
      <trkpt lat="59.9757709" lon="17.7391461">
        <ele>29.9381</ele>
        <time>2013-05-11T16:37:33Z</time>
      </trkpt>
      <trkpt lat="59.9758152" lon="17.7392192">
        <ele>29.9381</ele>
        <time>2013-05-11T16:37:34Z</time>
      </trkpt>
      <trkpt lat="59.9758581" lon="17.7392945">
        <ele>29.9381</ele>
        <time>2013-05-11T16:37:35Z</time>
      </trkpt>
      <trkpt lat="59.9759017" lon="17.7393676">
        <ele>30.4188</ele>
        <time>2013-05-11T16:37:36Z</time>
      </trkpt>
      <trkpt lat="59.9759465" lon="17.7394371">
        <ele>31.3801</ele>
        <time>2013-05-11T16:37:37Z</time>
      </trkpt>
      <trkpt lat="59.9759901" lon="17.7395025">
        <ele>31.8607</ele>
        <time>2013-05-11T16:37:38Z</time>
      </trkpt>
      <trkpt lat="59.9760336" lon="17.7395704">
        <ele>31.8607</ele>
        <time>2013-05-11T16:37:39Z</time>
      </trkpt>
      <trkpt lat="59.976073" lon="17.7396325">
        <ele>32.3416</ele>
        <time>2013-05-11T16:37:40Z</time>
      </trkpt>
      <trkpt lat="59.9761089" lon="17.7396785">
        <ele>32.8223</ele>
        <time>2013-05-11T16:37:41Z</time>
      </trkpt>
      <trkpt lat="59.9761435" lon="17.7397159">
        <ele>33.3029</ele>
        <time>2013-05-11T16:37:42Z</time>
      </trkpt>
      <trkpt lat="59.9761759" lon="17.7397491">
        <ele>34.2642</ele>
        <time>2013-05-11T16:37:43Z</time>
      </trkpt>
      <trkpt lat="59.9762065" lon="17.7397806">
        <ele>34.7449</ele>
        <time>2013-05-11T16:37:44Z</time>
      </trkpt>
      <trkpt lat="59.976237" lon="17.7398077">
        <ele>35.2255</ele>
        <time>2013-05-11T16:37:45Z</time>
      </trkpt>
      <trkpt lat="59.9762709" lon="17.7398291">
        <ele>34.7449</ele>
        <time>2013-05-11T16:37:46Z</time>
      </trkpt>
      <trkpt lat="59.9763072" lon="17.7398397">
        <ele>34.7449</ele>
        <time>2013-05-11T16:37:47Z</time>
      </trkpt>
      <trkpt lat="59.9763434" lon="17.7398365">
        <ele>34.7449</ele>
        <time>2013-05-11T16:37:48Z</time>
      </trkpt>
      <trkpt lat="59.9763808" lon="17.7398164">
        <ele>33.7834</ele>
        <time>2013-05-11T16:37:49Z</time>
      </trkpt>
      <trkpt lat="59.9764183" lon="17.7397906">
        <ele>33.3029</ele>
        <time>2013-05-11T16:37:50Z</time>
      </trkpt>
      <trkpt lat="59.9764539" lon="17.7397588">
        <ele>32.3416</ele>
        <time>2013-05-11T16:37:51Z</time>
      </trkpt>
      <trkpt lat="59.9764868" lon="17.7397172">
        <ele>31.8607</ele>
        <time>2013-05-11T16:37:52Z</time>
      </trkpt>
      <trkpt lat="59.9765197" lon="17.7396832">
        <ele>30.8995</ele>
        <time>2013-05-11T16:37:53Z</time>
      </trkpt>
      <trkpt lat="59.9765512" lon="17.7396543">
        <ele>29.9381</ele>
        <time>2013-05-11T16:37:54Z</time>
      </trkpt>
      <trkpt lat="59.9765781" lon="17.7396215">
        <ele>29.9381</ele>
        <time>2013-05-11T16:37:55Z</time>
      </trkpt>
      <trkpt lat="59.9766076" lon="17.7396018">
        <ele>29.9381</ele>
        <time>2013-05-11T16:37:56Z</time>
      </trkpt>
      <trkpt lat="59.976639" lon="17.7395842">
        <ele>29.4575</ele>
        <time>2013-05-11T16:37:57Z</time>
      </trkpt>
      <trkpt lat="59.9766711" lon="17.739565">
        <ele>28.9769</ele>
        <time>2013-05-11T16:37:58Z</time>
      </trkpt>
      <trkpt lat="59.9767024" lon="17.739549">
        <ele>28.4962</ele>
        <time>2013-05-11T16:37:59Z</time>
      </trkpt>
      <trkpt lat="59.976734" lon="17.7395305">
        <ele>28.9769</ele>
        <time>2013-05-11T16:38:00Z</time>
      </trkpt>
      <trkpt lat="59.9767661" lon="17.7395201">
        <ele>28.4962</ele>
        <time>2013-05-11T16:38:01Z</time>
      </trkpt>
      <trkpt lat="59.9767978" lon="17.7395113">
        <ele>28.4962</ele>
        <time>2013-05-11T16:38:02Z</time>
      </trkpt>
      <trkpt lat="59.9768314" lon="17.739496">
        <ele>28.4962</ele>
        <time>2013-05-11T16:38:03Z</time>
      </trkpt>
      <trkpt lat="59.9768645" lon="17.7394821">
        <ele>28.4962</ele>
        <time>2013-05-11T16:38:04Z</time>
      </trkpt>
      <trkpt lat="59.9769001" lon="17.7394719">
        <ele>28.0155</ele>
        <time>2013-05-11T16:38:05Z</time>
      </trkpt>
      <trkpt lat="59.9769354" lon="17.7394614">
        <ele>27.5349</ele>
        <time>2013-05-11T16:38:06Z</time>
      </trkpt>
      <trkpt lat="59.9769648" lon="17.7394461">
        <ele>28.0155</ele>
        <time>2013-05-11T16:38:07Z</time>
      </trkpt>
      <trkpt lat="59.9769895" lon="17.7394336">
        <ele>28.0155</ele>
        <time>2013-05-11T16:38:08Z</time>
      </trkpt>
      <trkpt lat="59.9770131" lon="17.7394279">
        <ele>28.0155</ele>
        <time>2013-05-11T16:38:09Z</time>
      </trkpt>
      <trkpt lat="59.9770327" lon="17.7394175">
        <ele>28.0155</ele>
        <time>2013-05-11T16:38:10Z</time>
      </trkpt>
      <trkpt lat="59.9770551" lon="17.739409">
        <ele>28.0155</ele>
        <time>2013-05-11T16:38:11Z</time>
      </trkpt>
      <trkpt lat="59.9770799" lon="17.7393957">
        <ele>28.9769</ele>
        <time>2013-05-11T16:38:12Z</time>
      </trkpt>
      <trkpt lat="59.9771037" lon="17.7393735">
        <ele>30.4188</ele>
        <time>2013-05-11T16:38:13Z</time>
      </trkpt>
      <trkpt lat="59.9771288" lon="17.7393563">
        <ele>30.8995</ele>
        <time>2013-05-11T16:38:14Z</time>
      </trkpt>
      <trkpt lat="59.9771567" lon="17.7393501">
        <ele>30.4188</ele>
        <time>2013-05-11T16:38:15Z</time>
      </trkpt>
      <trkpt lat="59.9771847" lon="17.7393367">
        <ele>30.8995</ele>
        <time>2013-05-11T16:38:16Z</time>
      </trkpt>
      <trkpt lat="59.9772121" lon="17.739318">
        <ele>31.8607</ele>
        <time>2013-05-11T16:38:17Z</time>
      </trkpt>
      <trkpt lat="59.977238" lon="17.7392925">
        <ele>32.8223</ele>
        <time>2013-05-11T16:38:18Z</time>
      </trkpt>
      <trkpt lat="59.9772644" lon="17.7392624">
        <ele>34.7449</ele>
        <time>2013-05-11T16:38:19Z</time>
      </trkpt>
      <trkpt lat="59.9772913" lon="17.7392352">
        <ele>36.1868</ele>
        <time>2013-05-11T16:38:20Z</time>
      </trkpt>
      <trkpt lat="59.9773193" lon="17.7392101">
        <ele>37.1481</ele>
        <time>2013-05-11T16:38:21Z</time>
      </trkpt>
      <trkpt lat="59.9773473" lon="17.7391956">
        <ele>38.1094</ele>
        <time>2013-05-11T16:38:22Z</time>
      </trkpt>
      <trkpt lat="59.977377" lon="17.7391787">
        <ele>39.0707</ele>
        <time>2013-05-11T16:38:23Z</time>
      </trkpt>
      <trkpt lat="59.9774067" lon="17.7391635">
        <ele>40.0321</ele>
        <time>2013-05-11T16:38:24Z</time>
      </trkpt>
      <trkpt lat="59.9774393" lon="17.7391575">
        <ele>38.5901</ele>
        <time>2013-05-11T16:38:25Z</time>
      </trkpt>
      <trkpt lat="59.9774707" lon="17.7391443">
        <ele>38.5901</ele>
        <time>2013-05-11T16:38:26Z</time>
      </trkpt>
      <trkpt lat="59.9775007" lon="17.7391284">
        <ele>39.0707</ele>
        <time>2013-05-11T16:38:27Z</time>
      </trkpt>
      <trkpt lat="59.9775292" lon="17.7391169">
        <ele>39.0707</ele>
        <time>2013-05-11T16:38:28Z</time>
      </trkpt>
      <trkpt lat="59.9775571" lon="17.7391089">
        <ele>38.5901</ele>
        <time>2013-05-11T16:38:29Z</time>
      </trkpt>
      <trkpt lat="59.9775846" lon="17.7391053">
        <ele>38.5901</ele>
        <time>2013-05-11T16:38:30Z</time>
      </trkpt>
      <trkpt lat="59.9776127" lon="17.739102">
        <ele>38.1094</ele>
        <time>2013-05-11T16:38:31Z</time>
      </trkpt>
      <trkpt lat="59.9776401" lon="17.7390977">
        <ele>38.1094</ele>
        <time>2013-05-11T16:38:32Z</time>
      </trkpt>
      <trkpt lat="59.9776678" lon="17.7390953">
        <ele>38.1094</ele>
        <time>2013-05-11T16:38:33Z</time>
      </trkpt>
      <trkpt lat="59.9776963" lon="17.7390965">
        <ele>37.6287</ele>
        <time>2013-05-11T16:38:34Z</time>
      </trkpt>
      <trkpt lat="59.9777255" lon="17.7391006">
        <ele>37.6287</ele>
        <time>2013-05-11T16:38:35Z</time>
      </trkpt>
      <trkpt lat="59.9777553" lon="17.7391081">
        <ele>37.6287</ele>
        <time>2013-05-11T16:38:36Z</time>
      </trkpt>
      <trkpt lat="59.9777856" lon="17.7391144">
        <ele>38.1094</ele>
        <time>2013-05-11T16:38:37Z</time>
      </trkpt>
      <trkpt lat="59.9778151" lon="17.7391233">
        <ele>38.1094</ele>
        <time>2013-05-11T16:38:38Z</time>
      </trkpt>
      <trkpt lat="59.9778446" lon="17.7391357">
        <ele>38.1094</ele>
        <time>2013-05-11T16:38:39Z</time>
      </trkpt>
      <trkpt lat="59.9778711" lon="17.7391519">
        <ele>37.6287</ele>
        <time>2013-05-11T16:38:40Z</time>
      </trkpt>
      <trkpt lat="59.9779004" lon="17.7391663">
        <ele>38.1094</ele>
        <time>2013-05-11T16:38:41Z</time>
      </trkpt>
      <trkpt lat="59.9779291" lon="17.7391865">
        <ele>37.6287</ele>
        <time>2013-05-11T16:38:42Z</time>
      </trkpt>
      <trkpt lat="59.9779564" lon="17.7392057">
        <ele>37.1481</ele>
        <time>2013-05-11T16:38:43Z</time>
      </trkpt>
      <trkpt lat="59.9779861" lon="17.7392223">
        <ele>37.6287</ele>
        <time>2013-05-11T16:38:44Z</time>
      </trkpt>
      <trkpt lat="59.9780247" lon="17.739227">
        <ele>40.0321</ele>
        <time>2013-05-11T16:38:45Z</time>
      </trkpt>
      <trkpt lat="59.9780512" lon="17.739244">
        <ele>40.0321</ele>
        <time>2013-05-11T16:38:46Z</time>
      </trkpt>
      <trkpt lat="59.9780819" lon="17.7392605">
        <ele>39.5513</ele>
        <time>2013-05-11T16:38:47Z</time>
      </trkpt>
      <trkpt lat="59.9781133" lon="17.7392774">
        <ele>39.5513</ele>
        <time>2013-05-11T16:38:48Z</time>
      </trkpt>
      <trkpt lat="59.978143" lon="17.7392933">
        <ele>39.0707</ele>
        <time>2013-05-11T16:38:49Z</time>
      </trkpt>
      <trkpt lat="59.9781697" lon="17.7393108">
        <ele>38.1094</ele>
        <time>2013-05-11T16:38:50Z</time>
      </trkpt>
      <trkpt lat="59.9781989" lon="17.7393262">
        <ele>37.6287</ele>
        <time>2013-05-11T16:38:51Z</time>
      </trkpt>
      <trkpt lat="59.9782317" lon="17.7393419">
        <ele>37.1481</ele>
        <time>2013-05-11T16:38:52Z</time>
      </trkpt>
      <trkpt lat="59.9782653" lon="17.7393482">
        <ele>36.1868</ele>
        <time>2013-05-11T16:38:53Z</time>
      </trkpt>
      <trkpt lat="59.9783023" lon="17.7393472">
        <ele>36.1868</ele>
        <time>2013-05-11T16:38:54Z</time>
      </trkpt>
      <trkpt lat="59.9783386" lon="17.7393495">
        <ele>36.1868</ele>
        <time>2013-05-11T16:38:55Z</time>
      </trkpt>
      <trkpt lat="59.9783731" lon="17.7393616">
        <ele>36.6675</ele>
        <time>2013-05-11T16:38:56Z</time>
      </trkpt>
      <trkpt lat="59.9784063" lon="17.7393712">
        <ele>36.6675</ele>
        <time>2013-05-11T16:38:57Z</time>
      </trkpt>
      <trkpt lat="59.9784486" lon="17.7393677">
        <ele>37.1481</ele>
        <time>2013-05-11T16:38:58Z</time>
      </trkpt>
      <trkpt lat="59.9784836" lon="17.7393735">
        <ele>37.1481</ele>
        <time>2013-05-11T16:38:59Z</time>
      </trkpt>
      <trkpt lat="59.9785212" lon="17.739378">
        <ele>36.6675</ele>
        <time>2013-05-11T16:39:00Z</time>
      </trkpt>
      <trkpt lat="59.97856" lon="17.7393838">
        <ele>36.6675</ele>
        <time>2013-05-11T16:39:01Z</time>
      </trkpt>
      <trkpt lat="59.9785993" lon="17.7393902">
        <ele>36.6675</ele>
        <time>2013-05-11T16:39:02Z</time>
      </trkpt>
    </trkseg>
  </trk>
</gpx>